<?xml version="1.0" encoding="UTF-8" standalone="no" ?>
<gpx xmlns="http://www.topografix.com/GPX/1/1" xmlns:xsi="http://www.w3.org/2001/XMLSchema-instance" xsi:schemaLocation="http://www.topografix.com/GPX/1/1 http://www.topografix.com/GPX/1/1/gpx.xsd" version="1.1" creator="VisuGPX - https://www.visugpx.com">
  <metadata>
    <name>2024-05-05_09-55_Sun  Arthies Villarceaux</name>
  </metadata>
  <trk>
    <name><![CDATA[2024-05-05_09-55_Sun  Arthies Villarceaux_1]]></name>
    <trkseg>
      <trkpt lat="49.09421" lon="1.79002">
        <ele>168.7</ele>
        <time>2024-05-05T07:55:08Z</time>
      </trkpt>
      <trkpt lat="49.09412" lon="1.78995">
        <ele>169.5</ele>
        <time>2024-05-05T07:55:13Z</time>
      </trkpt>
      <trkpt lat="49.09416" lon="1.78988">
        <ele>169.5</ele>
        <time>2024-05-05T07:55:18Z</time>
      </trkpt>
      <trkpt lat="49.09421" lon="1.78987">
        <ele>169.2</ele>
        <time>2024-05-05T07:55:24Z</time>
      </trkpt>
      <trkpt lat="49.09427" lon="1.78987">
        <ele>168.7</ele>
        <time>2024-05-05T07:55:29Z</time>
      </trkpt>
      <trkpt lat="49.09432" lon="1.78983">
        <ele>168.5</ele>
        <time>2024-05-05T07:55:35Z</time>
      </trkpt>
      <trkpt lat="49.09435" lon="1.78976">
        <ele>168.5</ele>
        <time>2024-05-05T07:55:41Z</time>
      </trkpt>
      <trkpt lat="49.09431" lon="1.78968">
        <ele>169.2</ele>
        <time>2024-05-05T07:55:46Z</time>
      </trkpt>
      <trkpt lat="49.09431" lon="1.78958">
        <ele>170</ele>
        <time>2024-05-05T07:55:51Z</time>
      </trkpt>
      <trkpt lat="49.09426" lon="1.7897">
        <ele>169.5</ele>
        <time>2024-05-05T07:55:57Z</time>
      </trkpt>
      <trkpt lat="49.09429" lon="1.78978">
        <ele>168.9</ele>
        <time>2024-05-05T07:56:02Z</time>
      </trkpt>
      <trkpt lat="49.09442" lon="1.7898">
        <ele>167.9</ele>
        <time>2024-05-05T07:56:08Z</time>
      </trkpt>
      <trkpt lat="49.09455" lon="1.78982">
        <ele>167.3</ele>
        <time>2024-05-05T07:56:14Z</time>
      </trkpt>
      <trkpt lat="49.09469" lon="1.78984">
        <ele>166.7</ele>
        <time>2024-05-05T07:56:20Z</time>
      </trkpt>
      <trkpt lat="49.09476" lon="1.78987">
        <ele>166.3</ele>
        <time>2024-05-05T07:56:25Z</time>
      </trkpt>
      <trkpt lat="49.09479" lon="1.78983">
        <ele>166.3</ele>
        <time>2024-05-05T07:56:30Z</time>
      </trkpt>
      <trkpt lat="49.09486" lon="1.78985">
        <ele>165.8</ele>
        <time>2024-05-05T07:56:35Z</time>
      </trkpt>
      <trkpt lat="49.09495" lon="1.78992">
        <ele>164.9</ele>
        <time>2024-05-05T07:56:41Z</time>
      </trkpt>
      <trkpt lat="49.09507" lon="1.78997">
        <ele>164</ele>
        <time>2024-05-05T07:56:46Z</time>
      </trkpt>
      <trkpt lat="49.0952" lon="1.79003">
        <ele>163.3</ele>
        <time>2024-05-05T07:56:51Z</time>
      </trkpt>
      <trkpt lat="49.09533" lon="1.79008">
        <ele>162.8</ele>
        <time>2024-05-05T07:56:57Z</time>
      </trkpt>
      <trkpt lat="49.09538" lon="1.79009">
        <ele>162.5</ele>
        <time>2024-05-05T07:57:03Z</time>
      </trkpt>
      <trkpt lat="49.09559" lon="1.79026">
        <ele>160.9</ele>
        <time>2024-05-05T07:57:09Z</time>
      </trkpt>
      <trkpt lat="49.09567" lon="1.79041">
        <ele>160.4</ele>
        <time>2024-05-05T07:57:14Z</time>
      </trkpt>
      <trkpt lat="49.09572" lon="1.79031">
        <ele>160.3</ele>
        <time>2024-05-05T07:57:20Z</time>
      </trkpt>
      <trkpt lat="49.09574" lon="1.79031">
        <ele>160.2</ele>
        <time>2024-05-05T07:57:25Z</time>
      </trkpt>
      <trkpt lat="49.09576" lon="1.79033">
        <ele>160.1</ele>
        <time>2024-05-05T07:57:31Z</time>
      </trkpt>
      <trkpt lat="49.09578" lon="1.79033">
        <ele>160</ele>
        <time>2024-05-05T07:57:36Z</time>
      </trkpt>
      <trkpt lat="49.09582" lon="1.79039">
        <ele>159.7</ele>
        <time>2024-05-05T07:57:42Z</time>
      </trkpt>
      <trkpt lat="49.09588" lon="1.79045">
        <ele>159.3</ele>
        <time>2024-05-05T07:57:48Z</time>
      </trkpt>
      <trkpt lat="49.09596" lon="1.79048">
        <ele>158.9</ele>
        <time>2024-05-05T07:57:54Z</time>
      </trkpt>
      <trkpt lat="49.096" lon="1.79054">
        <ele>158.5</ele>
        <time>2024-05-05T07:57:59Z</time>
      </trkpt>
      <trkpt lat="49.09609" lon="1.7906">
        <ele>158.1</ele>
        <time>2024-05-05T07:58:05Z</time>
      </trkpt>
      <trkpt lat="49.09614" lon="1.79067">
        <ele>158</ele>
        <time>2024-05-05T07:58:10Z</time>
      </trkpt>
      <trkpt lat="49.09618" lon="1.79072">
        <ele>157.9</ele>
        <time>2024-05-05T07:58:16Z</time>
      </trkpt>
      <trkpt lat="49.0962" lon="1.79073">
        <ele>157.8</ele>
        <time>2024-05-05T07:58:21Z</time>
      </trkpt>
      <trkpt lat="49.09628" lon="1.79078">
        <ele>157.5</ele>
        <time>2024-05-05T07:58:26Z</time>
      </trkpt>
      <trkpt lat="49.09636" lon="1.79092">
        <ele>156.8</ele>
        <time>2024-05-05T07:58:32Z</time>
      </trkpt>
      <trkpt lat="49.09643" lon="1.791">
        <ele>156.3</ele>
        <time>2024-05-05T07:58:37Z</time>
      </trkpt>
      <trkpt lat="49.09649" lon="1.79106">
        <ele>155.8</ele>
        <time>2024-05-05T07:58:43Z</time>
      </trkpt>
      <trkpt lat="49.09654" lon="1.79111">
        <ele>155.5</ele>
        <time>2024-05-05T07:58:48Z</time>
      </trkpt>
      <trkpt lat="49.0966" lon="1.79115">
        <ele>155.2</ele>
        <time>2024-05-05T07:58:53Z</time>
      </trkpt>
      <trkpt lat="49.09669" lon="1.79118">
        <ele>155</ele>
        <time>2024-05-05T07:58:59Z</time>
      </trkpt>
      <trkpt lat="49.09676" lon="1.79121">
        <ele>154.9</ele>
        <time>2024-05-05T07:59:05Z</time>
      </trkpt>
      <trkpt lat="49.09682" lon="1.79125">
        <ele>154.7</ele>
        <time>2024-05-05T07:59:10Z</time>
      </trkpt>
      <trkpt lat="49.09687" lon="1.7913">
        <ele>154.5</ele>
        <time>2024-05-05T07:59:15Z</time>
      </trkpt>
      <trkpt lat="49.09694" lon="1.79137">
        <ele>154.1</ele>
        <time>2024-05-05T07:59:20Z</time>
      </trkpt>
      <trkpt lat="49.09701" lon="1.79141">
        <ele>153.8</ele>
        <time>2024-05-05T07:59:25Z</time>
      </trkpt>
      <trkpt lat="49.09705" lon="1.79134">
        <ele>153.8</ele>
        <time>2024-05-05T07:59:33Z</time>
      </trkpt>
      <trkpt lat="49.09704" lon="1.79122">
        <ele>154.3</ele>
        <time>2024-05-05T07:59:39Z</time>
      </trkpt>
      <trkpt lat="49.09707" lon="1.7911">
        <ele>154.6</ele>
        <time>2024-05-05T07:59:45Z</time>
      </trkpt>
      <trkpt lat="49.0971" lon="1.79102">
        <ele>154.8</ele>
        <time>2024-05-05T07:59:51Z</time>
      </trkpt>
      <trkpt lat="49.09714" lon="1.7909">
        <ele>155.1</ele>
        <time>2024-05-05T07:59:57Z</time>
      </trkpt>
      <trkpt lat="49.09717" lon="1.79079">
        <ele>155.2</ele>
        <time>2024-05-05T08:00:03Z</time>
      </trkpt>
      <trkpt lat="49.0972" lon="1.79068">
        <ele>155.1</ele>
        <time>2024-05-05T08:00:08Z</time>
      </trkpt>
      <trkpt lat="49.09723" lon="1.79054">
        <ele>154.9</ele>
        <time>2024-05-05T08:00:14Z</time>
      </trkpt>
      <trkpt lat="49.09725" lon="1.79045">
        <ele>154.4</ele>
        <time>2024-05-05T08:00:19Z</time>
      </trkpt>
      <trkpt lat="49.09729" lon="1.79035">
        <ele>153.8</ele>
        <time>2024-05-05T08:00:25Z</time>
      </trkpt>
      <trkpt lat="49.0973" lon="1.79025">
        <ele>153.4</ele>
        <time>2024-05-05T08:00:30Z</time>
      </trkpt>
      <trkpt lat="49.09732" lon="1.79014">
        <ele>153.1</ele>
        <time>2024-05-05T08:00:36Z</time>
      </trkpt>
      <trkpt lat="49.09735" lon="1.79008">
        <ele>152.8</ele>
        <time>2024-05-05T08:00:41Z</time>
      </trkpt>
      <trkpt lat="49.09739" lon="1.79003">
        <ele>152.2</ele>
        <time>2024-05-05T08:00:46Z</time>
      </trkpt>
      <trkpt lat="49.09745" lon="1.78993">
        <ele>151.5</ele>
        <time>2024-05-05T08:00:52Z</time>
      </trkpt>
      <trkpt lat="49.09749" lon="1.78977">
        <ele>151.1</ele>
        <time>2024-05-05T08:00:58Z</time>
      </trkpt>
      <trkpt lat="49.09754" lon="1.78968">
        <ele>150.6</ele>
        <time>2024-05-05T08:01:03Z</time>
      </trkpt>
      <trkpt lat="49.09755" lon="1.78955">
        <ele>150.1</ele>
        <time>2024-05-05T08:01:09Z</time>
      </trkpt>
      <trkpt lat="49.09757" lon="1.78947">
        <ele>149.6</ele>
        <time>2024-05-05T08:01:14Z</time>
      </trkpt>
      <trkpt lat="49.0976" lon="1.78935">
        <ele>149.3</ele>
        <time>2024-05-05T08:01:20Z</time>
      </trkpt>
      <trkpt lat="49.09761" lon="1.78925">
        <ele>149.2</ele>
        <time>2024-05-05T08:01:25Z</time>
      </trkpt>
      <trkpt lat="49.09764" lon="1.78913">
        <ele>149</ele>
        <time>2024-05-05T08:01:30Z</time>
      </trkpt>
      <trkpt lat="49.09766" lon="1.78901">
        <ele>148.9</ele>
        <time>2024-05-05T08:01:36Z</time>
      </trkpt>
      <trkpt lat="49.09768" lon="1.78893">
        <ele>148.7</ele>
        <time>2024-05-05T08:01:41Z</time>
      </trkpt>
      <trkpt lat="49.09774" lon="1.78884">
        <ele>148.2</ele>
        <time>2024-05-05T08:01:47Z</time>
      </trkpt>
      <trkpt lat="49.0978" lon="1.78877">
        <ele>147.9</ele>
        <time>2024-05-05T08:01:52Z</time>
      </trkpt>
      <trkpt lat="49.09785" lon="1.78866">
        <ele>147.5</ele>
        <time>2024-05-05T08:01:58Z</time>
      </trkpt>
      <trkpt lat="49.09788" lon="1.78857">
        <ele>147.2</ele>
        <time>2024-05-05T08:02:04Z</time>
      </trkpt>
      <trkpt lat="49.09793" lon="1.78849">
        <ele>146.9</ele>
        <time>2024-05-05T08:02:09Z</time>
      </trkpt>
      <trkpt lat="49.098" lon="1.78838">
        <ele>146.9</ele>
        <time>2024-05-05T08:02:15Z</time>
      </trkpt>
      <trkpt lat="49.09804" lon="1.78825">
        <ele>147</ele>
        <time>2024-05-05T08:02:21Z</time>
      </trkpt>
      <trkpt lat="49.09807" lon="1.7881">
        <ele>146.9</ele>
        <time>2024-05-05T08:02:27Z</time>
      </trkpt>
      <trkpt lat="49.09807" lon="1.78795">
        <ele>146.9</ele>
        <time>2024-05-05T08:02:33Z</time>
      </trkpt>
      <trkpt lat="49.09805" lon="1.78783">
        <ele>147</ele>
        <time>2024-05-05T08:02:39Z</time>
      </trkpt>
      <trkpt lat="49.09803" lon="1.78774">
        <ele>147.1</ele>
        <time>2024-05-05T08:02:44Z</time>
      </trkpt>
      <trkpt lat="49.098" lon="1.78761">
        <ele>147.2</ele>
        <time>2024-05-05T08:02:50Z</time>
      </trkpt>
      <trkpt lat="49.09798" lon="1.78749">
        <ele>147.2</ele>
        <time>2024-05-05T08:02:56Z</time>
      </trkpt>
      <trkpt lat="49.09796" lon="1.78737">
        <ele>146.9</ele>
        <time>2024-05-05T08:03:02Z</time>
      </trkpt>
      <trkpt lat="49.09792" lon="1.78726">
        <ele>146.6</ele>
        <time>2024-05-05T08:03:08Z</time>
      </trkpt>
      <trkpt lat="49.09791" lon="1.78717">
        <ele>146.3</ele>
        <time>2024-05-05T08:03:13Z</time>
      </trkpt>
      <trkpt lat="49.09791" lon="1.78705">
        <ele>145.9</ele>
        <time>2024-05-05T08:03:19Z</time>
      </trkpt>
      <trkpt lat="49.09792" lon="1.78694">
        <ele>145.5</ele>
        <time>2024-05-05T08:03:24Z</time>
      </trkpt>
      <trkpt lat="49.09794" lon="1.78686">
        <ele>145.1</ele>
        <time>2024-05-05T08:03:29Z</time>
      </trkpt>
      <trkpt lat="49.09793" lon="1.78676">
        <ele>144.8</ele>
        <time>2024-05-05T08:03:34Z</time>
      </trkpt>
      <trkpt lat="49.09792" lon="1.78661">
        <ele>144.3</ele>
        <time>2024-05-05T08:03:40Z</time>
      </trkpt>
      <trkpt lat="49.09792" lon="1.7865">
        <ele>143.9</ele>
        <time>2024-05-05T08:03:45Z</time>
      </trkpt>
      <trkpt lat="49.09791" lon="1.78639">
        <ele>143.5</ele>
        <time>2024-05-05T08:03:51Z</time>
      </trkpt>
      <trkpt lat="49.0979" lon="1.78629">
        <ele>143.2</ele>
        <time>2024-05-05T08:03:56Z</time>
      </trkpt>
      <trkpt lat="49.09789" lon="1.78619">
        <ele>142.9</ele>
        <time>2024-05-05T08:04:01Z</time>
      </trkpt>
      <trkpt lat="49.09791" lon="1.78608">
        <ele>142.4</ele>
        <time>2024-05-05T08:04:07Z</time>
      </trkpt>
      <trkpt lat="49.09792" lon="1.78596">
        <ele>141.9</ele>
        <time>2024-05-05T08:04:13Z</time>
      </trkpt>
      <trkpt lat="49.09793" lon="1.78584">
        <ele>141.5</ele>
        <time>2024-05-05T08:04:18Z</time>
      </trkpt>
      <trkpt lat="49.09793" lon="1.78571">
        <ele>141.5</ele>
        <time>2024-05-05T08:04:24Z</time>
      </trkpt>
      <trkpt lat="49.09793" lon="1.78559">
        <ele>141.5</ele>
        <time>2024-05-05T08:04:30Z</time>
      </trkpt>
      <trkpt lat="49.09794" lon="1.78547">
        <ele>141.4</ele>
        <time>2024-05-05T08:04:35Z</time>
      </trkpt>
      <trkpt lat="49.09792" lon="1.78532">
        <ele>141.5</ele>
        <time>2024-05-05T08:04:41Z</time>
      </trkpt>
      <trkpt lat="49.09793" lon="1.78523">
        <ele>141.4</ele>
        <time>2024-05-05T08:04:47Z</time>
      </trkpt>
      <trkpt lat="49.09795" lon="1.78514">
        <ele>141.4</ele>
        <time>2024-05-05T08:04:52Z</time>
      </trkpt>
      <trkpt lat="49.09797" lon="1.78498">
        <ele>141.3</ele>
        <time>2024-05-05T08:04:58Z</time>
      </trkpt>
      <trkpt lat="49.09798" lon="1.78486">
        <ele>141.3</ele>
        <time>2024-05-05T08:05:04Z</time>
      </trkpt>
      <trkpt lat="49.098" lon="1.78475">
        <ele>141.2</ele>
        <time>2024-05-05T08:05:10Z</time>
      </trkpt>
      <trkpt lat="49.09804" lon="1.78466">
        <ele>141</ele>
        <time>2024-05-05T08:05:15Z</time>
      </trkpt>
      <trkpt lat="49.09807" lon="1.78454">
        <ele>140.9</ele>
        <time>2024-05-05T08:05:21Z</time>
      </trkpt>
      <trkpt lat="49.09809" lon="1.78445">
        <ele>140.9</ele>
        <time>2024-05-05T08:05:27Z</time>
      </trkpt>
      <trkpt lat="49.09813" lon="1.78434">
        <ele>140.8</ele>
        <time>2024-05-05T08:05:32Z</time>
      </trkpt>
      <trkpt lat="49.09816" lon="1.78423">
        <ele>140.9</ele>
        <time>2024-05-05T08:05:38Z</time>
      </trkpt>
      <trkpt lat="49.09819" lon="1.78413">
        <ele>141.1</ele>
        <time>2024-05-05T08:05:44Z</time>
      </trkpt>
      <trkpt lat="49.09822" lon="1.78401">
        <ele>141.5</ele>
        <time>2024-05-05T08:05:50Z</time>
      </trkpt>
      <trkpt lat="49.09823" lon="1.78391">
        <ele>141.9</ele>
        <time>2024-05-05T08:05:55Z</time>
      </trkpt>
      <trkpt lat="49.09826" lon="1.78382">
        <ele>142.2</ele>
        <time>2024-05-05T08:06:00Z</time>
      </trkpt>
      <trkpt lat="49.09828" lon="1.78371">
        <ele>142.5</ele>
        <time>2024-05-05T08:06:05Z</time>
      </trkpt>
      <trkpt lat="49.09832" lon="1.7836">
        <ele>143</ele>
        <time>2024-05-05T08:06:11Z</time>
      </trkpt>
      <trkpt lat="49.09835" lon="1.78351">
        <ele>143.4</ele>
        <time>2024-05-05T08:06:16Z</time>
      </trkpt>
      <trkpt lat="49.09838" lon="1.78342">
        <ele>143.9</ele>
        <time>2024-05-05T08:06:21Z</time>
      </trkpt>
      <trkpt lat="49.09839" lon="1.78329">
        <ele>144.3</ele>
        <time>2024-05-05T08:06:27Z</time>
      </trkpt>
      <trkpt lat="49.09841" lon="1.78319">
        <ele>144.8</ele>
        <time>2024-05-05T08:06:33Z</time>
      </trkpt>
      <trkpt lat="49.09843" lon="1.7831">
        <ele>145.2</ele>
        <time>2024-05-05T08:06:38Z</time>
      </trkpt>
      <trkpt lat="49.09845" lon="1.78299">
        <ele>145.7</ele>
        <time>2024-05-05T08:06:44Z</time>
      </trkpt>
      <trkpt lat="49.09848" lon="1.78288">
        <ele>146.2</ele>
        <time>2024-05-05T08:06:50Z</time>
      </trkpt>
      <trkpt lat="49.09851" lon="1.78278">
        <ele>146.6</ele>
        <time>2024-05-05T08:06:56Z</time>
      </trkpt>
      <trkpt lat="49.09853" lon="1.78269">
        <ele>147.1</ele>
        <time>2024-05-05T08:07:01Z</time>
      </trkpt>
      <trkpt lat="49.09855" lon="1.78258">
        <ele>147.6</ele>
        <time>2024-05-05T08:07:07Z</time>
      </trkpt>
      <trkpt lat="49.09858" lon="1.78248">
        <ele>148.1</ele>
        <time>2024-05-05T08:07:12Z</time>
      </trkpt>
      <trkpt lat="49.09861" lon="1.78235">
        <ele>148.6</ele>
        <time>2024-05-05T08:07:18Z</time>
      </trkpt>
      <trkpt lat="49.09863" lon="1.78227">
        <ele>148.8</ele>
        <time>2024-05-05T08:07:23Z</time>
      </trkpt>
      <trkpt lat="49.09864" lon="1.78217">
        <ele>149</ele>
        <time>2024-05-05T08:07:29Z</time>
      </trkpt>
      <trkpt lat="49.09864" lon="1.78207">
        <ele>149.1</ele>
        <time>2024-05-05T08:07:34Z</time>
      </trkpt>
      <trkpt lat="49.09865" lon="1.78194">
        <ele>149.2</ele>
        <time>2024-05-05T08:07:40Z</time>
      </trkpt>
      <trkpt lat="49.09865" lon="1.78184">
        <ele>149.5</ele>
        <time>2024-05-05T08:07:45Z</time>
      </trkpt>
      <trkpt lat="49.09866" lon="1.78173">
        <ele>149.8</ele>
        <time>2024-05-05T08:07:51Z</time>
      </trkpt>
      <trkpt lat="49.09867" lon="1.78162">
        <ele>150.2</ele>
        <time>2024-05-05T08:07:56Z</time>
      </trkpt>
      <trkpt lat="49.09867" lon="1.78149">
        <ele>150.6</ele>
        <time>2024-05-05T08:08:02Z</time>
      </trkpt>
      <trkpt lat="49.09867" lon="1.78138">
        <ele>151</ele>
        <time>2024-05-05T08:08:08Z</time>
      </trkpt>
      <trkpt lat="49.09868" lon="1.78128">
        <ele>151.4</ele>
        <time>2024-05-05T08:08:13Z</time>
      </trkpt>
      <trkpt lat="49.09869" lon="1.78116">
        <ele>151.8</ele>
        <time>2024-05-05T08:08:19Z</time>
      </trkpt>
      <trkpt lat="49.09869" lon="1.78106">
        <ele>152.2</ele>
        <time>2024-05-05T08:08:24Z</time>
      </trkpt>
      <trkpt lat="49.0987" lon="1.78095">
        <ele>152.6</ele>
        <time>2024-05-05T08:08:30Z</time>
      </trkpt>
      <trkpt lat="49.09871" lon="1.78083">
        <ele>153</ele>
        <time>2024-05-05T08:08:36Z</time>
      </trkpt>
      <trkpt lat="49.09872" lon="1.78073">
        <ele>153.4</ele>
        <time>2024-05-05T08:08:41Z</time>
      </trkpt>
      <trkpt lat="49.09872" lon="1.78061">
        <ele>153.8</ele>
        <time>2024-05-05T08:08:47Z</time>
      </trkpt>
      <trkpt lat="49.09873" lon="1.78047">
        <ele>154.1</ele>
        <time>2024-05-05T08:08:53Z</time>
      </trkpt>
      <trkpt lat="49.09874" lon="1.78035">
        <ele>154.3</ele>
        <time>2024-05-05T08:08:59Z</time>
      </trkpt>
      <trkpt lat="49.09874" lon="1.78026">
        <ele>154.5</ele>
        <time>2024-05-05T08:09:04Z</time>
      </trkpt>
      <trkpt lat="49.09876" lon="1.78017">
        <ele>154.7</ele>
        <time>2024-05-05T08:09:09Z</time>
      </trkpt>
      <trkpt lat="49.09878" lon="1.78004">
        <ele>154.9</ele>
        <time>2024-05-05T08:09:15Z</time>
      </trkpt>
      <trkpt lat="49.09879" lon="1.77991">
        <ele>155.3</ele>
        <time>2024-05-05T08:09:21Z</time>
      </trkpt>
      <trkpt lat="49.09881" lon="1.7798">
        <ele>155.7</ele>
        <time>2024-05-05T08:09:27Z</time>
      </trkpt>
      <trkpt lat="49.09882" lon="1.77965">
        <ele>156.3</ele>
        <time>2024-05-05T08:09:33Z</time>
      </trkpt>
      <trkpt lat="49.09882" lon="1.77953">
        <ele>156.7</ele>
        <time>2024-05-05T08:09:39Z</time>
      </trkpt>
      <trkpt lat="49.09882" lon="1.77945">
        <ele>157</ele>
        <time>2024-05-05T08:09:44Z</time>
      </trkpt>
      <trkpt lat="49.09885" lon="1.77936">
        <ele>157.3</ele>
        <time>2024-05-05T08:09:50Z</time>
      </trkpt>
      <trkpt lat="49.09885" lon="1.77924">
        <ele>157.8</ele>
        <time>2024-05-05T08:09:56Z</time>
      </trkpt>
      <trkpt lat="49.09885" lon="1.77913">
        <ele>158.1</ele>
        <time>2024-05-05T08:10:02Z</time>
      </trkpt>
      <trkpt lat="49.09887" lon="1.77901">
        <ele>158.6</ele>
        <time>2024-05-05T08:10:08Z</time>
      </trkpt>
      <trkpt lat="49.09887" lon="1.77888">
        <ele>159</ele>
        <time>2024-05-05T08:10:14Z</time>
      </trkpt>
      <trkpt lat="49.0989" lon="1.77878">
        <ele>159.4</ele>
        <time>2024-05-05T08:10:20Z</time>
      </trkpt>
      <trkpt lat="49.09894" lon="1.77867">
        <ele>159.8</ele>
        <time>2024-05-05T08:10:26Z</time>
      </trkpt>
      <trkpt lat="49.09898" lon="1.7786">
        <ele>160.1</ele>
        <time>2024-05-05T08:10:31Z</time>
      </trkpt>
      <trkpt lat="49.09904" lon="1.77854">
        <ele>160.3</ele>
        <time>2024-05-05T08:10:36Z</time>
      </trkpt>
      <trkpt lat="49.0991" lon="1.77847">
        <ele>160.5</ele>
        <time>2024-05-05T08:10:42Z</time>
      </trkpt>
      <trkpt lat="49.09917" lon="1.7784">
        <ele>160.7</ele>
        <time>2024-05-05T08:10:48Z</time>
      </trkpt>
      <trkpt lat="49.09923" lon="1.77834">
        <ele>160.8</ele>
        <time>2024-05-05T08:10:53Z</time>
      </trkpt>
      <trkpt lat="49.0993" lon="1.77828">
        <ele>160.8</ele>
        <time>2024-05-05T08:10:59Z</time>
      </trkpt>
      <trkpt lat="49.09936" lon="1.7782">
        <ele>161.1</ele>
        <time>2024-05-05T08:11:05Z</time>
      </trkpt>
      <trkpt lat="49.09943" lon="1.77813">
        <ele>161.5</ele>
        <time>2024-05-05T08:11:11Z</time>
      </trkpt>
      <trkpt lat="49.09951" lon="1.77807">
        <ele>161.9</ele>
        <time>2024-05-05T08:11:17Z</time>
      </trkpt>
      <trkpt lat="49.09954" lon="1.77801">
        <ele>162.2</ele>
        <time>2024-05-05T08:11:22Z</time>
      </trkpt>
      <trkpt lat="49.09951" lon="1.77796">
        <ele>162.4</ele>
        <time>2024-05-05T08:11:28Z</time>
      </trkpt>
      <trkpt lat="49.09948" lon="1.77788">
        <ele>162.6</ele>
        <time>2024-05-05T08:11:33Z</time>
      </trkpt>
      <trkpt lat="49.09945" lon="1.7778">
        <ele>162.9</ele>
        <time>2024-05-05T08:11:38Z</time>
      </trkpt>
      <trkpt lat="49.09943" lon="1.77772">
        <ele>163</ele>
        <time>2024-05-05T08:11:43Z</time>
      </trkpt>
      <trkpt lat="49.09942" lon="1.77771">
        <ele>163</ele>
        <time>2024-05-05T08:11:49Z</time>
      </trkpt>
      <trkpt lat="49.09942" lon="1.77771">
        <ele>163</ele>
        <time>2024-05-05T08:11:55Z</time>
      </trkpt>
      <trkpt lat="49.09943" lon="1.7777">
        <ele>163</ele>
        <time>2024-05-05T08:12:00Z</time>
      </trkpt>
      <trkpt lat="49.09943" lon="1.77771">
        <ele>163</ele>
        <time>2024-05-05T08:12:05Z</time>
      </trkpt>
      <trkpt lat="49.09943" lon="1.77773">
        <ele>163</ele>
        <time>2024-05-05T08:12:10Z</time>
      </trkpt>
      <trkpt lat="49.09943" lon="1.77774">
        <ele>163</ele>
        <time>2024-05-05T08:12:16Z</time>
      </trkpt>
      <trkpt lat="49.09945" lon="1.77783">
        <ele>162.8</ele>
        <time>2024-05-05T08:12:22Z</time>
      </trkpt>
      <trkpt lat="49.0995" lon="1.77794">
        <ele>162.4</ele>
        <time>2024-05-05T08:12:28Z</time>
      </trkpt>
      <trkpt lat="49.09954" lon="1.77789">
        <ele>162.6</ele>
        <time>2024-05-05T08:12:34Z</time>
      </trkpt>
      <trkpt lat="49.09953" lon="1.7778">
        <ele>162.9</ele>
        <time>2024-05-05T08:12:39Z</time>
      </trkpt>
      <trkpt lat="49.09955" lon="1.77769">
        <ele>163.1</ele>
        <time>2024-05-05T08:12:45Z</time>
      </trkpt>
      <trkpt lat="49.09958" lon="1.77757">
        <ele>163.4</ele>
        <time>2024-05-05T08:12:50Z</time>
      </trkpt>
      <trkpt lat="49.09961" lon="1.77747">
        <ele>163.7</ele>
        <time>2024-05-05T08:12:56Z</time>
      </trkpt>
      <trkpt lat="49.09962" lon="1.77736">
        <ele>164.1</ele>
        <time>2024-05-05T08:13:01Z</time>
      </trkpt>
      <trkpt lat="49.09965" lon="1.77725">
        <ele>164.6</ele>
        <time>2024-05-05T08:13:07Z</time>
      </trkpt>
      <trkpt lat="49.09966" lon="1.77717">
        <ele>165</ele>
        <time>2024-05-05T08:13:13Z</time>
      </trkpt>
      <trkpt lat="49.09966" lon="1.77708">
        <ele>165.3</ele>
        <time>2024-05-05T08:13:18Z</time>
      </trkpt>
      <trkpt lat="49.09966" lon="1.77697">
        <ele>165.7</ele>
        <time>2024-05-05T08:13:24Z</time>
      </trkpt>
      <trkpt lat="49.09965" lon="1.77687">
        <ele>166.1</ele>
        <time>2024-05-05T08:13:29Z</time>
      </trkpt>
      <trkpt lat="49.09968" lon="1.77673">
        <ele>166.7</ele>
        <time>2024-05-05T08:13:35Z</time>
      </trkpt>
      <trkpt lat="49.09971" lon="1.77664">
        <ele>167.1</ele>
        <time>2024-05-05T08:13:40Z</time>
      </trkpt>
      <trkpt lat="49.09974" lon="1.77651">
        <ele>167.6</ele>
        <time>2024-05-05T08:13:46Z</time>
      </trkpt>
      <trkpt lat="49.09977" lon="1.7764">
        <ele>168</ele>
        <time>2024-05-05T08:13:52Z</time>
      </trkpt>
      <trkpt lat="49.09979" lon="1.7763">
        <ele>168.3</ele>
        <time>2024-05-05T08:13:57Z</time>
      </trkpt>
      <trkpt lat="49.09981" lon="1.77619">
        <ele>168.7</ele>
        <time>2024-05-05T08:14:03Z</time>
      </trkpt>
      <trkpt lat="49.09984" lon="1.7761">
        <ele>169</ele>
        <time>2024-05-05T08:14:09Z</time>
      </trkpt>
      <trkpt lat="49.09985" lon="1.776">
        <ele>169.2</ele>
        <time>2024-05-05T08:14:14Z</time>
      </trkpt>
      <trkpt lat="49.09985" lon="1.77591">
        <ele>169.4</ele>
        <time>2024-05-05T08:14:19Z</time>
      </trkpt>
      <trkpt lat="49.09981" lon="1.77581">
        <ele>169.7</ele>
        <time>2024-05-05T08:14:25Z</time>
      </trkpt>
      <trkpt lat="49.09977" lon="1.77572">
        <ele>169.8</ele>
        <time>2024-05-05T08:14:31Z</time>
      </trkpt>
      <trkpt lat="49.09973" lon="1.77566">
        <ele>170</ele>
        <time>2024-05-05T08:14:36Z</time>
      </trkpt>
      <trkpt lat="49.09969" lon="1.77557">
        <ele>170</ele>
        <time>2024-05-05T08:14:41Z</time>
      </trkpt>
      <trkpt lat="49.09965" lon="1.77546">
        <ele>169.7</ele>
        <time>2024-05-05T08:14:47Z</time>
      </trkpt>
      <trkpt lat="49.09962" lon="1.7754">
        <ele>169.4</ele>
        <time>2024-05-05T08:14:52Z</time>
      </trkpt>
      <trkpt lat="49.09961" lon="1.77528">
        <ele>169</ele>
        <time>2024-05-05T08:14:58Z</time>
      </trkpt>
      <trkpt lat="49.09961" lon="1.77519">
        <ele>168.9</ele>
        <time>2024-05-05T08:15:03Z</time>
      </trkpt>
      <trkpt lat="49.09966" lon="1.77511">
        <ele>168.7</ele>
        <time>2024-05-05T08:15:09Z</time>
      </trkpt>
      <trkpt lat="49.09972" lon="1.77506">
        <ele>168.2</ele>
        <time>2024-05-05T08:15:15Z</time>
      </trkpt>
      <trkpt lat="49.09978" lon="1.77503">
        <ele>167.9</ele>
        <time>2024-05-05T08:15:20Z</time>
      </trkpt>
      <trkpt lat="49.09982" lon="1.77496">
        <ele>167.6</ele>
        <time>2024-05-05T08:15:25Z</time>
      </trkpt>
      <trkpt lat="49.09985" lon="1.77486">
        <ele>167.3</ele>
        <time>2024-05-05T08:15:30Z</time>
      </trkpt>
      <trkpt lat="49.09987" lon="1.77473">
        <ele>166.9</ele>
        <time>2024-05-05T08:15:36Z</time>
      </trkpt>
      <trkpt lat="49.0999" lon="1.77462">
        <ele>166.4</ele>
        <time>2024-05-05T08:15:42Z</time>
      </trkpt>
      <trkpt lat="49.09992" lon="1.77455">
        <ele>165.9</ele>
        <time>2024-05-05T08:15:47Z</time>
      </trkpt>
      <trkpt lat="49.09995" lon="1.77442">
        <ele>165.3</ele>
        <time>2024-05-05T08:15:52Z</time>
      </trkpt>
      <trkpt lat="49.09996" lon="1.7743">
        <ele>164.7</ele>
        <time>2024-05-05T08:15:58Z</time>
      </trkpt>
      <trkpt lat="49.09994" lon="1.7742">
        <ele>164.4</ele>
        <time>2024-05-05T08:16:04Z</time>
      </trkpt>
      <trkpt lat="49.09995" lon="1.77407">
        <ele>163.8</ele>
        <time>2024-05-05T08:16:09Z</time>
      </trkpt>
      <trkpt lat="49.09995" lon="1.77392">
        <ele>163.3</ele>
        <time>2024-05-05T08:16:14Z</time>
      </trkpt>
      <trkpt lat="49.09997" lon="1.7738">
        <ele>162.8</ele>
        <time>2024-05-05T08:16:20Z</time>
      </trkpt>
      <trkpt lat="49.10004" lon="1.7737">
        <ele>162.2</ele>
        <time>2024-05-05T08:16:26Z</time>
      </trkpt>
      <trkpt lat="49.1001" lon="1.77365">
        <ele>161.8</ele>
        <time>2024-05-05T08:16:31Z</time>
      </trkpt>
      <trkpt lat="49.10015" lon="1.77359">
        <ele>161.4</ele>
        <time>2024-05-05T08:16:36Z</time>
      </trkpt>
      <trkpt lat="49.1002" lon="1.77351">
        <ele>160.8</ele>
        <time>2024-05-05T08:16:42Z</time>
      </trkpt>
      <trkpt lat="49.10025" lon="1.77342">
        <ele>160.3</ele>
        <time>2024-05-05T08:16:47Z</time>
      </trkpt>
      <trkpt lat="49.10033" lon="1.77335">
        <ele>159.9</ele>
        <time>2024-05-05T08:16:53Z</time>
      </trkpt>
      <trkpt lat="49.10038" lon="1.77333">
        <ele>159.6</ele>
        <time>2024-05-05T08:16:58Z</time>
      </trkpt>
      <trkpt lat="49.10042" lon="1.77325">
        <ele>158.9</ele>
        <time>2024-05-05T08:17:03Z</time>
      </trkpt>
      <trkpt lat="49.10048" lon="1.77317">
        <ele>158.1</ele>
        <time>2024-05-05T08:17:09Z</time>
      </trkpt>
      <trkpt lat="49.10055" lon="1.77309">
        <ele>157.2</ele>
        <time>2024-05-05T08:17:15Z</time>
      </trkpt>
      <trkpt lat="49.10063" lon="1.77302">
        <ele>156.9</ele>
        <time>2024-05-05T08:17:21Z</time>
      </trkpt>
      <trkpt lat="49.1007" lon="1.77297">
        <ele>156.7</ele>
        <time>2024-05-05T08:17:26Z</time>
      </trkpt>
      <trkpt lat="49.10078" lon="1.77292">
        <ele>156.5</ele>
        <time>2024-05-05T08:17:32Z</time>
      </trkpt>
      <trkpt lat="49.10086" lon="1.77289">
        <ele>156.3</ele>
        <time>2024-05-05T08:17:38Z</time>
      </trkpt>
      <trkpt lat="49.10093" lon="1.77287">
        <ele>155.9</ele>
        <time>2024-05-05T08:17:43Z</time>
      </trkpt>
      <trkpt lat="49.10097" lon="1.77285">
        <ele>155.7</ele>
        <time>2024-05-05T08:17:49Z</time>
      </trkpt>
      <trkpt lat="49.10102" lon="1.77284">
        <ele>155.4</ele>
        <time>2024-05-05T08:17:54Z</time>
      </trkpt>
      <trkpt lat="49.10111" lon="1.77283">
        <ele>155</ele>
        <time>2024-05-05T08:18:00Z</time>
      </trkpt>
      <trkpt lat="49.10122" lon="1.77282">
        <ele>154.6</ele>
        <time>2024-05-05T08:18:06Z</time>
      </trkpt>
      <trkpt lat="49.1013" lon="1.7728">
        <ele>154.3</ele>
        <time>2024-05-05T08:18:12Z</time>
      </trkpt>
      <trkpt lat="49.10137" lon="1.7728">
        <ele>154.1</ele>
        <time>2024-05-05T08:18:18Z</time>
      </trkpt>
      <trkpt lat="49.10146" lon="1.7728">
        <ele>153.5</ele>
        <time>2024-05-05T08:18:24Z</time>
      </trkpt>
      <trkpt lat="49.10155" lon="1.77278">
        <ele>152.9</ele>
        <time>2024-05-05T08:18:30Z</time>
      </trkpt>
      <trkpt lat="49.10163" lon="1.77276">
        <ele>152.2</ele>
        <time>2024-05-05T08:18:36Z</time>
      </trkpt>
      <trkpt lat="49.10172" lon="1.77276">
        <ele>151.8</ele>
        <time>2024-05-05T08:18:42Z</time>
      </trkpt>
      <trkpt lat="49.1018" lon="1.77274">
        <ele>151.5</ele>
        <time>2024-05-05T08:18:48Z</time>
      </trkpt>
      <trkpt lat="49.10188" lon="1.77271">
        <ele>151.2</ele>
        <time>2024-05-05T08:18:53Z</time>
      </trkpt>
      <trkpt lat="49.10196" lon="1.77267">
        <ele>150.9</ele>
        <time>2024-05-05T08:18:58Z</time>
      </trkpt>
      <trkpt lat="49.10205" lon="1.77264">
        <ele>150.6</ele>
        <time>2024-05-05T08:19:04Z</time>
      </trkpt>
      <trkpt lat="49.10211" lon="1.77262">
        <ele>150.4</ele>
        <time>2024-05-05T08:19:09Z</time>
      </trkpt>
      <trkpt lat="49.10218" lon="1.77257">
        <ele>150.1</ele>
        <time>2024-05-05T08:19:15Z</time>
      </trkpt>
      <trkpt lat="49.10229" lon="1.77251">
        <ele>149.8</ele>
        <time>2024-05-05T08:19:21Z</time>
      </trkpt>
      <trkpt lat="49.10236" lon="1.77247">
        <ele>149.5</ele>
        <time>2024-05-05T08:19:26Z</time>
      </trkpt>
      <trkpt lat="49.10243" lon="1.77243">
        <ele>149.2</ele>
        <time>2024-05-05T08:19:32Z</time>
      </trkpt>
      <trkpt lat="49.10249" lon="1.77239">
        <ele>149</ele>
        <time>2024-05-05T08:19:37Z</time>
      </trkpt>
      <trkpt lat="49.10256" lon="1.77235">
        <ele>148.9</ele>
        <time>2024-05-05T08:19:42Z</time>
      </trkpt>
      <trkpt lat="49.10265" lon="1.77229">
        <ele>148.6</ele>
        <time>2024-05-05T08:19:48Z</time>
      </trkpt>
      <trkpt lat="49.1027" lon="1.77227">
        <ele>148.4</ele>
        <time>2024-05-05T08:19:53Z</time>
      </trkpt>
      <trkpt lat="49.10277" lon="1.77223">
        <ele>148.1</ele>
        <time>2024-05-05T08:19:59Z</time>
      </trkpt>
      <trkpt lat="49.10286" lon="1.77216">
        <ele>147.8</ele>
        <time>2024-05-05T08:20:05Z</time>
      </trkpt>
      <trkpt lat="49.10294" lon="1.77208">
        <ele>147.7</ele>
        <time>2024-05-05T08:20:11Z</time>
      </trkpt>
      <trkpt lat="49.10299" lon="1.77203">
        <ele>147.8</ele>
        <time>2024-05-05T08:20:16Z</time>
      </trkpt>
      <trkpt lat="49.10304" lon="1.77197">
        <ele>147.9</ele>
        <time>2024-05-05T08:20:22Z</time>
      </trkpt>
      <trkpt lat="49.10311" lon="1.77189">
        <ele>147.6</ele>
        <time>2024-05-05T08:20:27Z</time>
      </trkpt>
      <trkpt lat="49.1032" lon="1.77182">
        <ele>147.3</ele>
        <time>2024-05-05T08:20:33Z</time>
      </trkpt>
      <trkpt lat="49.10327" lon="1.77174">
        <ele>147.1</ele>
        <time>2024-05-05T08:20:39Z</time>
      </trkpt>
      <trkpt lat="49.10333" lon="1.77169">
        <ele>147</ele>
        <time>2024-05-05T08:20:44Z</time>
      </trkpt>
      <trkpt lat="49.10342" lon="1.77165">
        <ele>147</ele>
        <time>2024-05-05T08:20:50Z</time>
      </trkpt>
      <trkpt lat="49.10349" lon="1.77159">
        <ele>147</ele>
        <time>2024-05-05T08:20:56Z</time>
      </trkpt>
      <trkpt lat="49.10351" lon="1.77154">
        <ele>147</ele>
        <time>2024-05-05T08:21:01Z</time>
      </trkpt>
      <trkpt lat="49.10357" lon="1.77146">
        <ele>147</ele>
        <time>2024-05-05T08:21:07Z</time>
      </trkpt>
      <trkpt lat="49.10365" lon="1.77139">
        <ele>147</ele>
        <time>2024-05-05T08:21:13Z</time>
      </trkpt>
      <trkpt lat="49.1037" lon="1.77135">
        <ele>147</ele>
        <time>2024-05-05T08:21:18Z</time>
      </trkpt>
      <trkpt lat="49.10376" lon="1.77133">
        <ele>147.1</ele>
        <time>2024-05-05T08:21:23Z</time>
      </trkpt>
      <trkpt lat="49.10383" lon="1.77125">
        <ele>147.4</ele>
        <time>2024-05-05T08:21:29Z</time>
      </trkpt>
      <trkpt lat="49.1039" lon="1.77117">
        <ele>147.7</ele>
        <time>2024-05-05T08:21:34Z</time>
      </trkpt>
      <trkpt lat="49.10398" lon="1.77113">
        <ele>147.6</ele>
        <time>2024-05-05T08:21:40Z</time>
      </trkpt>
      <trkpt lat="49.10407" lon="1.77107">
        <ele>147.3</ele>
        <time>2024-05-05T08:21:46Z</time>
      </trkpt>
      <trkpt lat="49.10414" lon="1.77103">
        <ele>147.1</ele>
        <time>2024-05-05T08:21:51Z</time>
      </trkpt>
      <trkpt lat="49.10423" lon="1.77098">
        <ele>147</ele>
        <time>2024-05-05T08:21:57Z</time>
      </trkpt>
      <trkpt lat="49.10433" lon="1.77093">
        <ele>147</ele>
        <time>2024-05-05T08:22:03Z</time>
      </trkpt>
      <trkpt lat="49.10439" lon="1.77089">
        <ele>147</ele>
        <time>2024-05-05T08:22:08Z</time>
      </trkpt>
      <trkpt lat="49.10446" lon="1.77083">
        <ele>146.9</ele>
        <time>2024-05-05T08:22:14Z</time>
      </trkpt>
      <trkpt lat="49.10452" lon="1.77079">
        <ele>146.6</ele>
        <time>2024-05-05T08:22:19Z</time>
      </trkpt>
      <trkpt lat="49.10458" lon="1.77076">
        <ele>146.4</ele>
        <time>2024-05-05T08:22:24Z</time>
      </trkpt>
      <trkpt lat="49.10465" lon="1.77072">
        <ele>146.1</ele>
        <time>2024-05-05T08:22:29Z</time>
      </trkpt>
      <trkpt lat="49.10475" lon="1.77068">
        <ele>146</ele>
        <time>2024-05-05T08:22:35Z</time>
      </trkpt>
      <trkpt lat="49.10484" lon="1.77065">
        <ele>145.9</ele>
        <time>2024-05-05T08:22:41Z</time>
      </trkpt>
      <trkpt lat="49.10491" lon="1.77061">
        <ele>145.9</ele>
        <time>2024-05-05T08:22:46Z</time>
      </trkpt>
      <trkpt lat="49.105" lon="1.7706">
        <ele>145.9</ele>
        <time>2024-05-05T08:22:51Z</time>
      </trkpt>
      <trkpt lat="49.10508" lon="1.77057">
        <ele>145.7</ele>
        <time>2024-05-05T08:22:57Z</time>
      </trkpt>
      <trkpt lat="49.10517" lon="1.7705">
        <ele>145.4</ele>
        <time>2024-05-05T08:23:03Z</time>
      </trkpt>
      <trkpt lat="49.10524" lon="1.77045">
        <ele>145.1</ele>
        <time>2024-05-05T08:23:09Z</time>
      </trkpt>
      <trkpt lat="49.10532" lon="1.77041">
        <ele>145</ele>
        <time>2024-05-05T08:23:14Z</time>
      </trkpt>
      <trkpt lat="49.10537" lon="1.77036">
        <ele>145</ele>
        <time>2024-05-05T08:23:19Z</time>
      </trkpt>
      <trkpt lat="49.10544" lon="1.77032">
        <ele>145</ele>
        <time>2024-05-05T08:23:25Z</time>
      </trkpt>
      <trkpt lat="49.1055" lon="1.77025">
        <ele>145</ele>
        <time>2024-05-05T08:23:31Z</time>
      </trkpt>
      <trkpt lat="49.10557" lon="1.7702">
        <ele>144.9</ele>
        <time>2024-05-05T08:23:37Z</time>
      </trkpt>
      <trkpt lat="49.10566" lon="1.77016">
        <ele>144.6</ele>
        <time>2024-05-05T08:23:42Z</time>
      </trkpt>
      <trkpt lat="49.10575" lon="1.77013">
        <ele>144.3</ele>
        <time>2024-05-05T08:23:48Z</time>
      </trkpt>
      <trkpt lat="49.10582" lon="1.77009">
        <ele>144</ele>
        <time>2024-05-05T08:23:54Z</time>
      </trkpt>
      <trkpt lat="49.10591" lon="1.77005">
        <ele>144</ele>
        <time>2024-05-05T08:24:00Z</time>
      </trkpt>
      <trkpt lat="49.10598" lon="1.77003">
        <ele>144</ele>
        <time>2024-05-05T08:24:05Z</time>
      </trkpt>
      <trkpt lat="49.10606" lon="1.76996">
        <ele>144</ele>
        <time>2024-05-05T08:24:11Z</time>
      </trkpt>
      <trkpt lat="49.10613" lon="1.76992">
        <ele>143.9</ele>
        <time>2024-05-05T08:24:16Z</time>
      </trkpt>
      <trkpt lat="49.10619" lon="1.76987">
        <ele>143.8</ele>
        <time>2024-05-05T08:24:21Z</time>
      </trkpt>
      <trkpt lat="49.10627" lon="1.7698">
        <ele>143.8</ele>
        <time>2024-05-05T08:24:27Z</time>
      </trkpt>
      <trkpt lat="49.10633" lon="1.76977">
        <ele>143.9</ele>
        <time>2024-05-05T08:24:32Z</time>
      </trkpt>
      <trkpt lat="49.1064" lon="1.76972">
        <ele>144</ele>
        <time>2024-05-05T08:24:38Z</time>
      </trkpt>
      <trkpt lat="49.10648" lon="1.76965">
        <ele>143.8</ele>
        <time>2024-05-05T08:24:44Z</time>
      </trkpt>
      <trkpt lat="49.10655" lon="1.76957">
        <ele>143.7</ele>
        <time>2024-05-05T08:24:50Z</time>
      </trkpt>
      <trkpt lat="49.1066" lon="1.76953">
        <ele>143.8</ele>
        <time>2024-05-05T08:24:55Z</time>
      </trkpt>
      <trkpt lat="49.10665" lon="1.76947">
        <ele>143.9</ele>
        <time>2024-05-05T08:25:00Z</time>
      </trkpt>
      <trkpt lat="49.10673" lon="1.76938">
        <ele>143.8</ele>
        <time>2024-05-05T08:25:06Z</time>
      </trkpt>
      <trkpt lat="49.10678" lon="1.76934">
        <ele>143.7</ele>
        <time>2024-05-05T08:25:11Z</time>
      </trkpt>
      <trkpt lat="49.10685" lon="1.76926">
        <ele>143.8</ele>
        <time>2024-05-05T08:25:17Z</time>
      </trkpt>
      <trkpt lat="49.10691" lon="1.76918">
        <ele>144</ele>
        <time>2024-05-05T08:25:22Z</time>
      </trkpt>
      <trkpt lat="49.10698" lon="1.76909">
        <ele>143.9</ele>
        <time>2024-05-05T08:25:28Z</time>
      </trkpt>
      <trkpt lat="49.10705" lon="1.76904">
        <ele>143.8</ele>
        <time>2024-05-05T08:25:34Z</time>
      </trkpt>
      <trkpt lat="49.10709" lon="1.76898">
        <ele>143.8</ele>
        <time>2024-05-05T08:25:39Z</time>
      </trkpt>
      <trkpt lat="49.10717" lon="1.76892">
        <ele>143.9</ele>
        <time>2024-05-05T08:25:45Z</time>
      </trkpt>
      <trkpt lat="49.10724" lon="1.76886">
        <ele>143.9</ele>
        <time>2024-05-05T08:25:50Z</time>
      </trkpt>
      <trkpt lat="49.10731" lon="1.76879">
        <ele>143.8</ele>
        <time>2024-05-05T08:25:55Z</time>
      </trkpt>
      <trkpt lat="49.10738" lon="1.76876">
        <ele>143.7</ele>
        <time>2024-05-05T08:26:01Z</time>
      </trkpt>
      <trkpt lat="49.10744" lon="1.76871">
        <ele>143.7</ele>
        <time>2024-05-05T08:26:07Z</time>
      </trkpt>
      <trkpt lat="49.10752" lon="1.76867">
        <ele>143.8</ele>
        <time>2024-05-05T08:26:13Z</time>
      </trkpt>
      <trkpt lat="49.10758" lon="1.76864">
        <ele>143.9</ele>
        <time>2024-05-05T08:26:18Z</time>
      </trkpt>
      <trkpt lat="49.10767" lon="1.76858">
        <ele>144</ele>
        <time>2024-05-05T08:26:24Z</time>
      </trkpt>
      <trkpt lat="49.10775" lon="1.76853">
        <ele>144</ele>
        <time>2024-05-05T08:26:29Z</time>
      </trkpt>
      <trkpt lat="49.10782" lon="1.76849">
        <ele>144</ele>
        <time>2024-05-05T08:26:35Z</time>
      </trkpt>
      <trkpt lat="49.1079" lon="1.76848">
        <ele>144</ele>
        <time>2024-05-05T08:26:41Z</time>
      </trkpt>
      <trkpt lat="49.1079" lon="1.76847">
        <ele>144</ele>
        <time>2024-05-05T08:26:47Z</time>
      </trkpt>
      <trkpt lat="49.10787" lon="1.76847">
        <ele>144</ele>
        <time>2024-05-05T08:26:53Z</time>
      </trkpt>
      <trkpt lat="49.1078" lon="1.7685">
        <ele>144</ele>
        <time>2024-05-05T08:26:59Z</time>
      </trkpt>
      <trkpt lat="49.10773" lon="1.76856">
        <ele>144</ele>
        <time>2024-05-05T08:27:04Z</time>
      </trkpt>
      <trkpt lat="49.10767" lon="1.7686">
        <ele>144</ele>
        <time>2024-05-05T08:27:09Z</time>
      </trkpt>
      <trkpt lat="49.10761" lon="1.76864">
        <ele>143.9</ele>
        <time>2024-05-05T08:27:14Z</time>
      </trkpt>
      <trkpt lat="49.10752" lon="1.7687">
        <ele>143.7</ele>
        <time>2024-05-05T08:27:20Z</time>
      </trkpt>
      <trkpt lat="49.10743" lon="1.76873">
        <ele>143.7</ele>
        <time>2024-05-05T08:27:26Z</time>
      </trkpt>
      <trkpt lat="49.10734" lon="1.76877">
        <ele>143.8</ele>
        <time>2024-05-05T08:27:31Z</time>
      </trkpt>
      <trkpt lat="49.10726" lon="1.76883">
        <ele>143.9</ele>
        <time>2024-05-05T08:27:36Z</time>
      </trkpt>
      <trkpt lat="49.10719" lon="1.76889">
        <ele>144</ele>
        <time>2024-05-05T08:27:42Z</time>
      </trkpt>
      <trkpt lat="49.10712" lon="1.76894">
        <ele>143.9</ele>
        <time>2024-05-05T08:27:48Z</time>
      </trkpt>
      <trkpt lat="49.10707" lon="1.769">
        <ele>143.8</ele>
        <time>2024-05-05T08:27:54Z</time>
      </trkpt>
      <trkpt lat="49.107" lon="1.76908">
        <ele>143.9</ele>
        <time>2024-05-05T08:28:00Z</time>
      </trkpt>
      <trkpt lat="49.10694" lon="1.76913">
        <ele>144</ele>
        <time>2024-05-05T08:28:05Z</time>
      </trkpt>
      <trkpt lat="49.10687" lon="1.76918">
        <ele>144</ele>
        <time>2024-05-05T08:28:11Z</time>
      </trkpt>
      <trkpt lat="49.10682" lon="1.76926">
        <ele>143.8</ele>
        <time>2024-05-05T08:28:16Z</time>
      </trkpt>
      <trkpt lat="49.10674" lon="1.76934">
        <ele>143.8</ele>
        <time>2024-05-05T08:28:22Z</time>
      </trkpt>
      <trkpt lat="49.10665" lon="1.76942">
        <ele>144</ele>
        <time>2024-05-05T08:28:28Z</time>
      </trkpt>
      <trkpt lat="49.10657" lon="1.76949">
        <ele>143.9</ele>
        <time>2024-05-05T08:28:34Z</time>
      </trkpt>
      <trkpt lat="49.10649" lon="1.76956">
        <ele>143.8</ele>
        <time>2024-05-05T08:28:39Z</time>
      </trkpt>
      <trkpt lat="49.10641" lon="1.76965">
        <ele>143.9</ele>
        <time>2024-05-05T08:28:45Z</time>
      </trkpt>
      <trkpt lat="49.10636" lon="1.76974">
        <ele>144</ele>
        <time>2024-05-05T08:28:51Z</time>
      </trkpt>
      <trkpt lat="49.10632" lon="1.7698">
        <ele>143.8</ele>
        <time>2024-05-05T08:28:56Z</time>
      </trkpt>
      <trkpt lat="49.10625" lon="1.76984">
        <ele>143.8</ele>
        <time>2024-05-05T08:29:02Z</time>
      </trkpt>
      <trkpt lat="49.10619" lon="1.76991">
        <ele>143.8</ele>
        <time>2024-05-05T08:29:07Z</time>
      </trkpt>
      <trkpt lat="49.10612" lon="1.76995">
        <ele>144</ele>
        <time>2024-05-05T08:29:12Z</time>
      </trkpt>
      <trkpt lat="49.10604" lon="1.76997">
        <ele>144</ele>
        <time>2024-05-05T08:29:18Z</time>
      </trkpt>
      <trkpt lat="49.10597" lon="1.77">
        <ele>144</ele>
        <time>2024-05-05T08:29:23Z</time>
      </trkpt>
      <trkpt lat="49.10589" lon="1.77006">
        <ele>144</ele>
        <time>2024-05-05T08:29:29Z</time>
      </trkpt>
      <trkpt lat="49.10581" lon="1.77011">
        <ele>144.1</ele>
        <time>2024-05-05T08:29:35Z</time>
      </trkpt>
      <trkpt lat="49.10573" lon="1.77015">
        <ele>144.4</ele>
        <time>2024-05-05T08:29:40Z</time>
      </trkpt>
      <trkpt lat="49.10566" lon="1.77019">
        <ele>144.6</ele>
        <time>2024-05-05T08:29:46Z</time>
      </trkpt>
      <trkpt lat="49.1056" lon="1.77023">
        <ele>144.8</ele>
        <time>2024-05-05T08:29:51Z</time>
      </trkpt>
      <trkpt lat="49.10555" lon="1.77028">
        <ele>145</ele>
        <time>2024-05-05T08:29:56Z</time>
      </trkpt>
      <trkpt lat="49.1055" lon="1.7703">
        <ele>145</ele>
        <time>2024-05-05T08:30:01Z</time>
      </trkpt>
      <trkpt lat="49.10541" lon="1.77033">
        <ele>145</ele>
        <time>2024-05-05T08:30:07Z</time>
      </trkpt>
      <trkpt lat="49.10536" lon="1.77039">
        <ele>145</ele>
        <time>2024-05-05T08:30:12Z</time>
      </trkpt>
      <trkpt lat="49.10529" lon="1.77043">
        <ele>145</ele>
        <time>2024-05-05T08:30:18Z</time>
      </trkpt>
      <trkpt lat="49.10523" lon="1.77048">
        <ele>145.2</ele>
        <time>2024-05-05T08:30:23Z</time>
      </trkpt>
      <trkpt lat="49.10514" lon="1.7705">
        <ele>145.5</ele>
        <time>2024-05-05T08:30:29Z</time>
      </trkpt>
      <trkpt lat="49.10511" lon="1.77054">
        <ele>145.6</ele>
        <time>2024-05-05T08:30:34Z</time>
      </trkpt>
      <trkpt lat="49.10503" lon="1.77059">
        <ele>145.8</ele>
        <time>2024-05-05T08:30:40Z</time>
      </trkpt>
      <trkpt lat="49.10496" lon="1.77062">
        <ele>145.8</ele>
        <time>2024-05-05T08:30:45Z</time>
      </trkpt>
      <trkpt lat="49.1049" lon="1.77063">
        <ele>145.8</ele>
        <time>2024-05-05T08:30:50Z</time>
      </trkpt>
      <trkpt lat="49.10484" lon="1.77067">
        <ele>145.8</ele>
        <time>2024-05-05T08:30:55Z</time>
      </trkpt>
      <trkpt lat="49.10476" lon="1.77071">
        <ele>145.9</ele>
        <time>2024-05-05T08:31:00Z</time>
      </trkpt>
      <trkpt lat="49.10468" lon="1.77075">
        <ele>146.1</ele>
        <time>2024-05-05T08:31:06Z</time>
      </trkpt>
      <trkpt lat="49.10463" lon="1.7708">
        <ele>146.3</ele>
        <time>2024-05-05T08:31:11Z</time>
      </trkpt>
      <trkpt lat="49.10462" lon="1.77092">
        <ele>146.4</ele>
        <time>2024-05-05T08:31:17Z</time>
      </trkpt>
      <trkpt lat="49.10465" lon="1.77106">
        <ele>146.3</ele>
        <time>2024-05-05T08:31:22Z</time>
      </trkpt>
      <trkpt lat="49.10467" lon="1.77114">
        <ele>146.2</ele>
        <time>2024-05-05T08:31:28Z</time>
      </trkpt>
      <trkpt lat="49.10469" lon="1.7712">
        <ele>146.1</ele>
        <time>2024-05-05T08:31:33Z</time>
      </trkpt>
      <trkpt lat="49.10472" lon="1.77127">
        <ele>146</ele>
        <time>2024-05-05T08:31:39Z</time>
      </trkpt>
      <trkpt lat="49.10476" lon="1.77141">
        <ele>145.9</ele>
        <time>2024-05-05T08:31:44Z</time>
      </trkpt>
      <trkpt lat="49.10481" lon="1.77152">
        <ele>145.7</ele>
        <time>2024-05-05T08:31:50Z</time>
      </trkpt>
      <trkpt lat="49.10485" lon="1.7716">
        <ele>145.5</ele>
        <time>2024-05-05T08:31:56Z</time>
      </trkpt>
      <trkpt lat="49.10489" lon="1.77173">
        <ele>145.4</ele>
        <time>2024-05-05T08:32:02Z</time>
      </trkpt>
      <trkpt lat="49.10493" lon="1.77185">
        <ele>145.2</ele>
        <time>2024-05-05T08:32:07Z</time>
      </trkpt>
      <trkpt lat="49.10497" lon="1.77193">
        <ele>145.1</ele>
        <time>2024-05-05T08:32:13Z</time>
      </trkpt>
      <trkpt lat="49.10498" lon="1.77201">
        <ele>145.1</ele>
        <time>2024-05-05T08:32:18Z</time>
      </trkpt>
      <trkpt lat="49.10504" lon="1.77213">
        <ele>144.9</ele>
        <time>2024-05-05T08:32:24Z</time>
      </trkpt>
      <trkpt lat="49.10507" lon="1.77226">
        <ele>144.7</ele>
        <time>2024-05-05T08:32:30Z</time>
      </trkpt>
      <trkpt lat="49.1051" lon="1.77237">
        <ele>144.6</ele>
        <time>2024-05-05T08:32:36Z</time>
      </trkpt>
      <trkpt lat="49.10514" lon="1.77247">
        <ele>144.5</ele>
        <time>2024-05-05T08:32:41Z</time>
      </trkpt>
      <trkpt lat="49.10518" lon="1.7726">
        <ele>144.4</ele>
        <time>2024-05-05T08:32:47Z</time>
      </trkpt>
      <trkpt lat="49.10522" lon="1.77271">
        <ele>144.2</ele>
        <time>2024-05-05T08:32:53Z</time>
      </trkpt>
      <trkpt lat="49.10525" lon="1.77279">
        <ele>144.1</ele>
        <time>2024-05-05T08:32:58Z</time>
      </trkpt>
      <trkpt lat="49.10529" lon="1.77288">
        <ele>144.4</ele>
        <time>2024-05-05T08:33:04Z</time>
      </trkpt>
      <trkpt lat="49.10534" lon="1.77302">
        <ele>144.7</ele>
        <time>2024-05-05T08:33:10Z</time>
      </trkpt>
      <trkpt lat="49.10537" lon="1.77314">
        <ele>144.7</ele>
        <time>2024-05-05T08:33:16Z</time>
      </trkpt>
      <trkpt lat="49.1054" lon="1.77321">
        <ele>144.6</ele>
        <time>2024-05-05T08:33:21Z</time>
      </trkpt>
      <trkpt lat="49.10544" lon="1.77335">
        <ele>144.4</ele>
        <time>2024-05-05T08:33:27Z</time>
      </trkpt>
      <trkpt lat="49.10548" lon="1.77346">
        <ele>144.1</ele>
        <time>2024-05-05T08:33:33Z</time>
      </trkpt>
      <trkpt lat="49.1055" lon="1.77357">
        <ele>144</ele>
        <time>2024-05-05T08:33:39Z</time>
      </trkpt>
      <trkpt lat="49.10552" lon="1.77366">
        <ele>144</ele>
        <time>2024-05-05T08:33:45Z</time>
      </trkpt>
      <trkpt lat="49.10557" lon="1.77377">
        <ele>144</ele>
        <time>2024-05-05T08:33:50Z</time>
      </trkpt>
      <trkpt lat="49.10562" lon="1.7739">
        <ele>143.8</ele>
        <time>2024-05-05T08:33:55Z</time>
      </trkpt>
      <trkpt lat="49.10564" lon="1.774">
        <ele>143.7</ele>
        <time>2024-05-05T08:34:01Z</time>
      </trkpt>
      <trkpt lat="49.10566" lon="1.77407">
        <ele>143.6</ele>
        <time>2024-05-05T08:34:06Z</time>
      </trkpt>
      <trkpt lat="49.10571" lon="1.7742">
        <ele>143.4</ele>
        <time>2024-05-05T08:34:12Z</time>
      </trkpt>
      <trkpt lat="49.10575" lon="1.7743">
        <ele>143.3</ele>
        <time>2024-05-05T08:34:17Z</time>
      </trkpt>
      <trkpt lat="49.10577" lon="1.77441">
        <ele>143.2</ele>
        <time>2024-05-05T08:34:23Z</time>
      </trkpt>
      <trkpt lat="49.10581" lon="1.77451">
        <ele>143.1</ele>
        <time>2024-05-05T08:34:28Z</time>
      </trkpt>
      <trkpt lat="49.10585" lon="1.77462">
        <ele>143</ele>
        <time>2024-05-05T08:34:33Z</time>
      </trkpt>
      <trkpt lat="49.10589" lon="1.77472">
        <ele>142.8</ele>
        <time>2024-05-05T08:34:39Z</time>
      </trkpt>
      <trkpt lat="49.10593" lon="1.77482">
        <ele>142.8</ele>
        <time>2024-05-05T08:34:45Z</time>
      </trkpt>
      <trkpt lat="49.10596" lon="1.77492">
        <ele>142.9</ele>
        <time>2024-05-05T08:34:50Z</time>
      </trkpt>
      <trkpt lat="49.106" lon="1.77506">
        <ele>142.9</ele>
        <time>2024-05-05T08:34:56Z</time>
      </trkpt>
      <trkpt lat="49.10604" lon="1.77516">
        <ele>142.6</ele>
        <time>2024-05-05T08:35:02Z</time>
      </trkpt>
      <trkpt lat="49.10608" lon="1.77526">
        <ele>142.2</ele>
        <time>2024-05-05T08:35:08Z</time>
      </trkpt>
      <trkpt lat="49.10613" lon="1.77538">
        <ele>142.3</ele>
        <time>2024-05-05T08:35:14Z</time>
      </trkpt>
      <trkpt lat="49.10619" lon="1.77554">
        <ele>142.7</ele>
        <time>2024-05-05T08:35:20Z</time>
      </trkpt>
      <trkpt lat="49.10623" lon="1.77568">
        <ele>142.3</ele>
        <time>2024-05-05T08:35:26Z</time>
      </trkpt>
      <trkpt lat="49.10625" lon="1.77577">
        <ele>142.1</ele>
        <time>2024-05-05T08:35:31Z</time>
      </trkpt>
      <trkpt lat="49.10629" lon="1.77586">
        <ele>142</ele>
        <time>2024-05-05T08:35:37Z</time>
      </trkpt>
      <trkpt lat="49.10634" lon="1.77598">
        <ele>142</ele>
        <time>2024-05-05T08:35:43Z</time>
      </trkpt>
      <trkpt lat="49.1064" lon="1.77612">
        <ele>141.9</ele>
        <time>2024-05-05T08:35:49Z</time>
      </trkpt>
      <trkpt lat="49.10641" lon="1.77622">
        <ele>141.6</ele>
        <time>2024-05-05T08:35:54Z</time>
      </trkpt>
      <trkpt lat="49.10643" lon="1.77632">
        <ele>141.2</ele>
        <time>2024-05-05T08:36:00Z</time>
      </trkpt>
      <trkpt lat="49.10649" lon="1.77641">
        <ele>141</ele>
        <time>2024-05-05T08:36:06Z</time>
      </trkpt>
      <trkpt lat="49.10653" lon="1.77653">
        <ele>141</ele>
        <time>2024-05-05T08:36:12Z</time>
      </trkpt>
      <trkpt lat="49.10657" lon="1.77662">
        <ele>141</ele>
        <time>2024-05-05T08:36:17Z</time>
      </trkpt>
      <trkpt lat="49.10663" lon="1.77671">
        <ele>141</ele>
        <time>2024-05-05T08:36:23Z</time>
      </trkpt>
      <trkpt lat="49.10668" lon="1.77674">
        <ele>141</ele>
        <time>2024-05-05T08:36:28Z</time>
      </trkpt>
      <trkpt lat="49.10675" lon="1.77675">
        <ele>141</ele>
        <time>2024-05-05T08:36:33Z</time>
      </trkpt>
      <trkpt lat="49.10685" lon="1.77678">
        <ele>141</ele>
        <time>2024-05-05T08:36:39Z</time>
      </trkpt>
      <trkpt lat="49.10692" lon="1.77677">
        <ele>141</ele>
        <time>2024-05-05T08:36:45Z</time>
      </trkpt>
      <trkpt lat="49.10701" lon="1.7768">
        <ele>140.8</ele>
        <time>2024-05-05T08:36:51Z</time>
      </trkpt>
      <trkpt lat="49.10707" lon="1.77681">
        <ele>140.6</ele>
        <time>2024-05-05T08:36:57Z</time>
      </trkpt>
      <trkpt lat="49.10714" lon="1.77683">
        <ele>140.3</ele>
        <time>2024-05-05T08:37:03Z</time>
      </trkpt>
      <trkpt lat="49.10723" lon="1.77685">
        <ele>140</ele>
        <time>2024-05-05T08:37:08Z</time>
      </trkpt>
      <trkpt lat="49.1073" lon="1.77686">
        <ele>140</ele>
        <time>2024-05-05T08:37:13Z</time>
      </trkpt>
      <trkpt lat="49.10735" lon="1.77688">
        <ele>140</ele>
        <time>2024-05-05T08:37:18Z</time>
      </trkpt>
      <trkpt lat="49.10744" lon="1.77688">
        <ele>140</ele>
        <time>2024-05-05T08:37:24Z</time>
      </trkpt>
      <trkpt lat="49.10753" lon="1.77689">
        <ele>140</ele>
        <time>2024-05-05T08:37:30Z</time>
      </trkpt>
      <trkpt lat="49.10761" lon="1.77691">
        <ele>140</ele>
        <time>2024-05-05T08:37:36Z</time>
      </trkpt>
      <trkpt lat="49.1077" lon="1.77692">
        <ele>140</ele>
        <time>2024-05-05T08:37:42Z</time>
      </trkpt>
      <trkpt lat="49.10779" lon="1.77692">
        <ele>140</ele>
        <time>2024-05-05T08:37:48Z</time>
      </trkpt>
      <trkpt lat="49.10786" lon="1.77692">
        <ele>139.7</ele>
        <time>2024-05-05T08:37:54Z</time>
      </trkpt>
      <trkpt lat="49.10794" lon="1.77694">
        <ele>139.4</ele>
        <time>2024-05-05T08:38:00Z</time>
      </trkpt>
      <trkpt lat="49.10805" lon="1.77695">
        <ele>139.1</ele>
        <time>2024-05-05T08:38:06Z</time>
      </trkpt>
      <trkpt lat="49.10811" lon="1.77695">
        <ele>139</ele>
        <time>2024-05-05T08:38:11Z</time>
      </trkpt>
      <trkpt lat="49.10818" lon="1.77697">
        <ele>139</ele>
        <time>2024-05-05T08:38:17Z</time>
      </trkpt>
      <trkpt lat="49.10825" lon="1.77699">
        <ele>139</ele>
        <time>2024-05-05T08:38:22Z</time>
      </trkpt>
      <trkpt lat="49.10832" lon="1.77701">
        <ele>139</ele>
        <time>2024-05-05T08:38:28Z</time>
      </trkpt>
      <trkpt lat="49.10837" lon="1.77702">
        <ele>138.9</ele>
        <time>2024-05-05T08:38:33Z</time>
      </trkpt>
      <trkpt lat="49.10844" lon="1.77703">
        <ele>138.6</ele>
        <time>2024-05-05T08:38:38Z</time>
      </trkpt>
      <trkpt lat="49.10851" lon="1.77707">
        <ele>138.4</ele>
        <time>2024-05-05T08:38:44Z</time>
      </trkpt>
      <trkpt lat="49.10855" lon="1.7771">
        <ele>138.2</ele>
        <time>2024-05-05T08:38:49Z</time>
      </trkpt>
      <trkpt lat="49.10862" lon="1.77713">
        <ele>138</ele>
        <time>2024-05-05T08:38:54Z</time>
      </trkpt>
      <trkpt lat="49.10868" lon="1.77718">
        <ele>138</ele>
        <time>2024-05-05T08:38:59Z</time>
      </trkpt>
      <trkpt lat="49.10875" lon="1.77721">
        <ele>138</ele>
        <time>2024-05-05T08:39:05Z</time>
      </trkpt>
      <trkpt lat="49.10884" lon="1.77725">
        <ele>137.9</ele>
        <time>2024-05-05T08:39:11Z</time>
      </trkpt>
      <trkpt lat="49.10892" lon="1.77728">
        <ele>137.6</ele>
        <time>2024-05-05T08:39:17Z</time>
      </trkpt>
      <trkpt lat="49.10899" lon="1.77731">
        <ele>137.1</ele>
        <time>2024-05-05T08:39:22Z</time>
      </trkpt>
      <trkpt lat="49.10906" lon="1.77738">
        <ele>136.6</ele>
        <time>2024-05-05T08:39:27Z</time>
      </trkpt>
      <trkpt lat="49.10912" lon="1.77741">
        <ele>136.2</ele>
        <time>2024-05-05T08:39:33Z</time>
      </trkpt>
      <trkpt lat="49.10919" lon="1.77742">
        <ele>135.9</ele>
        <time>2024-05-05T08:39:38Z</time>
      </trkpt>
      <trkpt lat="49.10924" lon="1.77745">
        <ele>135.7</ele>
        <time>2024-05-05T08:39:44Z</time>
      </trkpt>
      <trkpt lat="49.1093" lon="1.77746">
        <ele>135.5</ele>
        <time>2024-05-05T08:39:49Z</time>
      </trkpt>
      <trkpt lat="49.1094" lon="1.77748">
        <ele>135.1</ele>
        <time>2024-05-05T08:39:55Z</time>
      </trkpt>
      <trkpt lat="49.10949" lon="1.77749">
        <ele>134.8</ele>
        <time>2024-05-05T08:40:01Z</time>
      </trkpt>
      <trkpt lat="49.10957" lon="1.77753">
        <ele>134.7</ele>
        <time>2024-05-05T08:40:07Z</time>
      </trkpt>
      <trkpt lat="49.10965" lon="1.77758">
        <ele>134.5</ele>
        <time>2024-05-05T08:40:13Z</time>
      </trkpt>
      <trkpt lat="49.1097" lon="1.7776">
        <ele>134.4</ele>
        <time>2024-05-05T08:40:18Z</time>
      </trkpt>
      <trkpt lat="49.10976" lon="1.77761">
        <ele>134.2</ele>
        <time>2024-05-05T08:40:23Z</time>
      </trkpt>
      <trkpt lat="49.10986" lon="1.77766">
        <ele>134.1</ele>
        <time>2024-05-05T08:40:29Z</time>
      </trkpt>
      <trkpt lat="49.10992" lon="1.77769">
        <ele>134</ele>
        <time>2024-05-05T08:40:34Z</time>
      </trkpt>
      <trkpt lat="49.11001" lon="1.77775">
        <ele>133.8</ele>
        <time>2024-05-05T08:40:40Z</time>
      </trkpt>
      <trkpt lat="49.11009" lon="1.77778">
        <ele>133.7</ele>
        <time>2024-05-05T08:40:46Z</time>
      </trkpt>
      <trkpt lat="49.11013" lon="1.77783">
        <ele>133.6</ele>
        <time>2024-05-05T08:40:51Z</time>
      </trkpt>
      <trkpt lat="49.11022" lon="1.77786">
        <ele>133.4</ele>
        <time>2024-05-05T08:40:57Z</time>
      </trkpt>
      <trkpt lat="49.11031" lon="1.7779">
        <ele>133.3</ele>
        <time>2024-05-05T08:41:03Z</time>
      </trkpt>
      <trkpt lat="49.11036" lon="1.77791">
        <ele>133.2</ele>
        <time>2024-05-05T08:41:09Z</time>
      </trkpt>
      <trkpt lat="49.11045" lon="1.7779">
        <ele>132.8</ele>
        <time>2024-05-05T08:41:15Z</time>
      </trkpt>
      <trkpt lat="49.11057" lon="1.77793">
        <ele>132.5</ele>
        <time>2024-05-05T08:41:21Z</time>
      </trkpt>
      <trkpt lat="49.11063" lon="1.77796">
        <ele>132.5</ele>
        <time>2024-05-05T08:41:26Z</time>
      </trkpt>
      <trkpt lat="49.1107" lon="1.77801">
        <ele>132.4</ele>
        <time>2024-05-05T08:41:31Z</time>
      </trkpt>
      <trkpt lat="49.11078" lon="1.77805">
        <ele>132.2</ele>
        <time>2024-05-05T08:41:37Z</time>
      </trkpt>
      <trkpt lat="49.11083" lon="1.77808">
        <ele>132</ele>
        <time>2024-05-05T08:41:42Z</time>
      </trkpt>
      <trkpt lat="49.11091" lon="1.77814">
        <ele>132</ele>
        <time>2024-05-05T08:41:48Z</time>
      </trkpt>
      <trkpt lat="49.11098" lon="1.77817">
        <ele>132</ele>
        <time>2024-05-05T08:41:53Z</time>
      </trkpt>
      <trkpt lat="49.11106" lon="1.77819">
        <ele>132</ele>
        <time>2024-05-05T08:41:59Z</time>
      </trkpt>
      <trkpt lat="49.11113" lon="1.7782">
        <ele>132</ele>
        <time>2024-05-05T08:42:04Z</time>
      </trkpt>
      <trkpt lat="49.11121" lon="1.77823">
        <ele>131.8</ele>
        <time>2024-05-05T08:42:10Z</time>
      </trkpt>
      <trkpt lat="49.11129" lon="1.77823">
        <ele>131.6</ele>
        <time>2024-05-05T08:42:16Z</time>
      </trkpt>
      <trkpt lat="49.11135" lon="1.77828">
        <ele>131.3</ele>
        <time>2024-05-05T08:42:21Z</time>
      </trkpt>
      <trkpt lat="49.11142" lon="1.7783">
        <ele>131.1</ele>
        <time>2024-05-05T08:42:26Z</time>
      </trkpt>
      <trkpt lat="49.11149" lon="1.77832">
        <ele>131</ele>
        <time>2024-05-05T08:42:32Z</time>
      </trkpt>
      <trkpt lat="49.11158" lon="1.77838">
        <ele>131</ele>
        <time>2024-05-05T08:42:38Z</time>
      </trkpt>
      <trkpt lat="49.11165" lon="1.7784">
        <ele>131</ele>
        <time>2024-05-05T08:42:44Z</time>
      </trkpt>
      <trkpt lat="49.11173" lon="1.77844">
        <ele>131</ele>
        <time>2024-05-05T08:42:50Z</time>
      </trkpt>
      <trkpt lat="49.1118" lon="1.77847">
        <ele>131</ele>
        <time>2024-05-05T08:42:55Z</time>
      </trkpt>
      <trkpt lat="49.11187" lon="1.77851">
        <ele>131</ele>
        <time>2024-05-05T08:43:01Z</time>
      </trkpt>
      <trkpt lat="49.11195" lon="1.77856">
        <ele>131</ele>
        <time>2024-05-05T08:43:06Z</time>
      </trkpt>
      <trkpt lat="49.11201" lon="1.7786">
        <ele>131</ele>
        <time>2024-05-05T08:43:12Z</time>
      </trkpt>
      <trkpt lat="49.11209" lon="1.77862">
        <ele>131</ele>
        <time>2024-05-05T08:43:17Z</time>
      </trkpt>
      <trkpt lat="49.11218" lon="1.77866">
        <ele>130.8</ele>
        <time>2024-05-05T08:43:23Z</time>
      </trkpt>
      <trkpt lat="49.11223" lon="1.7787">
        <ele>130.7</ele>
        <time>2024-05-05T08:43:28Z</time>
      </trkpt>
      <trkpt lat="49.11231" lon="1.77873">
        <ele>130.4</ele>
        <time>2024-05-05T08:43:34Z</time>
      </trkpt>
      <trkpt lat="49.11242" lon="1.77877">
        <ele>130.1</ele>
        <time>2024-05-05T08:43:40Z</time>
      </trkpt>
      <trkpt lat="49.11248" lon="1.77879">
        <ele>130</ele>
        <time>2024-05-05T08:43:45Z</time>
      </trkpt>
      <trkpt lat="49.11254" lon="1.7788">
        <ele>129.9</ele>
        <time>2024-05-05T08:43:50Z</time>
      </trkpt>
      <trkpt lat="49.11263" lon="1.77887">
        <ele>129.5</ele>
        <time>2024-05-05T08:43:56Z</time>
      </trkpt>
      <trkpt lat="49.11271" lon="1.77891">
        <ele>129.2</ele>
        <time>2024-05-05T08:44:01Z</time>
      </trkpt>
      <trkpt lat="49.11277" lon="1.77893">
        <ele>129</ele>
        <time>2024-05-05T08:44:06Z</time>
      </trkpt>
      <trkpt lat="49.11285" lon="1.77898">
        <ele>129</ele>
        <time>2024-05-05T08:44:12Z</time>
      </trkpt>
      <trkpt lat="49.11293" lon="1.77902">
        <ele>129</ele>
        <time>2024-05-05T08:44:18Z</time>
      </trkpt>
      <trkpt lat="49.113" lon="1.77907">
        <ele>129</ele>
        <time>2024-05-05T08:44:24Z</time>
      </trkpt>
      <trkpt lat="49.11307" lon="1.77909">
        <ele>129</ele>
        <time>2024-05-05T08:44:29Z</time>
      </trkpt>
      <trkpt lat="49.11314" lon="1.77911">
        <ele>129</ele>
        <time>2024-05-05T08:44:35Z</time>
      </trkpt>
      <trkpt lat="49.11322" lon="1.77912">
        <ele>129</ele>
        <time>2024-05-05T08:44:41Z</time>
      </trkpt>
      <trkpt lat="49.11329" lon="1.77914">
        <ele>129</ele>
        <time>2024-05-05T08:44:47Z</time>
      </trkpt>
      <trkpt lat="49.11335" lon="1.77915">
        <ele>129</ele>
        <time>2024-05-05T08:44:52Z</time>
      </trkpt>
      <trkpt lat="49.11342" lon="1.77921">
        <ele>128.9</ele>
        <time>2024-05-05T08:44:58Z</time>
      </trkpt>
      <trkpt lat="49.11349" lon="1.77926">
        <ele>128.7</ele>
        <time>2024-05-05T08:45:04Z</time>
      </trkpt>
      <trkpt lat="49.11354" lon="1.77928">
        <ele>128.6</ele>
        <time>2024-05-05T08:45:09Z</time>
      </trkpt>
      <trkpt lat="49.11362" lon="1.77934">
        <ele>128.4</ele>
        <time>2024-05-05T08:45:15Z</time>
      </trkpt>
      <trkpt lat="49.11368" lon="1.77936">
        <ele>128.3</ele>
        <time>2024-05-05T08:45:20Z</time>
      </trkpt>
      <trkpt lat="49.11375" lon="1.77938">
        <ele>128.2</ele>
        <time>2024-05-05T08:45:26Z</time>
      </trkpt>
      <trkpt lat="49.1138" lon="1.77942">
        <ele>128.1</ele>
        <time>2024-05-05T08:45:31Z</time>
      </trkpt>
      <trkpt lat="49.11388" lon="1.77947">
        <ele>127.9</ele>
        <time>2024-05-05T08:45:37Z</time>
      </trkpt>
      <trkpt lat="49.11396" lon="1.77951">
        <ele>127.8</ele>
        <time>2024-05-05T08:45:42Z</time>
      </trkpt>
      <trkpt lat="49.11403" lon="1.77954">
        <ele>127.6</ele>
        <time>2024-05-05T08:45:48Z</time>
      </trkpt>
      <trkpt lat="49.11409" lon="1.77957">
        <ele>127.6</ele>
        <time>2024-05-05T08:45:54Z</time>
      </trkpt>
      <trkpt lat="49.11418" lon="1.77958">
        <ele>127.5</ele>
        <time>2024-05-05T08:46:00Z</time>
      </trkpt>
      <trkpt lat="49.11425" lon="1.77957">
        <ele>127.6</ele>
        <time>2024-05-05T08:46:06Z</time>
      </trkpt>
      <trkpt lat="49.1143" lon="1.77956">
        <ele>127.6</ele>
        <time>2024-05-05T08:46:11Z</time>
      </trkpt>
      <trkpt lat="49.11437" lon="1.77959">
        <ele>127.5</ele>
        <time>2024-05-05T08:46:17Z</time>
      </trkpt>
      <trkpt lat="49.11446" lon="1.7796">
        <ele>127.4</ele>
        <time>2024-05-05T08:46:23Z</time>
      </trkpt>
      <trkpt lat="49.11454" lon="1.77961">
        <ele>127.1</ele>
        <time>2024-05-05T08:46:29Z</time>
      </trkpt>
      <trkpt lat="49.11461" lon="1.77961">
        <ele>126.8</ele>
        <time>2024-05-05T08:46:35Z</time>
      </trkpt>
      <trkpt lat="49.11467" lon="1.7796">
        <ele>126.6</ele>
        <time>2024-05-05T08:46:40Z</time>
      </trkpt>
      <trkpt lat="49.11475" lon="1.77962">
        <ele>126.2</ele>
        <time>2024-05-05T08:46:45Z</time>
      </trkpt>
      <trkpt lat="49.11482" lon="1.77963">
        <ele>125.9</ele>
        <time>2024-05-05T08:46:51Z</time>
      </trkpt>
      <trkpt lat="49.11489" lon="1.77964">
        <ele>125.7</ele>
        <time>2024-05-05T08:46:56Z</time>
      </trkpt>
      <trkpt lat="49.11496" lon="1.77963">
        <ele>125.5</ele>
        <time>2024-05-05T08:47:02Z</time>
      </trkpt>
      <trkpt lat="49.11503" lon="1.77965">
        <ele>125.2</ele>
        <time>2024-05-05T08:47:07Z</time>
      </trkpt>
      <trkpt lat="49.11511" lon="1.77966">
        <ele>124.8</ele>
        <time>2024-05-05T08:47:13Z</time>
      </trkpt>
      <trkpt lat="49.11516" lon="1.77966">
        <ele>124.7</ele>
        <time>2024-05-05T08:47:19Z</time>
      </trkpt>
      <trkpt lat="49.11522" lon="1.77966">
        <ele>124.4</ele>
        <time>2024-05-05T08:47:24Z</time>
      </trkpt>
      <trkpt lat="49.11531" lon="1.77967">
        <ele>124.1</ele>
        <time>2024-05-05T08:47:30Z</time>
      </trkpt>
      <trkpt lat="49.11536" lon="1.77967">
        <ele>123.9</ele>
        <time>2024-05-05T08:47:35Z</time>
      </trkpt>
      <trkpt lat="49.11544" lon="1.77968">
        <ele>123.6</ele>
        <time>2024-05-05T08:47:40Z</time>
      </trkpt>
      <trkpt lat="49.11551" lon="1.77965">
        <ele>123.4</ele>
        <time>2024-05-05T08:47:46Z</time>
      </trkpt>
      <trkpt lat="49.11559" lon="1.77964">
        <ele>123.3</ele>
        <time>2024-05-05T08:47:52Z</time>
      </trkpt>
      <trkpt lat="49.11568" lon="1.77965">
        <ele>123.2</ele>
        <time>2024-05-05T08:47:58Z</time>
      </trkpt>
      <trkpt lat="49.11572" lon="1.77966">
        <ele>123.1</ele>
        <time>2024-05-05T08:48:03Z</time>
      </trkpt>
      <trkpt lat="49.11579" lon="1.77965">
        <ele>123</ele>
        <time>2024-05-05T08:48:08Z</time>
      </trkpt>
      <trkpt lat="49.11585" lon="1.77961">
        <ele>123</ele>
        <time>2024-05-05T08:48:14Z</time>
      </trkpt>
      <trkpt lat="49.11593" lon="1.77962">
        <ele>122.9</ele>
        <time>2024-05-05T08:48:20Z</time>
      </trkpt>
      <trkpt lat="49.11597" lon="1.7796">
        <ele>122.8</ele>
        <time>2024-05-05T08:48:25Z</time>
      </trkpt>
      <trkpt lat="49.11605" lon="1.77961">
        <ele>122.7</ele>
        <time>2024-05-05T08:48:31Z</time>
      </trkpt>
      <trkpt lat="49.11612" lon="1.77962">
        <ele>122.6</ele>
        <time>2024-05-05T08:48:36Z</time>
      </trkpt>
      <trkpt lat="49.1162" lon="1.7796">
        <ele>122.2</ele>
        <time>2024-05-05T08:48:42Z</time>
      </trkpt>
      <trkpt lat="49.11626" lon="1.77959">
        <ele>122</ele>
        <time>2024-05-05T08:48:47Z</time>
      </trkpt>
      <trkpt lat="49.11635" lon="1.77955">
        <ele>121.5</ele>
        <time>2024-05-05T08:48:53Z</time>
      </trkpt>
      <trkpt lat="49.11641" lon="1.77956">
        <ele>121.4</ele>
        <time>2024-05-05T08:48:58Z</time>
      </trkpt>
      <trkpt lat="49.11649" lon="1.77955">
        <ele>121.3</ele>
        <time>2024-05-05T08:49:04Z</time>
      </trkpt>
      <trkpt lat="49.11656" lon="1.77958">
        <ele>121.2</ele>
        <time>2024-05-05T08:49:10Z</time>
      </trkpt>
      <trkpt lat="49.11662" lon="1.77959">
        <ele>121.1</ele>
        <time>2024-05-05T08:49:15Z</time>
      </trkpt>
      <trkpt lat="49.1167" lon="1.77959">
        <ele>120.9</ele>
        <time>2024-05-05T08:49:21Z</time>
      </trkpt>
      <trkpt lat="49.11675" lon="1.77961">
        <ele>120.7</ele>
        <time>2024-05-05T08:49:26Z</time>
      </trkpt>
      <trkpt lat="49.11683" lon="1.77963">
        <ele>120.4</ele>
        <time>2024-05-05T08:49:32Z</time>
      </trkpt>
      <trkpt lat="49.11688" lon="1.77965">
        <ele>120.2</ele>
        <time>2024-05-05T08:49:38Z</time>
      </trkpt>
      <trkpt lat="49.11695" lon="1.77964">
        <ele>120</ele>
        <time>2024-05-05T08:49:43Z</time>
      </trkpt>
      <trkpt lat="49.11704" lon="1.77965">
        <ele>119.4</ele>
        <time>2024-05-05T08:49:49Z</time>
      </trkpt>
      <trkpt lat="49.11709" lon="1.77966">
        <ele>119</ele>
        <time>2024-05-05T08:49:54Z</time>
      </trkpt>
      <trkpt lat="49.11718" lon="1.77965">
        <ele>118.5</ele>
        <time>2024-05-05T08:50:02Z</time>
      </trkpt>
      <trkpt lat="49.11723" lon="1.77963">
        <ele>118.3</ele>
        <time>2024-05-05T08:50:07Z</time>
      </trkpt>
      <trkpt lat="49.11729" lon="1.77963">
        <ele>118.1</ele>
        <time>2024-05-05T08:50:13Z</time>
      </trkpt>
      <trkpt lat="49.11736" lon="1.77962">
        <ele>117.8</ele>
        <time>2024-05-05T08:50:18Z</time>
      </trkpt>
      <trkpt lat="49.11743" lon="1.77964">
        <ele>117.6</ele>
        <time>2024-05-05T08:50:24Z</time>
      </trkpt>
      <trkpt lat="49.11745" lon="1.77966">
        <ele>117.4</ele>
        <time>2024-05-05T08:50:30Z</time>
      </trkpt>
      <trkpt lat="49.11749" lon="1.77969">
        <ele>117.1</ele>
        <time>2024-05-05T08:50:35Z</time>
      </trkpt>
      <trkpt lat="49.11755" lon="1.77971">
        <ele>116.8</ele>
        <time>2024-05-05T08:50:40Z</time>
      </trkpt>
      <trkpt lat="49.1176" lon="1.77972">
        <ele>116.6</ele>
        <time>2024-05-05T08:50:46Z</time>
      </trkpt>
      <trkpt lat="49.11764" lon="1.77973">
        <ele>116.5</ele>
        <time>2024-05-05T08:50:51Z</time>
      </trkpt>
      <trkpt lat="49.11771" lon="1.77979">
        <ele>116.1</ele>
        <time>2024-05-05T08:50:57Z</time>
      </trkpt>
      <trkpt lat="49.11777" lon="1.77985">
        <ele>115.6</ele>
        <time>2024-05-05T08:51:03Z</time>
      </trkpt>
      <trkpt lat="49.11784" lon="1.77983">
        <ele>115.3</ele>
        <time>2024-05-05T08:51:09Z</time>
      </trkpt>
      <trkpt lat="49.11785" lon="1.77974">
        <ele>115.4</ele>
        <time>2024-05-05T08:51:14Z</time>
      </trkpt>
      <trkpt lat="49.11789" lon="1.77965">
        <ele>115.5</ele>
        <time>2024-05-05T08:51:20Z</time>
      </trkpt>
      <trkpt lat="49.11791" lon="1.77957">
        <ele>115.6</ele>
        <time>2024-05-05T08:51:26Z</time>
      </trkpt>
      <trkpt lat="49.11794" lon="1.77942">
        <ele>116</ele>
        <time>2024-05-05T08:51:32Z</time>
      </trkpt>
      <trkpt lat="49.11796" lon="1.77933">
        <ele>116.4</ele>
        <time>2024-05-05T08:51:37Z</time>
      </trkpt>
      <trkpt lat="49.11799" lon="1.77923">
        <ele>116.9</ele>
        <time>2024-05-05T08:51:42Z</time>
      </trkpt>
      <trkpt lat="49.11801" lon="1.77911">
        <ele>117.4</ele>
        <time>2024-05-05T08:51:48Z</time>
      </trkpt>
      <trkpt lat="49.11803" lon="1.77904">
        <ele>117.6</ele>
        <time>2024-05-05T08:51:54Z</time>
      </trkpt>
      <trkpt lat="49.11803" lon="1.77895">
        <ele>117.9</ele>
        <time>2024-05-05T08:51:59Z</time>
      </trkpt>
      <trkpt lat="49.11802" lon="1.77886">
        <ele>118.1</ele>
        <time>2024-05-05T08:52:04Z</time>
      </trkpt>
      <trkpt lat="49.11803" lon="1.77876">
        <ele>118.1</ele>
        <time>2024-05-05T08:52:09Z</time>
      </trkpt>
      <trkpt lat="49.11805" lon="1.77864">
        <ele>118</ele>
        <time>2024-05-05T08:52:14Z</time>
      </trkpt>
      <trkpt lat="49.11809" lon="1.7785">
        <ele>118.1</ele>
        <time>2024-05-05T08:52:20Z</time>
      </trkpt>
      <trkpt lat="49.1181" lon="1.77841">
        <ele>118.3</ele>
        <time>2024-05-05T08:52:25Z</time>
      </trkpt>
      <trkpt lat="49.11812" lon="1.7783">
        <ele>118.4</ele>
        <time>2024-05-05T08:52:31Z</time>
      </trkpt>
      <trkpt lat="49.11813" lon="1.77817">
        <ele>118.2</ele>
        <time>2024-05-05T08:52:37Z</time>
      </trkpt>
      <trkpt lat="49.11814" lon="1.77806">
        <ele>118.1</ele>
        <time>2024-05-05T08:52:42Z</time>
      </trkpt>
      <trkpt lat="49.11815" lon="1.77797">
        <ele>118</ele>
        <time>2024-05-05T08:52:47Z</time>
      </trkpt>
      <trkpt lat="49.11817" lon="1.77788">
        <ele>117.8</ele>
        <time>2024-05-05T08:52:52Z</time>
      </trkpt>
      <trkpt lat="49.11821" lon="1.77776">
        <ele>117.3</ele>
        <time>2024-05-05T08:52:58Z</time>
      </trkpt>
      <trkpt lat="49.11824" lon="1.77763">
        <ele>117.1</ele>
        <time>2024-05-05T08:53:04Z</time>
      </trkpt>
      <trkpt lat="49.11827" lon="1.77752">
        <ele>116.9</ele>
        <time>2024-05-05T08:53:10Z</time>
      </trkpt>
      <trkpt lat="49.11831" lon="1.77739">
        <ele>116.4</ele>
        <time>2024-05-05T08:53:16Z</time>
      </trkpt>
      <trkpt lat="49.11835" lon="1.77728">
        <ele>115.9</ele>
        <time>2024-05-05T08:53:22Z</time>
      </trkpt>
      <trkpt lat="49.11837" lon="1.77718">
        <ele>115.6</ele>
        <time>2024-05-05T08:53:28Z</time>
      </trkpt>
      <trkpt lat="49.1184" lon="1.77707">
        <ele>115.2</ele>
        <time>2024-05-05T08:53:33Z</time>
      </trkpt>
      <trkpt lat="49.11845" lon="1.77698">
        <ele>114.7</ele>
        <time>2024-05-05T08:53:39Z</time>
      </trkpt>
      <trkpt lat="49.11847" lon="1.77688">
        <ele>114.6</ele>
        <time>2024-05-05T08:53:45Z</time>
      </trkpt>
      <trkpt lat="49.11849" lon="1.77679">
        <ele>114.6</ele>
        <time>2024-05-05T08:53:50Z</time>
      </trkpt>
      <trkpt lat="49.11852" lon="1.77665">
        <ele>114.2</ele>
        <time>2024-05-05T08:53:56Z</time>
      </trkpt>
      <trkpt lat="49.11855" lon="1.77652">
        <ele>113.5</ele>
        <time>2024-05-05T08:54:02Z</time>
      </trkpt>
      <trkpt lat="49.11857" lon="1.77646">
        <ele>113</ele>
        <time>2024-05-05T08:54:07Z</time>
      </trkpt>
      <trkpt lat="49.11861" lon="1.77641">
        <ele>112.1</ele>
        <time>2024-05-05T08:54:12Z</time>
      </trkpt>
      <trkpt lat="49.11868" lon="1.77633">
        <ele>111.4</ele>
        <time>2024-05-05T08:54:18Z</time>
      </trkpt>
      <trkpt lat="49.11873" lon="1.77629">
        <ele>111</ele>
        <time>2024-05-05T08:54:23Z</time>
      </trkpt>
      <trkpt lat="49.1188" lon="1.77622">
        <ele>110.2</ele>
        <time>2024-05-05T08:54:29Z</time>
      </trkpt>
      <trkpt lat="49.11887" lon="1.77614">
        <ele>109.3</ele>
        <time>2024-05-05T08:54:35Z</time>
      </trkpt>
      <trkpt lat="49.11892" lon="1.77605">
        <ele>108.7</ele>
        <time>2024-05-05T08:54:40Z</time>
      </trkpt>
      <trkpt lat="49.11897" lon="1.77598">
        <ele>108.2</ele>
        <time>2024-05-05T08:54:45Z</time>
      </trkpt>
      <trkpt lat="49.11902" lon="1.77593">
        <ele>107.9</ele>
        <time>2024-05-05T08:54:51Z</time>
      </trkpt>
      <trkpt lat="49.11908" lon="1.77587">
        <ele>107.4</ele>
        <time>2024-05-05T08:54:57Z</time>
      </trkpt>
      <trkpt lat="49.11915" lon="1.77579">
        <ele>106.9</ele>
        <time>2024-05-05T08:55:03Z</time>
      </trkpt>
      <trkpt lat="49.11923" lon="1.77572">
        <ele>107.4</ele>
        <time>2024-05-05T08:55:09Z</time>
      </trkpt>
      <trkpt lat="49.1193" lon="1.77564">
        <ele>107.8</ele>
        <time>2024-05-05T08:55:15Z</time>
      </trkpt>
      <trkpt lat="49.11934" lon="1.77555">
        <ele>107.9</ele>
        <time>2024-05-05T08:55:21Z</time>
      </trkpt>
      <trkpt lat="49.11934" lon="1.77545">
        <ele>107.7</ele>
        <time>2024-05-05T08:55:26Z</time>
      </trkpt>
      <trkpt lat="49.11934" lon="1.77532">
        <ele>107.4</ele>
        <time>2024-05-05T08:55:32Z</time>
      </trkpt>
      <trkpt lat="49.11934" lon="1.7752">
        <ele>107.3</ele>
        <time>2024-05-05T08:55:37Z</time>
      </trkpt>
      <trkpt lat="49.11935" lon="1.77511">
        <ele>107.3</ele>
        <time>2024-05-05T08:55:42Z</time>
      </trkpt>
      <trkpt lat="49.11936" lon="1.77499">
        <ele>107.4</ele>
        <time>2024-05-05T08:55:48Z</time>
      </trkpt>
      <trkpt lat="49.11937" lon="1.77488">
        <ele>107.3</ele>
        <time>2024-05-05T08:55:53Z</time>
      </trkpt>
      <trkpt lat="49.11938" lon="1.77475">
        <ele>107.1</ele>
        <time>2024-05-05T08:55:59Z</time>
      </trkpt>
      <trkpt lat="49.11939" lon="1.77464">
        <ele>107</ele>
        <time>2024-05-05T08:56:04Z</time>
      </trkpt>
      <trkpt lat="49.11941" lon="1.77449">
        <ele>107</ele>
        <time>2024-05-05T08:56:10Z</time>
      </trkpt>
      <trkpt lat="49.11943" lon="1.77441">
        <ele>106.9</ele>
        <time>2024-05-05T08:56:15Z</time>
      </trkpt>
      <trkpt lat="49.11945" lon="1.77436">
        <ele>106.7</ele>
        <time>2024-05-05T08:56:20Z</time>
      </trkpt>
      <trkpt lat="49.11946" lon="1.77426">
        <ele>106.5</ele>
        <time>2024-05-05T08:56:26Z</time>
      </trkpt>
      <trkpt lat="49.1195" lon="1.77419">
        <ele>106.5</ele>
        <time>2024-05-05T08:56:31Z</time>
      </trkpt>
      <trkpt lat="49.11956" lon="1.77409">
        <ele>106.6</ele>
        <time>2024-05-05T08:56:37Z</time>
      </trkpt>
      <trkpt lat="49.1196" lon="1.77399">
        <ele>106.4</ele>
        <time>2024-05-05T08:56:43Z</time>
      </trkpt>
      <trkpt lat="49.11965" lon="1.77392">
        <ele>106.2</ele>
        <time>2024-05-05T08:56:49Z</time>
      </trkpt>
      <trkpt lat="49.11972" lon="1.77384">
        <ele>105.8</ele>
        <time>2024-05-05T08:56:55Z</time>
      </trkpt>
      <trkpt lat="49.11978" lon="1.77377">
        <ele>106.3</ele>
        <time>2024-05-05T08:57:01Z</time>
      </trkpt>
      <trkpt lat="49.11982" lon="1.7737">
        <ele>106.4</ele>
        <time>2024-05-05T08:57:06Z</time>
      </trkpt>
      <trkpt lat="49.11985" lon="1.77363">
        <ele>106.5</ele>
        <time>2024-05-05T08:57:11Z</time>
      </trkpt>
      <trkpt lat="49.11991" lon="1.77356">
        <ele>106.7</ele>
        <time>2024-05-05T08:57:16Z</time>
      </trkpt>
      <trkpt lat="49.11996" lon="1.77347">
        <ele>106.6</ele>
        <time>2024-05-05T08:57:22Z</time>
      </trkpt>
      <trkpt lat="49.12001" lon="1.77338">
        <ele>106.5</ele>
        <time>2024-05-05T08:57:27Z</time>
      </trkpt>
      <trkpt lat="49.12005" lon="1.77329">
        <ele>106.5</ele>
        <time>2024-05-05T08:57:33Z</time>
      </trkpt>
      <trkpt lat="49.1201" lon="1.77319">
        <ele>106.7</ele>
        <time>2024-05-05T08:57:39Z</time>
      </trkpt>
      <trkpt lat="49.12014" lon="1.77307">
        <ele>106.6</ele>
        <time>2024-05-05T08:57:45Z</time>
      </trkpt>
      <trkpt lat="49.12018" lon="1.77299">
        <ele>106.6</ele>
        <time>2024-05-05T08:57:50Z</time>
      </trkpt>
      <trkpt lat="49.12021" lon="1.77291">
        <ele>106.4</ele>
        <time>2024-05-05T08:57:56Z</time>
      </trkpt>
      <trkpt lat="49.12024" lon="1.77284">
        <ele>106.1</ele>
        <time>2024-05-05T08:58:01Z</time>
      </trkpt>
      <trkpt lat="49.12026" lon="1.77278">
        <ele>105.9</ele>
        <time>2024-05-05T08:58:06Z</time>
      </trkpt>
      <trkpt lat="49.12028" lon="1.77272">
        <ele>105.6</ele>
        <time>2024-05-05T08:58:12Z</time>
      </trkpt>
      <trkpt lat="49.1203" lon="1.77264">
        <ele>105.3</ele>
        <time>2024-05-05T08:58:17Z</time>
      </trkpt>
      <trkpt lat="49.12034" lon="1.77254">
        <ele>105.2</ele>
        <time>2024-05-05T08:58:23Z</time>
      </trkpt>
      <trkpt lat="49.1204" lon="1.77241">
        <ele>105.3</ele>
        <time>2024-05-05T08:58:29Z</time>
      </trkpt>
      <trkpt lat="49.12044" lon="1.77233">
        <ele>105.3</ele>
        <time>2024-05-05T08:58:35Z</time>
      </trkpt>
      <trkpt lat="49.12049" lon="1.77223">
        <ele>105.3</ele>
        <time>2024-05-05T08:58:40Z</time>
      </trkpt>
      <trkpt lat="49.12052" lon="1.77213">
        <ele>105.1</ele>
        <time>2024-05-05T08:58:46Z</time>
      </trkpt>
      <trkpt lat="49.12057" lon="1.77204">
        <ele>105</ele>
        <time>2024-05-05T08:58:52Z</time>
      </trkpt>
      <trkpt lat="49.12061" lon="1.77195">
        <ele>104.8</ele>
        <time>2024-05-05T08:58:58Z</time>
      </trkpt>
      <trkpt lat="49.12064" lon="1.77187">
        <ele>104.7</ele>
        <time>2024-05-05T08:59:03Z</time>
      </trkpt>
      <trkpt lat="49.1207" lon="1.77175">
        <ele>104.7</ele>
        <time>2024-05-05T08:59:09Z</time>
      </trkpt>
      <trkpt lat="49.12072" lon="1.77166">
        <ele>104.3</ele>
        <time>2024-05-05T08:59:14Z</time>
      </trkpt>
      <trkpt lat="49.12073" lon="1.77158">
        <ele>103.9</ele>
        <time>2024-05-05T08:59:19Z</time>
      </trkpt>
      <trkpt lat="49.12075" lon="1.77149">
        <ele>103.5</ele>
        <time>2024-05-05T08:59:24Z</time>
      </trkpt>
      <trkpt lat="49.12078" lon="1.7714">
        <ele>103.4</ele>
        <time>2024-05-05T08:59:29Z</time>
      </trkpt>
      <trkpt lat="49.12083" lon="1.77128">
        <ele>103.5</ele>
        <time>2024-05-05T08:59:35Z</time>
      </trkpt>
      <trkpt lat="49.12086" lon="1.77116">
        <ele>104</ele>
        <time>2024-05-05T08:59:41Z</time>
      </trkpt>
      <trkpt lat="49.12089" lon="1.77105">
        <ele>104.3</ele>
        <time>2024-05-05T08:59:47Z</time>
      </trkpt>
      <trkpt lat="49.1209" lon="1.77097">
        <ele>104.6</ele>
        <time>2024-05-05T08:59:52Z</time>
      </trkpt>
      <trkpt lat="49.12092" lon="1.77089">
        <ele>104.9</ele>
        <time>2024-05-05T08:59:58Z</time>
      </trkpt>
      <trkpt lat="49.12093" lon="1.77077">
        <ele>105.2</ele>
        <time>2024-05-05T09:00:04Z</time>
      </trkpt>
      <trkpt lat="49.12095" lon="1.77065">
        <ele>105.6</ele>
        <time>2024-05-05T09:00:10Z</time>
      </trkpt>
      <trkpt lat="49.12096" lon="1.77053">
        <ele>105.7</ele>
        <time>2024-05-05T09:00:15Z</time>
      </trkpt>
      <trkpt lat="49.12097" lon="1.7704">
        <ele>105.6</ele>
        <time>2024-05-05T09:00:21Z</time>
      </trkpt>
      <trkpt lat="49.12097" lon="1.77029">
        <ele>105.5</ele>
        <time>2024-05-05T09:00:26Z</time>
      </trkpt>
      <trkpt lat="49.12096" lon="1.77017">
        <ele>105.1</ele>
        <time>2024-05-05T09:00:32Z</time>
      </trkpt>
      <trkpt lat="49.12096" lon="1.77006">
        <ele>105</ele>
        <time>2024-05-05T09:00:37Z</time>
      </trkpt>
      <trkpt lat="49.12099" lon="1.76992">
        <ele>105.2</ele>
        <time>2024-05-05T09:00:43Z</time>
      </trkpt>
      <trkpt lat="49.12101" lon="1.7698">
        <ele>105.6</ele>
        <time>2024-05-05T09:00:49Z</time>
      </trkpt>
      <trkpt lat="49.12104" lon="1.7697">
        <ele>106</ele>
        <time>2024-05-05T09:00:54Z</time>
      </trkpt>
      <trkpt lat="49.12104" lon="1.76958">
        <ele>105.6</ele>
        <time>2024-05-05T09:01:01Z</time>
      </trkpt>
      <trkpt lat="49.12102" lon="1.76954">
        <ele>105.2</ele>
        <time>2024-05-05T09:01:07Z</time>
      </trkpt>
      <trkpt lat="49.12101" lon="1.76954">
        <ele>105.2</ele>
        <time>2024-05-05T09:01:13Z</time>
      </trkpt>
      <trkpt lat="49.121" lon="1.76952">
        <ele>105</ele>
        <time>2024-05-05T09:01:19Z</time>
      </trkpt>
      <trkpt lat="49.121" lon="1.76952">
        <ele>105</ele>
        <time>2024-05-05T09:01:25Z</time>
      </trkpt>
      <trkpt lat="49.121" lon="1.76952">
        <ele>104.9</ele>
        <time>2024-05-05T09:01:30Z</time>
      </trkpt>
      <trkpt lat="49.121" lon="1.76952">
        <ele>104.9</ele>
        <time>2024-05-05T09:01:35Z</time>
      </trkpt>
      <trkpt lat="49.121" lon="1.76952">
        <ele>105</ele>
        <time>2024-05-05T09:01:41Z</time>
      </trkpt>
      <trkpt lat="49.12101" lon="1.76952">
        <ele>105</ele>
        <time>2024-05-05T09:01:46Z</time>
      </trkpt>
      <trkpt lat="49.121" lon="1.76948">
        <ele>104.9</ele>
        <time>2024-05-05T09:01:52Z</time>
      </trkpt>
      <trkpt lat="49.121" lon="1.76948">
        <ele>104.9</ele>
        <time>2024-05-05T09:01:58Z</time>
      </trkpt>
      <trkpt lat="49.121" lon="1.76948">
        <ele>104.9</ele>
        <time>2024-05-05T09:02:03Z</time>
      </trkpt>
      <trkpt lat="49.121" lon="1.76948">
        <ele>104.9</ele>
        <time>2024-05-05T09:02:08Z</time>
      </trkpt>
      <trkpt lat="49.121" lon="1.76947">
        <ele>104.9</ele>
        <time>2024-05-05T09:02:14Z</time>
      </trkpt>
      <trkpt lat="49.121" lon="1.76947">
        <ele>104.9</ele>
        <time>2024-05-05T09:02:20Z</time>
      </trkpt>
      <trkpt lat="49.121" lon="1.76947">
        <ele>104.9</ele>
        <time>2024-05-05T09:02:25Z</time>
      </trkpt>
      <trkpt lat="49.121" lon="1.76946">
        <ele>104.9</ele>
        <time>2024-05-05T09:02:31Z</time>
      </trkpt>
      <trkpt lat="49.121" lon="1.76946">
        <ele>104.9</ele>
        <time>2024-05-05T09:02:36Z</time>
      </trkpt>
      <trkpt lat="49.121" lon="1.76945">
        <ele>104.9</ele>
        <time>2024-05-05T09:02:42Z</time>
      </trkpt>
      <trkpt lat="49.12101" lon="1.76945">
        <ele>104.9</ele>
        <time>2024-05-05T09:02:47Z</time>
      </trkpt>
      <trkpt lat="49.12101" lon="1.76944">
        <ele>104.9</ele>
        <time>2024-05-05T09:02:53Z</time>
      </trkpt>
      <trkpt lat="49.12101" lon="1.76943">
        <ele>104.9</ele>
        <time>2024-05-05T09:02:59Z</time>
      </trkpt>
      <trkpt lat="49.121" lon="1.76943">
        <ele>104.8</ele>
        <time>2024-05-05T09:03:04Z</time>
      </trkpt>
      <trkpt lat="49.121" lon="1.76943">
        <ele>104.8</ele>
        <time>2024-05-05T09:03:10Z</time>
      </trkpt>
      <trkpt lat="49.121" lon="1.76942">
        <ele>104.8</ele>
        <time>2024-05-05T09:03:16Z</time>
      </trkpt>
      <trkpt lat="49.12101" lon="1.76937">
        <ele>104.9</ele>
        <time>2024-05-05T09:03:22Z</time>
      </trkpt>
      <trkpt lat="49.12103" lon="1.76924">
        <ele>105.1</ele>
        <time>2024-05-05T09:03:27Z</time>
      </trkpt>
      <trkpt lat="49.12103" lon="1.76917">
        <ele>105.1</ele>
        <time>2024-05-05T09:03:32Z</time>
      </trkpt>
      <trkpt lat="49.12103" lon="1.76902">
        <ele>104.6</ele>
        <time>2024-05-05T09:03:38Z</time>
      </trkpt>
      <trkpt lat="49.12105" lon="1.76894">
        <ele>104.6</ele>
        <time>2024-05-05T09:03:43Z</time>
      </trkpt>
      <trkpt lat="49.12107" lon="1.76886">
        <ele>104.6</ele>
        <time>2024-05-05T09:03:49Z</time>
      </trkpt>
      <trkpt lat="49.12108" lon="1.76878">
        <ele>104.6</ele>
        <time>2024-05-05T09:03:55Z</time>
      </trkpt>
      <trkpt lat="49.12109" lon="1.7687">
        <ele>104.8</ele>
        <time>2024-05-05T09:04:00Z</time>
      </trkpt>
      <trkpt lat="49.12111" lon="1.76861">
        <ele>105</ele>
        <time>2024-05-05T09:04:05Z</time>
      </trkpt>
      <trkpt lat="49.12112" lon="1.76854">
        <ele>104.9</ele>
        <time>2024-05-05T09:04:10Z</time>
      </trkpt>
      <trkpt lat="49.12114" lon="1.76845">
        <ele>104.8</ele>
        <time>2024-05-05T09:04:16Z</time>
      </trkpt>
      <trkpt lat="49.12115" lon="1.76832">
        <ele>104.5</ele>
        <time>2024-05-05T09:04:22Z</time>
      </trkpt>
      <trkpt lat="49.12118" lon="1.7682">
        <ele>104.6</ele>
        <time>2024-05-05T09:04:27Z</time>
      </trkpt>
      <trkpt lat="49.12122" lon="1.76808">
        <ele>104.7</ele>
        <time>2024-05-05T09:04:33Z</time>
      </trkpt>
      <trkpt lat="49.12126" lon="1.76799">
        <ele>104.9</ele>
        <time>2024-05-05T09:04:39Z</time>
      </trkpt>
      <trkpt lat="49.12127" lon="1.76795">
        <ele>104.9</ele>
        <time>2024-05-05T09:04:44Z</time>
      </trkpt>
      <trkpt lat="49.12128" lon="1.76791">
        <ele>104.8</ele>
        <time>2024-05-05T09:04:50Z</time>
      </trkpt>
      <trkpt lat="49.12127" lon="1.76785">
        <ele>104.6</ele>
        <time>2024-05-05T09:04:55Z</time>
      </trkpt>
      <trkpt lat="49.12127" lon="1.76783">
        <ele>104.4</ele>
        <time>2024-05-05T09:05:01Z</time>
      </trkpt>
      <trkpt lat="49.12126" lon="1.76782">
        <ele>104.3</ele>
        <time>2024-05-05T09:05:06Z</time>
      </trkpt>
      <trkpt lat="49.12125" lon="1.76781">
        <ele>104.2</ele>
        <time>2024-05-05T09:05:12Z</time>
      </trkpt>
      <trkpt lat="49.12125" lon="1.76781">
        <ele>104.1</ele>
        <time>2024-05-05T09:05:17Z</time>
      </trkpt>
      <trkpt lat="49.12125" lon="1.76781">
        <ele>104.1</ele>
        <time>2024-05-05T09:05:23Z</time>
      </trkpt>
      <trkpt lat="49.12124" lon="1.76781">
        <ele>104</ele>
        <time>2024-05-05T09:05:29Z</time>
      </trkpt>
      <trkpt lat="49.12124" lon="1.76781">
        <ele>104</ele>
        <time>2024-05-05T09:05:35Z</time>
      </trkpt>
      <trkpt lat="49.12124" lon="1.76782">
        <ele>104</ele>
        <time>2024-05-05T09:05:41Z</time>
      </trkpt>
      <trkpt lat="49.12123" lon="1.76782">
        <ele>103.9</ele>
        <time>2024-05-05T09:05:47Z</time>
      </trkpt>
      <trkpt lat="49.12123" lon="1.76781">
        <ele>103.8</ele>
        <time>2024-05-05T09:05:53Z</time>
      </trkpt>
      <trkpt lat="49.12123" lon="1.76776">
        <ele>103.6</ele>
        <time>2024-05-05T09:05:58Z</time>
      </trkpt>
      <trkpt lat="49.12122" lon="1.76773">
        <ele>103.2</ele>
        <time>2024-05-05T09:06:04Z</time>
      </trkpt>
      <trkpt lat="49.12121" lon="1.76772">
        <ele>103.1</ele>
        <time>2024-05-05T09:06:09Z</time>
      </trkpt>
      <trkpt lat="49.12121" lon="1.76772">
        <ele>103</ele>
        <time>2024-05-05T09:06:15Z</time>
      </trkpt>
      <trkpt lat="49.12121" lon="1.76772">
        <ele>103</ele>
        <time>2024-05-05T09:06:21Z</time>
      </trkpt>
      <trkpt lat="49.12121" lon="1.76772">
        <ele>103</ele>
        <time>2024-05-05T09:06:27Z</time>
      </trkpt>
      <trkpt lat="49.1212" lon="1.76772">
        <ele>102.9</ele>
        <time>2024-05-05T09:06:32Z</time>
      </trkpt>
      <trkpt lat="49.12118" lon="1.76772">
        <ele>102.6</ele>
        <time>2024-05-05T09:06:38Z</time>
      </trkpt>
      <trkpt lat="49.12118" lon="1.76771">
        <ele>102.5</ele>
        <time>2024-05-05T09:06:44Z</time>
      </trkpt>
      <trkpt lat="49.12118" lon="1.7677">
        <ele>102.5</ele>
        <time>2024-05-05T09:06:49Z</time>
      </trkpt>
      <trkpt lat="49.12119" lon="1.7677">
        <ele>102.5</ele>
        <time>2024-05-05T09:06:55Z</time>
      </trkpt>
      <trkpt lat="49.12119" lon="1.7677">
        <ele>102.5</ele>
        <time>2024-05-05T09:07:01Z</time>
      </trkpt>
      <trkpt lat="49.12119" lon="1.76768">
        <ele>102.4</ele>
        <time>2024-05-05T09:07:06Z</time>
      </trkpt>
      <trkpt lat="49.1212" lon="1.76767">
        <ele>102.5</ele>
        <time>2024-05-05T09:07:12Z</time>
      </trkpt>
      <trkpt lat="49.1212" lon="1.76764">
        <ele>102.2</ele>
        <time>2024-05-05T09:07:18Z</time>
      </trkpt>
      <trkpt lat="49.12119" lon="1.76758">
        <ele>101.8</ele>
        <time>2024-05-05T09:07:23Z</time>
      </trkpt>
      <trkpt lat="49.12119" lon="1.76755">
        <ele>101.5</ele>
        <time>2024-05-05T09:07:28Z</time>
      </trkpt>
      <trkpt lat="49.1212" lon="1.76746">
        <ele>101.1</ele>
        <time>2024-05-05T09:07:34Z</time>
      </trkpt>
      <trkpt lat="49.12121" lon="1.76734">
        <ele>100.8</ele>
        <time>2024-05-05T09:07:39Z</time>
      </trkpt>
      <trkpt lat="49.12122" lon="1.76727">
        <ele>100.7</ele>
        <time>2024-05-05T09:07:44Z</time>
      </trkpt>
      <trkpt lat="49.12123" lon="1.76714">
        <ele>100.6</ele>
        <time>2024-05-05T09:07:50Z</time>
      </trkpt>
      <trkpt lat="49.12125" lon="1.76704">
        <ele>100.7</ele>
        <time>2024-05-05T09:07:55Z</time>
      </trkpt>
      <trkpt lat="49.12125" lon="1.76692">
        <ele>100.4</ele>
        <time>2024-05-05T09:08:00Z</time>
      </trkpt>
      <trkpt lat="49.12127" lon="1.76683">
        <ele>100.5</ele>
        <time>2024-05-05T09:08:06Z</time>
      </trkpt>
      <trkpt lat="49.12128" lon="1.76681">
        <ele>100.7</ele>
        <time>2024-05-05T09:08:11Z</time>
      </trkpt>
      <trkpt lat="49.1213" lon="1.76679">
        <ele>100.8</ele>
        <time>2024-05-05T09:08:17Z</time>
      </trkpt>
      <trkpt lat="49.1213" lon="1.76674">
        <ele>100.8</ele>
        <time>2024-05-05T09:08:22Z</time>
      </trkpt>
      <trkpt lat="49.12132" lon="1.76664">
        <ele>101</ele>
        <time>2024-05-05T09:08:28Z</time>
      </trkpt>
      <trkpt lat="49.12133" lon="1.76653">
        <ele>101</ele>
        <time>2024-05-05T09:08:34Z</time>
      </trkpt>
      <trkpt lat="49.12133" lon="1.76642">
        <ele>101</ele>
        <time>2024-05-05T09:08:39Z</time>
      </trkpt>
      <trkpt lat="49.12133" lon="1.76629">
        <ele>101.3</ele>
        <time>2024-05-05T09:08:45Z</time>
      </trkpt>
      <trkpt lat="49.12134" lon="1.76621">
        <ele>101.7</ele>
        <time>2024-05-05T09:08:50Z</time>
      </trkpt>
      <trkpt lat="49.12135" lon="1.76612">
        <ele>102.2</ele>
        <time>2024-05-05T09:08:55Z</time>
      </trkpt>
      <trkpt lat="49.12135" lon="1.766">
        <ele>102.3</ele>
        <time>2024-05-05T09:09:01Z</time>
      </trkpt>
      <trkpt lat="49.12135" lon="1.76591">
        <ele>102.3</ele>
        <time>2024-05-05T09:09:06Z</time>
      </trkpt>
      <trkpt lat="49.12135" lon="1.76575">
        <ele>102.3</ele>
        <time>2024-05-05T09:09:12Z</time>
      </trkpt>
      <trkpt lat="49.12134" lon="1.76562">
        <ele>102.1</ele>
        <time>2024-05-05T09:09:18Z</time>
      </trkpt>
      <trkpt lat="49.12134" lon="1.7655">
        <ele>102.1</ele>
        <time>2024-05-05T09:09:24Z</time>
      </trkpt>
      <trkpt lat="49.12134" lon="1.76539">
        <ele>102.1</ele>
        <time>2024-05-05T09:09:30Z</time>
      </trkpt>
      <trkpt lat="49.12134" lon="1.76531">
        <ele>102.1</ele>
        <time>2024-05-05T09:09:35Z</time>
      </trkpt>
      <trkpt lat="49.12135" lon="1.76522">
        <ele>101.9</ele>
        <time>2024-05-05T09:09:41Z</time>
      </trkpt>
      <trkpt lat="49.12137" lon="1.76515">
        <ele>102.1</ele>
        <time>2024-05-05T09:09:46Z</time>
      </trkpt>
      <trkpt lat="49.12136" lon="1.76503">
        <ele>101.5</ele>
        <time>2024-05-05T09:09:52Z</time>
      </trkpt>
      <trkpt lat="49.12134" lon="1.76494">
        <ele>100.6</ele>
        <time>2024-05-05T09:09:58Z</time>
      </trkpt>
      <trkpt lat="49.12134" lon="1.76477">
        <ele>99.5</ele>
        <time>2024-05-05T09:10:04Z</time>
      </trkpt>
      <trkpt lat="49.12132" lon="1.76463">
        <ele>98.4</ele>
        <time>2024-05-05T09:10:10Z</time>
      </trkpt>
      <trkpt lat="49.1213" lon="1.76452">
        <ele>97.7</ele>
        <time>2024-05-05T09:10:15Z</time>
      </trkpt>
      <trkpt lat="49.12127" lon="1.7644">
        <ele>96.9</ele>
        <time>2024-05-05T09:10:20Z</time>
      </trkpt>
      <trkpt lat="49.12124" lon="1.76428">
        <ele>96.4</ele>
        <time>2024-05-05T09:10:26Z</time>
      </trkpt>
      <trkpt lat="49.12123" lon="1.76417">
        <ele>96.2</ele>
        <time>2024-05-05T09:10:32Z</time>
      </trkpt>
      <trkpt lat="49.12123" lon="1.76405">
        <ele>96.1</ele>
        <time>2024-05-05T09:10:38Z</time>
      </trkpt>
      <trkpt lat="49.12123" lon="1.76393">
        <ele>96.2</ele>
        <time>2024-05-05T09:10:43Z</time>
      </trkpt>
      <trkpt lat="49.12122" lon="1.76379">
        <ele>96.4</ele>
        <time>2024-05-05T09:10:49Z</time>
      </trkpt>
      <trkpt lat="49.12121" lon="1.76364">
        <ele>96.9</ele>
        <time>2024-05-05T09:10:55Z</time>
      </trkpt>
      <trkpt lat="49.12121" lon="1.76354">
        <ele>97.3</ele>
        <time>2024-05-05T09:11:00Z</time>
      </trkpt>
      <trkpt lat="49.12122" lon="1.76344">
        <ele>97.8</ele>
        <time>2024-05-05T09:11:06Z</time>
      </trkpt>
      <trkpt lat="49.12121" lon="1.76341">
        <ele>97.7</ele>
        <time>2024-05-05T09:11:11Z</time>
      </trkpt>
      <trkpt lat="49.1212" lon="1.76343">
        <ele>97.4</ele>
        <time>2024-05-05T09:11:16Z</time>
      </trkpt>
      <trkpt lat="49.1212" lon="1.76343">
        <ele>97.3</ele>
        <time>2024-05-05T09:11:21Z</time>
      </trkpt>
      <trkpt lat="49.12119" lon="1.76344">
        <ele>97</ele>
        <time>2024-05-05T09:11:27Z</time>
      </trkpt>
      <trkpt lat="49.12119" lon="1.7634">
        <ele>97.1</ele>
        <time>2024-05-05T09:11:33Z</time>
      </trkpt>
      <trkpt lat="49.12118" lon="1.76332">
        <ele>97</ele>
        <time>2024-05-05T09:11:38Z</time>
      </trkpt>
      <trkpt lat="49.12118" lon="1.76323">
        <ele>97.3</ele>
        <time>2024-05-05T09:11:43Z</time>
      </trkpt>
      <trkpt lat="49.12117" lon="1.76314">
        <ele>97.4</ele>
        <time>2024-05-05T09:11:48Z</time>
      </trkpt>
      <trkpt lat="49.12117" lon="1.76305">
        <ele>97.8</ele>
        <time>2024-05-05T09:11:54Z</time>
      </trkpt>
      <trkpt lat="49.12118" lon="1.76299">
        <ele>98.4</ele>
        <time>2024-05-05T09:11:59Z</time>
      </trkpt>
      <trkpt lat="49.1212" lon="1.76291">
        <ele>99.4</ele>
        <time>2024-05-05T09:12:04Z</time>
      </trkpt>
      <trkpt lat="49.12121" lon="1.76281">
        <ele>100.3</ele>
        <time>2024-05-05T09:12:10Z</time>
      </trkpt>
      <trkpt lat="49.12121" lon="1.76273">
        <ele>100.6</ele>
        <time>2024-05-05T09:12:15Z</time>
      </trkpt>
      <trkpt lat="49.1212" lon="1.76262">
        <ele>100.7</ele>
        <time>2024-05-05T09:12:21Z</time>
      </trkpt>
      <trkpt lat="49.12119" lon="1.76252">
        <ele>101</ele>
        <time>2024-05-05T09:12:26Z</time>
      </trkpt>
      <trkpt lat="49.1212" lon="1.7624">
        <ele>101.6</ele>
        <time>2024-05-05T09:12:32Z</time>
      </trkpt>
      <trkpt lat="49.1212" lon="1.76229">
        <ele>102.1</ele>
        <time>2024-05-05T09:12:38Z</time>
      </trkpt>
      <trkpt lat="49.12122" lon="1.76219">
        <ele>102.7</ele>
        <time>2024-05-05T09:12:43Z</time>
      </trkpt>
      <trkpt lat="49.12126" lon="1.76211">
        <ele>103.4</ele>
        <time>2024-05-05T09:12:49Z</time>
      </trkpt>
      <trkpt lat="49.1213" lon="1.76204">
        <ele>104.3</ele>
        <time>2024-05-05T09:12:55Z</time>
      </trkpt>
      <trkpt lat="49.12133" lon="1.76197">
        <ele>104.8</ele>
        <time>2024-05-05T09:13:00Z</time>
      </trkpt>
      <trkpt lat="49.12137" lon="1.76189">
        <ele>105.4</ele>
        <time>2024-05-05T09:13:06Z</time>
      </trkpt>
      <trkpt lat="49.12139" lon="1.76182">
        <ele>105.6</ele>
        <time>2024-05-05T09:13:11Z</time>
      </trkpt>
      <trkpt lat="49.12142" lon="1.76174">
        <ele>105.8</ele>
        <time>2024-05-05T09:13:16Z</time>
      </trkpt>
      <trkpt lat="49.12148" lon="1.76166">
        <ele>107.1</ele>
        <time>2024-05-05T09:13:22Z</time>
      </trkpt>
      <trkpt lat="49.12153" lon="1.76159">
        <ele>107.7</ele>
        <time>2024-05-05T09:13:28Z</time>
      </trkpt>
      <trkpt lat="49.12156" lon="1.7615">
        <ele>108.2</ele>
        <time>2024-05-05T09:13:33Z</time>
      </trkpt>
      <trkpt lat="49.12162" lon="1.76138">
        <ele>108.9</ele>
        <time>2024-05-05T09:13:39Z</time>
      </trkpt>
      <trkpt lat="49.12168" lon="1.76127">
        <ele>109.9</ele>
        <time>2024-05-05T09:13:45Z</time>
      </trkpt>
      <trkpt lat="49.12173" lon="1.76119">
        <ele>110.3</ele>
        <time>2024-05-05T09:13:51Z</time>
      </trkpt>
      <trkpt lat="49.12176" lon="1.76112">
        <ele>110.3</ele>
        <time>2024-05-05T09:13:56Z</time>
      </trkpt>
      <trkpt lat="49.1218" lon="1.76102">
        <ele>110.1</ele>
        <time>2024-05-05T09:14:02Z</time>
      </trkpt>
      <trkpt lat="49.12183" lon="1.76094">
        <ele>109.9</ele>
        <time>2024-05-05T09:14:07Z</time>
      </trkpt>
      <trkpt lat="49.12187" lon="1.76084">
        <ele>109.7</ele>
        <time>2024-05-05T09:14:13Z</time>
      </trkpt>
      <trkpt lat="49.12192" lon="1.76072">
        <ele>109.3</ele>
        <time>2024-05-05T09:14:19Z</time>
      </trkpt>
      <trkpt lat="49.12196" lon="1.76062">
        <ele>108.9</ele>
        <time>2024-05-05T09:14:24Z</time>
      </trkpt>
      <trkpt lat="49.12201" lon="1.76053">
        <ele>108.5</ele>
        <time>2024-05-05T09:14:30Z</time>
      </trkpt>
      <trkpt lat="49.12205" lon="1.76044">
        <ele>108.3</ele>
        <time>2024-05-05T09:14:35Z</time>
      </trkpt>
      <trkpt lat="49.1221" lon="1.76032">
        <ele>107.9</ele>
        <time>2024-05-05T09:14:41Z</time>
      </trkpt>
      <trkpt lat="49.12213" lon="1.76022">
        <ele>107.7</ele>
        <time>2024-05-05T09:14:46Z</time>
      </trkpt>
      <trkpt lat="49.12217" lon="1.76014">
        <ele>107.4</ele>
        <time>2024-05-05T09:14:51Z</time>
      </trkpt>
      <trkpt lat="49.12221" lon="1.76004">
        <ele>107.2</ele>
        <time>2024-05-05T09:14:56Z</time>
      </trkpt>
      <trkpt lat="49.12225" lon="1.75993">
        <ele>106.8</ele>
        <time>2024-05-05T09:15:02Z</time>
      </trkpt>
      <trkpt lat="49.12227" lon="1.75983">
        <ele>106.3</ele>
        <time>2024-05-05T09:15:07Z</time>
      </trkpt>
      <trkpt lat="49.12231" lon="1.75972">
        <ele>105.9</ele>
        <time>2024-05-05T09:15:13Z</time>
      </trkpt>
      <trkpt lat="49.12234" lon="1.75961">
        <ele>105.5</ele>
        <time>2024-05-05T09:15:18Z</time>
      </trkpt>
      <trkpt lat="49.12239" lon="1.75951">
        <ele>105.2</ele>
        <time>2024-05-05T09:15:24Z</time>
      </trkpt>
      <trkpt lat="49.12242" lon="1.75943">
        <ele>105</ele>
        <time>2024-05-05T09:15:29Z</time>
      </trkpt>
      <trkpt lat="49.12246" lon="1.75932">
        <ele>104.3</ele>
        <time>2024-05-05T09:15:35Z</time>
      </trkpt>
      <trkpt lat="49.1225" lon="1.75921">
        <ele>103.4</ele>
        <time>2024-05-05T09:15:40Z</time>
      </trkpt>
      <trkpt lat="49.12253" lon="1.75909">
        <ele>102.6</ele>
        <time>2024-05-05T09:15:46Z</time>
      </trkpt>
      <trkpt lat="49.12256" lon="1.75901">
        <ele>102.2</ele>
        <time>2024-05-05T09:15:51Z</time>
      </trkpt>
      <trkpt lat="49.12259" lon="1.75893">
        <ele>101.9</ele>
        <time>2024-05-05T09:15:56Z</time>
      </trkpt>
      <trkpt lat="49.12259" lon="1.75881">
        <ele>101</ele>
        <time>2024-05-05T09:16:02Z</time>
      </trkpt>
      <trkpt lat="49.12262" lon="1.75869">
        <ele>100.1</ele>
        <time>2024-05-05T09:16:08Z</time>
      </trkpt>
      <trkpt lat="49.12265" lon="1.75859">
        <ele>99.4</ele>
        <time>2024-05-05T09:16:14Z</time>
      </trkpt>
      <trkpt lat="49.12268" lon="1.75854">
        <ele>99.3</ele>
        <time>2024-05-05T09:16:19Z</time>
      </trkpt>
      <trkpt lat="49.12272" lon="1.75847">
        <ele>99.2</ele>
        <time>2024-05-05T09:16:24Z</time>
      </trkpt>
      <trkpt lat="49.12277" lon="1.75835">
        <ele>99</ele>
        <time>2024-05-05T09:16:30Z</time>
      </trkpt>
      <trkpt lat="49.12285" lon="1.75824">
        <ele>98.9</ele>
        <time>2024-05-05T09:16:36Z</time>
      </trkpt>
      <trkpt lat="49.12293" lon="1.75818">
        <ele>98.7</ele>
        <time>2024-05-05T09:16:41Z</time>
      </trkpt>
      <trkpt lat="49.123" lon="1.75811">
        <ele>98.4</ele>
        <time>2024-05-05T09:16:47Z</time>
      </trkpt>
      <trkpt lat="49.12309" lon="1.75809">
        <ele>98.5</ele>
        <time>2024-05-05T09:16:52Z</time>
      </trkpt>
      <trkpt lat="49.12316" lon="1.75804">
        <ele>98.6</ele>
        <time>2024-05-05T09:16:58Z</time>
      </trkpt>
      <trkpt lat="49.1232" lon="1.758">
        <ele>98.6</ele>
        <time>2024-05-05T09:17:03Z</time>
      </trkpt>
      <trkpt lat="49.12326" lon="1.75793">
        <ele>98.2</ele>
        <time>2024-05-05T09:17:09Z</time>
      </trkpt>
      <trkpt lat="49.12333" lon="1.75782">
        <ele>97.4</ele>
        <time>2024-05-05T09:17:15Z</time>
      </trkpt>
      <trkpt lat="49.12339" lon="1.75774">
        <ele>96.9</ele>
        <time>2024-05-05T09:17:21Z</time>
      </trkpt>
      <trkpt lat="49.12344" lon="1.75767">
        <ele>96.6</ele>
        <time>2024-05-05T09:17:26Z</time>
      </trkpt>
      <trkpt lat="49.12353" lon="1.7576">
        <ele>96.4</ele>
        <time>2024-05-05T09:17:32Z</time>
      </trkpt>
      <trkpt lat="49.1236" lon="1.75757">
        <ele>96.4</ele>
        <time>2024-05-05T09:17:37Z</time>
      </trkpt>
      <trkpt lat="49.12366" lon="1.75753">
        <ele>96.2</ele>
        <time>2024-05-05T09:17:43Z</time>
      </trkpt>
      <trkpt lat="49.1237" lon="1.75748">
        <ele>95.9</ele>
        <time>2024-05-05T09:17:48Z</time>
      </trkpt>
      <trkpt lat="49.12374" lon="1.75742">
        <ele>95.3</ele>
        <time>2024-05-05T09:17:54Z</time>
      </trkpt>
      <trkpt lat="49.12383" lon="1.75741">
        <ele>95.3</ele>
        <time>2024-05-05T09:17:59Z</time>
      </trkpt>
      <trkpt lat="49.12389" lon="1.75739">
        <ele>95.2</ele>
        <time>2024-05-05T09:18:04Z</time>
      </trkpt>
      <trkpt lat="49.12395" lon="1.75733">
        <ele>94.8</ele>
        <time>2024-05-05T09:18:09Z</time>
      </trkpt>
      <trkpt lat="49.12405" lon="1.75723">
        <ele>94.1</ele>
        <time>2024-05-05T09:18:15Z</time>
      </trkpt>
      <trkpt lat="49.12411" lon="1.75722">
        <ele>93.9</ele>
        <time>2024-05-05T09:18:20Z</time>
      </trkpt>
      <trkpt lat="49.12419" lon="1.75716">
        <ele>93.4</ele>
        <time>2024-05-05T09:18:26Z</time>
      </trkpt>
      <trkpt lat="49.12427" lon="1.75711">
        <ele>92.8</ele>
        <time>2024-05-05T09:18:31Z</time>
      </trkpt>
      <trkpt lat="49.12437" lon="1.75706">
        <ele>92.1</ele>
        <time>2024-05-05T09:18:37Z</time>
      </trkpt>
      <trkpt lat="49.12444" lon="1.757">
        <ele>91.1</ele>
        <time>2024-05-05T09:18:43Z</time>
      </trkpt>
      <trkpt lat="49.12451" lon="1.75696">
        <ele>90.7</ele>
        <time>2024-05-05T09:18:48Z</time>
      </trkpt>
      <trkpt lat="49.12459" lon="1.75689">
        <ele>90.6</ele>
        <time>2024-05-05T09:18:54Z</time>
      </trkpt>
      <trkpt lat="49.12465" lon="1.75684">
        <ele>90.5</ele>
        <time>2024-05-05T09:19:00Z</time>
      </trkpt>
      <trkpt lat="49.1247" lon="1.75679">
        <ele>90.2</ele>
        <time>2024-05-05T09:19:05Z</time>
      </trkpt>
      <trkpt lat="49.12477" lon="1.7567">
        <ele>89.7</ele>
        <time>2024-05-05T09:19:10Z</time>
      </trkpt>
      <trkpt lat="49.12484" lon="1.75656">
        <ele>88.9</ele>
        <time>2024-05-05T09:19:16Z</time>
      </trkpt>
      <trkpt lat="49.12491" lon="1.75651">
        <ele>88.9</ele>
        <time>2024-05-05T09:19:22Z</time>
      </trkpt>
      <trkpt lat="49.12496" lon="1.75644">
        <ele>88.4</ele>
        <time>2024-05-05T09:19:27Z</time>
      </trkpt>
      <trkpt lat="49.12502" lon="1.75637">
        <ele>88.1</ele>
        <time>2024-05-05T09:19:33Z</time>
      </trkpt>
      <trkpt lat="49.12507" lon="1.7563">
        <ele>88.4</ele>
        <time>2024-05-05T09:19:39Z</time>
      </trkpt>
      <trkpt lat="49.12513" lon="1.75621">
        <ele>88.5</ele>
        <time>2024-05-05T09:19:45Z</time>
      </trkpt>
      <trkpt lat="49.12518" lon="1.7561">
        <ele>88.3</ele>
        <time>2024-05-05T09:19:50Z</time>
      </trkpt>
      <trkpt lat="49.12522" lon="1.75597">
        <ele>88</ele>
        <time>2024-05-05T09:19:56Z</time>
      </trkpt>
      <trkpt lat="49.12524" lon="1.75588">
        <ele>87.8</ele>
        <time>2024-05-05T09:20:01Z</time>
      </trkpt>
      <trkpt lat="49.12525" lon="1.75578">
        <ele>87.6</ele>
        <time>2024-05-05T09:20:06Z</time>
      </trkpt>
      <trkpt lat="49.12525" lon="1.75565">
        <ele>87.1</ele>
        <time>2024-05-05T09:20:12Z</time>
      </trkpt>
      <trkpt lat="49.12526" lon="1.75553">
        <ele>86.8</ele>
        <time>2024-05-05T09:20:17Z</time>
      </trkpt>
      <trkpt lat="49.12527" lon="1.7554">
        <ele>86.4</ele>
        <time>2024-05-05T09:20:23Z</time>
      </trkpt>
      <trkpt lat="49.12527" lon="1.75531">
        <ele>86.1</ele>
        <time>2024-05-05T09:20:28Z</time>
      </trkpt>
      <trkpt lat="49.12529" lon="1.75517">
        <ele>85.8</ele>
        <time>2024-05-05T09:20:34Z</time>
      </trkpt>
      <trkpt lat="49.1253" lon="1.75503">
        <ele>85.4</ele>
        <time>2024-05-05T09:20:40Z</time>
      </trkpt>
      <trkpt lat="49.12531" lon="1.75496">
        <ele>85.4</ele>
        <time>2024-05-05T09:20:45Z</time>
      </trkpt>
      <trkpt lat="49.12533" lon="1.75483">
        <ele>85.5</ele>
        <time>2024-05-05T09:20:51Z</time>
      </trkpt>
      <trkpt lat="49.12534" lon="1.75473">
        <ele>85.5</ele>
        <time>2024-05-05T09:20:56Z</time>
      </trkpt>
      <trkpt lat="49.12537" lon="1.75466">
        <ele>85.4</ele>
        <time>2024-05-05T09:21:01Z</time>
      </trkpt>
      <trkpt lat="49.1254" lon="1.75454">
        <ele>84.9</ele>
        <time>2024-05-05T09:21:07Z</time>
      </trkpt>
      <trkpt lat="49.12544" lon="1.75442">
        <ele>84.5</ele>
        <time>2024-05-05T09:21:13Z</time>
      </trkpt>
      <trkpt lat="49.12548" lon="1.7543">
        <ele>84.4</ele>
        <time>2024-05-05T09:21:19Z</time>
      </trkpt>
      <trkpt lat="49.12552" lon="1.75423">
        <ele>84.2</ele>
        <time>2024-05-05T09:21:24Z</time>
      </trkpt>
      <trkpt lat="49.12558" lon="1.75415">
        <ele>84.1</ele>
        <time>2024-05-05T09:21:30Z</time>
      </trkpt>
      <trkpt lat="49.12563" lon="1.75408">
        <ele>84.2</ele>
        <time>2024-05-05T09:21:36Z</time>
      </trkpt>
      <trkpt lat="49.12569" lon="1.75401">
        <ele>84.2</ele>
        <time>2024-05-05T09:21:42Z</time>
      </trkpt>
      <trkpt lat="49.12574" lon="1.75396">
        <ele>84.2</ele>
        <time>2024-05-05T09:21:47Z</time>
      </trkpt>
      <trkpt lat="49.1258" lon="1.75388">
        <ele>84</ele>
        <time>2024-05-05T09:21:53Z</time>
      </trkpt>
      <trkpt lat="49.12585" lon="1.75382">
        <ele>84.1</ele>
        <time>2024-05-05T09:21:58Z</time>
      </trkpt>
      <trkpt lat="49.12592" lon="1.75375">
        <ele>84.4</ele>
        <time>2024-05-05T09:22:04Z</time>
      </trkpt>
      <trkpt lat="49.12594" lon="1.75367">
        <ele>84.5</ele>
        <time>2024-05-05T09:22:09Z</time>
      </trkpt>
      <trkpt lat="49.12594" lon="1.75358">
        <ele>84.3</ele>
        <time>2024-05-05T09:22:15Z</time>
      </trkpt>
      <trkpt lat="49.12599" lon="1.75352">
        <ele>84.4</ele>
        <time>2024-05-05T09:22:20Z</time>
      </trkpt>
      <trkpt lat="49.12606" lon="1.75344">
        <ele>84.3</ele>
        <time>2024-05-05T09:22:25Z</time>
      </trkpt>
      <trkpt lat="49.12613" lon="1.75337">
        <ele>84.3</ele>
        <time>2024-05-05T09:22:30Z</time>
      </trkpt>
      <trkpt lat="49.12621" lon="1.75336">
        <ele>84.8</ele>
        <time>2024-05-05T09:22:36Z</time>
      </trkpt>
      <trkpt lat="49.12624" lon="1.75331">
        <ele>84.8</ele>
        <time>2024-05-05T09:22:42Z</time>
      </trkpt>
      <trkpt lat="49.12629" lon="1.75324">
        <ele>84.7</ele>
        <time>2024-05-05T09:22:48Z</time>
      </trkpt>
      <trkpt lat="49.12635" lon="1.75321">
        <ele>84.9</ele>
        <time>2024-05-05T09:22:54Z</time>
      </trkpt>
      <trkpt lat="49.12643" lon="1.75316">
        <ele>85.1</ele>
        <time>2024-05-05T09:23:00Z</time>
      </trkpt>
      <trkpt lat="49.1265" lon="1.75307">
        <ele>85.2</ele>
        <time>2024-05-05T09:23:06Z</time>
      </trkpt>
      <trkpt lat="49.12653" lon="1.75298">
        <ele>85.1</ele>
        <time>2024-05-05T09:23:11Z</time>
      </trkpt>
      <trkpt lat="49.12659" lon="1.7529">
        <ele>85.2</ele>
        <time>2024-05-05T09:23:16Z</time>
      </trkpt>
      <trkpt lat="49.12664" lon="1.7528">
        <ele>85</ele>
        <time>2024-05-05T09:23:22Z</time>
      </trkpt>
      <trkpt lat="49.12669" lon="1.75276">
        <ele>84.9</ele>
        <time>2024-05-05T09:23:27Z</time>
      </trkpt>
      <trkpt lat="49.12677" lon="1.75262">
        <ele>84.3</ele>
        <time>2024-05-05T09:23:33Z</time>
      </trkpt>
      <trkpt lat="49.12682" lon="1.75258">
        <ele>84.2</ele>
        <time>2024-05-05T09:23:38Z</time>
      </trkpt>
      <trkpt lat="49.12689" lon="1.7525">
        <ele>83.8</ele>
        <time>2024-05-05T09:23:44Z</time>
      </trkpt>
      <trkpt lat="49.12694" lon="1.75238">
        <ele>83.1</ele>
        <time>2024-05-05T09:23:50Z</time>
      </trkpt>
      <trkpt lat="49.1269" lon="1.75231">
        <ele>82.6</ele>
        <time>2024-05-05T09:23:55Z</time>
      </trkpt>
      <trkpt lat="49.12687" lon="1.75222">
        <ele>82</ele>
        <time>2024-05-05T09:24:00Z</time>
      </trkpt>
      <trkpt lat="49.1268" lon="1.75214">
        <ele>81.5</ele>
        <time>2024-05-05T09:24:06Z</time>
      </trkpt>
      <trkpt lat="49.12676" lon="1.75207">
        <ele>81.2</ele>
        <time>2024-05-05T09:24:12Z</time>
      </trkpt>
      <trkpt lat="49.12672" lon="1.75196">
        <ele>80.9</ele>
        <time>2024-05-05T09:24:17Z</time>
      </trkpt>
      <trkpt lat="49.12669" lon="1.75188">
        <ele>80.9</ele>
        <time>2024-05-05T09:24:22Z</time>
      </trkpt>
      <trkpt lat="49.12666" lon="1.75178">
        <ele>81</ele>
        <time>2024-05-05T09:24:28Z</time>
      </trkpt>
      <trkpt lat="49.12663" lon="1.75171">
        <ele>81.1</ele>
        <time>2024-05-05T09:24:33Z</time>
      </trkpt>
      <trkpt lat="49.1266" lon="1.75159">
        <ele>81.3</ele>
        <time>2024-05-05T09:24:38Z</time>
      </trkpt>
      <trkpt lat="49.12657" lon="1.75149">
        <ele>81.5</ele>
        <time>2024-05-05T09:24:44Z</time>
      </trkpt>
      <trkpt lat="49.12658" lon="1.75141">
        <ele>81.6</ele>
        <time>2024-05-05T09:24:49Z</time>
      </trkpt>
      <trkpt lat="49.12654" lon="1.75132">
        <ele>82.1</ele>
        <time>2024-05-05T09:24:54Z</time>
      </trkpt>
      <trkpt lat="49.12651" lon="1.75126">
        <ele>82.6</ele>
        <time>2024-05-05T09:25:00Z</time>
      </trkpt>
      <trkpt lat="49.12647" lon="1.75122">
        <ele>83</ele>
        <time>2024-05-05T09:25:05Z</time>
      </trkpt>
      <trkpt lat="49.12644" lon="1.75119">
        <ele>83.4</ele>
        <time>2024-05-05T09:25:10Z</time>
      </trkpt>
      <trkpt lat="49.12638" lon="1.75109">
        <ele>84</ele>
        <time>2024-05-05T09:25:16Z</time>
      </trkpt>
      <trkpt lat="49.12633" lon="1.75101">
        <ele>84.3</ele>
        <time>2024-05-05T09:25:22Z</time>
      </trkpt>
      <trkpt lat="49.1263" lon="1.75089">
        <ele>84.6</ele>
        <time>2024-05-05T09:25:28Z</time>
      </trkpt>
      <trkpt lat="49.1263" lon="1.75083">
        <ele>84.6</ele>
        <time>2024-05-05T09:25:33Z</time>
      </trkpt>
      <trkpt lat="49.12631" lon="1.75071">
        <ele>85</ele>
        <time>2024-05-05T09:25:39Z</time>
      </trkpt>
      <trkpt lat="49.12631" lon="1.75067">
        <ele>85.2</ele>
        <time>2024-05-05T09:25:45Z</time>
      </trkpt>
      <trkpt lat="49.12631" lon="1.75068">
        <ele>85.1</ele>
        <time>2024-05-05T09:25:51Z</time>
      </trkpt>
      <trkpt lat="49.12629" lon="1.75066">
        <ele>85.3</ele>
        <time>2024-05-05T09:25:56Z</time>
      </trkpt>
      <trkpt lat="49.12628" lon="1.75061">
        <ele>85.6</ele>
        <time>2024-05-05T09:26:01Z</time>
      </trkpt>
      <trkpt lat="49.12628" lon="1.75055">
        <ele>85.9</ele>
        <time>2024-05-05T09:26:06Z</time>
      </trkpt>
      <trkpt lat="49.12622" lon="1.75048">
        <ele>87</ele>
        <time>2024-05-05T09:26:12Z</time>
      </trkpt>
      <trkpt lat="49.12617" lon="1.75043">
        <ele>87.8</ele>
        <time>2024-05-05T09:26:17Z</time>
      </trkpt>
      <trkpt lat="49.12614" lon="1.75035">
        <ele>89</ele>
        <time>2024-05-05T09:26:23Z</time>
      </trkpt>
      <trkpt lat="49.12613" lon="1.75027">
        <ele>89.9</ele>
        <time>2024-05-05T09:26:28Z</time>
      </trkpt>
      <trkpt lat="49.12613" lon="1.75016">
        <ele>90.6</ele>
        <time>2024-05-05T09:26:34Z</time>
      </trkpt>
      <trkpt lat="49.12613" lon="1.75008">
        <ele>91.2</ele>
        <time>2024-05-05T09:26:39Z</time>
      </trkpt>
      <trkpt lat="49.12611" lon="1.75">
        <ele>92</ele>
        <time>2024-05-05T09:26:44Z</time>
      </trkpt>
      <trkpt lat="49.12608" lon="1.74992">
        <ele>93</ele>
        <time>2024-05-05T09:26:50Z</time>
      </trkpt>
      <trkpt lat="49.12608" lon="1.74984">
        <ele>93.6</ele>
        <time>2024-05-05T09:26:56Z</time>
      </trkpt>
      <trkpt lat="49.12607" lon="1.74976">
        <ele>94.3</ele>
        <time>2024-05-05T09:27:02Z</time>
      </trkpt>
      <trkpt lat="49.12606" lon="1.7497">
        <ele>94.9</ele>
        <time>2024-05-05T09:27:07Z</time>
      </trkpt>
      <trkpt lat="49.12606" lon="1.74963">
        <ele>95.4</ele>
        <time>2024-05-05T09:27:12Z</time>
      </trkpt>
      <trkpt lat="49.12605" lon="1.74955">
        <ele>96.1</ele>
        <time>2024-05-05T09:27:17Z</time>
      </trkpt>
      <trkpt lat="49.12603" lon="1.74943">
        <ele>97.3</ele>
        <time>2024-05-05T09:27:23Z</time>
      </trkpt>
      <trkpt lat="49.12599" lon="1.74935">
        <ele>98.4</ele>
        <time>2024-05-05T09:27:28Z</time>
      </trkpt>
      <trkpt lat="49.12596" lon="1.74927">
        <ele>99.4</ele>
        <time>2024-05-05T09:27:34Z</time>
      </trkpt>
      <trkpt lat="49.12592" lon="1.74918">
        <ele>100.3</ele>
        <time>2024-05-05T09:27:40Z</time>
      </trkpt>
      <trkpt lat="49.1259" lon="1.74908">
        <ele>100.9</ele>
        <time>2024-05-05T09:27:46Z</time>
      </trkpt>
      <trkpt lat="49.12588" lon="1.74898">
        <ele>101.4</ele>
        <time>2024-05-05T09:27:52Z</time>
      </trkpt>
      <trkpt lat="49.12586" lon="1.7489">
        <ele>101.8</ele>
        <time>2024-05-05T09:27:57Z</time>
      </trkpt>
      <trkpt lat="49.12584" lon="1.74882">
        <ele>102.7</ele>
        <time>2024-05-05T09:28:03Z</time>
      </trkpt>
      <trkpt lat="49.12582" lon="1.74874">
        <ele>103.6</ele>
        <time>2024-05-05T09:28:08Z</time>
      </trkpt>
      <trkpt lat="49.12578" lon="1.74867">
        <ele>104.4</ele>
        <time>2024-05-05T09:28:14Z</time>
      </trkpt>
      <trkpt lat="49.12577" lon="1.74859">
        <ele>105.3</ele>
        <time>2024-05-05T09:28:20Z</time>
      </trkpt>
      <trkpt lat="49.12576" lon="1.74851">
        <ele>106.5</ele>
        <time>2024-05-05T09:28:26Z</time>
      </trkpt>
      <trkpt lat="49.12575" lon="1.74843">
        <ele>107.5</ele>
        <time>2024-05-05T09:28:31Z</time>
      </trkpt>
      <trkpt lat="49.1257" lon="1.74837">
        <ele>108.5</ele>
        <time>2024-05-05T09:28:37Z</time>
      </trkpt>
      <trkpt lat="49.12566" lon="1.7483">
        <ele>109.6</ele>
        <time>2024-05-05T09:28:42Z</time>
      </trkpt>
      <trkpt lat="49.12562" lon="1.74823">
        <ele>110.7</ele>
        <time>2024-05-05T09:28:48Z</time>
      </trkpt>
      <trkpt lat="49.12556" lon="1.74822">
        <ele>111.1</ele>
        <time>2024-05-05T09:28:54Z</time>
      </trkpt>
      <trkpt lat="49.12553" lon="1.74821">
        <ele>111.5</ele>
        <time>2024-05-05T09:28:59Z</time>
      </trkpt>
      <trkpt lat="49.12548" lon="1.74818">
        <ele>112.2</ele>
        <time>2024-05-05T09:29:05Z</time>
      </trkpt>
      <trkpt lat="49.12543" lon="1.74816">
        <ele>112.7</ele>
        <time>2024-05-05T09:29:11Z</time>
      </trkpt>
      <trkpt lat="49.12537" lon="1.74811">
        <ele>113.8</ele>
        <time>2024-05-05T09:29:17Z</time>
      </trkpt>
      <trkpt lat="49.12531" lon="1.74808">
        <ele>114.6</ele>
        <time>2024-05-05T09:29:23Z</time>
      </trkpt>
      <trkpt lat="49.12526" lon="1.74804">
        <ele>115.3</ele>
        <time>2024-05-05T09:29:29Z</time>
      </trkpt>
      <trkpt lat="49.12523" lon="1.74798">
        <ele>116.4</ele>
        <time>2024-05-05T09:29:34Z</time>
      </trkpt>
      <trkpt lat="49.12522" lon="1.74791">
        <ele>117.4</ele>
        <time>2024-05-05T09:29:40Z</time>
      </trkpt>
      <trkpt lat="49.12521" lon="1.74783">
        <ele>118.6</ele>
        <time>2024-05-05T09:29:46Z</time>
      </trkpt>
      <trkpt lat="49.12518" lon="1.74775">
        <ele>119.5</ele>
        <time>2024-05-05T09:29:52Z</time>
      </trkpt>
      <trkpt lat="49.12517" lon="1.74764">
        <ele>120.1</ele>
        <time>2024-05-05T09:29:58Z</time>
      </trkpt>
      <trkpt lat="49.12516" lon="1.74754">
        <ele>120.6</ele>
        <time>2024-05-05T09:30:03Z</time>
      </trkpt>
      <trkpt lat="49.12514" lon="1.74746">
        <ele>121.1</ele>
        <time>2024-05-05T09:30:09Z</time>
      </trkpt>
      <trkpt lat="49.12512" lon="1.74737">
        <ele>121.6</ele>
        <time>2024-05-05T09:30:14Z</time>
      </trkpt>
      <trkpt lat="49.12508" lon="1.74729">
        <ele>122.2</ele>
        <time>2024-05-05T09:30:19Z</time>
      </trkpt>
      <trkpt lat="49.12504" lon="1.74721">
        <ele>122.7</ele>
        <time>2024-05-05T09:30:25Z</time>
      </trkpt>
      <trkpt lat="49.125" lon="1.74713">
        <ele>123</ele>
        <time>2024-05-05T09:30:31Z</time>
      </trkpt>
      <trkpt lat="49.12495" lon="1.74706">
        <ele>123.2</ele>
        <time>2024-05-05T09:30:37Z</time>
      </trkpt>
      <trkpt lat="49.12499" lon="1.74696">
        <ele>123</ele>
        <time>2024-05-05T09:30:43Z</time>
      </trkpt>
      <trkpt lat="49.12502" lon="1.74688">
        <ele>122.7</ele>
        <time>2024-05-05T09:30:48Z</time>
      </trkpt>
      <trkpt lat="49.12502" lon="1.74688">
        <ele>122.7</ele>
        <time>2024-05-05T09:30:54Z</time>
      </trkpt>
      <trkpt lat="49.12502" lon="1.74687">
        <ele>122.7</ele>
        <time>2024-05-05T09:31:00Z</time>
      </trkpt>
      <trkpt lat="49.12502" lon="1.74684">
        <ele>122.6</ele>
        <time>2024-05-05T09:31:06Z</time>
      </trkpt>
      <trkpt lat="49.12502" lon="1.74683">
        <ele>122.6</ele>
        <time>2024-05-05T09:31:11Z</time>
      </trkpt>
      <trkpt lat="49.12502" lon="1.74683">
        <ele>122.6</ele>
        <time>2024-05-05T09:31:16Z</time>
      </trkpt>
      <trkpt lat="49.12502" lon="1.74683">
        <ele>122.5</ele>
        <time>2024-05-05T09:31:22Z</time>
      </trkpt>
      <trkpt lat="49.12502" lon="1.74685">
        <ele>122.6</ele>
        <time>2024-05-05T09:31:27Z</time>
      </trkpt>
      <trkpt lat="49.12503" lon="1.74686">
        <ele>122.6</ele>
        <time>2024-05-05T09:31:33Z</time>
      </trkpt>
      <trkpt lat="49.12505" lon="1.74689">
        <ele>122.7</ele>
        <time>2024-05-05T09:31:39Z</time>
      </trkpt>
      <trkpt lat="49.12505" lon="1.74689">
        <ele>122.7</ele>
        <time>2024-05-05T09:31:45Z</time>
      </trkpt>
      <trkpt lat="49.12505" lon="1.74689">
        <ele>122.7</ele>
        <time>2024-05-05T09:31:51Z</time>
      </trkpt>
      <trkpt lat="49.12505" lon="1.74689">
        <ele>122.7</ele>
        <time>2024-05-05T09:31:57Z</time>
      </trkpt>
      <trkpt lat="49.12505" lon="1.74689">
        <ele>122.7</ele>
        <time>2024-05-05T09:32:03Z</time>
      </trkpt>
      <trkpt lat="49.12505" lon="1.74689">
        <ele>122.7</ele>
        <time>2024-05-05T09:32:08Z</time>
      </trkpt>
      <trkpt lat="49.12505" lon="1.74689">
        <ele>122.7</ele>
        <time>2024-05-05T09:32:14Z</time>
      </trkpt>
      <trkpt lat="49.12505" lon="1.74689">
        <ele>122.7</ele>
        <time>2024-05-05T09:32:20Z</time>
      </trkpt>
      <trkpt lat="49.12503" lon="1.74685">
        <ele>122.6</ele>
        <time>2024-05-05T09:32:25Z</time>
      </trkpt>
      <trkpt lat="49.12499" lon="1.74677">
        <ele>122.5</ele>
        <time>2024-05-05T09:32:30Z</time>
      </trkpt>
      <trkpt lat="49.12494" lon="1.74667">
        <ele>122.4</ele>
        <time>2024-05-05T09:32:36Z</time>
      </trkpt>
      <trkpt lat="49.1249" lon="1.74654">
        <ele>122.6</ele>
        <time>2024-05-05T09:32:42Z</time>
      </trkpt>
      <trkpt lat="49.12484" lon="1.74645">
        <ele>122.7</ele>
        <time>2024-05-05T09:32:48Z</time>
      </trkpt>
      <trkpt lat="49.1248" lon="1.74634">
        <ele>122.6</ele>
        <time>2024-05-05T09:32:53Z</time>
      </trkpt>
      <trkpt lat="49.12476" lon="1.74624">
        <ele>122.4</ele>
        <time>2024-05-05T09:32:59Z</time>
      </trkpt>
      <trkpt lat="49.12473" lon="1.74618">
        <ele>122.3</ele>
        <time>2024-05-05T09:33:05Z</time>
      </trkpt>
      <trkpt lat="49.12472" lon="1.74616">
        <ele>122.2</ele>
        <time>2024-05-05T09:33:10Z</time>
      </trkpt>
      <trkpt lat="49.12467" lon="1.74608">
        <ele>122.4</ele>
        <time>2024-05-05T09:33:16Z</time>
      </trkpt>
      <trkpt lat="49.12462" lon="1.74602">
        <ele>122.6</ele>
        <time>2024-05-05T09:33:21Z</time>
      </trkpt>
      <trkpt lat="49.12456" lon="1.74593">
        <ele>122.8</ele>
        <time>2024-05-05T09:33:26Z</time>
      </trkpt>
      <trkpt lat="49.12449" lon="1.74583">
        <ele>122.8</ele>
        <time>2024-05-05T09:33:32Z</time>
      </trkpt>
      <trkpt lat="49.12444" lon="1.74577">
        <ele>122.8</ele>
        <time>2024-05-05T09:33:37Z</time>
      </trkpt>
      <trkpt lat="49.12437" lon="1.74569">
        <ele>123</ele>
        <time>2024-05-05T09:33:43Z</time>
      </trkpt>
      <trkpt lat="49.12432" lon="1.74561">
        <ele>123.1</ele>
        <time>2024-05-05T09:33:48Z</time>
      </trkpt>
      <trkpt lat="49.12428" lon="1.74556">
        <ele>123.2</ele>
        <time>2024-05-05T09:33:53Z</time>
      </trkpt>
      <trkpt lat="49.12421" lon="1.74548">
        <ele>123.1</ele>
        <time>2024-05-05T09:33:59Z</time>
      </trkpt>
      <trkpt lat="49.12416" lon="1.7454">
        <ele>122.9</ele>
        <time>2024-05-05T09:34:04Z</time>
      </trkpt>
      <trkpt lat="49.12412" lon="1.74531">
        <ele>122.6</ele>
        <time>2024-05-05T09:34:10Z</time>
      </trkpt>
      <trkpt lat="49.12406" lon="1.74524">
        <ele>122.4</ele>
        <time>2024-05-05T09:34:16Z</time>
      </trkpt>
      <trkpt lat="49.124" lon="1.74516">
        <ele>122.2</ele>
        <time>2024-05-05T09:34:21Z</time>
      </trkpt>
      <trkpt lat="49.12392" lon="1.74507">
        <ele>122.2</ele>
        <time>2024-05-05T09:34:27Z</time>
      </trkpt>
      <trkpt lat="49.12384" lon="1.74502">
        <ele>122.3</ele>
        <time>2024-05-05T09:34:33Z</time>
      </trkpt>
      <trkpt lat="49.12376" lon="1.74501">
        <ele>122.5</ele>
        <time>2024-05-05T09:34:40Z</time>
      </trkpt>
      <trkpt lat="49.12369" lon="1.74499">
        <ele>122.6</ele>
        <time>2024-05-05T09:34:46Z</time>
      </trkpt>
      <trkpt lat="49.12362" lon="1.745">
        <ele>123</ele>
        <time>2024-05-05T09:34:52Z</time>
      </trkpt>
      <trkpt lat="49.12355" lon="1.745">
        <ele>123.4</ele>
        <time>2024-05-05T09:34:58Z</time>
      </trkpt>
      <trkpt lat="49.12346" lon="1.74497">
        <ele>123.8</ele>
        <time>2024-05-05T09:35:04Z</time>
      </trkpt>
      <trkpt lat="49.12339" lon="1.74491">
        <ele>123.6</ele>
        <time>2024-05-05T09:35:09Z</time>
      </trkpt>
      <trkpt lat="49.12333" lon="1.74483">
        <ele>123.2</ele>
        <time>2024-05-05T09:35:15Z</time>
      </trkpt>
      <trkpt lat="49.12326" lon="1.74476">
        <ele>123.2</ele>
        <time>2024-05-05T09:35:21Z</time>
      </trkpt>
      <trkpt lat="49.1232" lon="1.74471">
        <ele>123.4</ele>
        <time>2024-05-05T09:35:26Z</time>
      </trkpt>
      <trkpt lat="49.12315" lon="1.74465">
        <ele>123.3</ele>
        <time>2024-05-05T09:35:31Z</time>
      </trkpt>
      <trkpt lat="49.12309" lon="1.74457">
        <ele>123</ele>
        <time>2024-05-05T09:35:37Z</time>
      </trkpt>
      <trkpt lat="49.12305" lon="1.74456">
        <ele>123.3</ele>
        <time>2024-05-05T09:35:42Z</time>
      </trkpt>
      <trkpt lat="49.12299" lon="1.74447">
        <ele>122.5</ele>
        <time>2024-05-05T09:35:47Z</time>
      </trkpt>
      <trkpt lat="49.12292" lon="1.74436">
        <ele>121.7</ele>
        <time>2024-05-05T09:35:53Z</time>
      </trkpt>
      <trkpt lat="49.12285" lon="1.7443">
        <ele>121.6</ele>
        <time>2024-05-05T09:35:59Z</time>
      </trkpt>
      <trkpt lat="49.12277" lon="1.74425">
        <ele>121.6</ele>
        <time>2024-05-05T09:36:05Z</time>
      </trkpt>
      <trkpt lat="49.1227" lon="1.74422">
        <ele>121.9</ele>
        <time>2024-05-05T09:36:11Z</time>
      </trkpt>
      <trkpt lat="49.12264" lon="1.74415">
        <ele>121.8</ele>
        <time>2024-05-05T09:36:17Z</time>
      </trkpt>
      <trkpt lat="49.12259" lon="1.74407">
        <ele>121.5</ele>
        <time>2024-05-05T09:36:22Z</time>
      </trkpt>
      <trkpt lat="49.12252" lon="1.74399">
        <ele>121.5</ele>
        <time>2024-05-05T09:36:28Z</time>
      </trkpt>
      <trkpt lat="49.12245" lon="1.74394">
        <ele>122</ele>
        <time>2024-05-05T09:36:34Z</time>
      </trkpt>
      <trkpt lat="49.12239" lon="1.74388">
        <ele>122.5</ele>
        <time>2024-05-05T09:36:39Z</time>
      </trkpt>
      <trkpt lat="49.12233" lon="1.74381">
        <ele>122.7</ele>
        <time>2024-05-05T09:36:44Z</time>
      </trkpt>
      <trkpt lat="49.12226" lon="1.74374">
        <ele>123</ele>
        <time>2024-05-05T09:36:50Z</time>
      </trkpt>
      <trkpt lat="49.12222" lon="1.74368">
        <ele>122.8</ele>
        <time>2024-05-05T09:36:56Z</time>
      </trkpt>
      <trkpt lat="49.12214" lon="1.7436">
        <ele>122.4</ele>
        <time>2024-05-05T09:37:02Z</time>
      </trkpt>
      <trkpt lat="49.12209" lon="1.74354">
        <ele>122.2</ele>
        <time>2024-05-05T09:37:07Z</time>
      </trkpt>
      <trkpt lat="49.12205" lon="1.74349">
        <ele>121.9</ele>
        <time>2024-05-05T09:37:12Z</time>
      </trkpt>
      <trkpt lat="49.12199" lon="1.74336">
        <ele>121</ele>
        <time>2024-05-05T09:37:18Z</time>
      </trkpt>
      <trkpt lat="49.12193" lon="1.74329">
        <ele>120.4</ele>
        <time>2024-05-05T09:37:23Z</time>
      </trkpt>
      <trkpt lat="49.12186" lon="1.74324">
        <ele>120.1</ele>
        <time>2024-05-05T09:37:29Z</time>
      </trkpt>
      <trkpt lat="49.12178" lon="1.74318">
        <ele>119.7</ele>
        <time>2024-05-05T09:37:35Z</time>
      </trkpt>
      <trkpt lat="49.12173" lon="1.74315">
        <ele>119.7</ele>
        <time>2024-05-05T09:37:40Z</time>
      </trkpt>
      <trkpt lat="49.12167" lon="1.7431">
        <ele>119.4</ele>
        <time>2024-05-05T09:37:45Z</time>
      </trkpt>
      <trkpt lat="49.12159" lon="1.74305">
        <ele>118.8</ele>
        <time>2024-05-05T09:37:50Z</time>
      </trkpt>
      <trkpt lat="49.12153" lon="1.74302">
        <ele>118.3</ele>
        <time>2024-05-05T09:37:56Z</time>
      </trkpt>
      <trkpt lat="49.12148" lon="1.74302">
        <ele>118.4</ele>
        <time>2024-05-05T09:38:02Z</time>
      </trkpt>
      <trkpt lat="49.12143" lon="1.743">
        <ele>118</ele>
        <time>2024-05-05T09:38:07Z</time>
      </trkpt>
      <trkpt lat="49.12137" lon="1.74298">
        <ele>117.4</ele>
        <time>2024-05-05T09:38:12Z</time>
      </trkpt>
      <trkpt lat="49.12132" lon="1.74294">
        <ele>116.5</ele>
        <time>2024-05-05T09:38:18Z</time>
      </trkpt>
      <trkpt lat="49.12127" lon="1.7429">
        <ele>115.3</ele>
        <time>2024-05-05T09:38:24Z</time>
      </trkpt>
      <trkpt lat="49.12116" lon="1.7429">
        <ele>114.6</ele>
        <time>2024-05-05T09:38:30Z</time>
      </trkpt>
      <trkpt lat="49.12114" lon="1.74288">
        <ele>114</ele>
        <time>2024-05-05T09:38:36Z</time>
      </trkpt>
      <trkpt lat="49.12108" lon="1.74287">
        <ele>113.5</ele>
        <time>2024-05-05T09:38:41Z</time>
      </trkpt>
      <trkpt lat="49.12104" lon="1.7429">
        <ele>113.6</ele>
        <time>2024-05-05T09:38:46Z</time>
      </trkpt>
      <trkpt lat="49.12094" lon="1.74293">
        <ele>113.2</ele>
        <time>2024-05-05T09:38:52Z</time>
      </trkpt>
      <trkpt lat="49.12087" lon="1.74295">
        <ele>112.8</ele>
        <time>2024-05-05T09:38:58Z</time>
      </trkpt>
      <trkpt lat="49.12081" lon="1.74297">
        <ele>112.7</ele>
        <time>2024-05-05T09:39:03Z</time>
      </trkpt>
      <trkpt lat="49.12075" lon="1.74302">
        <ele>113</ele>
        <time>2024-05-05T09:39:09Z</time>
      </trkpt>
      <trkpt lat="49.12068" lon="1.74304">
        <ele>112.6</ele>
        <time>2024-05-05T09:39:14Z</time>
      </trkpt>
      <trkpt lat="49.12061" lon="1.74303">
        <ele>112</ele>
        <time>2024-05-05T09:39:19Z</time>
      </trkpt>
      <trkpt lat="49.12055" lon="1.74298">
        <ele>110.8</ele>
        <time>2024-05-05T09:39:25Z</time>
      </trkpt>
      <trkpt lat="49.12047" lon="1.74297">
        <ele>110.1</ele>
        <time>2024-05-05T09:39:30Z</time>
      </trkpt>
      <trkpt lat="49.12037" lon="1.74297">
        <ele>109.4</ele>
        <time>2024-05-05T09:39:36Z</time>
      </trkpt>
      <trkpt lat="49.12031" lon="1.74295">
        <ele>108.7</ele>
        <time>2024-05-05T09:39:42Z</time>
      </trkpt>
      <trkpt lat="49.12025" lon="1.74288">
        <ele>107.5</ele>
        <time>2024-05-05T09:39:48Z</time>
      </trkpt>
      <trkpt lat="49.1202" lon="1.74278">
        <ele>106</ele>
        <time>2024-05-05T09:39:54Z</time>
      </trkpt>
      <trkpt lat="49.12018" lon="1.7427">
        <ele>105.1</ele>
        <time>2024-05-05T09:40:00Z</time>
      </trkpt>
      <trkpt lat="49.12015" lon="1.74266">
        <ele>104.5</ele>
        <time>2024-05-05T09:40:06Z</time>
      </trkpt>
      <trkpt lat="49.12007" lon="1.7426">
        <ele>103.6</ele>
        <time>2024-05-05T09:40:12Z</time>
      </trkpt>
      <trkpt lat="49.11997" lon="1.74259">
        <ele>103.2</ele>
        <time>2024-05-05T09:40:18Z</time>
      </trkpt>
      <trkpt lat="49.11991" lon="1.7426">
        <ele>103</ele>
        <time>2024-05-05T09:40:23Z</time>
      </trkpt>
      <trkpt lat="49.11984" lon="1.74264">
        <ele>103.1</ele>
        <time>2024-05-05T09:40:28Z</time>
      </trkpt>
      <trkpt lat="49.11977" lon="1.74264">
        <ele>102.7</ele>
        <time>2024-05-05T09:40:34Z</time>
      </trkpt>
      <trkpt lat="49.11972" lon="1.74265">
        <ele>102.6</ele>
        <time>2024-05-05T09:40:39Z</time>
      </trkpt>
      <trkpt lat="49.11967" lon="1.74266">
        <ele>102.3</ele>
        <time>2024-05-05T09:40:45Z</time>
      </trkpt>
      <trkpt lat="49.11962" lon="1.74269">
        <ele>102.3</ele>
        <time>2024-05-05T09:40:50Z</time>
      </trkpt>
      <trkpt lat="49.11958" lon="1.74272">
        <ele>102.4</ele>
        <time>2024-05-05T09:40:55Z</time>
      </trkpt>
      <trkpt lat="49.11952" lon="1.74272">
        <ele>101.9</ele>
        <time>2024-05-05T09:41:00Z</time>
      </trkpt>
      <trkpt lat="49.11942" lon="1.74276">
        <ele>101.7</ele>
        <time>2024-05-05T09:41:06Z</time>
      </trkpt>
      <trkpt lat="49.11933" lon="1.74278">
        <ele>101.2</ele>
        <time>2024-05-05T09:41:12Z</time>
      </trkpt>
      <trkpt lat="49.11926" lon="1.74283">
        <ele>101.4</ele>
        <time>2024-05-05T09:41:17Z</time>
      </trkpt>
      <trkpt lat="49.11918" lon="1.74286">
        <ele>101.3</ele>
        <time>2024-05-05T09:41:23Z</time>
      </trkpt>
      <trkpt lat="49.11913" lon="1.74286">
        <ele>101.1</ele>
        <time>2024-05-05T09:41:28Z</time>
      </trkpt>
      <trkpt lat="49.11905" lon="1.74288">
        <ele>100.9</ele>
        <time>2024-05-05T09:41:33Z</time>
      </trkpt>
      <trkpt lat="49.119" lon="1.74288">
        <ele>100.7</ele>
        <time>2024-05-05T09:41:38Z</time>
      </trkpt>
      <trkpt lat="49.11892" lon="1.74294">
        <ele>101</ele>
        <time>2024-05-05T09:41:44Z</time>
      </trkpt>
      <trkpt lat="49.11885" lon="1.7429">
        <ele>100</ele>
        <time>2024-05-05T09:41:50Z</time>
      </trkpt>
      <trkpt lat="49.11881" lon="1.74283">
        <ele>99.1</ele>
        <time>2024-05-05T09:41:56Z</time>
      </trkpt>
      <trkpt lat="49.1188" lon="1.7428">
        <ele>98.9</ele>
        <time>2024-05-05T09:42:01Z</time>
      </trkpt>
      <trkpt lat="49.11875" lon="1.74271">
        <ele>98.3</ele>
        <time>2024-05-05T09:42:07Z</time>
      </trkpt>
      <trkpt lat="49.11871" lon="1.74262">
        <ele>97.9</ele>
        <time>2024-05-05T09:42:12Z</time>
      </trkpt>
      <trkpt lat="49.11866" lon="1.74257">
        <ele>97.9</ele>
        <time>2024-05-05T09:42:17Z</time>
      </trkpt>
      <trkpt lat="49.11864" lon="1.74248">
        <ele>97.9</ele>
        <time>2024-05-05T09:42:23Z</time>
      </trkpt>
      <trkpt lat="49.1186" lon="1.7424">
        <ele>98.1</ele>
        <time>2024-05-05T09:42:28Z</time>
      </trkpt>
      <trkpt lat="49.11855" lon="1.7423">
        <ele>98.4</ele>
        <time>2024-05-05T09:42:34Z</time>
      </trkpt>
      <trkpt lat="49.11855" lon="1.74228">
        <ele>98.4</ele>
        <time>2024-05-05T09:42:40Z</time>
      </trkpt>
      <trkpt lat="49.11851" lon="1.74219">
        <ele>98.9</ele>
        <time>2024-05-05T09:42:46Z</time>
      </trkpt>
      <trkpt lat="49.11847" lon="1.74208">
        <ele>99.8</ele>
        <time>2024-05-05T09:42:52Z</time>
      </trkpt>
      <trkpt lat="49.11842" lon="1.74198">
        <ele>100.8</ele>
        <time>2024-05-05T09:42:57Z</time>
      </trkpt>
      <trkpt lat="49.11837" lon="1.7419">
        <ele>102.1</ele>
        <time>2024-05-05T09:43:02Z</time>
      </trkpt>
      <trkpt lat="49.11834" lon="1.74186">
        <ele>102.9</ele>
        <time>2024-05-05T09:43:07Z</time>
      </trkpt>
      <trkpt lat="49.11834" lon="1.74182">
        <ele>103.3</ele>
        <time>2024-05-05T09:43:13Z</time>
      </trkpt>
      <trkpt lat="49.1183" lon="1.7418">
        <ele>103.5</ele>
        <time>2024-05-05T09:43:19Z</time>
      </trkpt>
      <trkpt lat="49.11827" lon="1.74178">
        <ele>103.7</ele>
        <time>2024-05-05T09:43:24Z</time>
      </trkpt>
      <trkpt lat="49.11822" lon="1.74173">
        <ele>104.1</ele>
        <time>2024-05-05T09:43:30Z</time>
      </trkpt>
      <trkpt lat="49.11818" lon="1.74162">
        <ele>105</ele>
        <time>2024-05-05T09:43:36Z</time>
      </trkpt>
      <trkpt lat="49.11814" lon="1.74158">
        <ele>105.5</ele>
        <time>2024-05-05T09:43:41Z</time>
      </trkpt>
      <trkpt lat="49.11813" lon="1.74151">
        <ele>106.2</ele>
        <time>2024-05-05T09:43:47Z</time>
      </trkpt>
      <trkpt lat="49.11808" lon="1.74148">
        <ele>106.2</ele>
        <time>2024-05-05T09:43:52Z</time>
      </trkpt>
      <trkpt lat="49.11804" lon="1.74141">
        <ele>106.9</ele>
        <time>2024-05-05T09:43:58Z</time>
      </trkpt>
      <trkpt lat="49.118" lon="1.74135">
        <ele>107.7</ele>
        <time>2024-05-05T09:44:03Z</time>
      </trkpt>
      <trkpt lat="49.11796" lon="1.74129">
        <ele>108.4</ele>
        <time>2024-05-05T09:44:09Z</time>
      </trkpt>
      <trkpt lat="49.1179" lon="1.74122">
        <ele>109</ele>
        <time>2024-05-05T09:44:15Z</time>
      </trkpt>
      <trkpt lat="49.11785" lon="1.74112">
        <ele>109.4</ele>
        <time>2024-05-05T09:44:21Z</time>
      </trkpt>
      <trkpt lat="49.11782" lon="1.74102">
        <ele>110</ele>
        <time>2024-05-05T09:44:27Z</time>
      </trkpt>
      <trkpt lat="49.11777" lon="1.74092">
        <ele>110.4</ele>
        <time>2024-05-05T09:44:33Z</time>
      </trkpt>
      <trkpt lat="49.11774" lon="1.74084">
        <ele>111.4</ele>
        <time>2024-05-05T09:44:38Z</time>
      </trkpt>
      <trkpt lat="49.1177" lon="1.74077">
        <ele>112.4</ele>
        <time>2024-05-05T09:44:44Z</time>
      </trkpt>
      <trkpt lat="49.11766" lon="1.74069">
        <ele>113.2</ele>
        <time>2024-05-05T09:44:50Z</time>
      </trkpt>
      <trkpt lat="49.11764" lon="1.74064">
        <ele>113.5</ele>
        <time>2024-05-05T09:44:55Z</time>
      </trkpt>
      <trkpt lat="49.11762" lon="1.74057">
        <ele>113.9</ele>
        <time>2024-05-05T09:45:00Z</time>
      </trkpt>
      <trkpt lat="49.11759" lon="1.74048">
        <ele>114.9</ele>
        <time>2024-05-05T09:45:05Z</time>
      </trkpt>
      <trkpt lat="49.11755" lon="1.74042">
        <ele>115.6</ele>
        <time>2024-05-05T09:45:11Z</time>
      </trkpt>
      <trkpt lat="49.1175" lon="1.74036">
        <ele>116.1</ele>
        <time>2024-05-05T09:45:17Z</time>
      </trkpt>
      <trkpt lat="49.11747" lon="1.74031">
        <ele>116.7</ele>
        <time>2024-05-05T09:45:22Z</time>
      </trkpt>
      <trkpt lat="49.11742" lon="1.74023">
        <ele>117.3</ele>
        <time>2024-05-05T09:45:28Z</time>
      </trkpt>
      <trkpt lat="49.11738" lon="1.74017">
        <ele>117.6</ele>
        <time>2024-05-05T09:45:33Z</time>
      </trkpt>
      <trkpt lat="49.11735" lon="1.74008">
        <ele>118</ele>
        <time>2024-05-05T09:45:39Z</time>
      </trkpt>
      <trkpt lat="49.11731" lon="1.74002">
        <ele>118.2</ele>
        <time>2024-05-05T09:45:45Z</time>
      </trkpt>
      <trkpt lat="49.11727" lon="1.73997">
        <ele>118.4</ele>
        <time>2024-05-05T09:45:50Z</time>
      </trkpt>
      <trkpt lat="49.11722" lon="1.73993">
        <ele>118.5</ele>
        <time>2024-05-05T09:45:55Z</time>
      </trkpt>
      <trkpt lat="49.11716" lon="1.73986">
        <ele>119</ele>
        <time>2024-05-05T09:46:01Z</time>
      </trkpt>
      <trkpt lat="49.11715" lon="1.73976">
        <ele>119.7</ele>
        <time>2024-05-05T09:46:06Z</time>
      </trkpt>
      <trkpt lat="49.11713" lon="1.73968">
        <ele>120.4</ele>
        <time>2024-05-05T09:46:11Z</time>
      </trkpt>
      <trkpt lat="49.11714" lon="1.73959">
        <ele>121.3</ele>
        <time>2024-05-05T09:46:16Z</time>
      </trkpt>
      <trkpt lat="49.11713" lon="1.73948">
        <ele>122.3</ele>
        <time>2024-05-05T09:46:22Z</time>
      </trkpt>
      <trkpt lat="49.11711" lon="1.73942">
        <ele>122.8</ele>
        <time>2024-05-05T09:46:27Z</time>
      </trkpt>
      <trkpt lat="49.11708" lon="1.73934">
        <ele>123.2</ele>
        <time>2024-05-05T09:46:33Z</time>
      </trkpt>
      <trkpt lat="49.11705" lon="1.73924">
        <ele>123.9</ele>
        <time>2024-05-05T09:46:39Z</time>
      </trkpt>
      <trkpt lat="49.117" lon="1.73916">
        <ele>124.2</ele>
        <time>2024-05-05T09:46:45Z</time>
      </trkpt>
      <trkpt lat="49.11697" lon="1.73911">
        <ele>124.3</ele>
        <time>2024-05-05T09:46:50Z</time>
      </trkpt>
      <trkpt lat="49.11696" lon="1.73901">
        <ele>124.6</ele>
        <time>2024-05-05T09:46:55Z</time>
      </trkpt>
      <trkpt lat="49.1169" lon="1.73893">
        <ele>124.8</ele>
        <time>2024-05-05T09:47:01Z</time>
      </trkpt>
      <trkpt lat="49.11687" lon="1.73885">
        <ele>125.2</ele>
        <time>2024-05-05T09:47:06Z</time>
      </trkpt>
      <trkpt lat="49.11684" lon="1.73876">
        <ele>125.6</ele>
        <time>2024-05-05T09:47:12Z</time>
      </trkpt>
      <trkpt lat="49.11682" lon="1.73867">
        <ele>125.9</ele>
        <time>2024-05-05T09:47:17Z</time>
      </trkpt>
      <trkpt lat="49.1168" lon="1.73856">
        <ele>126.1</ele>
        <time>2024-05-05T09:47:23Z</time>
      </trkpt>
      <trkpt lat="49.11678" lon="1.73847">
        <ele>126.3</ele>
        <time>2024-05-05T09:47:28Z</time>
      </trkpt>
      <trkpt lat="49.11675" lon="1.73837">
        <ele>126.5</ele>
        <time>2024-05-05T09:47:34Z</time>
      </trkpt>
      <trkpt lat="49.1167" lon="1.73828">
        <ele>126.6</ele>
        <time>2024-05-05T09:47:39Z</time>
      </trkpt>
      <trkpt lat="49.11666" lon="1.73823">
        <ele>126.8</ele>
        <time>2024-05-05T09:47:45Z</time>
      </trkpt>
      <trkpt lat="49.11665" lon="1.7382">
        <ele>127</ele>
        <time>2024-05-05T09:47:50Z</time>
      </trkpt>
      <trkpt lat="49.11668" lon="1.73824">
        <ele>126.8</ele>
        <time>2024-05-05T09:47:55Z</time>
      </trkpt>
      <trkpt lat="49.11668" lon="1.7383">
        <ele>126.3</ele>
        <time>2024-05-05T09:48:00Z</time>
      </trkpt>
      <trkpt lat="49.11671" lon="1.73837">
        <ele>126.2</ele>
        <time>2024-05-05T09:48:06Z</time>
      </trkpt>
      <trkpt lat="49.11675" lon="1.73834">
        <ele>126.6</ele>
        <time>2024-05-05T09:48:12Z</time>
      </trkpt>
      <trkpt lat="49.11677" lon="1.73827">
        <ele>127.1</ele>
        <time>2024-05-05T09:48:18Z</time>
      </trkpt>
      <trkpt lat="49.11677" lon="1.73817">
        <ele>127.7</ele>
        <time>2024-05-05T09:48:24Z</time>
      </trkpt>
      <trkpt lat="49.11678" lon="1.73813">
        <ele>128</ele>
        <time>2024-05-05T09:48:30Z</time>
      </trkpt>
      <trkpt lat="49.11684" lon="1.73806">
        <ele>128.6</ele>
        <time>2024-05-05T09:48:36Z</time>
      </trkpt>
      <trkpt lat="49.11689" lon="1.738">
        <ele>128.8</ele>
        <time>2024-05-05T09:48:42Z</time>
      </trkpt>
      <trkpt lat="49.11694" lon="1.73792">
        <ele>129</ele>
        <time>2024-05-05T09:48:48Z</time>
      </trkpt>
      <trkpt lat="49.11699" lon="1.73785">
        <ele>129.1</ele>
        <time>2024-05-05T09:48:53Z</time>
      </trkpt>
      <trkpt lat="49.11704" lon="1.73779">
        <ele>129.4</ele>
        <time>2024-05-05T09:48:59Z</time>
      </trkpt>
      <trkpt lat="49.11711" lon="1.73771">
        <ele>129.7</ele>
        <time>2024-05-05T09:49:05Z</time>
      </trkpt>
      <trkpt lat="49.11716" lon="1.73762">
        <ele>129.9</ele>
        <time>2024-05-05T09:49:11Z</time>
      </trkpt>
      <trkpt lat="49.11723" lon="1.73758">
        <ele>130</ele>
        <time>2024-05-05T09:49:17Z</time>
      </trkpt>
      <trkpt lat="49.11729" lon="1.7375">
        <ele>130.3</ele>
        <time>2024-05-05T09:49:22Z</time>
      </trkpt>
      <trkpt lat="49.11735" lon="1.73744">
        <ele>130.6</ele>
        <time>2024-05-05T09:49:27Z</time>
      </trkpt>
      <trkpt lat="49.11741" lon="1.73738">
        <ele>130.8</ele>
        <time>2024-05-05T09:49:33Z</time>
      </trkpt>
      <trkpt lat="49.11748" lon="1.73735">
        <ele>131</ele>
        <time>2024-05-05T09:49:39Z</time>
      </trkpt>
      <trkpt lat="49.11755" lon="1.7373">
        <ele>131.1</ele>
        <time>2024-05-05T09:49:44Z</time>
      </trkpt>
      <trkpt lat="49.11763" lon="1.73725">
        <ele>131.4</ele>
        <time>2024-05-05T09:49:50Z</time>
      </trkpt>
      <trkpt lat="49.11768" lon="1.7372">
        <ele>131.7</ele>
        <time>2024-05-05T09:49:55Z</time>
      </trkpt>
      <trkpt lat="49.11777" lon="1.73715">
        <ele>132</ele>
        <time>2024-05-05T09:50:01Z</time>
      </trkpt>
      <trkpt lat="49.11783" lon="1.73712">
        <ele>132</ele>
        <time>2024-05-05T09:50:06Z</time>
      </trkpt>
      <trkpt lat="49.11788" lon="1.7371">
        <ele>132</ele>
        <time>2024-05-05T09:50:11Z</time>
      </trkpt>
      <trkpt lat="49.11792" lon="1.7371">
        <ele>132</ele>
        <time>2024-05-05T09:50:16Z</time>
      </trkpt>
      <trkpt lat="49.118" lon="1.73706">
        <ele>132</ele>
        <time>2024-05-05T09:50:22Z</time>
      </trkpt>
      <trkpt lat="49.11806" lon="1.73701">
        <ele>132</ele>
        <time>2024-05-05T09:50:28Z</time>
      </trkpt>
      <trkpt lat="49.11814" lon="1.73697">
        <ele>132</ele>
        <time>2024-05-05T09:50:33Z</time>
      </trkpt>
      <trkpt lat="49.1182" lon="1.73695">
        <ele>132</ele>
        <time>2024-05-05T09:50:38Z</time>
      </trkpt>
      <trkpt lat="49.11825" lon="1.73692">
        <ele>132</ele>
        <time>2024-05-05T09:50:43Z</time>
      </trkpt>
      <trkpt lat="49.11831" lon="1.7369">
        <ele>132</ele>
        <time>2024-05-05T09:50:49Z</time>
      </trkpt>
      <trkpt lat="49.11836" lon="1.73687">
        <ele>132</ele>
        <time>2024-05-05T09:50:54Z</time>
      </trkpt>
      <trkpt lat="49.11843" lon="1.7368">
        <ele>132</ele>
        <time>2024-05-05T09:51:00Z</time>
      </trkpt>
      <trkpt lat="49.11849" lon="1.73677">
        <ele>132</ele>
        <time>2024-05-05T09:51:06Z</time>
      </trkpt>
      <trkpt lat="49.11856" lon="1.73671">
        <ele>132</ele>
        <time>2024-05-05T09:51:12Z</time>
      </trkpt>
      <trkpt lat="49.11863" lon="1.73669">
        <ele>131.9</ele>
        <time>2024-05-05T09:51:17Z</time>
      </trkpt>
      <trkpt lat="49.11872" lon="1.73664">
        <ele>131.7</ele>
        <time>2024-05-05T09:51:22Z</time>
      </trkpt>
      <trkpt lat="49.11878" lon="1.73663">
        <ele>131.5</ele>
        <time>2024-05-05T09:51:27Z</time>
      </trkpt>
      <trkpt lat="49.11885" lon="1.73659">
        <ele>131.4</ele>
        <time>2024-05-05T09:51:33Z</time>
      </trkpt>
      <trkpt lat="49.11893" lon="1.73652">
        <ele>131.4</ele>
        <time>2024-05-05T09:51:39Z</time>
      </trkpt>
      <trkpt lat="49.119" lon="1.73645">
        <ele>131.5</ele>
        <time>2024-05-05T09:51:45Z</time>
      </trkpt>
      <trkpt lat="49.11905" lon="1.73641">
        <ele>131.4</ele>
        <time>2024-05-05T09:51:50Z</time>
      </trkpt>
      <trkpt lat="49.11912" lon="1.73632">
        <ele>131.2</ele>
        <time>2024-05-05T09:51:56Z</time>
      </trkpt>
      <trkpt lat="49.11919" lon="1.73624">
        <ele>130.9</ele>
        <time>2024-05-05T09:52:02Z</time>
      </trkpt>
      <trkpt lat="49.11924" lon="1.73618">
        <ele>130.7</ele>
        <time>2024-05-05T09:52:07Z</time>
      </trkpt>
      <trkpt lat="49.11928" lon="1.73612">
        <ele>130.6</ele>
        <time>2024-05-05T09:52:12Z</time>
      </trkpt>
      <trkpt lat="49.1193" lon="1.73611">
        <ele>130.5</ele>
        <time>2024-05-05T09:52:18Z</time>
      </trkpt>
      <trkpt lat="49.11933" lon="1.73607">
        <ele>130.5</ele>
        <time>2024-05-05T09:52:23Z</time>
      </trkpt>
      <trkpt lat="49.1194" lon="1.736">
        <ele>130.5</ele>
        <time>2024-05-05T09:52:29Z</time>
      </trkpt>
      <trkpt lat="49.11946" lon="1.73594">
        <ele>130.5</ele>
        <time>2024-05-05T09:52:34Z</time>
      </trkpt>
      <trkpt lat="49.1195" lon="1.73589">
        <ele>130.6</ele>
        <time>2024-05-05T09:52:39Z</time>
      </trkpt>
      <trkpt lat="49.11955" lon="1.73583">
        <ele>130.6</ele>
        <time>2024-05-05T09:52:44Z</time>
      </trkpt>
      <trkpt lat="49.1196" lon="1.73576">
        <ele>130.3</ele>
        <time>2024-05-05T09:52:49Z</time>
      </trkpt>
      <trkpt lat="49.11967" lon="1.73569">
        <ele>130.1</ele>
        <time>2024-05-05T09:52:55Z</time>
      </trkpt>
      <trkpt lat="49.11975" lon="1.73562">
        <ele>129.9</ele>
        <time>2024-05-05T09:53:01Z</time>
      </trkpt>
      <trkpt lat="49.11979" lon="1.73558">
        <ele>129.8</ele>
        <time>2024-05-05T09:53:06Z</time>
      </trkpt>
      <trkpt lat="49.11983" lon="1.73552">
        <ele>129.6</ele>
        <time>2024-05-05T09:53:12Z</time>
      </trkpt>
      <trkpt lat="49.11989" lon="1.73543">
        <ele>129.4</ele>
        <time>2024-05-05T09:53:18Z</time>
      </trkpt>
      <trkpt lat="49.11997" lon="1.73537">
        <ele>129.1</ele>
        <time>2024-05-05T09:53:24Z</time>
      </trkpt>
      <trkpt lat="49.12002" lon="1.73531">
        <ele>128.9</ele>
        <time>2024-05-05T09:53:29Z</time>
      </trkpt>
      <trkpt lat="49.1201" lon="1.73525">
        <ele>128.7</ele>
        <time>2024-05-05T09:53:35Z</time>
      </trkpt>
      <trkpt lat="49.12018" lon="1.73518">
        <ele>128.4</ele>
        <time>2024-05-05T09:53:41Z</time>
      </trkpt>
      <trkpt lat="49.12023" lon="1.7351">
        <ele>128.2</ele>
        <time>2024-05-05T09:53:47Z</time>
      </trkpt>
      <trkpt lat="49.12028" lon="1.73506">
        <ele>128</ele>
        <time>2024-05-05T09:53:53Z</time>
      </trkpt>
      <trkpt lat="49.12033" lon="1.73499">
        <ele>128</ele>
        <time>2024-05-05T09:53:58Z</time>
      </trkpt>
      <trkpt lat="49.12037" lon="1.73492">
        <ele>128</ele>
        <time>2024-05-05T09:54:04Z</time>
      </trkpt>
      <trkpt lat="49.12043" lon="1.73488">
        <ele>128</ele>
        <time>2024-05-05T09:54:10Z</time>
      </trkpt>
      <trkpt lat="49.12049" lon="1.7348">
        <ele>128</ele>
        <time>2024-05-05T09:54:16Z</time>
      </trkpt>
      <trkpt lat="49.12053" lon="1.73474">
        <ele>128</ele>
        <time>2024-05-05T09:54:21Z</time>
      </trkpt>
      <trkpt lat="49.12059" lon="1.73468">
        <ele>128.3</ele>
        <time>2024-05-05T09:54:26Z</time>
      </trkpt>
      <trkpt lat="49.12064" lon="1.73463">
        <ele>128.5</ele>
        <time>2024-05-05T09:54:32Z</time>
      </trkpt>
      <trkpt lat="49.12067" lon="1.73454">
        <ele>128.8</ele>
        <time>2024-05-05T09:54:38Z</time>
      </trkpt>
      <trkpt lat="49.12072" lon="1.73443">
        <ele>129</ele>
        <time>2024-05-05T09:54:44Z</time>
      </trkpt>
      <trkpt lat="49.12078" lon="1.73442">
        <ele>129.1</ele>
        <time>2024-05-05T09:54:49Z</time>
      </trkpt>
      <trkpt lat="49.12084" lon="1.7345">
        <ele>129</ele>
        <time>2024-05-05T09:54:55Z</time>
      </trkpt>
      <trkpt lat="49.12086" lon="1.73459">
        <ele>129</ele>
        <time>2024-05-05T09:55:00Z</time>
      </trkpt>
      <trkpt lat="49.1209" lon="1.73467">
        <ele>129</ele>
        <time>2024-05-05T09:55:06Z</time>
      </trkpt>
      <trkpt lat="49.12095" lon="1.73478">
        <ele>128.9</ele>
        <time>2024-05-05T09:55:13Z</time>
      </trkpt>
      <trkpt lat="49.12098" lon="1.73486">
        <ele>128.8</ele>
        <time>2024-05-05T09:55:18Z</time>
      </trkpt>
      <trkpt lat="49.12103" lon="1.73495">
        <ele>128.8</ele>
        <time>2024-05-05T09:55:23Z</time>
      </trkpt>
      <trkpt lat="49.12107" lon="1.73499">
        <ele>128.9</ele>
        <time>2024-05-05T09:55:29Z</time>
      </trkpt>
      <trkpt lat="49.12112" lon="1.73503">
        <ele>128.8</ele>
        <time>2024-05-05T09:55:34Z</time>
      </trkpt>
      <trkpt lat="49.12117" lon="1.73511">
        <ele>128.3</ele>
        <time>2024-05-05T09:55:40Z</time>
      </trkpt>
      <trkpt lat="49.12123" lon="1.73517">
        <ele>128</ele>
        <time>2024-05-05T09:55:46Z</time>
      </trkpt>
      <trkpt lat="49.12129" lon="1.73522">
        <ele>127.9</ele>
        <time>2024-05-05T09:55:51Z</time>
      </trkpt>
      <trkpt lat="49.12134" lon="1.7353">
        <ele>127.7</ele>
        <time>2024-05-05T09:55:56Z</time>
      </trkpt>
      <trkpt lat="49.1214" lon="1.7354">
        <ele>127.6</ele>
        <time>2024-05-05T09:56:02Z</time>
      </trkpt>
      <trkpt lat="49.12144" lon="1.73545">
        <ele>127.6</ele>
        <time>2024-05-05T09:56:07Z</time>
      </trkpt>
      <trkpt lat="49.12144" lon="1.73548">
        <ele>127.5</ele>
        <time>2024-05-05T09:56:13Z</time>
      </trkpt>
      <trkpt lat="49.12142" lon="1.73551">
        <ele>127.3</ele>
        <time>2024-05-05T09:56:18Z</time>
      </trkpt>
      <trkpt lat="49.12143" lon="1.73562">
        <ele>126.7</ele>
        <time>2024-05-05T09:56:24Z</time>
      </trkpt>
      <trkpt lat="49.12145" lon="1.73569">
        <ele>126.4</ele>
        <time>2024-05-05T09:56:30Z</time>
      </trkpt>
      <trkpt lat="49.12147" lon="1.73577">
        <ele>126</ele>
        <time>2024-05-05T09:56:35Z</time>
      </trkpt>
      <trkpt lat="49.12151" lon="1.7359">
        <ele>125.6</ele>
        <time>2024-05-05T09:56:40Z</time>
      </trkpt>
      <trkpt lat="49.12154" lon="1.73602">
        <ele>125.4</ele>
        <time>2024-05-05T09:56:46Z</time>
      </trkpt>
      <trkpt lat="49.12156" lon="1.73611">
        <ele>125.2</ele>
        <time>2024-05-05T09:56:52Z</time>
      </trkpt>
      <trkpt lat="49.12158" lon="1.73623">
        <ele>124.5</ele>
        <time>2024-05-05T09:56:58Z</time>
      </trkpt>
      <trkpt lat="49.1216" lon="1.73635">
        <ele>123.8</ele>
        <time>2024-05-05T09:57:04Z</time>
      </trkpt>
      <trkpt lat="49.12163" lon="1.7364">
        <ele>123.6</ele>
        <time>2024-05-05T09:57:09Z</time>
      </trkpt>
      <trkpt lat="49.12165" lon="1.7365">
        <ele>123.1</ele>
        <time>2024-05-05T09:57:15Z</time>
      </trkpt>
      <trkpt lat="49.12166" lon="1.73659">
        <ele>122.5</ele>
        <time>2024-05-05T09:57:20Z</time>
      </trkpt>
      <trkpt lat="49.12166" lon="1.7367">
        <ele>121.5</ele>
        <time>2024-05-05T09:57:25Z</time>
      </trkpt>
      <trkpt lat="49.12167" lon="1.73679">
        <ele>120.8</ele>
        <time>2024-05-05T09:57:30Z</time>
      </trkpt>
      <trkpt lat="49.12171" lon="1.73688">
        <ele>120.1</ele>
        <time>2024-05-05T09:57:36Z</time>
      </trkpt>
      <trkpt lat="49.12175" lon="1.73696">
        <ele>119.5</ele>
        <time>2024-05-05T09:57:41Z</time>
      </trkpt>
      <trkpt lat="49.12178" lon="1.73706">
        <ele>118.8</ele>
        <time>2024-05-05T09:57:47Z</time>
      </trkpt>
      <trkpt lat="49.12181" lon="1.73715">
        <ele>118.2</ele>
        <time>2024-05-05T09:57:53Z</time>
      </trkpt>
      <trkpt lat="49.12183" lon="1.73725">
        <ele>117.5</ele>
        <time>2024-05-05T09:57:59Z</time>
      </trkpt>
      <trkpt lat="49.12186" lon="1.73732">
        <ele>117</ele>
        <time>2024-05-05T09:58:05Z</time>
      </trkpt>
      <trkpt lat="49.12186" lon="1.73741">
        <ele>116.1</ele>
        <time>2024-05-05T09:58:11Z</time>
      </trkpt>
      <trkpt lat="49.12187" lon="1.73754">
        <ele>114.7</ele>
        <time>2024-05-05T09:58:17Z</time>
      </trkpt>
      <trkpt lat="49.12187" lon="1.73765">
        <ele>113.2</ele>
        <time>2024-05-05T09:58:23Z</time>
      </trkpt>
      <trkpt lat="49.1219" lon="1.73776">
        <ele>112</ele>
        <time>2024-05-05T09:58:28Z</time>
      </trkpt>
      <trkpt lat="49.12194" lon="1.73784">
        <ele>110.7</ele>
        <time>2024-05-05T09:58:33Z</time>
      </trkpt>
      <trkpt lat="49.12197" lon="1.73792">
        <ele>109.2</ele>
        <time>2024-05-05T09:58:38Z</time>
      </trkpt>
      <trkpt lat="49.12201" lon="1.738">
        <ele>108.3</ele>
        <time>2024-05-05T09:58:44Z</time>
      </trkpt>
      <trkpt lat="49.12203" lon="1.73806">
        <ele>107.5</ele>
        <time>2024-05-05T09:58:49Z</time>
      </trkpt>
      <trkpt lat="49.12209" lon="1.73812">
        <ele>107.3</ele>
        <time>2024-05-05T09:58:54Z</time>
      </trkpt>
      <trkpt lat="49.12218" lon="1.73821">
        <ele>107.1</ele>
        <time>2024-05-05T09:59:00Z</time>
      </trkpt>
      <trkpt lat="49.12224" lon="1.73825">
        <ele>106.9</ele>
        <time>2024-05-05T09:59:05Z</time>
      </trkpt>
      <trkpt lat="49.12232" lon="1.73832">
        <ele>106.3</ele>
        <time>2024-05-05T09:59:11Z</time>
      </trkpt>
      <trkpt lat="49.12237" lon="1.7384">
        <ele>105</ele>
        <time>2024-05-05T09:59:16Z</time>
      </trkpt>
      <trkpt lat="49.1224" lon="1.73845">
        <ele>104.1</ele>
        <time>2024-05-05T09:59:22Z</time>
      </trkpt>
      <trkpt lat="49.12247" lon="1.7385">
        <ele>103.6</ele>
        <time>2024-05-05T09:59:28Z</time>
      </trkpt>
      <trkpt lat="49.12253" lon="1.73855">
        <ele>102.8</ele>
        <time>2024-05-05T09:59:34Z</time>
      </trkpt>
      <trkpt lat="49.12256" lon="1.73861">
        <ele>101.8</ele>
        <time>2024-05-05T09:59:39Z</time>
      </trkpt>
      <trkpt lat="49.1226" lon="1.73866">
        <ele>101.2</ele>
        <time>2024-05-05T09:59:45Z</time>
      </trkpt>
      <trkpt lat="49.12263" lon="1.73872">
        <ele>100.3</ele>
        <time>2024-05-05T09:59:51Z</time>
      </trkpt>
      <trkpt lat="49.12269" lon="1.73877">
        <ele>99.8</ele>
        <time>2024-05-05T09:59:56Z</time>
      </trkpt>
      <trkpt lat="49.12274" lon="1.73882">
        <ele>99.1</ele>
        <time>2024-05-05T10:00:01Z</time>
      </trkpt>
      <trkpt lat="49.12278" lon="1.73889">
        <ele>98.1</ele>
        <time>2024-05-05T10:00:06Z</time>
      </trkpt>
      <trkpt lat="49.12282" lon="1.73889">
        <ele>98.3</ele>
        <time>2024-05-05T10:00:11Z</time>
      </trkpt>
      <trkpt lat="49.12285" lon="1.73894">
        <ele>97.9</ele>
        <time>2024-05-05T10:00:16Z</time>
      </trkpt>
      <trkpt lat="49.1229" lon="1.73901">
        <ele>97</ele>
        <time>2024-05-05T10:00:22Z</time>
      </trkpt>
      <trkpt lat="49.12295" lon="1.73908">
        <ele>96</ele>
        <time>2024-05-05T10:00:28Z</time>
      </trkpt>
      <trkpt lat="49.12303" lon="1.73918">
        <ele>94.6</ele>
        <time>2024-05-05T10:00:34Z</time>
      </trkpt>
      <trkpt lat="49.12311" lon="1.73925">
        <ele>94.3</ele>
        <time>2024-05-05T10:00:40Z</time>
      </trkpt>
      <trkpt lat="49.1232" lon="1.7393">
        <ele>94.4</ele>
        <time>2024-05-05T10:00:46Z</time>
      </trkpt>
      <trkpt lat="49.12326" lon="1.73934">
        <ele>94.2</ele>
        <time>2024-05-05T10:00:52Z</time>
      </trkpt>
      <trkpt lat="49.12332" lon="1.73943">
        <ele>93.2</ele>
        <time>2024-05-05T10:00:58Z</time>
      </trkpt>
      <trkpt lat="49.12333" lon="1.73954">
        <ele>91.6</ele>
        <time>2024-05-05T10:01:03Z</time>
      </trkpt>
      <trkpt lat="49.12338" lon="1.73959">
        <ele>91.2</ele>
        <time>2024-05-05T10:01:08Z</time>
      </trkpt>
      <trkpt lat="49.12342" lon="1.73965">
        <ele>90.7</ele>
        <time>2024-05-05T10:01:14Z</time>
      </trkpt>
      <trkpt lat="49.12344" lon="1.73968">
        <ele>90.4</ele>
        <time>2024-05-05T10:01:20Z</time>
      </trkpt>
      <trkpt lat="49.12345" lon="1.73978">
        <ele>89.5</ele>
        <time>2024-05-05T10:01:26Z</time>
      </trkpt>
      <trkpt lat="49.12347" lon="1.73985">
        <ele>89.1</ele>
        <time>2024-05-05T10:01:32Z</time>
      </trkpt>
      <trkpt lat="49.12352" lon="1.73997">
        <ele>88.3</ele>
        <time>2024-05-05T10:01:38Z</time>
      </trkpt>
      <trkpt lat="49.12354" lon="1.74006">
        <ele>87.8</ele>
        <time>2024-05-05T10:01:44Z</time>
      </trkpt>
      <trkpt lat="49.12356" lon="1.74017">
        <ele>87.4</ele>
        <time>2024-05-05T10:01:50Z</time>
      </trkpt>
      <trkpt lat="49.12359" lon="1.74028">
        <ele>87</ele>
        <time>2024-05-05T10:01:56Z</time>
      </trkpt>
      <trkpt lat="49.12362" lon="1.74038">
        <ele>87</ele>
        <time>2024-05-05T10:02:02Z</time>
      </trkpt>
      <trkpt lat="49.12364" lon="1.74046">
        <ele>87</ele>
        <time>2024-05-05T10:02:08Z</time>
      </trkpt>
      <trkpt lat="49.12363" lon="1.74051">
        <ele>87</ele>
        <time>2024-05-05T10:02:14Z</time>
      </trkpt>
      <trkpt lat="49.12363" lon="1.74056">
        <ele>87</ele>
        <time>2024-05-05T10:02:19Z</time>
      </trkpt>
      <trkpt lat="49.12364" lon="1.74059">
        <ele>87</ele>
        <time>2024-05-05T10:02:24Z</time>
      </trkpt>
      <trkpt lat="49.12364" lon="1.74068">
        <ele>87</ele>
        <time>2024-05-05T10:02:29Z</time>
      </trkpt>
      <trkpt lat="49.12363" lon="1.74073">
        <ele>87</ele>
        <time>2024-05-05T10:02:35Z</time>
      </trkpt>
      <trkpt lat="49.12362" lon="1.7408">
        <ele>87</ele>
        <time>2024-05-05T10:02:41Z</time>
      </trkpt>
      <trkpt lat="49.12361" lon="1.74088">
        <ele>87</ele>
        <time>2024-05-05T10:02:46Z</time>
      </trkpt>
      <trkpt lat="49.12361" lon="1.741">
        <ele>87</ele>
        <time>2024-05-05T10:02:53Z</time>
      </trkpt>
      <trkpt lat="49.1236" lon="1.74113">
        <ele>87.2</ele>
        <time>2024-05-05T10:02:59Z</time>
      </trkpt>
      <trkpt lat="49.12357" lon="1.74121">
        <ele>87.6</ele>
        <time>2024-05-05T10:03:04Z</time>
      </trkpt>
      <trkpt lat="49.12356" lon="1.74127">
        <ele>87.9</ele>
        <time>2024-05-05T10:03:09Z</time>
      </trkpt>
      <trkpt lat="49.12355" lon="1.74137">
        <ele>88.3</ele>
        <time>2024-05-05T10:03:15Z</time>
      </trkpt>
      <trkpt lat="49.12356" lon="1.74144">
        <ele>88.5</ele>
        <time>2024-05-05T10:03:20Z</time>
      </trkpt>
      <trkpt lat="49.12358" lon="1.74153">
        <ele>88.7</ele>
        <time>2024-05-05T10:03:26Z</time>
      </trkpt>
      <trkpt lat="49.1236" lon="1.74162">
        <ele>88.9</ele>
        <time>2024-05-05T10:03:31Z</time>
      </trkpt>
      <trkpt lat="49.12364" lon="1.74174">
        <ele>89.4</ele>
        <time>2024-05-05T10:03:37Z</time>
      </trkpt>
      <trkpt lat="49.12368" lon="1.74184">
        <ele>90</ele>
        <time>2024-05-05T10:03:43Z</time>
      </trkpt>
      <trkpt lat="49.12372" lon="1.74193">
        <ele>90.5</ele>
        <time>2024-05-05T10:03:49Z</time>
      </trkpt>
      <trkpt lat="49.12375" lon="1.74201">
        <ele>91.3</ele>
        <time>2024-05-05T10:03:55Z</time>
      </trkpt>
      <trkpt lat="49.1238" lon="1.74209">
        <ele>91.9</ele>
        <time>2024-05-05T10:04:01Z</time>
      </trkpt>
      <trkpt lat="49.12385" lon="1.74213">
        <ele>92.1</ele>
        <time>2024-05-05T10:04:06Z</time>
      </trkpt>
      <trkpt lat="49.12389" lon="1.7422">
        <ele>92.7</ele>
        <time>2024-05-05T10:04:12Z</time>
      </trkpt>
      <trkpt lat="49.12393" lon="1.74222">
        <ele>92.8</ele>
        <time>2024-05-05T10:04:17Z</time>
      </trkpt>
      <trkpt lat="49.12397" lon="1.74228">
        <ele>93</ele>
        <time>2024-05-05T10:04:22Z</time>
      </trkpt>
      <trkpt lat="49.12399" lon="1.74233">
        <ele>93.4</ele>
        <time>2024-05-05T10:04:27Z</time>
      </trkpt>
      <trkpt lat="49.12404" lon="1.74242">
        <ele>94</ele>
        <time>2024-05-05T10:04:32Z</time>
      </trkpt>
      <trkpt lat="49.12409" lon="1.74251">
        <ele>94.6</ele>
        <time>2024-05-05T10:04:37Z</time>
      </trkpt>
      <trkpt lat="49.12414" lon="1.74261">
        <ele>95.4</ele>
        <time>2024-05-05T10:04:43Z</time>
      </trkpt>
      <trkpt lat="49.12417" lon="1.7427">
        <ele>96.2</ele>
        <time>2024-05-05T10:04:48Z</time>
      </trkpt>
      <trkpt lat="49.12422" lon="1.74282">
        <ele>97.1</ele>
        <time>2024-05-05T10:04:54Z</time>
      </trkpt>
      <trkpt lat="49.12429" lon="1.74291">
        <ele>97.5</ele>
        <time>2024-05-05T10:04:59Z</time>
      </trkpt>
      <trkpt lat="49.12438" lon="1.74297">
        <ele>97.5</ele>
        <time>2024-05-05T10:05:05Z</time>
      </trkpt>
      <trkpt lat="49.12444" lon="1.74305">
        <ele>97.9</ele>
        <time>2024-05-05T10:05:11Z</time>
      </trkpt>
      <trkpt lat="49.1245" lon="1.74314">
        <ele>98</ele>
        <time>2024-05-05T10:05:17Z</time>
      </trkpt>
      <trkpt lat="49.12455" lon="1.74319">
        <ele>98</ele>
        <time>2024-05-05T10:05:22Z</time>
      </trkpt>
      <trkpt lat="49.12461" lon="1.74326">
        <ele>98.1</ele>
        <time>2024-05-05T10:05:28Z</time>
      </trkpt>
      <trkpt lat="49.12465" lon="1.74329">
        <ele>98</ele>
        <time>2024-05-05T10:05:33Z</time>
      </trkpt>
      <trkpt lat="49.12472" lon="1.74335">
        <ele>98.1</ele>
        <time>2024-05-05T10:05:39Z</time>
      </trkpt>
      <trkpt lat="49.12481" lon="1.74344">
        <ele>98.2</ele>
        <time>2024-05-05T10:05:45Z</time>
      </trkpt>
      <trkpt lat="49.12486" lon="1.74352">
        <ele>98.7</ele>
        <time>2024-05-05T10:05:50Z</time>
      </trkpt>
      <trkpt lat="49.1249" lon="1.74363">
        <ele>99.5</ele>
        <time>2024-05-05T10:05:56Z</time>
      </trkpt>
      <trkpt lat="49.12494" lon="1.7437">
        <ele>99.8</ele>
        <time>2024-05-05T10:06:02Z</time>
      </trkpt>
      <trkpt lat="49.12498" lon="1.74377">
        <ele>100.2</ele>
        <time>2024-05-05T10:06:07Z</time>
      </trkpt>
      <trkpt lat="49.12501" lon="1.74387">
        <ele>100.8</ele>
        <time>2024-05-05T10:06:13Z</time>
      </trkpt>
      <trkpt lat="49.12503" lon="1.74396">
        <ele>101.5</ele>
        <time>2024-05-05T10:06:18Z</time>
      </trkpt>
      <trkpt lat="49.12508" lon="1.74405">
        <ele>102.2</ele>
        <time>2024-05-05T10:06:24Z</time>
      </trkpt>
      <trkpt lat="49.12511" lon="1.74412">
        <ele>102.7</ele>
        <time>2024-05-05T10:06:29Z</time>
      </trkpt>
      <trkpt lat="49.12516" lon="1.74419">
        <ele>103.2</ele>
        <time>2024-05-05T10:06:35Z</time>
      </trkpt>
      <trkpt lat="49.1252" lon="1.74429">
        <ele>104</ele>
        <time>2024-05-05T10:06:41Z</time>
      </trkpt>
      <trkpt lat="49.12522" lon="1.74439">
        <ele>104.8</ele>
        <time>2024-05-05T10:06:47Z</time>
      </trkpt>
      <trkpt lat="49.12525" lon="1.7445">
        <ele>105.9</ele>
        <time>2024-05-05T10:06:52Z</time>
      </trkpt>
      <trkpt lat="49.12525" lon="1.74459">
        <ele>107.1</ele>
        <time>2024-05-05T10:06:57Z</time>
      </trkpt>
      <trkpt lat="49.12528" lon="1.74469">
        <ele>108.6</ele>
        <time>2024-05-05T10:07:03Z</time>
      </trkpt>
      <trkpt lat="49.12534" lon="1.74475">
        <ele>109.1</ele>
        <time>2024-05-05T10:07:08Z</time>
      </trkpt>
      <trkpt lat="49.12539" lon="1.74475">
        <ele>108.8</ele>
        <time>2024-05-05T10:07:14Z</time>
      </trkpt>
      <trkpt lat="49.12549" lon="1.74477">
        <ele>108.7</ele>
        <time>2024-05-05T10:07:20Z</time>
      </trkpt>
      <trkpt lat="49.12552" lon="1.74479">
        <ele>108.9</ele>
        <time>2024-05-05T10:07:25Z</time>
      </trkpt>
      <trkpt lat="49.1256" lon="1.7448">
        <ele>108.6</ele>
        <time>2024-05-05T10:07:30Z</time>
      </trkpt>
      <trkpt lat="49.12569" lon="1.74479">
        <ele>108.2</ele>
        <time>2024-05-05T10:07:36Z</time>
      </trkpt>
      <trkpt lat="49.12576" lon="1.74484">
        <ele>108.5</ele>
        <time>2024-05-05T10:07:42Z</time>
      </trkpt>
      <trkpt lat="49.12583" lon="1.74486">
        <ele>108.5</ele>
        <time>2024-05-05T10:07:48Z</time>
      </trkpt>
      <trkpt lat="49.12588" lon="1.7448">
        <ele>107.8</ele>
        <time>2024-05-05T10:07:53Z</time>
      </trkpt>
      <trkpt lat="49.12593" lon="1.74471">
        <ele>106.9</ele>
        <time>2024-05-05T10:07:59Z</time>
      </trkpt>
      <trkpt lat="49.12598" lon="1.74461">
        <ele>106.2</ele>
        <time>2024-05-05T10:08:05Z</time>
      </trkpt>
      <trkpt lat="49.12599" lon="1.74453">
        <ele>105.6</ele>
        <time>2024-05-05T10:08:10Z</time>
      </trkpt>
      <trkpt lat="49.12605" lon="1.74445">
        <ele>105.1</ele>
        <time>2024-05-05T10:08:16Z</time>
      </trkpt>
      <trkpt lat="49.1261" lon="1.74439">
        <ele>104.6</ele>
        <time>2024-05-05T10:08:21Z</time>
      </trkpt>
      <trkpt lat="49.12616" lon="1.74432">
        <ele>104.1</ele>
        <time>2024-05-05T10:08:27Z</time>
      </trkpt>
      <trkpt lat="49.12624" lon="1.7443">
        <ele>103.9</ele>
        <time>2024-05-05T10:08:33Z</time>
      </trkpt>
      <trkpt lat="49.12628" lon="1.7442">
        <ele>103.3</ele>
        <time>2024-05-05T10:08:39Z</time>
      </trkpt>
      <trkpt lat="49.12636" lon="1.74408">
        <ele>102.1</ele>
        <time>2024-05-05T10:08:45Z</time>
      </trkpt>
      <trkpt lat="49.12641" lon="1.74397">
        <ele>100.9</ele>
        <time>2024-05-05T10:08:51Z</time>
      </trkpt>
      <trkpt lat="49.12646" lon="1.7439">
        <ele>100.4</ele>
        <time>2024-05-05T10:08:57Z</time>
      </trkpt>
      <trkpt lat="49.1265" lon="1.74382">
        <ele>99.9</ele>
        <time>2024-05-05T10:09:03Z</time>
      </trkpt>
      <trkpt lat="49.12654" lon="1.74377">
        <ele>99.7</ele>
        <time>2024-05-05T10:09:08Z</time>
      </trkpt>
      <trkpt lat="49.12659" lon="1.74369">
        <ele>99.3</ele>
        <time>2024-05-05T10:09:14Z</time>
      </trkpt>
      <trkpt lat="49.12664" lon="1.74363">
        <ele>99</ele>
        <time>2024-05-05T10:09:20Z</time>
      </trkpt>
      <trkpt lat="49.1267" lon="1.74355">
        <ele>98.5</ele>
        <time>2024-05-05T10:09:25Z</time>
      </trkpt>
      <trkpt lat="49.12675" lon="1.74346">
        <ele>97.9</ele>
        <time>2024-05-05T10:09:31Z</time>
      </trkpt>
      <trkpt lat="49.12683" lon="1.74337">
        <ele>97.5</ele>
        <time>2024-05-05T10:09:37Z</time>
      </trkpt>
      <trkpt lat="49.12686" lon="1.74326">
        <ele>96.5</ele>
        <time>2024-05-05T10:09:43Z</time>
      </trkpt>
      <trkpt lat="49.1269" lon="1.74323">
        <ele>96.2</ele>
        <time>2024-05-05T10:09:48Z</time>
      </trkpt>
      <trkpt lat="49.12695" lon="1.74315">
        <ele>95.4</ele>
        <time>2024-05-05T10:09:53Z</time>
      </trkpt>
      <trkpt lat="49.12699" lon="1.74307">
        <ele>94.4</ele>
        <time>2024-05-05T10:09:58Z</time>
      </trkpt>
      <trkpt lat="49.12703" lon="1.74299">
        <ele>93.4</ele>
        <time>2024-05-05T10:10:04Z</time>
      </trkpt>
      <trkpt lat="49.12705" lon="1.74292">
        <ele>92.4</ele>
        <time>2024-05-05T10:10:10Z</time>
      </trkpt>
      <trkpt lat="49.12711" lon="1.74283">
        <ele>91.3</ele>
        <time>2024-05-05T10:10:16Z</time>
      </trkpt>
      <trkpt lat="49.12716" lon="1.74275">
        <ele>90.4</ele>
        <time>2024-05-05T10:10:21Z</time>
      </trkpt>
      <trkpt lat="49.1272" lon="1.74263">
        <ele>88.9</ele>
        <time>2024-05-05T10:10:27Z</time>
      </trkpt>
      <trkpt lat="49.12725" lon="1.74256">
        <ele>88</ele>
        <time>2024-05-05T10:10:32Z</time>
      </trkpt>
      <trkpt lat="49.12728" lon="1.74245">
        <ele>87.1</ele>
        <time>2024-05-05T10:10:38Z</time>
      </trkpt>
      <trkpt lat="49.12732" lon="1.74238">
        <ele>86.6</ele>
        <time>2024-05-05T10:10:43Z</time>
      </trkpt>
      <trkpt lat="49.12736" lon="1.74224">
        <ele>85.7</ele>
        <time>2024-05-05T10:10:49Z</time>
      </trkpt>
      <trkpt lat="49.12738" lon="1.7422">
        <ele>85.4</ele>
        <time>2024-05-05T10:10:54Z</time>
      </trkpt>
      <trkpt lat="49.12742" lon="1.74209">
        <ele>84.7</ele>
        <time>2024-05-05T10:10:59Z</time>
      </trkpt>
      <trkpt lat="49.12746" lon="1.74198">
        <ele>84.1</ele>
        <time>2024-05-05T10:11:05Z</time>
      </trkpt>
      <trkpt lat="49.1275" lon="1.7419">
        <ele>83.7</ele>
        <time>2024-05-05T10:11:10Z</time>
      </trkpt>
      <trkpt lat="49.12757" lon="1.74181">
        <ele>83.1</ele>
        <time>2024-05-05T10:11:16Z</time>
      </trkpt>
      <trkpt lat="49.12761" lon="1.74176">
        <ele>82.7</ele>
        <time>2024-05-05T10:11:21Z</time>
      </trkpt>
      <trkpt lat="49.12768" lon="1.74168">
        <ele>82.1</ele>
        <time>2024-05-05T10:11:27Z</time>
      </trkpt>
      <trkpt lat="49.12773" lon="1.74161">
        <ele>81.6</ele>
        <time>2024-05-05T10:11:32Z</time>
      </trkpt>
      <trkpt lat="49.12775" lon="1.74151">
        <ele>80.9</ele>
        <time>2024-05-05T10:11:38Z</time>
      </trkpt>
      <trkpt lat="49.12778" lon="1.7414">
        <ele>80.1</ele>
        <time>2024-05-05T10:11:44Z</time>
      </trkpt>
      <trkpt lat="49.12782" lon="1.74129">
        <ele>79.6</ele>
        <time>2024-05-05T10:11:50Z</time>
      </trkpt>
      <trkpt lat="49.12786" lon="1.74121">
        <ele>79.3</ele>
        <time>2024-05-05T10:11:55Z</time>
      </trkpt>
      <trkpt lat="49.12791" lon="1.74113">
        <ele>79.1</ele>
        <time>2024-05-05T10:12:00Z</time>
      </trkpt>
      <trkpt lat="49.12795" lon="1.74104">
        <ele>79</ele>
        <time>2024-05-05T10:12:05Z</time>
      </trkpt>
      <trkpt lat="49.12801" lon="1.74089">
        <ele>79</ele>
        <time>2024-05-05T10:12:11Z</time>
      </trkpt>
      <trkpt lat="49.12805" lon="1.74073">
        <ele>79</ele>
        <time>2024-05-05T10:12:17Z</time>
      </trkpt>
      <trkpt lat="49.12806" lon="1.74066">
        <ele>79</ele>
        <time>2024-05-05T10:12:22Z</time>
      </trkpt>
      <trkpt lat="49.12801" lon="1.74058">
        <ele>79</ele>
        <time>2024-05-05T10:12:28Z</time>
      </trkpt>
      <trkpt lat="49.12799" lon="1.74048">
        <ele>79.3</ele>
        <time>2024-05-05T10:12:33Z</time>
      </trkpt>
      <trkpt lat="49.12797" lon="1.74038">
        <ele>79.6</ele>
        <time>2024-05-05T10:12:39Z</time>
      </trkpt>
      <trkpt lat="49.12796" lon="1.74025">
        <ele>80</ele>
        <time>2024-05-05T10:12:45Z</time>
      </trkpt>
      <trkpt lat="49.12794" lon="1.74013">
        <ele>80.2</ele>
        <time>2024-05-05T10:12:50Z</time>
      </trkpt>
      <trkpt lat="49.12794" lon="1.74003">
        <ele>80.4</ele>
        <time>2024-05-05T10:12:56Z</time>
      </trkpt>
      <trkpt lat="49.12793" lon="1.73991">
        <ele>80.8</ele>
        <time>2024-05-05T10:13:02Z</time>
      </trkpt>
      <trkpt lat="49.12793" lon="1.73981">
        <ele>81.2</ele>
        <time>2024-05-05T10:13:07Z</time>
      </trkpt>
      <trkpt lat="49.12791" lon="1.73969">
        <ele>81.7</ele>
        <time>2024-05-05T10:13:13Z</time>
      </trkpt>
      <trkpt lat="49.1279" lon="1.73958">
        <ele>82.3</ele>
        <time>2024-05-05T10:13:19Z</time>
      </trkpt>
      <trkpt lat="49.12788" lon="1.73949">
        <ele>82.8</ele>
        <time>2024-05-05T10:13:24Z</time>
      </trkpt>
      <trkpt lat="49.12787" lon="1.73941">
        <ele>83.1</ele>
        <time>2024-05-05T10:13:30Z</time>
      </trkpt>
      <trkpt lat="49.12785" lon="1.73931">
        <ele>83.5</ele>
        <time>2024-05-05T10:13:36Z</time>
      </trkpt>
      <trkpt lat="49.12783" lon="1.73923">
        <ele>83.8</ele>
        <time>2024-05-05T10:13:41Z</time>
      </trkpt>
      <trkpt lat="49.1278" lon="1.73914">
        <ele>84.2</ele>
        <time>2024-05-05T10:13:47Z</time>
      </trkpt>
      <trkpt lat="49.12779" lon="1.73903">
        <ele>85</ele>
        <time>2024-05-05T10:13:53Z</time>
      </trkpt>
      <trkpt lat="49.12778" lon="1.73894">
        <ele>85.7</ele>
        <time>2024-05-05T10:13:58Z</time>
      </trkpt>
      <trkpt lat="49.12774" lon="1.73884">
        <ele>86.5</ele>
        <time>2024-05-05T10:14:04Z</time>
      </trkpt>
      <trkpt lat="49.12772" lon="1.73875">
        <ele>87.3</ele>
        <time>2024-05-05T10:14:10Z</time>
      </trkpt>
      <trkpt lat="49.12768" lon="1.73865">
        <ele>88.1</ele>
        <time>2024-05-05T10:14:16Z</time>
      </trkpt>
      <trkpt lat="49.12765" lon="1.73857">
        <ele>88.8</ele>
        <time>2024-05-05T10:14:22Z</time>
      </trkpt>
      <trkpt lat="49.12762" lon="1.73847">
        <ele>89.6</ele>
        <time>2024-05-05T10:14:28Z</time>
      </trkpt>
      <trkpt lat="49.1276" lon="1.73839">
        <ele>90.2</ele>
        <time>2024-05-05T10:14:33Z</time>
      </trkpt>
      <trkpt lat="49.12759" lon="1.73828">
        <ele>90.9</ele>
        <time>2024-05-05T10:14:39Z</time>
      </trkpt>
      <trkpt lat="49.12755" lon="1.73818">
        <ele>91.4</ele>
        <time>2024-05-05T10:14:45Z</time>
      </trkpt>
      <trkpt lat="49.12752" lon="1.73812">
        <ele>91.7</ele>
        <time>2024-05-05T10:14:50Z</time>
      </trkpt>
      <trkpt lat="49.12749" lon="1.73804">
        <ele>92.2</ele>
        <time>2024-05-05T10:14:55Z</time>
      </trkpt>
      <trkpt lat="49.12747" lon="1.73794">
        <ele>93.3</ele>
        <time>2024-05-05T10:15:01Z</time>
      </trkpt>
      <trkpt lat="49.12745" lon="1.73786">
        <ele>94</ele>
        <time>2024-05-05T10:15:07Z</time>
      </trkpt>
      <trkpt lat="49.1274" lon="1.73778">
        <ele>95.1</ele>
        <time>2024-05-05T10:15:12Z</time>
      </trkpt>
      <trkpt lat="49.12738" lon="1.73771">
        <ele>95.3</ele>
        <time>2024-05-05T10:15:17Z</time>
      </trkpt>
      <trkpt lat="49.12731" lon="1.73767">
        <ele>96</ele>
        <time>2024-05-05T10:15:22Z</time>
      </trkpt>
      <trkpt lat="49.12723" lon="1.73759">
        <ele>96.9</ele>
        <time>2024-05-05T10:15:28Z</time>
      </trkpt>
      <trkpt lat="49.12717" lon="1.73753">
        <ele>97.8</ele>
        <time>2024-05-05T10:15:34Z</time>
      </trkpt>
      <trkpt lat="49.12713" lon="1.73751">
        <ele>98.6</ele>
        <time>2024-05-05T10:15:39Z</time>
      </trkpt>
      <trkpt lat="49.12707" lon="1.73744">
        <ele>99.8</ele>
        <time>2024-05-05T10:15:45Z</time>
      </trkpt>
      <trkpt lat="49.12705" lon="1.73737">
        <ele>100.3</ele>
        <time>2024-05-05T10:15:51Z</time>
      </trkpt>
      <trkpt lat="49.12702" lon="1.73727">
        <ele>100.9</ele>
        <time>2024-05-05T10:15:57Z</time>
      </trkpt>
      <trkpt lat="49.12698" lon="1.73718">
        <ele>101.5</ele>
        <time>2024-05-05T10:16:03Z</time>
      </trkpt>
      <trkpt lat="49.12696" lon="1.73711">
        <ele>101.7</ele>
        <time>2024-05-05T10:16:08Z</time>
      </trkpt>
      <trkpt lat="49.12694" lon="1.73703">
        <ele>102.1</ele>
        <time>2024-05-05T10:16:13Z</time>
      </trkpt>
      <trkpt lat="49.1269" lon="1.73694">
        <ele>102.7</ele>
        <time>2024-05-05T10:16:19Z</time>
      </trkpt>
      <trkpt lat="49.12688" lon="1.73689">
        <ele>103</ele>
        <time>2024-05-05T10:16:24Z</time>
      </trkpt>
      <trkpt lat="49.12685" lon="1.73681">
        <ele>103.3</ele>
        <time>2024-05-05T10:16:30Z</time>
      </trkpt>
      <trkpt lat="49.12679" lon="1.73671">
        <ele>103.9</ele>
        <time>2024-05-05T10:16:36Z</time>
      </trkpt>
      <trkpt lat="49.12673" lon="1.73661">
        <ele>104.6</ele>
        <time>2024-05-05T10:16:42Z</time>
      </trkpt>
      <trkpt lat="49.1267" lon="1.73654">
        <ele>105</ele>
        <time>2024-05-05T10:16:48Z</time>
      </trkpt>
      <trkpt lat="49.12666" lon="1.73647">
        <ele>105.4</ele>
        <time>2024-05-05T10:16:54Z</time>
      </trkpt>
      <trkpt lat="49.12662" lon="1.73638">
        <ele>105.9</ele>
        <time>2024-05-05T10:17:00Z</time>
      </trkpt>
      <trkpt lat="49.12656" lon="1.73633">
        <ele>106.6</ele>
        <time>2024-05-05T10:17:06Z</time>
      </trkpt>
      <trkpt lat="49.12651" lon="1.73626">
        <ele>107.1</ele>
        <time>2024-05-05T10:17:12Z</time>
      </trkpt>
      <trkpt lat="49.12645" lon="1.73617">
        <ele>107.9</ele>
        <time>2024-05-05T10:17:18Z</time>
      </trkpt>
      <trkpt lat="49.1264" lon="1.7361">
        <ele>108.8</ele>
        <time>2024-05-05T10:17:24Z</time>
      </trkpt>
      <trkpt lat="49.12635" lon="1.73603">
        <ele>109.4</ele>
        <time>2024-05-05T10:17:30Z</time>
      </trkpt>
      <trkpt lat="49.1263" lon="1.73596">
        <ele>109.8</ele>
        <time>2024-05-05T10:17:35Z</time>
      </trkpt>
      <trkpt lat="49.12627" lon="1.73587">
        <ele>110.2</ele>
        <time>2024-05-05T10:17:41Z</time>
      </trkpt>
      <trkpt lat="49.12624" lon="1.73578">
        <ele>110.2</ele>
        <time>2024-05-05T10:17:47Z</time>
      </trkpt>
      <trkpt lat="49.12619" lon="1.73564">
        <ele>110.2</ele>
        <time>2024-05-05T10:17:53Z</time>
      </trkpt>
      <trkpt lat="49.12613" lon="1.73553">
        <ele>111.3</ele>
        <time>2024-05-05T10:17:59Z</time>
      </trkpt>
      <trkpt lat="49.12605" lon="1.73544">
        <ele>112</ele>
        <time>2024-05-05T10:18:05Z</time>
      </trkpt>
      <trkpt lat="49.12599" lon="1.73537">
        <ele>112.2</ele>
        <time>2024-05-05T10:18:11Z</time>
      </trkpt>
      <trkpt lat="49.12595" lon="1.7353">
        <ele>112.5</ele>
        <time>2024-05-05T10:18:17Z</time>
      </trkpt>
      <trkpt lat="49.12588" lon="1.73522">
        <ele>112.8</ele>
        <time>2024-05-05T10:18:22Z</time>
      </trkpt>
      <trkpt lat="49.12583" lon="1.73515">
        <ele>113.1</ele>
        <time>2024-05-05T10:18:27Z</time>
      </trkpt>
      <trkpt lat="49.12579" lon="1.73508">
        <ele>113.2</ele>
        <time>2024-05-05T10:18:33Z</time>
      </trkpt>
      <trkpt lat="49.12574" lon="1.73501">
        <ele>113.4</ele>
        <time>2024-05-05T10:18:38Z</time>
      </trkpt>
      <trkpt lat="49.12566" lon="1.73493">
        <ele>114.2</ele>
        <time>2024-05-05T10:18:44Z</time>
      </trkpt>
      <trkpt lat="49.1256" lon="1.73485">
        <ele>114.8</ele>
        <time>2024-05-05T10:18:49Z</time>
      </trkpt>
      <trkpt lat="49.12554" lon="1.73476">
        <ele>115.3</ele>
        <time>2024-05-05T10:18:55Z</time>
      </trkpt>
      <trkpt lat="49.12551" lon="1.73468">
        <ele>115.4</ele>
        <time>2024-05-05T10:19:00Z</time>
      </trkpt>
      <trkpt lat="49.12548" lon="1.73461">
        <ele>115.5</ele>
        <time>2024-05-05T10:19:05Z</time>
      </trkpt>
      <trkpt lat="49.12543" lon="1.73452">
        <ele>115.7</ele>
        <time>2024-05-05T10:19:11Z</time>
      </trkpt>
      <trkpt lat="49.12537" lon="1.73445">
        <ele>116</ele>
        <time>2024-05-05T10:19:17Z</time>
      </trkpt>
      <trkpt lat="49.12532" lon="1.73438">
        <ele>116.6</ele>
        <time>2024-05-05T10:19:23Z</time>
      </trkpt>
      <trkpt lat="49.12528" lon="1.73428">
        <ele>116.9</ele>
        <time>2024-05-05T10:19:28Z</time>
      </trkpt>
      <trkpt lat="49.12524" lon="1.73417">
        <ele>117.4</ele>
        <time>2024-05-05T10:19:34Z</time>
      </trkpt>
      <trkpt lat="49.1252" lon="1.7341">
        <ele>118</ele>
        <time>2024-05-05T10:19:39Z</time>
      </trkpt>
      <trkpt lat="49.12516" lon="1.73403">
        <ele>118.6</ele>
        <time>2024-05-05T10:19:44Z</time>
      </trkpt>
      <trkpt lat="49.12512" lon="1.73395">
        <ele>119</ele>
        <time>2024-05-05T10:19:49Z</time>
      </trkpt>
      <trkpt lat="49.12509" lon="1.73384">
        <ele>119.5</ele>
        <time>2024-05-05T10:19:55Z</time>
      </trkpt>
      <trkpt lat="49.12506" lon="1.73372">
        <ele>120.2</ele>
        <time>2024-05-05T10:20:01Z</time>
      </trkpt>
      <trkpt lat="49.12504" lon="1.7336">
        <ele>120.7</ele>
        <time>2024-05-05T10:20:07Z</time>
      </trkpt>
      <trkpt lat="49.12503" lon="1.73352">
        <ele>120.8</ele>
        <time>2024-05-05T10:20:12Z</time>
      </trkpt>
      <trkpt lat="49.12501" lon="1.73343">
        <ele>120.9</ele>
        <time>2024-05-05T10:20:18Z</time>
      </trkpt>
      <trkpt lat="49.125" lon="1.73331">
        <ele>121.1</ele>
        <time>2024-05-05T10:20:24Z</time>
      </trkpt>
      <trkpt lat="49.125" lon="1.7332">
        <ele>121.5</ele>
        <time>2024-05-05T10:20:29Z</time>
      </trkpt>
      <trkpt lat="49.125" lon="1.73309">
        <ele>121.9</ele>
        <time>2024-05-05T10:20:35Z</time>
      </trkpt>
      <trkpt lat="49.12499" lon="1.73297">
        <ele>122.3</ele>
        <time>2024-05-05T10:20:41Z</time>
      </trkpt>
      <trkpt lat="49.12497" lon="1.73288">
        <ele>122.7</ele>
        <time>2024-05-05T10:20:46Z</time>
      </trkpt>
      <trkpt lat="49.12494" lon="1.73276">
        <ele>123.2</ele>
        <time>2024-05-05T10:20:52Z</time>
      </trkpt>
      <trkpt lat="49.12492" lon="1.73266">
        <ele>123.4</ele>
        <time>2024-05-05T10:20:58Z</time>
      </trkpt>
      <trkpt lat="49.12492" lon="1.73257">
        <ele>123.5</ele>
        <time>2024-05-05T10:21:03Z</time>
      </trkpt>
      <trkpt lat="49.12491" lon="1.73246">
        <ele>123.7</ele>
        <time>2024-05-05T10:21:09Z</time>
      </trkpt>
      <trkpt lat="49.12489" lon="1.73237">
        <ele>123.8</ele>
        <time>2024-05-05T10:21:14Z</time>
      </trkpt>
      <trkpt lat="49.12486" lon="1.73227">
        <ele>124</ele>
        <time>2024-05-05T10:21:20Z</time>
      </trkpt>
      <trkpt lat="49.12485" lon="1.73218">
        <ele>124.2</ele>
        <time>2024-05-05T10:21:25Z</time>
      </trkpt>
      <trkpt lat="49.12482" lon="1.73208">
        <ele>124.6</ele>
        <time>2024-05-05T10:21:31Z</time>
      </trkpt>
      <trkpt lat="49.1248" lon="1.73197">
        <ele>125.1</ele>
        <time>2024-05-05T10:21:37Z</time>
      </trkpt>
      <trkpt lat="49.12478" lon="1.73184">
        <ele>125.4</ele>
        <time>2024-05-05T10:21:43Z</time>
      </trkpt>
      <trkpt lat="49.12477" lon="1.73172">
        <ele>125.7</ele>
        <time>2024-05-05T10:21:49Z</time>
      </trkpt>
      <trkpt lat="49.12475" lon="1.73162">
        <ele>125.8</ele>
        <time>2024-05-05T10:21:54Z</time>
      </trkpt>
      <trkpt lat="49.12472" lon="1.73155">
        <ele>126</ele>
        <time>2024-05-05T10:21:59Z</time>
      </trkpt>
      <trkpt lat="49.1247" lon="1.73143">
        <ele>126.1</ele>
        <time>2024-05-05T10:22:05Z</time>
      </trkpt>
      <trkpt lat="49.12469" lon="1.73133">
        <ele>126.3</ele>
        <time>2024-05-05T10:22:10Z</time>
      </trkpt>
      <trkpt lat="49.12467" lon="1.7312">
        <ele>126.4</ele>
        <time>2024-05-05T10:22:16Z</time>
      </trkpt>
      <trkpt lat="49.12465" lon="1.73111">
        <ele>126.5</ele>
        <time>2024-05-05T10:22:21Z</time>
      </trkpt>
      <trkpt lat="49.12461" lon="1.731">
        <ele>126.8</ele>
        <time>2024-05-05T10:22:27Z</time>
      </trkpt>
      <trkpt lat="49.1246" lon="1.73091">
        <ele>126.9</ele>
        <time>2024-05-05T10:22:32Z</time>
      </trkpt>
      <trkpt lat="49.12458" lon="1.73079">
        <ele>127</ele>
        <time>2024-05-05T10:22:38Z</time>
      </trkpt>
      <trkpt lat="49.12456" lon="1.73069">
        <ele>127.2</ele>
        <time>2024-05-05T10:22:43Z</time>
      </trkpt>
      <trkpt lat="49.12455" lon="1.73055">
        <ele>127.3</ele>
        <time>2024-05-05T10:22:49Z</time>
      </trkpt>
      <trkpt lat="49.12454" lon="1.73046">
        <ele>127.3</ele>
        <time>2024-05-05T10:22:55Z</time>
      </trkpt>
      <trkpt lat="49.12452" lon="1.73036">
        <ele>127.5</ele>
        <time>2024-05-05T10:23:01Z</time>
      </trkpt>
      <trkpt lat="49.1245" lon="1.73026">
        <ele>127.7</ele>
        <time>2024-05-05T10:23:06Z</time>
      </trkpt>
      <trkpt lat="49.12448" lon="1.73019">
        <ele>128</ele>
        <time>2024-05-05T10:23:11Z</time>
      </trkpt>
      <trkpt lat="49.12446" lon="1.73005">
        <ele>128.7</ele>
        <time>2024-05-05T10:23:17Z</time>
      </trkpt>
      <trkpt lat="49.12445" lon="1.72996">
        <ele>128.9</ele>
        <time>2024-05-05T10:23:22Z</time>
      </trkpt>
      <trkpt lat="49.12446" lon="1.72982">
        <ele>128.8</ele>
        <time>2024-05-05T10:23:28Z</time>
      </trkpt>
      <trkpt lat="49.12446" lon="1.72975">
        <ele>128.8</ele>
        <time>2024-05-05T10:23:33Z</time>
      </trkpt>
      <trkpt lat="49.12446" lon="1.72968">
        <ele>128.8</ele>
        <time>2024-05-05T10:23:38Z</time>
      </trkpt>
      <trkpt lat="49.12447" lon="1.72956">
        <ele>128.7</ele>
        <time>2024-05-05T10:23:44Z</time>
      </trkpt>
      <trkpt lat="49.12447" lon="1.72944">
        <ele>128.8</ele>
        <time>2024-05-05T10:23:50Z</time>
      </trkpt>
      <trkpt lat="49.12449" lon="1.72931">
        <ele>129.2</ele>
        <time>2024-05-05T10:23:56Z</time>
      </trkpt>
      <trkpt lat="49.1245" lon="1.72918">
        <ele>129.7</ele>
        <time>2024-05-05T10:24:02Z</time>
      </trkpt>
      <trkpt lat="49.12451" lon="1.72909">
        <ele>130.1</ele>
        <time>2024-05-05T10:24:07Z</time>
      </trkpt>
      <trkpt lat="49.12452" lon="1.72898">
        <ele>130.4</ele>
        <time>2024-05-05T10:24:13Z</time>
      </trkpt>
      <trkpt lat="49.12452" lon="1.72886">
        <ele>130.8</ele>
        <time>2024-05-05T10:24:19Z</time>
      </trkpt>
      <trkpt lat="49.12451" lon="1.72878">
        <ele>131.1</ele>
        <time>2024-05-05T10:24:25Z</time>
      </trkpt>
      <trkpt lat="49.12452" lon="1.7287">
        <ele>131.4</ele>
        <time>2024-05-05T10:24:30Z</time>
      </trkpt>
      <trkpt lat="49.12452" lon="1.72857">
        <ele>131.9</ele>
        <time>2024-05-05T10:24:36Z</time>
      </trkpt>
      <trkpt lat="49.12454" lon="1.72846">
        <ele>132.2</ele>
        <time>2024-05-05T10:24:42Z</time>
      </trkpt>
      <trkpt lat="49.12453" lon="1.72833">
        <ele>132.7</ele>
        <time>2024-05-05T10:24:48Z</time>
      </trkpt>
      <trkpt lat="49.12454" lon="1.72821">
        <ele>132.7</ele>
        <time>2024-05-05T10:24:53Z</time>
      </trkpt>
      <trkpt lat="49.12455" lon="1.72808">
        <ele>132.6</ele>
        <time>2024-05-05T10:24:59Z</time>
      </trkpt>
      <trkpt lat="49.12458" lon="1.72796">
        <ele>132.9</ele>
        <time>2024-05-05T10:25:05Z</time>
      </trkpt>
      <trkpt lat="49.12459" lon="1.72784">
        <ele>133.2</ele>
        <time>2024-05-05T10:25:10Z</time>
      </trkpt>
      <trkpt lat="49.12459" lon="1.72771">
        <ele>133.5</ele>
        <time>2024-05-05T10:25:16Z</time>
      </trkpt>
      <trkpt lat="49.12459" lon="1.72759">
        <ele>133.5</ele>
        <time>2024-05-05T10:25:22Z</time>
      </trkpt>
      <trkpt lat="49.1246" lon="1.7275">
        <ele>133.4</ele>
        <time>2024-05-05T10:25:27Z</time>
      </trkpt>
      <trkpt lat="49.12461" lon="1.72739">
        <ele>133.4</ele>
        <time>2024-05-05T10:25:32Z</time>
      </trkpt>
      <trkpt lat="49.12463" lon="1.72731">
        <ele>133.3</ele>
        <time>2024-05-05T10:25:37Z</time>
      </trkpt>
      <trkpt lat="49.12463" lon="1.72721">
        <ele>133.4</ele>
        <time>2024-05-05T10:25:43Z</time>
      </trkpt>
      <trkpt lat="49.12464" lon="1.72708">
        <ele>133.7</ele>
        <time>2024-05-05T10:25:49Z</time>
      </trkpt>
      <trkpt lat="49.12463" lon="1.72697">
        <ele>133.9</ele>
        <time>2024-05-05T10:25:54Z</time>
      </trkpt>
      <trkpt lat="49.12464" lon="1.72687">
        <ele>134.1</ele>
        <time>2024-05-05T10:25:59Z</time>
      </trkpt>
      <trkpt lat="49.12465" lon="1.72675">
        <ele>134.2</ele>
        <time>2024-05-05T10:26:05Z</time>
      </trkpt>
      <trkpt lat="49.12465" lon="1.72666">
        <ele>134.3</ele>
        <time>2024-05-05T10:26:10Z</time>
      </trkpt>
      <trkpt lat="49.12465" lon="1.72655">
        <ele>134.3</ele>
        <time>2024-05-05T10:26:15Z</time>
      </trkpt>
      <trkpt lat="49.12466" lon="1.72647">
        <ele>134.2</ele>
        <time>2024-05-05T10:26:21Z</time>
      </trkpt>
      <trkpt lat="49.12468" lon="1.72638">
        <ele>134.2</ele>
        <time>2024-05-05T10:26:26Z</time>
      </trkpt>
      <trkpt lat="49.12467" lon="1.72628">
        <ele>134.5</ele>
        <time>2024-05-05T10:26:31Z</time>
      </trkpt>
      <trkpt lat="49.12468" lon="1.72618">
        <ele>134.8</ele>
        <time>2024-05-05T10:26:36Z</time>
      </trkpt>
      <trkpt lat="49.12471" lon="1.72607">
        <ele>135</ele>
        <time>2024-05-05T10:26:42Z</time>
      </trkpt>
      <trkpt lat="49.12472" lon="1.72594">
        <ele>135</ele>
        <time>2024-05-05T10:26:48Z</time>
      </trkpt>
      <trkpt lat="49.12471" lon="1.72583">
        <ele>135</ele>
        <time>2024-05-05T10:26:54Z</time>
      </trkpt>
      <trkpt lat="49.12472" lon="1.72569">
        <ele>135</ele>
        <time>2024-05-05T10:27:00Z</time>
      </trkpt>
      <trkpt lat="49.12473" lon="1.7256">
        <ele>135</ele>
        <time>2024-05-05T10:27:05Z</time>
      </trkpt>
      <trkpt lat="49.12474" lon="1.72549">
        <ele>135</ele>
        <time>2024-05-05T10:27:10Z</time>
      </trkpt>
      <trkpt lat="49.12474" lon="1.72537">
        <ele>135</ele>
        <time>2024-05-05T10:27:16Z</time>
      </trkpt>
      <trkpt lat="49.12473" lon="1.72524">
        <ele>135.1</ele>
        <time>2024-05-05T10:27:22Z</time>
      </trkpt>
      <trkpt lat="49.12472" lon="1.72516">
        <ele>135.4</ele>
        <time>2024-05-05T10:27:27Z</time>
      </trkpt>
      <trkpt lat="49.1247" lon="1.72502">
        <ele>135.9</ele>
        <time>2024-05-05T10:27:33Z</time>
      </trkpt>
      <trkpt lat="49.12466" lon="1.72494">
        <ele>136</ele>
        <time>2024-05-05T10:27:38Z</time>
      </trkpt>
      <trkpt lat="49.1246" lon="1.72487">
        <ele>136</ele>
        <time>2024-05-05T10:27:44Z</time>
      </trkpt>
      <trkpt lat="49.12458" lon="1.72479">
        <ele>136</ele>
        <time>2024-05-05T10:27:50Z</time>
      </trkpt>
      <trkpt lat="49.12457" lon="1.72471">
        <ele>136</ele>
        <time>2024-05-05T10:27:55Z</time>
      </trkpt>
      <trkpt lat="49.12453" lon="1.72459">
        <ele>136</ele>
        <time>2024-05-05T10:28:01Z</time>
      </trkpt>
      <trkpt lat="49.1245" lon="1.72451">
        <ele>136</ele>
        <time>2024-05-05T10:28:06Z</time>
      </trkpt>
      <trkpt lat="49.12447" lon="1.72442">
        <ele>136</ele>
        <time>2024-05-05T10:28:12Z</time>
      </trkpt>
      <trkpt lat="49.12442" lon="1.72433">
        <ele>136</ele>
        <time>2024-05-05T10:28:17Z</time>
      </trkpt>
      <trkpt lat="49.12435" lon="1.72423">
        <ele>136</ele>
        <time>2024-05-05T10:28:23Z</time>
      </trkpt>
      <trkpt lat="49.12429" lon="1.72414">
        <ele>136</ele>
        <time>2024-05-05T10:28:28Z</time>
      </trkpt>
      <trkpt lat="49.12424" lon="1.72407">
        <ele>136</ele>
        <time>2024-05-05T10:28:33Z</time>
      </trkpt>
      <trkpt lat="49.1242" lon="1.72397">
        <ele>136</ele>
        <time>2024-05-05T10:28:38Z</time>
      </trkpt>
      <trkpt lat="49.12415" lon="1.72385">
        <ele>136</ele>
        <time>2024-05-05T10:28:44Z</time>
      </trkpt>
      <trkpt lat="49.1241" lon="1.72378">
        <ele>136</ele>
        <time>2024-05-05T10:28:49Z</time>
      </trkpt>
      <trkpt lat="49.12407" lon="1.72369">
        <ele>136</ele>
        <time>2024-05-05T10:28:55Z</time>
      </trkpt>
      <trkpt lat="49.12402" lon="1.72358">
        <ele>136</ele>
        <time>2024-05-05T10:29:01Z</time>
      </trkpt>
      <trkpt lat="49.12399" lon="1.72353">
        <ele>136</ele>
        <time>2024-05-05T10:29:06Z</time>
      </trkpt>
      <trkpt lat="49.12395" lon="1.72343">
        <ele>136</ele>
        <time>2024-05-05T10:29:11Z</time>
      </trkpt>
      <trkpt lat="49.12391" lon="1.72335">
        <ele>136</ele>
        <time>2024-05-05T10:29:17Z</time>
      </trkpt>
      <trkpt lat="49.12385" lon="1.72325">
        <ele>136</ele>
        <time>2024-05-05T10:29:23Z</time>
      </trkpt>
      <trkpt lat="49.12381" lon="1.72315">
        <ele>136</ele>
        <time>2024-05-05T10:29:28Z</time>
      </trkpt>
      <trkpt lat="49.12376" lon="1.72306">
        <ele>136</ele>
        <time>2024-05-05T10:29:34Z</time>
      </trkpt>
      <trkpt lat="49.1237" lon="1.72295">
        <ele>136</ele>
        <time>2024-05-05T10:29:40Z</time>
      </trkpt>
      <trkpt lat="49.12369" lon="1.72288">
        <ele>136</ele>
        <time>2024-05-05T10:29:45Z</time>
      </trkpt>
      <trkpt lat="49.12367" lon="1.7228">
        <ele>136</ele>
        <time>2024-05-05T10:29:50Z</time>
      </trkpt>
      <trkpt lat="49.12362" lon="1.72269">
        <ele>136</ele>
        <time>2024-05-05T10:29:56Z</time>
      </trkpt>
      <trkpt lat="49.12359" lon="1.72256">
        <ele>136</ele>
        <time>2024-05-05T10:30:02Z</time>
      </trkpt>
      <trkpt lat="49.12355" lon="1.72245">
        <ele>135.9</ele>
        <time>2024-05-05T10:30:07Z</time>
      </trkpt>
      <trkpt lat="49.12351" lon="1.72233">
        <ele>135.6</ele>
        <time>2024-05-05T10:30:12Z</time>
      </trkpt>
      <trkpt lat="49.12347" lon="1.72226">
        <ele>135.6</ele>
        <time>2024-05-05T10:30:17Z</time>
      </trkpt>
      <trkpt lat="49.12345" lon="1.72216">
        <ele>135.6</ele>
        <time>2024-05-05T10:30:23Z</time>
      </trkpt>
      <trkpt lat="49.12343" lon="1.72205">
        <ele>135.7</ele>
        <time>2024-05-05T10:30:29Z</time>
      </trkpt>
      <trkpt lat="49.12339" lon="1.72199">
        <ele>135.8</ele>
        <time>2024-05-05T10:30:34Z</time>
      </trkpt>
      <trkpt lat="49.12337" lon="1.72189">
        <ele>135.7</ele>
        <time>2024-05-05T10:30:39Z</time>
      </trkpt>
      <trkpt lat="49.12332" lon="1.72178">
        <ele>135.4</ele>
        <time>2024-05-05T10:30:45Z</time>
      </trkpt>
      <trkpt lat="49.12326" lon="1.72169">
        <ele>135.1</ele>
        <time>2024-05-05T10:30:51Z</time>
      </trkpt>
      <trkpt lat="49.12322" lon="1.72158">
        <ele>135</ele>
        <time>2024-05-05T10:30:57Z</time>
      </trkpt>
      <trkpt lat="49.12319" lon="1.72151">
        <ele>135</ele>
        <time>2024-05-05T10:31:02Z</time>
      </trkpt>
      <trkpt lat="49.12313" lon="1.72142">
        <ele>135</ele>
        <time>2024-05-05T10:31:08Z</time>
      </trkpt>
      <trkpt lat="49.12309" lon="1.72133">
        <ele>135</ele>
        <time>2024-05-05T10:31:14Z</time>
      </trkpt>
      <trkpt lat="49.12305" lon="1.72126">
        <ele>135</ele>
        <time>2024-05-05T10:31:19Z</time>
      </trkpt>
      <trkpt lat="49.123" lon="1.72114">
        <ele>135</ele>
        <time>2024-05-05T10:31:25Z</time>
      </trkpt>
      <trkpt lat="49.12296" lon="1.72105">
        <ele>134.9</ele>
        <time>2024-05-05T10:31:31Z</time>
      </trkpt>
      <trkpt lat="49.12292" lon="1.72096">
        <ele>134.7</ele>
        <time>2024-05-05T10:31:36Z</time>
      </trkpt>
      <trkpt lat="49.12286" lon="1.72088">
        <ele>134.7</ele>
        <time>2024-05-05T10:31:41Z</time>
      </trkpt>
      <trkpt lat="49.12282" lon="1.7208">
        <ele>134.8</ele>
        <time>2024-05-05T10:31:47Z</time>
      </trkpt>
      <trkpt lat="49.12278" lon="1.72072">
        <ele>135</ele>
        <time>2024-05-05T10:31:52Z</time>
      </trkpt>
      <trkpt lat="49.1227" lon="1.72064">
        <ele>135</ele>
        <time>2024-05-05T10:31:58Z</time>
      </trkpt>
      <trkpt lat="49.12266" lon="1.72058">
        <ele>135</ele>
        <time>2024-05-05T10:32:03Z</time>
      </trkpt>
      <trkpt lat="49.12262" lon="1.72047">
        <ele>134.9</ele>
        <time>2024-05-05T10:32:09Z</time>
      </trkpt>
      <trkpt lat="49.1226" lon="1.7204">
        <ele>134.8</ele>
        <time>2024-05-05T10:32:14Z</time>
      </trkpt>
      <trkpt lat="49.12253" lon="1.72032">
        <ele>134.9</ele>
        <time>2024-05-05T10:32:20Z</time>
      </trkpt>
      <trkpt lat="49.12247" lon="1.72023">
        <ele>134.8</ele>
        <time>2024-05-05T10:32:25Z</time>
      </trkpt>
      <trkpt lat="49.12244" lon="1.72017">
        <ele>134.6</ele>
        <time>2024-05-05T10:32:30Z</time>
      </trkpt>
      <trkpt lat="49.12239" lon="1.72009">
        <ele>134.3</ele>
        <time>2024-05-05T10:32:35Z</time>
      </trkpt>
      <trkpt lat="49.12236" lon="1.71999">
        <ele>134</ele>
        <time>2024-05-05T10:32:40Z</time>
      </trkpt>
      <trkpt lat="49.12232" lon="1.71992">
        <ele>134</ele>
        <time>2024-05-05T10:32:45Z</time>
      </trkpt>
      <trkpt lat="49.12227" lon="1.71983">
        <ele>134</ele>
        <time>2024-05-05T10:32:50Z</time>
      </trkpt>
      <trkpt lat="49.12223" lon="1.71976">
        <ele>134</ele>
        <time>2024-05-05T10:32:55Z</time>
      </trkpt>
      <trkpt lat="49.12218" lon="1.71969">
        <ele>134</ele>
        <time>2024-05-05T10:33:01Z</time>
      </trkpt>
      <trkpt lat="49.12212" lon="1.71959">
        <ele>134</ele>
        <time>2024-05-05T10:33:07Z</time>
      </trkpt>
      <trkpt lat="49.12208" lon="1.71949">
        <ele>134</ele>
        <time>2024-05-05T10:33:13Z</time>
      </trkpt>
      <trkpt lat="49.12203" lon="1.71941">
        <ele>134</ele>
        <time>2024-05-05T10:33:19Z</time>
      </trkpt>
      <trkpt lat="49.12196" lon="1.71933">
        <ele>134</ele>
        <time>2024-05-05T10:33:25Z</time>
      </trkpt>
      <trkpt lat="49.12192" lon="1.71924">
        <ele>134</ele>
        <time>2024-05-05T10:33:30Z</time>
      </trkpt>
      <trkpt lat="49.12188" lon="1.71917">
        <ele>134</ele>
        <time>2024-05-05T10:33:36Z</time>
      </trkpt>
      <trkpt lat="49.12182" lon="1.71907">
        <ele>134</ele>
        <time>2024-05-05T10:33:42Z</time>
      </trkpt>
      <trkpt lat="49.12178" lon="1.71895">
        <ele>134</ele>
        <time>2024-05-05T10:33:48Z</time>
      </trkpt>
      <trkpt lat="49.12175" lon="1.71888">
        <ele>134</ele>
        <time>2024-05-05T10:33:53Z</time>
      </trkpt>
      <trkpt lat="49.1217" lon="1.71879">
        <ele>134</ele>
        <time>2024-05-05T10:33:58Z</time>
      </trkpt>
      <trkpt lat="49.12163" lon="1.7187">
        <ele>134</ele>
        <time>2024-05-05T10:34:04Z</time>
      </trkpt>
      <trkpt lat="49.12158" lon="1.71862">
        <ele>134</ele>
        <time>2024-05-05T10:34:09Z</time>
      </trkpt>
      <trkpt lat="49.12152" lon="1.71854">
        <ele>134</ele>
        <time>2024-05-05T10:34:15Z</time>
      </trkpt>
      <trkpt lat="49.12149" lon="1.71848">
        <ele>134</ele>
        <time>2024-05-05T10:34:20Z</time>
      </trkpt>
      <trkpt lat="49.12143" lon="1.71837">
        <ele>134</ele>
        <time>2024-05-05T10:34:26Z</time>
      </trkpt>
      <trkpt lat="49.12137" lon="1.71827">
        <ele>134.1</ele>
        <time>2024-05-05T10:34:32Z</time>
      </trkpt>
      <trkpt lat="49.12132" lon="1.71821">
        <ele>134.2</ele>
        <time>2024-05-05T10:34:37Z</time>
      </trkpt>
      <trkpt lat="49.12126" lon="1.71811">
        <ele>134.4</ele>
        <time>2024-05-05T10:34:43Z</time>
      </trkpt>
      <trkpt lat="49.12122" lon="1.71803">
        <ele>134.5</ele>
        <time>2024-05-05T10:34:48Z</time>
      </trkpt>
      <trkpt lat="49.12117" lon="1.71796">
        <ele>134.4</ele>
        <time>2024-05-05T10:34:53Z</time>
      </trkpt>
      <trkpt lat="49.12112" lon="1.71788">
        <ele>134.3</ele>
        <time>2024-05-05T10:34:59Z</time>
      </trkpt>
      <trkpt lat="49.12107" lon="1.71781">
        <ele>134.2</ele>
        <time>2024-05-05T10:35:05Z</time>
      </trkpt>
      <trkpt lat="49.12103" lon="1.71773">
        <ele>134.3</ele>
        <time>2024-05-05T10:35:10Z</time>
      </trkpt>
      <trkpt lat="49.12097" lon="1.71765">
        <ele>134.5</ele>
        <time>2024-05-05T10:35:16Z</time>
      </trkpt>
      <trkpt lat="49.12093" lon="1.71758">
        <ele>134.7</ele>
        <time>2024-05-05T10:35:21Z</time>
      </trkpt>
      <trkpt lat="49.12086" lon="1.7175">
        <ele>134.9</ele>
        <time>2024-05-05T10:35:27Z</time>
      </trkpt>
      <trkpt lat="49.12081" lon="1.71743">
        <ele>134.8</ele>
        <time>2024-05-05T10:35:32Z</time>
      </trkpt>
      <trkpt lat="49.12076" lon="1.71734">
        <ele>134.6</ele>
        <time>2024-05-05T10:35:38Z</time>
      </trkpt>
      <trkpt lat="49.12071" lon="1.71728">
        <ele>134.6</ele>
        <time>2024-05-05T10:35:43Z</time>
      </trkpt>
      <trkpt lat="49.12066" lon="1.71721">
        <ele>134.6</ele>
        <time>2024-05-05T10:35:49Z</time>
      </trkpt>
      <trkpt lat="49.12059" lon="1.71712">
        <ele>134.6</ele>
        <time>2024-05-05T10:35:55Z</time>
      </trkpt>
      <trkpt lat="49.12054" lon="1.71709">
        <ele>134.5</ele>
        <time>2024-05-05T10:36:00Z</time>
      </trkpt>
      <trkpt lat="49.12047" lon="1.71699">
        <ele>134.2</ele>
        <time>2024-05-05T10:36:06Z</time>
      </trkpt>
      <trkpt lat="49.12042" lon="1.71689">
        <ele>134</ele>
        <time>2024-05-05T10:36:12Z</time>
      </trkpt>
      <trkpt lat="49.12039" lon="1.71683">
        <ele>134</ele>
        <time>2024-05-05T10:36:17Z</time>
      </trkpt>
      <trkpt lat="49.12035" lon="1.71678">
        <ele>134</ele>
        <time>2024-05-05T10:36:22Z</time>
      </trkpt>
      <trkpt lat="49.12031" lon="1.71668">
        <ele>134</ele>
        <time>2024-05-05T10:36:27Z</time>
      </trkpt>
      <trkpt lat="49.12024" lon="1.71663">
        <ele>134</ele>
        <time>2024-05-05T10:36:33Z</time>
      </trkpt>
      <trkpt lat="49.1202" lon="1.71657">
        <ele>134</ele>
        <time>2024-05-05T10:36:38Z</time>
      </trkpt>
      <trkpt lat="49.12016" lon="1.7165">
        <ele>134</ele>
        <time>2024-05-05T10:36:44Z</time>
      </trkpt>
      <trkpt lat="49.12011" lon="1.71645">
        <ele>134</ele>
        <time>2024-05-05T10:36:49Z</time>
      </trkpt>
      <trkpt lat="49.12004" lon="1.71637">
        <ele>134</ele>
        <time>2024-05-05T10:36:55Z</time>
      </trkpt>
      <trkpt lat="49.12001" lon="1.71628">
        <ele>134</ele>
        <time>2024-05-05T10:37:01Z</time>
      </trkpt>
      <trkpt lat="49.11997" lon="1.71622">
        <ele>134</ele>
        <time>2024-05-05T10:37:06Z</time>
      </trkpt>
      <trkpt lat="49.11993" lon="1.71619">
        <ele>134</ele>
        <time>2024-05-05T10:37:11Z</time>
      </trkpt>
      <trkpt lat="49.11989" lon="1.71616">
        <ele>134</ele>
        <time>2024-05-05T10:37:17Z</time>
      </trkpt>
      <trkpt lat="49.11983" lon="1.71608">
        <ele>134</ele>
        <time>2024-05-05T10:37:23Z</time>
      </trkpt>
      <trkpt lat="49.11977" lon="1.71602">
        <ele>133.9</ele>
        <time>2024-05-05T10:37:29Z</time>
      </trkpt>
      <trkpt lat="49.11976" lon="1.71602">
        <ele>134</ele>
        <time>2024-05-05T10:37:35Z</time>
      </trkpt>
      <trkpt lat="49.11974" lon="1.71598">
        <ele>134</ele>
        <time>2024-05-05T10:37:40Z</time>
      </trkpt>
      <trkpt lat="49.11968" lon="1.71589">
        <ele>133.9</ele>
        <time>2024-05-05T10:37:46Z</time>
      </trkpt>
      <trkpt lat="49.11962" lon="1.71581">
        <ele>133.6</ele>
        <time>2024-05-05T10:37:51Z</time>
      </trkpt>
      <trkpt lat="49.11955" lon="1.71574">
        <ele>133.5</ele>
        <time>2024-05-05T10:37:57Z</time>
      </trkpt>
      <trkpt lat="49.11948" lon="1.71567">
        <ele>133.6</ele>
        <time>2024-05-05T10:38:04Z</time>
      </trkpt>
      <trkpt lat="49.11944" lon="1.71559">
        <ele>133.8</ele>
        <time>2024-05-05T10:38:09Z</time>
      </trkpt>
      <trkpt lat="49.11938" lon="1.7155">
        <ele>133.6</ele>
        <time>2024-05-05T10:38:15Z</time>
      </trkpt>
      <trkpt lat="49.1193" lon="1.71543">
        <ele>133.3</ele>
        <time>2024-05-05T10:38:21Z</time>
      </trkpt>
      <trkpt lat="49.11926" lon="1.71538">
        <ele>133.1</ele>
        <time>2024-05-05T10:38:26Z</time>
      </trkpt>
      <trkpt lat="49.11921" lon="1.71532">
        <ele>133</ele>
        <time>2024-05-05T10:38:31Z</time>
      </trkpt>
      <trkpt lat="49.11915" lon="1.71523">
        <ele>132.8</ele>
        <time>2024-05-05T10:38:36Z</time>
      </trkpt>
      <trkpt lat="49.11907" lon="1.71515">
        <ele>132.5</ele>
        <time>2024-05-05T10:38:42Z</time>
      </trkpt>
      <trkpt lat="49.11901" lon="1.71507">
        <ele>132.5</ele>
        <time>2024-05-05T10:38:48Z</time>
      </trkpt>
      <trkpt lat="49.11895" lon="1.71501">
        <ele>132.7</ele>
        <time>2024-05-05T10:38:54Z</time>
      </trkpt>
      <trkpt lat="49.11892" lon="1.71495">
        <ele>132.7</ele>
        <time>2024-05-05T10:39:00Z</time>
      </trkpt>
      <trkpt lat="49.11885" lon="1.71489">
        <ele>132.5</ele>
        <time>2024-05-05T10:39:05Z</time>
      </trkpt>
      <trkpt lat="49.11877" lon="1.71482">
        <ele>132.2</ele>
        <time>2024-05-05T10:39:11Z</time>
      </trkpt>
      <trkpt lat="49.11872" lon="1.71474">
        <ele>132</ele>
        <time>2024-05-05T10:39:16Z</time>
      </trkpt>
      <trkpt lat="49.11867" lon="1.71466">
        <ele>131.8</ele>
        <time>2024-05-05T10:39:22Z</time>
      </trkpt>
      <trkpt lat="49.11861" lon="1.71462">
        <ele>131.6</ele>
        <time>2024-05-05T10:39:28Z</time>
      </trkpt>
      <trkpt lat="49.11854" lon="1.71454">
        <ele>131.3</ele>
        <time>2024-05-05T10:39:34Z</time>
      </trkpt>
      <trkpt lat="49.11845" lon="1.71447">
        <ele>131</ele>
        <time>2024-05-05T10:39:40Z</time>
      </trkpt>
      <trkpt lat="49.1184" lon="1.71443">
        <ele>131</ele>
        <time>2024-05-05T10:39:45Z</time>
      </trkpt>
      <trkpt lat="49.11833" lon="1.71438">
        <ele>130.7</ele>
        <time>2024-05-05T10:39:51Z</time>
      </trkpt>
      <trkpt lat="49.11824" lon="1.71432">
        <ele>130.2</ele>
        <time>2024-05-05T10:39:57Z</time>
      </trkpt>
      <trkpt lat="49.11819" lon="1.71425">
        <ele>129.8</ele>
        <time>2024-05-05T10:40:02Z</time>
      </trkpt>
      <trkpt lat="49.11815" lon="1.71421">
        <ele>129.5</ele>
        <time>2024-05-05T10:40:07Z</time>
      </trkpt>
      <trkpt lat="49.1181" lon="1.71416">
        <ele>129.1</ele>
        <time>2024-05-05T10:40:12Z</time>
      </trkpt>
      <trkpt lat="49.11803" lon="1.71409">
        <ele>128.6</ele>
        <time>2024-05-05T10:40:18Z</time>
      </trkpt>
      <trkpt lat="49.11796" lon="1.71398">
        <ele>128</ele>
        <time>2024-05-05T10:40:26Z</time>
      </trkpt>
      <trkpt lat="49.11789" lon="1.71392">
        <ele>127.5</ele>
        <time>2024-05-05T10:40:32Z</time>
      </trkpt>
      <trkpt lat="49.11785" lon="1.7139">
        <ele>127.3</ele>
        <time>2024-05-05T10:40:37Z</time>
      </trkpt>
      <trkpt lat="49.11777" lon="1.71388">
        <ele>126.9</ele>
        <time>2024-05-05T10:40:43Z</time>
      </trkpt>
      <trkpt lat="49.11773" lon="1.71386">
        <ele>126.1</ele>
        <time>2024-05-05T10:40:48Z</time>
      </trkpt>
      <trkpt lat="49.11768" lon="1.71382">
        <ele>125.1</ele>
        <time>2024-05-05T10:40:54Z</time>
      </trkpt>
      <trkpt lat="49.11763" lon="1.71381">
        <ele>124.3</ele>
        <time>2024-05-05T10:40:59Z</time>
      </trkpt>
      <trkpt lat="49.11755" lon="1.71387">
        <ele>123.6</ele>
        <time>2024-05-05T10:41:05Z</time>
      </trkpt>
      <trkpt lat="49.11747" lon="1.7139">
        <ele>122.6</ele>
        <time>2024-05-05T10:41:10Z</time>
      </trkpt>
      <trkpt lat="49.11737" lon="1.71393">
        <ele>121.5</ele>
        <time>2024-05-05T10:41:16Z</time>
      </trkpt>
      <trkpt lat="49.11733" lon="1.71396">
        <ele>121.2</ele>
        <time>2024-05-05T10:41:21Z</time>
      </trkpt>
      <trkpt lat="49.11725" lon="1.71401">
        <ele>120.7</ele>
        <time>2024-05-05T10:41:27Z</time>
      </trkpt>
      <trkpt lat="49.11719" lon="1.71406">
        <ele>120.4</ele>
        <time>2024-05-05T10:41:33Z</time>
      </trkpt>
      <trkpt lat="49.11713" lon="1.71412">
        <ele>120.3</ele>
        <time>2024-05-05T10:41:38Z</time>
      </trkpt>
      <trkpt lat="49.11708" lon="1.71415">
        <ele>119.9</ele>
        <time>2024-05-05T10:41:44Z</time>
      </trkpt>
      <trkpt lat="49.11704" lon="1.71418">
        <ele>119.5</ele>
        <time>2024-05-05T10:41:49Z</time>
      </trkpt>
      <trkpt lat="49.11698" lon="1.71423">
        <ele>119.2</ele>
        <time>2024-05-05T10:41:55Z</time>
      </trkpt>
      <trkpt lat="49.11696" lon="1.71425">
        <ele>119.1</ele>
        <time>2024-05-05T10:42:01Z</time>
      </trkpt>
      <trkpt lat="49.11697" lon="1.71424">
        <ele>119.1</ele>
        <time>2024-05-05T10:42:06Z</time>
      </trkpt>
      <trkpt lat="49.11697" lon="1.71424">
        <ele>119.1</ele>
        <time>2024-05-05T10:42:12Z</time>
      </trkpt>
      <trkpt lat="49.11697" lon="1.71424">
        <ele>119.1</ele>
        <time>2024-05-05T10:42:18Z</time>
      </trkpt>
      <trkpt lat="49.11698" lon="1.71423">
        <ele>119.1</ele>
        <time>2024-05-05T10:42:23Z</time>
      </trkpt>
      <trkpt lat="49.11697" lon="1.71422">
        <ele>118.9</ele>
        <time>2024-05-05T10:42:29Z</time>
      </trkpt>
      <trkpt lat="49.11693" lon="1.71425">
        <ele>118.6</ele>
        <time>2024-05-05T10:42:34Z</time>
      </trkpt>
      <trkpt lat="49.11689" lon="1.71429">
        <ele>118.6</ele>
        <time>2024-05-05T10:42:39Z</time>
      </trkpt>
      <trkpt lat="49.11682" lon="1.71435">
        <ele>118.4</ele>
        <time>2024-05-05T10:42:45Z</time>
      </trkpt>
      <trkpt lat="49.11677" lon="1.71443">
        <ele>118.4</ele>
        <time>2024-05-05T10:42:51Z</time>
      </trkpt>
      <trkpt lat="49.11672" lon="1.71451">
        <ele>118.4</ele>
        <time>2024-05-05T10:42:56Z</time>
      </trkpt>
      <trkpt lat="49.11667" lon="1.71458">
        <ele>118.6</ele>
        <time>2024-05-05T10:43:01Z</time>
      </trkpt>
      <trkpt lat="49.11662" lon="1.71463">
        <ele>118.6</ele>
        <time>2024-05-05T10:43:07Z</time>
      </trkpt>
      <trkpt lat="49.11661" lon="1.71466">
        <ele>118.7</ele>
        <time>2024-05-05T10:43:13Z</time>
      </trkpt>
      <trkpt lat="49.11661" lon="1.71466">
        <ele>118.7</ele>
        <time>2024-05-05T10:43:19Z</time>
      </trkpt>
      <trkpt lat="49.11661" lon="1.71466">
        <ele>118.7</ele>
        <time>2024-05-05T10:43:24Z</time>
      </trkpt>
      <trkpt lat="49.1166" lon="1.71466">
        <ele>118.7</ele>
        <time>2024-05-05T10:43:30Z</time>
      </trkpt>
      <trkpt lat="49.1166" lon="1.71462">
        <ele>118.1</ele>
        <time>2024-05-05T10:43:35Z</time>
      </trkpt>
      <trkpt lat="49.11662" lon="1.71451">
        <ele>117.2</ele>
        <time>2024-05-05T10:43:41Z</time>
      </trkpt>
      <trkpt lat="49.11665" lon="1.71445">
        <ele>116.8</ele>
        <time>2024-05-05T10:43:46Z</time>
      </trkpt>
      <trkpt lat="49.11668" lon="1.71437">
        <ele>116.6</ele>
        <time>2024-05-05T10:43:52Z</time>
      </trkpt>
      <trkpt lat="49.11672" lon="1.71427">
        <ele>116.4</ele>
        <time>2024-05-05T10:43:58Z</time>
      </trkpt>
      <trkpt lat="49.11677" lon="1.71417">
        <ele>116.2</ele>
        <time>2024-05-05T10:44:03Z</time>
      </trkpt>
      <trkpt lat="49.11683" lon="1.71409">
        <ele>116</ele>
        <time>2024-05-05T10:44:08Z</time>
      </trkpt>
      <trkpt lat="49.11686" lon="1.71398">
        <ele>115.6</ele>
        <time>2024-05-05T10:44:14Z</time>
      </trkpt>
      <trkpt lat="49.11689" lon="1.71389">
        <ele>115.2</ele>
        <time>2024-05-05T10:44:19Z</time>
      </trkpt>
      <trkpt lat="49.11689" lon="1.71382">
        <ele>114.5</ele>
        <time>2024-05-05T10:44:24Z</time>
      </trkpt>
      <trkpt lat="49.11691" lon="1.71372">
        <ele>113.7</ele>
        <time>2024-05-05T10:44:30Z</time>
      </trkpt>
      <trkpt lat="49.11692" lon="1.71365">
        <ele>113.1</ele>
        <time>2024-05-05T10:44:35Z</time>
      </trkpt>
      <trkpt lat="49.11692" lon="1.71353">
        <ele>112.1</ele>
        <time>2024-05-05T10:44:41Z</time>
      </trkpt>
      <trkpt lat="49.11691" lon="1.7134">
        <ele>111</ele>
        <time>2024-05-05T10:44:47Z</time>
      </trkpt>
      <trkpt lat="49.11691" lon="1.7133">
        <ele>110.2</ele>
        <time>2024-05-05T10:44:52Z</time>
      </trkpt>
      <trkpt lat="49.1169" lon="1.71318">
        <ele>109.4</ele>
        <time>2024-05-05T10:44:58Z</time>
      </trkpt>
      <trkpt lat="49.1169" lon="1.7131">
        <ele>108.8</ele>
        <time>2024-05-05T10:45:03Z</time>
      </trkpt>
      <trkpt lat="49.11688" lon="1.713">
        <ele>107.9</ele>
        <time>2024-05-05T10:45:08Z</time>
      </trkpt>
      <trkpt lat="49.11686" lon="1.71287">
        <ele>106.7</ele>
        <time>2024-05-05T10:45:14Z</time>
      </trkpt>
      <trkpt lat="49.11684" lon="1.71275">
        <ele>105.8</ele>
        <time>2024-05-05T10:45:19Z</time>
      </trkpt>
      <trkpt lat="49.11681" lon="1.71262">
        <ele>104.7</ele>
        <time>2024-05-05T10:45:25Z</time>
      </trkpt>
      <trkpt lat="49.11678" lon="1.71253">
        <ele>104</ele>
        <time>2024-05-05T10:45:30Z</time>
      </trkpt>
      <trkpt lat="49.11677" lon="1.71245">
        <ele>103.5</ele>
        <time>2024-05-05T10:45:35Z</time>
      </trkpt>
      <trkpt lat="49.11674" lon="1.71232">
        <ele>102.9</ele>
        <time>2024-05-05T10:45:41Z</time>
      </trkpt>
      <trkpt lat="49.1167" lon="1.71222">
        <ele>102.2</ele>
        <time>2024-05-05T10:45:47Z</time>
      </trkpt>
      <trkpt lat="49.11667" lon="1.71212">
        <ele>101.3</ele>
        <time>2024-05-05T10:45:52Z</time>
      </trkpt>
      <trkpt lat="49.11665" lon="1.712">
        <ele>100.1</ele>
        <time>2024-05-05T10:45:58Z</time>
      </trkpt>
      <trkpt lat="49.11663" lon="1.7119">
        <ele>99.4</ele>
        <time>2024-05-05T10:46:03Z</time>
      </trkpt>
      <trkpt lat="49.11661" lon="1.71179">
        <ele>98.7</ele>
        <time>2024-05-05T10:46:09Z</time>
      </trkpt>
      <trkpt lat="49.11658" lon="1.71167">
        <ele>98.1</ele>
        <time>2024-05-05T10:46:15Z</time>
      </trkpt>
      <trkpt lat="49.11656" lon="1.7116">
        <ele>97.8</ele>
        <time>2024-05-05T10:46:20Z</time>
      </trkpt>
      <trkpt lat="49.11651" lon="1.71154">
        <ele>97.3</ele>
        <time>2024-05-05T10:46:25Z</time>
      </trkpt>
      <trkpt lat="49.11643" lon="1.71146">
        <ele>97</ele>
        <time>2024-05-05T10:46:31Z</time>
      </trkpt>
      <trkpt lat="49.11637" lon="1.71142">
        <ele>96.7</ele>
        <time>2024-05-05T10:46:36Z</time>
      </trkpt>
      <trkpt lat="49.1163" lon="1.71139">
        <ele>96.3</ele>
        <time>2024-05-05T10:46:42Z</time>
      </trkpt>
      <trkpt lat="49.11627" lon="1.71137">
        <ele>96</ele>
        <time>2024-05-05T10:46:47Z</time>
      </trkpt>
      <trkpt lat="49.11623" lon="1.71136">
        <ele>95.6</ele>
        <time>2024-05-05T10:46:52Z</time>
      </trkpt>
      <trkpt lat="49.11616" lon="1.71133">
        <ele>94.9</ele>
        <time>2024-05-05T10:46:58Z</time>
      </trkpt>
      <trkpt lat="49.11611" lon="1.71128">
        <ele>94.3</ele>
        <time>2024-05-05T10:47:03Z</time>
      </trkpt>
      <trkpt lat="49.11606" lon="1.71123">
        <ele>94.1</ele>
        <time>2024-05-05T10:47:08Z</time>
      </trkpt>
      <trkpt lat="49.116" lon="1.71114">
        <ele>93.9</ele>
        <time>2024-05-05T10:47:14Z</time>
      </trkpt>
      <trkpt lat="49.116" lon="1.71109">
        <ele>93.7</ele>
        <time>2024-05-05T10:47:20Z</time>
      </trkpt>
      <trkpt lat="49.116" lon="1.71109">
        <ele>93.7</ele>
        <time>2024-05-05T10:47:26Z</time>
      </trkpt>
      <trkpt lat="49.116" lon="1.71109">
        <ele>93.7</ele>
        <time>2024-05-05T10:47:32Z</time>
      </trkpt>
      <trkpt lat="49.116" lon="1.71106">
        <ele>93.5</ele>
        <time>2024-05-05T10:47:37Z</time>
      </trkpt>
      <trkpt lat="49.11599" lon="1.71106">
        <ele>93.6</ele>
        <time>2024-05-05T10:47:43Z</time>
      </trkpt>
      <trkpt lat="49.11599" lon="1.71106">
        <ele>93.6</ele>
        <time>2024-05-05T10:47:49Z</time>
      </trkpt>
      <trkpt lat="49.11599" lon="1.71105">
        <ele>93.5</ele>
        <time>2024-05-05T10:47:55Z</time>
      </trkpt>
      <trkpt lat="49.11599" lon="1.71104">
        <ele>93.5</ele>
        <time>2024-05-05T10:48:01Z</time>
      </trkpt>
      <trkpt lat="49.11599" lon="1.71104">
        <ele>93.5</ele>
        <time>2024-05-05T10:48:07Z</time>
      </trkpt>
      <trkpt lat="49.11597" lon="1.71105">
        <ele>93.7</ele>
        <time>2024-05-05T10:48:13Z</time>
      </trkpt>
      <trkpt lat="49.11597" lon="1.71105">
        <ele>93.7</ele>
        <time>2024-05-05T10:48:19Z</time>
      </trkpt>
      <trkpt lat="49.11597" lon="1.71105">
        <ele>93.7</ele>
        <time>2024-05-05T10:48:25Z</time>
      </trkpt>
      <trkpt lat="49.11597" lon="1.71105">
        <ele>93.7</ele>
        <time>2024-05-05T10:48:31Z</time>
      </trkpt>
      <trkpt lat="49.11598" lon="1.71105">
        <ele>93.7</ele>
        <time>2024-05-05T10:48:37Z</time>
      </trkpt>
      <trkpt lat="49.11598" lon="1.71105">
        <ele>93.6</ele>
        <time>2024-05-05T10:48:42Z</time>
      </trkpt>
      <trkpt lat="49.116" lon="1.71106">
        <ele>93.5</ele>
        <time>2024-05-05T10:48:48Z</time>
      </trkpt>
      <trkpt lat="49.11601" lon="1.71106">
        <ele>93.5</ele>
        <time>2024-05-05T10:48:53Z</time>
      </trkpt>
      <trkpt lat="49.11601" lon="1.71106">
        <ele>93.5</ele>
        <time>2024-05-05T10:48:59Z</time>
      </trkpt>
      <trkpt lat="49.11601" lon="1.71106">
        <ele>93.5</ele>
        <time>2024-05-05T10:49:05Z</time>
      </trkpt>
      <trkpt lat="49.11601" lon="1.71107">
        <ele>93.5</ele>
        <time>2024-05-05T10:49:10Z</time>
      </trkpt>
      <trkpt lat="49.11601" lon="1.71107">
        <ele>93.5</ele>
        <time>2024-05-05T10:49:15Z</time>
      </trkpt>
      <trkpt lat="49.11602" lon="1.71107">
        <ele>93.4</ele>
        <time>2024-05-05T10:49:21Z</time>
      </trkpt>
      <trkpt lat="49.11603" lon="1.71107">
        <ele>93.3</ele>
        <time>2024-05-05T10:49:27Z</time>
      </trkpt>
      <trkpt lat="49.11603" lon="1.71108">
        <ele>93.4</ele>
        <time>2024-05-05T10:49:32Z</time>
      </trkpt>
      <trkpt lat="49.11602" lon="1.71108">
        <ele>93.4</ele>
        <time>2024-05-05T10:49:38Z</time>
      </trkpt>
      <trkpt lat="49.11602" lon="1.71108">
        <ele>93.4</ele>
        <time>2024-05-05T10:49:43Z</time>
      </trkpt>
      <trkpt lat="49.11602" lon="1.71108">
        <ele>93.4</ele>
        <time>2024-05-05T10:49:49Z</time>
      </trkpt>
      <trkpt lat="49.11603" lon="1.71108">
        <ele>93.4</ele>
        <time>2024-05-05T10:49:54Z</time>
      </trkpt>
      <trkpt lat="49.11603" lon="1.71108">
        <ele>93.4</ele>
        <time>2024-05-05T10:50:00Z</time>
      </trkpt>
      <trkpt lat="49.11603" lon="1.71108">
        <ele>93.4</ele>
        <time>2024-05-05T10:50:06Z</time>
      </trkpt>
      <trkpt lat="49.11603" lon="1.71108">
        <ele>93.4</ele>
        <time>2024-05-05T10:50:12Z</time>
      </trkpt>
      <trkpt lat="49.11603" lon="1.71108">
        <ele>93.4</ele>
        <time>2024-05-05T10:50:18Z</time>
      </trkpt>
      <trkpt lat="49.11603" lon="1.71108">
        <ele>93.4</ele>
        <time>2024-05-05T10:50:24Z</time>
      </trkpt>
      <trkpt lat="49.11603" lon="1.71108">
        <ele>93.4</ele>
        <time>2024-05-05T10:50:30Z</time>
      </trkpt>
      <trkpt lat="49.11602" lon="1.71107">
        <ele>93.4</ele>
        <time>2024-05-05T10:50:35Z</time>
      </trkpt>
      <trkpt lat="49.11602" lon="1.71107">
        <ele>93.4</ele>
        <time>2024-05-05T10:50:40Z</time>
      </trkpt>
      <trkpt lat="49.11602" lon="1.71107">
        <ele>93.4</ele>
        <time>2024-05-05T10:50:46Z</time>
      </trkpt>
      <trkpt lat="49.11603" lon="1.71107">
        <ele>93.4</ele>
        <time>2024-05-05T10:50:51Z</time>
      </trkpt>
      <trkpt lat="49.11603" lon="1.71107">
        <ele>93.4</ele>
        <time>2024-05-05T10:50:57Z</time>
      </trkpt>
      <trkpt lat="49.11603" lon="1.71107">
        <ele>93.4</ele>
        <time>2024-05-05T10:51:03Z</time>
      </trkpt>
      <trkpt lat="49.11603" lon="1.71107">
        <ele>93.3</ele>
        <time>2024-05-05T10:51:09Z</time>
      </trkpt>
      <trkpt lat="49.11603" lon="1.71107">
        <ele>93.3</ele>
        <time>2024-05-05T10:51:15Z</time>
      </trkpt>
      <trkpt lat="49.11603" lon="1.71107">
        <ele>93.3</ele>
        <time>2024-05-05T10:51:21Z</time>
      </trkpt>
      <trkpt lat="49.11603" lon="1.71107">
        <ele>93.3</ele>
        <time>2024-05-05T10:51:27Z</time>
      </trkpt>
      <trkpt lat="49.11603" lon="1.71107">
        <ele>93.3</ele>
        <time>2024-05-05T10:51:33Z</time>
      </trkpt>
      <trkpt lat="49.11603" lon="1.71108">
        <ele>93.3</ele>
        <time>2024-05-05T10:51:39Z</time>
      </trkpt>
      <trkpt lat="49.11603" lon="1.71108">
        <ele>93.3</ele>
        <time>2024-05-05T10:51:44Z</time>
      </trkpt>
      <trkpt lat="49.11603" lon="1.71107">
        <ele>93.3</ele>
        <time>2024-05-05T10:51:50Z</time>
      </trkpt>
      <trkpt lat="49.11603" lon="1.71107">
        <ele>93.3</ele>
        <time>2024-05-05T10:51:56Z</time>
      </trkpt>
      <trkpt lat="49.11603" lon="1.71107">
        <ele>93.4</ele>
        <time>2024-05-05T10:52:02Z</time>
      </trkpt>
      <trkpt lat="49.11603" lon="1.71107">
        <ele>93.4</ele>
        <time>2024-05-05T10:52:07Z</time>
      </trkpt>
      <trkpt lat="49.11603" lon="1.71107">
        <ele>93.4</ele>
        <time>2024-05-05T10:52:13Z</time>
      </trkpt>
      <trkpt lat="49.11602" lon="1.71107">
        <ele>93.3</ele>
        <time>2024-05-05T10:52:19Z</time>
      </trkpt>
      <trkpt lat="49.11602" lon="1.71107">
        <ele>93.4</ele>
        <time>2024-05-05T10:52:25Z</time>
      </trkpt>
      <trkpt lat="49.11602" lon="1.71107">
        <ele>93.4</ele>
        <time>2024-05-05T10:52:31Z</time>
      </trkpt>
      <trkpt lat="49.11602" lon="1.71107">
        <ele>93.4</ele>
        <time>2024-05-05T10:52:36Z</time>
      </trkpt>
      <trkpt lat="49.11602" lon="1.71107">
        <ele>93.4</ele>
        <time>2024-05-05T10:52:41Z</time>
      </trkpt>
      <trkpt lat="49.11602" lon="1.71107">
        <ele>93.4</ele>
        <time>2024-05-05T10:52:47Z</time>
      </trkpt>
      <trkpt lat="49.11602" lon="1.71107">
        <ele>93.4</ele>
        <time>2024-05-05T10:52:53Z</time>
      </trkpt>
      <trkpt lat="49.11602" lon="1.71107">
        <ele>93.4</ele>
        <time>2024-05-05T10:52:59Z</time>
      </trkpt>
      <trkpt lat="49.11602" lon="1.71107">
        <ele>93.4</ele>
        <time>2024-05-05T10:53:05Z</time>
      </trkpt>
      <trkpt lat="49.11602" lon="1.71107">
        <ele>93.4</ele>
        <time>2024-05-05T10:53:11Z</time>
      </trkpt>
      <trkpt lat="49.11602" lon="1.71107">
        <ele>93.4</ele>
        <time>2024-05-05T10:53:17Z</time>
      </trkpt>
      <trkpt lat="49.11602" lon="1.71107">
        <ele>93.4</ele>
        <time>2024-05-05T10:53:23Z</time>
      </trkpt>
      <trkpt lat="49.11602" lon="1.71107">
        <ele>93.4</ele>
        <time>2024-05-05T10:53:28Z</time>
      </trkpt>
      <trkpt lat="49.11602" lon="1.71107">
        <ele>93.4</ele>
        <time>2024-05-05T10:53:34Z</time>
      </trkpt>
      <trkpt lat="49.11602" lon="1.71107">
        <ele>93.4</ele>
        <time>2024-05-05T10:53:40Z</time>
      </trkpt>
      <trkpt lat="49.11602" lon="1.71107">
        <ele>93.4</ele>
        <time>2024-05-05T10:53:46Z</time>
      </trkpt>
      <trkpt lat="49.11602" lon="1.71107">
        <ele>93.4</ele>
        <time>2024-05-05T10:53:52Z</time>
      </trkpt>
      <trkpt lat="49.11602" lon="1.71107">
        <ele>93.4</ele>
        <time>2024-05-05T10:53:58Z</time>
      </trkpt>
      <trkpt lat="49.11602" lon="1.71107">
        <ele>93.4</ele>
        <time>2024-05-05T10:54:04Z</time>
      </trkpt>
      <trkpt lat="49.11602" lon="1.71107">
        <ele>93.4</ele>
        <time>2024-05-05T10:54:09Z</time>
      </trkpt>
      <trkpt lat="49.11602" lon="1.71107">
        <ele>93.4</ele>
        <time>2024-05-05T10:54:14Z</time>
      </trkpt>
      <trkpt lat="49.11602" lon="1.71107">
        <ele>93.4</ele>
        <time>2024-05-05T10:54:20Z</time>
      </trkpt>
      <trkpt lat="49.11602" lon="1.71107">
        <ele>93.4</ele>
        <time>2024-05-05T10:54:26Z</time>
      </trkpt>
      <trkpt lat="49.11602" lon="1.71107">
        <ele>93.4</ele>
        <time>2024-05-05T10:54:32Z</time>
      </trkpt>
      <trkpt lat="49.11602" lon="1.71107">
        <ele>93.4</ele>
        <time>2024-05-05T10:54:37Z</time>
      </trkpt>
      <trkpt lat="49.11602" lon="1.71107">
        <ele>93.4</ele>
        <time>2024-05-05T10:54:43Z</time>
      </trkpt>
      <trkpt lat="49.11602" lon="1.71107">
        <ele>93.4</ele>
        <time>2024-05-05T10:54:49Z</time>
      </trkpt>
      <trkpt lat="49.11602" lon="1.71107">
        <ele>93.4</ele>
        <time>2024-05-05T10:54:54Z</time>
      </trkpt>
      <trkpt lat="49.11602" lon="1.71107">
        <ele>93.4</ele>
        <time>2024-05-05T10:55:00Z</time>
      </trkpt>
      <trkpt lat="49.11602" lon="1.71107">
        <ele>93.4</ele>
        <time>2024-05-05T10:55:06Z</time>
      </trkpt>
      <trkpt lat="49.11602" lon="1.71107">
        <ele>93.4</ele>
        <time>2024-05-05T10:55:12Z</time>
      </trkpt>
      <trkpt lat="49.11602" lon="1.71107">
        <ele>93.4</ele>
        <time>2024-05-05T10:55:18Z</time>
      </trkpt>
      <trkpt lat="49.11602" lon="1.71107">
        <ele>93.4</ele>
        <time>2024-05-05T10:55:23Z</time>
      </trkpt>
      <trkpt lat="49.11602" lon="1.71107">
        <ele>93.4</ele>
        <time>2024-05-05T10:55:29Z</time>
      </trkpt>
      <trkpt lat="49.11602" lon="1.71107">
        <ele>93.4</ele>
        <time>2024-05-05T10:55:35Z</time>
      </trkpt>
      <trkpt lat="49.11602" lon="1.71107">
        <ele>93.4</ele>
        <time>2024-05-05T10:55:40Z</time>
      </trkpt>
      <trkpt lat="49.11602" lon="1.71107">
        <ele>93.4</ele>
        <time>2024-05-05T10:55:46Z</time>
      </trkpt>
      <trkpt lat="49.11602" lon="1.71107">
        <ele>93.4</ele>
        <time>2024-05-05T10:55:52Z</time>
      </trkpt>
      <trkpt lat="49.11602" lon="1.71107">
        <ele>93.4</ele>
        <time>2024-05-05T10:55:58Z</time>
      </trkpt>
      <trkpt lat="49.11602" lon="1.71107">
        <ele>93.4</ele>
        <time>2024-05-05T10:56:04Z</time>
      </trkpt>
      <trkpt lat="49.11602" lon="1.71107">
        <ele>93.4</ele>
        <time>2024-05-05T10:56:10Z</time>
      </trkpt>
      <trkpt lat="49.11602" lon="1.71107">
        <ele>93.4</ele>
        <time>2024-05-05T10:56:15Z</time>
      </trkpt>
      <trkpt lat="49.11602" lon="1.71107">
        <ele>93.4</ele>
        <time>2024-05-05T10:56:20Z</time>
      </trkpt>
      <trkpt lat="49.11602" lon="1.71107">
        <ele>93.4</ele>
        <time>2024-05-05T10:56:26Z</time>
      </trkpt>
      <trkpt lat="49.11602" lon="1.71107">
        <ele>93.4</ele>
        <time>2024-05-05T10:56:32Z</time>
      </trkpt>
      <trkpt lat="49.11602" lon="1.71107">
        <ele>93.4</ele>
        <time>2024-05-05T10:56:38Z</time>
      </trkpt>
      <trkpt lat="49.11602" lon="1.71107">
        <ele>93.4</ele>
        <time>2024-05-05T10:56:44Z</time>
      </trkpt>
      <trkpt lat="49.11602" lon="1.71108">
        <ele>93.4</ele>
        <time>2024-05-05T10:56:49Z</time>
      </trkpt>
      <trkpt lat="49.11602" lon="1.71108">
        <ele>93.5</ele>
        <time>2024-05-05T10:56:54Z</time>
      </trkpt>
      <trkpt lat="49.11602" lon="1.71108">
        <ele>93.5</ele>
        <time>2024-05-05T10:57:00Z</time>
      </trkpt>
      <trkpt lat="49.11602" lon="1.71108">
        <ele>93.5</ele>
        <time>2024-05-05T10:57:06Z</time>
      </trkpt>
      <trkpt lat="49.11602" lon="1.71108">
        <ele>93.5</ele>
        <time>2024-05-05T10:57:12Z</time>
      </trkpt>
      <trkpt lat="49.11602" lon="1.71108">
        <ele>93.5</ele>
        <time>2024-05-05T10:57:17Z</time>
      </trkpt>
      <trkpt lat="49.11602" lon="1.71108">
        <ele>93.5</ele>
        <time>2024-05-05T10:57:22Z</time>
      </trkpt>
      <trkpt lat="49.11602" lon="1.71108">
        <ele>93.5</ele>
        <time>2024-05-05T10:57:28Z</time>
      </trkpt>
      <trkpt lat="49.11602" lon="1.71108">
        <ele>93.5</ele>
        <time>2024-05-05T10:57:34Z</time>
      </trkpt>
      <trkpt lat="49.11602" lon="1.71108">
        <ele>93.5</ele>
        <time>2024-05-05T10:57:40Z</time>
      </trkpt>
      <trkpt lat="49.11602" lon="1.71108">
        <ele>93.5</ele>
        <time>2024-05-05T10:57:45Z</time>
      </trkpt>
      <trkpt lat="49.11602" lon="1.71108">
        <ele>93.5</ele>
        <time>2024-05-05T10:57:51Z</time>
      </trkpt>
      <trkpt lat="49.11602" lon="1.71108">
        <ele>93.5</ele>
        <time>2024-05-05T10:57:57Z</time>
      </trkpt>
      <trkpt lat="49.11602" lon="1.71108">
        <ele>93.5</ele>
        <time>2024-05-05T10:58:03Z</time>
      </trkpt>
      <trkpt lat="49.11602" lon="1.71108">
        <ele>93.5</ele>
        <time>2024-05-05T10:58:08Z</time>
      </trkpt>
      <trkpt lat="49.11602" lon="1.71108">
        <ele>93.5</ele>
        <time>2024-05-05T10:58:14Z</time>
      </trkpt>
      <trkpt lat="49.11602" lon="1.71108">
        <ele>93.5</ele>
        <time>2024-05-05T10:58:20Z</time>
      </trkpt>
      <trkpt lat="49.11602" lon="1.71108">
        <ele>93.5</ele>
        <time>2024-05-05T10:58:25Z</time>
      </trkpt>
      <trkpt lat="49.11602" lon="1.71108">
        <ele>93.4</ele>
        <time>2024-05-05T10:58:31Z</time>
      </trkpt>
      <trkpt lat="49.11602" lon="1.71108">
        <ele>93.4</ele>
        <time>2024-05-05T10:58:37Z</time>
      </trkpt>
      <trkpt lat="49.11602" lon="1.71108">
        <ele>93.4</ele>
        <time>2024-05-05T10:58:43Z</time>
      </trkpt>
      <trkpt lat="49.11602" lon="1.71108">
        <ele>93.4</ele>
        <time>2024-05-05T10:58:49Z</time>
      </trkpt>
      <trkpt lat="49.11602" lon="1.71108">
        <ele>93.4</ele>
        <time>2024-05-05T10:58:54Z</time>
      </trkpt>
      <trkpt lat="49.11602" lon="1.71108">
        <ele>93.4</ele>
        <time>2024-05-05T10:59:00Z</time>
      </trkpt>
      <trkpt lat="49.11602" lon="1.71108">
        <ele>93.4</ele>
        <time>2024-05-05T10:59:06Z</time>
      </trkpt>
      <trkpt lat="49.11602" lon="1.71108">
        <ele>93.4</ele>
        <time>2024-05-05T10:59:12Z</time>
      </trkpt>
      <trkpt lat="49.11602" lon="1.71108">
        <ele>93.4</ele>
        <time>2024-05-05T10:59:18Z</time>
      </trkpt>
      <trkpt lat="49.11602" lon="1.71108">
        <ele>93.4</ele>
        <time>2024-05-05T10:59:24Z</time>
      </trkpt>
      <trkpt lat="49.11602" lon="1.71108">
        <ele>93.4</ele>
        <time>2024-05-05T10:59:30Z</time>
      </trkpt>
      <trkpt lat="49.11602" lon="1.71108">
        <ele>93.4</ele>
        <time>2024-05-05T10:59:36Z</time>
      </trkpt>
      <trkpt lat="49.11602" lon="1.71108">
        <ele>93.4</ele>
        <time>2024-05-05T10:59:42Z</time>
      </trkpt>
      <trkpt lat="49.11602" lon="1.71107">
        <ele>93.4</ele>
        <time>2024-05-05T10:59:47Z</time>
      </trkpt>
      <trkpt lat="49.11603" lon="1.71107">
        <ele>93.4</ele>
        <time>2024-05-05T10:59:53Z</time>
      </trkpt>
      <trkpt lat="49.11603" lon="1.71107">
        <ele>93.4</ele>
        <time>2024-05-05T10:59:59Z</time>
      </trkpt>
      <trkpt lat="49.11603" lon="1.71107">
        <ele>93.4</ele>
        <time>2024-05-05T11:00:05Z</time>
      </trkpt>
      <trkpt lat="49.11603" lon="1.71107">
        <ele>93.4</ele>
        <time>2024-05-05T11:00:10Z</time>
      </trkpt>
      <trkpt lat="49.11603" lon="1.71107">
        <ele>93.4</ele>
        <time>2024-05-05T11:00:16Z</time>
      </trkpt>
      <trkpt lat="49.11603" lon="1.71107">
        <ele>93.4</ele>
        <time>2024-05-05T11:00:22Z</time>
      </trkpt>
      <trkpt lat="49.11603" lon="1.71107">
        <ele>93.4</ele>
        <time>2024-05-05T11:00:28Z</time>
      </trkpt>
      <trkpt lat="49.11603" lon="1.71107">
        <ele>93.4</ele>
        <time>2024-05-05T11:00:34Z</time>
      </trkpt>
      <trkpt lat="49.11603" lon="1.71107">
        <ele>93.4</ele>
        <time>2024-05-05T11:00:40Z</time>
      </trkpt>
      <trkpt lat="49.11603" lon="1.71107">
        <ele>93.4</ele>
        <time>2024-05-05T11:00:46Z</time>
      </trkpt>
      <trkpt lat="49.11603" lon="1.71108">
        <ele>93.4</ele>
        <time>2024-05-05T11:00:52Z</time>
      </trkpt>
      <trkpt lat="49.11603" lon="1.71108">
        <ele>93.4</ele>
        <time>2024-05-05T11:00:58Z</time>
      </trkpt>
      <trkpt lat="49.11603" lon="1.71108">
        <ele>93.4</ele>
        <time>2024-05-05T11:01:04Z</time>
      </trkpt>
      <trkpt lat="49.11603" lon="1.71107">
        <ele>93.4</ele>
        <time>2024-05-05T11:01:10Z</time>
      </trkpt>
      <trkpt lat="49.11603" lon="1.71107">
        <ele>93.4</ele>
        <time>2024-05-05T11:01:16Z</time>
      </trkpt>
      <trkpt lat="49.11602" lon="1.71107">
        <ele>93.4</ele>
        <time>2024-05-05T11:01:22Z</time>
      </trkpt>
      <trkpt lat="49.11602" lon="1.71107">
        <ele>93.4</ele>
        <time>2024-05-05T11:01:28Z</time>
      </trkpt>
      <trkpt lat="49.11602" lon="1.71107">
        <ele>93.4</ele>
        <time>2024-05-05T11:01:34Z</time>
      </trkpt>
      <trkpt lat="49.11602" lon="1.71107">
        <ele>93.4</ele>
        <time>2024-05-05T11:01:40Z</time>
      </trkpt>
      <trkpt lat="49.11602" lon="1.71106">
        <ele>93.4</ele>
        <time>2024-05-05T11:01:46Z</time>
      </trkpt>
      <trkpt lat="49.11602" lon="1.71106">
        <ele>93.4</ele>
        <time>2024-05-05T11:01:52Z</time>
      </trkpt>
      <trkpt lat="49.11602" lon="1.71106">
        <ele>93.4</ele>
        <time>2024-05-05T11:01:58Z</time>
      </trkpt>
      <trkpt lat="49.11602" lon="1.71106">
        <ele>93.4</ele>
        <time>2024-05-05T11:02:04Z</time>
      </trkpt>
      <trkpt lat="49.11602" lon="1.71106">
        <ele>93.4</ele>
        <time>2024-05-05T11:02:10Z</time>
      </trkpt>
      <trkpt lat="49.11602" lon="1.71106">
        <ele>93.4</ele>
        <time>2024-05-05T11:02:16Z</time>
      </trkpt>
      <trkpt lat="49.11602" lon="1.71106">
        <ele>93.4</ele>
        <time>2024-05-05T11:02:22Z</time>
      </trkpt>
      <trkpt lat="49.11602" lon="1.71106">
        <ele>93.4</ele>
        <time>2024-05-05T11:02:28Z</time>
      </trkpt>
      <trkpt lat="49.11602" lon="1.71106">
        <ele>93.4</ele>
        <time>2024-05-05T11:02:33Z</time>
      </trkpt>
      <trkpt lat="49.11601" lon="1.71106">
        <ele>93.4</ele>
        <time>2024-05-05T11:02:38Z</time>
      </trkpt>
      <trkpt lat="49.11601" lon="1.71106">
        <ele>93.4</ele>
        <time>2024-05-05T11:02:44Z</time>
      </trkpt>
      <trkpt lat="49.11601" lon="1.71106">
        <ele>93.4</ele>
        <time>2024-05-05T11:02:50Z</time>
      </trkpt>
      <trkpt lat="49.11601" lon="1.71106">
        <ele>93.4</ele>
        <time>2024-05-05T11:02:56Z</time>
      </trkpt>
      <trkpt lat="49.11601" lon="1.71106">
        <ele>93.4</ele>
        <time>2024-05-05T11:03:02Z</time>
      </trkpt>
      <trkpt lat="49.11601" lon="1.71106">
        <ele>93.4</ele>
        <time>2024-05-05T11:03:08Z</time>
      </trkpt>
      <trkpt lat="49.11601" lon="1.71106">
        <ele>93.4</ele>
        <time>2024-05-05T11:03:13Z</time>
      </trkpt>
      <trkpt lat="49.11601" lon="1.71106">
        <ele>93.4</ele>
        <time>2024-05-05T11:03:19Z</time>
      </trkpt>
      <trkpt lat="49.11601" lon="1.71106">
        <ele>93.4</ele>
        <time>2024-05-05T11:03:25Z</time>
      </trkpt>
      <trkpt lat="49.11601" lon="1.71106">
        <ele>93.4</ele>
        <time>2024-05-05T11:03:31Z</time>
      </trkpt>
      <trkpt lat="49.11601" lon="1.71106">
        <ele>93.4</ele>
        <time>2024-05-05T11:03:37Z</time>
      </trkpt>
      <trkpt lat="49.11601" lon="1.71106">
        <ele>93.4</ele>
        <time>2024-05-05T11:03:43Z</time>
      </trkpt>
      <trkpt lat="49.11601" lon="1.71106">
        <ele>93.4</ele>
        <time>2024-05-05T11:03:49Z</time>
      </trkpt>
      <trkpt lat="49.11601" lon="1.71106">
        <ele>93.4</ele>
        <time>2024-05-05T11:03:54Z</time>
      </trkpt>
      <trkpt lat="49.11601" lon="1.71106">
        <ele>93.4</ele>
        <time>2024-05-05T11:03:59Z</time>
      </trkpt>
      <trkpt lat="49.11601" lon="1.71106">
        <ele>93.4</ele>
        <time>2024-05-05T11:04:04Z</time>
      </trkpt>
      <trkpt lat="49.11602" lon="1.71106">
        <ele>93.4</ele>
        <time>2024-05-05T11:04:10Z</time>
      </trkpt>
      <trkpt lat="49.11602" lon="1.71106">
        <ele>93.4</ele>
        <time>2024-05-05T11:04:16Z</time>
      </trkpt>
      <trkpt lat="49.11602" lon="1.71106">
        <ele>93.4</ele>
        <time>2024-05-05T11:04:22Z</time>
      </trkpt>
      <trkpt lat="49.11602" lon="1.71106">
        <ele>93.4</ele>
        <time>2024-05-05T11:04:28Z</time>
      </trkpt>
      <trkpt lat="49.11602" lon="1.71106">
        <ele>93.4</ele>
        <time>2024-05-05T11:04:34Z</time>
      </trkpt>
      <trkpt lat="49.11602" lon="1.71106">
        <ele>93.4</ele>
        <time>2024-05-05T11:04:39Z</time>
      </trkpt>
      <trkpt lat="49.11602" lon="1.71106">
        <ele>93.4</ele>
        <time>2024-05-05T11:04:45Z</time>
      </trkpt>
      <trkpt lat="49.11602" lon="1.71106">
        <ele>93.4</ele>
        <time>2024-05-05T11:04:51Z</time>
      </trkpt>
      <trkpt lat="49.11602" lon="1.71106">
        <ele>93.4</ele>
        <time>2024-05-05T11:04:57Z</time>
      </trkpt>
      <trkpt lat="49.11602" lon="1.71106">
        <ele>93.4</ele>
        <time>2024-05-05T11:05:03Z</time>
      </trkpt>
      <trkpt lat="49.11602" lon="1.71106">
        <ele>93.4</ele>
        <time>2024-05-05T11:05:09Z</time>
      </trkpt>
      <trkpt lat="49.11602" lon="1.71106">
        <ele>93.4</ele>
        <time>2024-05-05T11:05:15Z</time>
      </trkpt>
      <trkpt lat="49.11602" lon="1.71106">
        <ele>93.4</ele>
        <time>2024-05-05T11:05:20Z</time>
      </trkpt>
      <trkpt lat="49.11602" lon="1.71106">
        <ele>93.4</ele>
        <time>2024-05-05T11:05:25Z</time>
      </trkpt>
      <trkpt lat="49.11602" lon="1.71106">
        <ele>93.4</ele>
        <time>2024-05-05T11:05:31Z</time>
      </trkpt>
      <trkpt lat="49.11602" lon="1.71106">
        <ele>93.4</ele>
        <time>2024-05-05T11:05:37Z</time>
      </trkpt>
      <trkpt lat="49.11602" lon="1.71106">
        <ele>93.4</ele>
        <time>2024-05-05T11:05:43Z</time>
      </trkpt>
      <trkpt lat="49.11602" lon="1.71106">
        <ele>93.4</ele>
        <time>2024-05-05T11:05:49Z</time>
      </trkpt>
      <trkpt lat="49.11602" lon="1.71106">
        <ele>93.4</ele>
        <time>2024-05-05T11:05:54Z</time>
      </trkpt>
      <trkpt lat="49.11602" lon="1.71106">
        <ele>93.4</ele>
        <time>2024-05-05T11:06:00Z</time>
      </trkpt>
      <trkpt lat="49.11602" lon="1.71106">
        <ele>93.4</ele>
        <time>2024-05-05T11:06:06Z</time>
      </trkpt>
      <trkpt lat="49.11602" lon="1.71106">
        <ele>93.4</ele>
        <time>2024-05-05T11:06:11Z</time>
      </trkpt>
      <trkpt lat="49.11602" lon="1.71106">
        <ele>93.4</ele>
        <time>2024-05-05T11:06:16Z</time>
      </trkpt>
      <trkpt lat="49.11602" lon="1.71106">
        <ele>93.4</ele>
        <time>2024-05-05T11:06:22Z</time>
      </trkpt>
      <trkpt lat="49.11602" lon="1.71107">
        <ele>93.4</ele>
        <time>2024-05-05T11:06:28Z</time>
      </trkpt>
      <trkpt lat="49.11602" lon="1.71107">
        <ele>93.4</ele>
        <time>2024-05-05T11:06:34Z</time>
      </trkpt>
      <trkpt lat="49.11602" lon="1.71107">
        <ele>93.4</ele>
        <time>2024-05-05T11:06:40Z</time>
      </trkpt>
      <trkpt lat="49.11602" lon="1.71107">
        <ele>93.4</ele>
        <time>2024-05-05T11:06:46Z</time>
      </trkpt>
      <trkpt lat="49.11602" lon="1.71107">
        <ele>93.4</ele>
        <time>2024-05-05T11:06:52Z</time>
      </trkpt>
      <trkpt lat="49.11602" lon="1.71107">
        <ele>93.4</ele>
        <time>2024-05-05T11:06:58Z</time>
      </trkpt>
      <trkpt lat="49.11602" lon="1.71107">
        <ele>93.4</ele>
        <time>2024-05-05T11:07:03Z</time>
      </trkpt>
      <trkpt lat="49.11602" lon="1.71107">
        <ele>93.4</ele>
        <time>2024-05-05T11:07:08Z</time>
      </trkpt>
      <trkpt lat="49.11603" lon="1.71107">
        <ele>93.3</ele>
        <time>2024-05-05T11:07:14Z</time>
      </trkpt>
      <trkpt lat="49.11603" lon="1.71107">
        <ele>93.3</ele>
        <time>2024-05-05T11:07:19Z</time>
      </trkpt>
      <trkpt lat="49.11603" lon="1.71107">
        <ele>93.3</ele>
        <time>2024-05-05T11:07:24Z</time>
      </trkpt>
      <trkpt lat="49.11603" lon="1.71107">
        <ele>93.3</ele>
        <time>2024-05-05T11:07:29Z</time>
      </trkpt>
      <trkpt lat="49.11603" lon="1.71107">
        <ele>93.3</ele>
        <time>2024-05-05T11:07:35Z</time>
      </trkpt>
      <trkpt lat="49.11603" lon="1.71107">
        <ele>93.4</ele>
        <time>2024-05-05T11:07:41Z</time>
      </trkpt>
      <trkpt lat="49.11603" lon="1.71107">
        <ele>93.4</ele>
        <time>2024-05-05T11:07:47Z</time>
      </trkpt>
      <trkpt lat="49.11602" lon="1.71107">
        <ele>93.4</ele>
        <time>2024-05-05T11:07:53Z</time>
      </trkpt>
      <trkpt lat="49.11602" lon="1.71107">
        <ele>93.4</ele>
        <time>2024-05-05T11:07:59Z</time>
      </trkpt>
      <trkpt lat="49.11603" lon="1.71107">
        <ele>93.3</ele>
        <time>2024-05-05T11:08:05Z</time>
      </trkpt>
      <trkpt lat="49.11603" lon="1.71107">
        <ele>93.3</ele>
        <time>2024-05-05T11:08:10Z</time>
      </trkpt>
      <trkpt lat="49.11603" lon="1.71107">
        <ele>93.4</ele>
        <time>2024-05-05T11:08:16Z</time>
      </trkpt>
      <trkpt lat="49.11603" lon="1.71107">
        <ele>93.4</ele>
        <time>2024-05-05T11:08:22Z</time>
      </trkpt>
      <trkpt lat="49.11603" lon="1.71107">
        <ele>93.4</ele>
        <time>2024-05-05T11:08:28Z</time>
      </trkpt>
      <trkpt lat="49.11603" lon="1.71107">
        <ele>93.4</ele>
        <time>2024-05-05T11:08:34Z</time>
      </trkpt>
      <trkpt lat="49.11602" lon="1.71107">
        <ele>93.4</ele>
        <time>2024-05-05T11:08:40Z</time>
      </trkpt>
      <trkpt lat="49.11602" lon="1.71107">
        <ele>93.4</ele>
        <time>2024-05-05T11:08:46Z</time>
      </trkpt>
      <trkpt lat="49.11603" lon="1.71107">
        <ele>93.4</ele>
        <time>2024-05-05T11:08:51Z</time>
      </trkpt>
      <trkpt lat="49.11603" lon="1.71107">
        <ele>93.4</ele>
        <time>2024-05-05T11:08:57Z</time>
      </trkpt>
      <trkpt lat="49.11603" lon="1.71107">
        <ele>93.4</ele>
        <time>2024-05-05T11:09:03Z</time>
      </trkpt>
      <trkpt lat="49.11603" lon="1.71107">
        <ele>93.4</ele>
        <time>2024-05-05T11:09:09Z</time>
      </trkpt>
      <trkpt lat="49.11603" lon="1.71107">
        <ele>93.4</ele>
        <time>2024-05-05T11:09:15Z</time>
      </trkpt>
      <trkpt lat="49.11603" lon="1.71107">
        <ele>93.4</ele>
        <time>2024-05-05T11:09:20Z</time>
      </trkpt>
      <trkpt lat="49.11603" lon="1.71107">
        <ele>93.4</ele>
        <time>2024-05-05T11:09:26Z</time>
      </trkpt>
      <trkpt lat="49.11603" lon="1.71107">
        <ele>93.4</ele>
        <time>2024-05-05T11:09:31Z</time>
      </trkpt>
      <trkpt lat="49.11603" lon="1.71107">
        <ele>93.4</ele>
        <time>2024-05-05T11:09:37Z</time>
      </trkpt>
      <trkpt lat="49.11603" lon="1.71107">
        <ele>93.4</ele>
        <time>2024-05-05T11:09:43Z</time>
      </trkpt>
      <trkpt lat="49.11603" lon="1.71107">
        <ele>93.4</ele>
        <time>2024-05-05T11:09:49Z</time>
      </trkpt>
      <trkpt lat="49.11603" lon="1.71107">
        <ele>93.4</ele>
        <time>2024-05-05T11:09:55Z</time>
      </trkpt>
      <trkpt lat="49.11603" lon="1.71107">
        <ele>93.4</ele>
        <time>2024-05-05T11:10:01Z</time>
      </trkpt>
      <trkpt lat="49.11603" lon="1.71107">
        <ele>93.4</ele>
        <time>2024-05-05T11:10:07Z</time>
      </trkpt>
      <trkpt lat="49.11603" lon="1.71107">
        <ele>93.4</ele>
        <time>2024-05-05T11:10:13Z</time>
      </trkpt>
      <trkpt lat="49.11603" lon="1.71107">
        <ele>93.4</ele>
        <time>2024-05-05T11:10:19Z</time>
      </trkpt>
      <trkpt lat="49.11603" lon="1.71107">
        <ele>93.4</ele>
        <time>2024-05-05T11:10:24Z</time>
      </trkpt>
      <trkpt lat="49.11602" lon="1.71107">
        <ele>93.4</ele>
        <time>2024-05-05T11:10:30Z</time>
      </trkpt>
      <trkpt lat="49.11602" lon="1.71107">
        <ele>93.4</ele>
        <time>2024-05-05T11:10:36Z</time>
      </trkpt>
      <trkpt lat="49.11602" lon="1.71107">
        <ele>93.4</ele>
        <time>2024-05-05T11:10:42Z</time>
      </trkpt>
      <trkpt lat="49.11602" lon="1.71107">
        <ele>93.4</ele>
        <time>2024-05-05T11:10:47Z</time>
      </trkpt>
      <trkpt lat="49.11602" lon="1.71107">
        <ele>93.4</ele>
        <time>2024-05-05T11:10:53Z</time>
      </trkpt>
      <trkpt lat="49.11602" lon="1.71107">
        <ele>93.4</ele>
        <time>2024-05-05T11:10:59Z</time>
      </trkpt>
      <trkpt lat="49.11603" lon="1.71107">
        <ele>93.4</ele>
        <time>2024-05-05T11:11:04Z</time>
      </trkpt>
      <trkpt lat="49.11603" lon="1.71107">
        <ele>93.4</ele>
        <time>2024-05-05T11:11:10Z</time>
      </trkpt>
      <trkpt lat="49.11603" lon="1.71107">
        <ele>93.4</ele>
        <time>2024-05-05T11:11:16Z</time>
      </trkpt>
      <trkpt lat="49.11603" lon="1.71107">
        <ele>93.4</ele>
        <time>2024-05-05T11:11:22Z</time>
      </trkpt>
      <trkpt lat="49.11603" lon="1.71107">
        <ele>93.4</ele>
        <time>2024-05-05T11:11:28Z</time>
      </trkpt>
      <trkpt lat="49.11603" lon="1.71107">
        <ele>93.4</ele>
        <time>2024-05-05T11:11:34Z</time>
      </trkpt>
      <trkpt lat="49.11603" lon="1.71107">
        <ele>93.4</ele>
        <time>2024-05-05T11:11:39Z</time>
      </trkpt>
      <trkpt lat="49.11603" lon="1.71107">
        <ele>93.4</ele>
        <time>2024-05-05T11:11:45Z</time>
      </trkpt>
      <trkpt lat="49.11602" lon="1.71107">
        <ele>93.4</ele>
        <time>2024-05-05T11:11:51Z</time>
      </trkpt>
      <trkpt lat="49.11602" lon="1.71107">
        <ele>93.4</ele>
        <time>2024-05-05T11:11:57Z</time>
      </trkpt>
      <trkpt lat="49.11602" lon="1.71107">
        <ele>93.4</ele>
        <time>2024-05-05T11:12:03Z</time>
      </trkpt>
      <trkpt lat="49.11603" lon="1.71107">
        <ele>93.4</ele>
        <time>2024-05-05T11:12:09Z</time>
      </trkpt>
      <trkpt lat="49.11603" lon="1.71107">
        <ele>93.4</ele>
        <time>2024-05-05T11:12:14Z</time>
      </trkpt>
      <trkpt lat="49.11602" lon="1.71107">
        <ele>93.4</ele>
        <time>2024-05-05T11:12:19Z</time>
      </trkpt>
      <trkpt lat="49.11602" lon="1.71108">
        <ele>93.4</ele>
        <time>2024-05-05T11:12:24Z</time>
      </trkpt>
      <trkpt lat="49.11602" lon="1.71108">
        <ele>93.4</ele>
        <time>2024-05-05T11:12:30Z</time>
      </trkpt>
      <trkpt lat="49.11602" lon="1.71108">
        <ele>93.4</ele>
        <time>2024-05-05T11:12:35Z</time>
      </trkpt>
      <trkpt lat="49.11602" lon="1.71108">
        <ele>93.4</ele>
        <time>2024-05-05T11:12:41Z</time>
      </trkpt>
      <trkpt lat="49.11603" lon="1.71108">
        <ele>93.4</ele>
        <time>2024-05-05T11:12:47Z</time>
      </trkpt>
      <trkpt lat="49.11603" lon="1.71108">
        <ele>93.4</ele>
        <time>2024-05-05T11:12:52Z</time>
      </trkpt>
      <trkpt lat="49.11603" lon="1.71108">
        <ele>93.4</ele>
        <time>2024-05-05T11:12:58Z</time>
      </trkpt>
      <trkpt lat="49.11603" lon="1.71108">
        <ele>93.4</ele>
        <time>2024-05-05T11:13:04Z</time>
      </trkpt>
      <trkpt lat="49.11603" lon="1.71108">
        <ele>93.4</ele>
        <time>2024-05-05T11:13:09Z</time>
      </trkpt>
      <trkpt lat="49.11603" lon="1.71108">
        <ele>93.4</ele>
        <time>2024-05-05T11:13:14Z</time>
      </trkpt>
      <trkpt lat="49.11603" lon="1.71108">
        <ele>93.4</ele>
        <time>2024-05-05T11:13:19Z</time>
      </trkpt>
      <trkpt lat="49.11603" lon="1.71108">
        <ele>93.4</ele>
        <time>2024-05-05T11:13:25Z</time>
      </trkpt>
      <trkpt lat="49.11603" lon="1.71108">
        <ele>93.4</ele>
        <time>2024-05-05T11:13:31Z</time>
      </trkpt>
      <trkpt lat="49.11603" lon="1.71108">
        <ele>93.4</ele>
        <time>2024-05-05T11:13:36Z</time>
      </trkpt>
      <trkpt lat="49.11603" lon="1.71108">
        <ele>93.4</ele>
        <time>2024-05-05T11:13:42Z</time>
      </trkpt>
      <trkpt lat="49.11603" lon="1.71108">
        <ele>93.4</ele>
        <time>2024-05-05T11:13:48Z</time>
      </trkpt>
      <trkpt lat="49.11603" lon="1.71108">
        <ele>93.4</ele>
        <time>2024-05-05T11:13:54Z</time>
      </trkpt>
      <trkpt lat="49.11603" lon="1.71108">
        <ele>93.4</ele>
        <time>2024-05-05T11:14:00Z</time>
      </trkpt>
      <trkpt lat="49.11603" lon="1.71108">
        <ele>93.4</ele>
        <time>2024-05-05T11:14:06Z</time>
      </trkpt>
      <trkpt lat="49.11603" lon="1.71108">
        <ele>93.4</ele>
        <time>2024-05-05T11:14:12Z</time>
      </trkpt>
      <trkpt lat="49.11603" lon="1.71108">
        <ele>93.4</ele>
        <time>2024-05-05T11:14:17Z</time>
      </trkpt>
      <trkpt lat="49.11603" lon="1.71108">
        <ele>93.4</ele>
        <time>2024-05-05T11:14:23Z</time>
      </trkpt>
      <trkpt lat="49.11603" lon="1.71108">
        <ele>93.4</ele>
        <time>2024-05-05T11:14:29Z</time>
      </trkpt>
      <trkpt lat="49.11603" lon="1.71108">
        <ele>93.4</ele>
        <time>2024-05-05T11:14:35Z</time>
      </trkpt>
      <trkpt lat="49.11603" lon="1.71108">
        <ele>93.4</ele>
        <time>2024-05-05T11:14:41Z</time>
      </trkpt>
      <trkpt lat="49.11603" lon="1.71107">
        <ele>93.4</ele>
        <time>2024-05-05T11:14:47Z</time>
      </trkpt>
      <trkpt lat="49.11603" lon="1.71107">
        <ele>93.3</ele>
        <time>2024-05-05T11:14:52Z</time>
      </trkpt>
      <trkpt lat="49.11603" lon="1.71107">
        <ele>93.3</ele>
        <time>2024-05-05T11:14:58Z</time>
      </trkpt>
      <trkpt lat="49.11603" lon="1.71107">
        <ele>93.3</ele>
        <time>2024-05-05T11:15:04Z</time>
      </trkpt>
      <trkpt lat="49.11603" lon="1.71107">
        <ele>93.3</ele>
        <time>2024-05-05T11:15:10Z</time>
      </trkpt>
      <trkpt lat="49.11603" lon="1.71108">
        <ele>93.3</ele>
        <time>2024-05-05T11:15:16Z</time>
      </trkpt>
      <trkpt lat="49.11603" lon="1.71108">
        <ele>93.3</ele>
        <time>2024-05-05T11:15:21Z</time>
      </trkpt>
      <trkpt lat="49.11604" lon="1.71108">
        <ele>93.3</ele>
        <time>2024-05-05T11:15:27Z</time>
      </trkpt>
      <trkpt lat="49.11604" lon="1.71108">
        <ele>93.3</ele>
        <time>2024-05-05T11:15:32Z</time>
      </trkpt>
      <trkpt lat="49.11603" lon="1.71108">
        <ele>93.3</ele>
        <time>2024-05-05T11:15:37Z</time>
      </trkpt>
      <trkpt lat="49.11603" lon="1.71108">
        <ele>93.3</ele>
        <time>2024-05-05T11:15:43Z</time>
      </trkpt>
      <trkpt lat="49.11603" lon="1.71108">
        <ele>93.3</ele>
        <time>2024-05-05T11:15:49Z</time>
      </trkpt>
      <trkpt lat="49.11603" lon="1.71108">
        <ele>93.4</ele>
        <time>2024-05-05T11:15:54Z</time>
      </trkpt>
      <trkpt lat="49.11603" lon="1.71108">
        <ele>93.4</ele>
        <time>2024-05-05T11:16:00Z</time>
      </trkpt>
      <trkpt lat="49.11603" lon="1.71108">
        <ele>93.4</ele>
        <time>2024-05-05T11:16:06Z</time>
      </trkpt>
      <trkpt lat="49.11603" lon="1.71108">
        <ele>93.4</ele>
        <time>2024-05-05T11:16:11Z</time>
      </trkpt>
      <trkpt lat="49.11603" lon="1.71108">
        <ele>93.4</ele>
        <time>2024-05-05T11:16:17Z</time>
      </trkpt>
      <trkpt lat="49.11603" lon="1.71108">
        <ele>93.4</ele>
        <time>2024-05-05T11:16:23Z</time>
      </trkpt>
      <trkpt lat="49.11603" lon="1.71108">
        <ele>93.4</ele>
        <time>2024-05-05T11:16:29Z</time>
      </trkpt>
      <trkpt lat="49.11603" lon="1.71108">
        <ele>93.4</ele>
        <time>2024-05-05T11:16:34Z</time>
      </trkpt>
      <trkpt lat="49.11603" lon="1.71108">
        <ele>93.4</ele>
        <time>2024-05-05T11:16:40Z</time>
      </trkpt>
      <trkpt lat="49.11603" lon="1.71108">
        <ele>93.4</ele>
        <time>2024-05-05T11:16:46Z</time>
      </trkpt>
      <trkpt lat="49.11603" lon="1.71108">
        <ele>93.4</ele>
        <time>2024-05-05T11:16:52Z</time>
      </trkpt>
      <trkpt lat="49.11603" lon="1.71108">
        <ele>93.4</ele>
        <time>2024-05-05T11:16:57Z</time>
      </trkpt>
      <trkpt lat="49.11603" lon="1.71108">
        <ele>93.4</ele>
        <time>2024-05-05T11:17:03Z</time>
      </trkpt>
      <trkpt lat="49.11603" lon="1.71108">
        <ele>93.4</ele>
        <time>2024-05-05T11:17:08Z</time>
      </trkpt>
      <trkpt lat="49.11603" lon="1.71108">
        <ele>93.4</ele>
        <time>2024-05-05T11:17:14Z</time>
      </trkpt>
      <trkpt lat="49.11603" lon="1.71108">
        <ele>93.4</ele>
        <time>2024-05-05T11:17:20Z</time>
      </trkpt>
      <trkpt lat="49.11603" lon="1.71108">
        <ele>93.4</ele>
        <time>2024-05-05T11:17:26Z</time>
      </trkpt>
      <trkpt lat="49.11603" lon="1.71108">
        <ele>93.4</ele>
        <time>2024-05-05T11:17:31Z</time>
      </trkpt>
      <trkpt lat="49.11603" lon="1.71108">
        <ele>93.4</ele>
        <time>2024-05-05T11:17:37Z</time>
      </trkpt>
      <trkpt lat="49.11603" lon="1.71108">
        <ele>93.4</ele>
        <time>2024-05-05T11:17:42Z</time>
      </trkpt>
      <trkpt lat="49.11603" lon="1.71108">
        <ele>93.4</ele>
        <time>2024-05-05T11:17:47Z</time>
      </trkpt>
      <trkpt lat="49.11603" lon="1.71107">
        <ele>93.4</ele>
        <time>2024-05-05T11:17:53Z</time>
      </trkpt>
      <trkpt lat="49.11603" lon="1.71107">
        <ele>93.3</ele>
        <time>2024-05-05T11:17:58Z</time>
      </trkpt>
      <trkpt lat="49.11603" lon="1.71107">
        <ele>93.3</ele>
        <time>2024-05-05T11:18:03Z</time>
      </trkpt>
      <trkpt lat="49.11603" lon="1.71107">
        <ele>93.3</ele>
        <time>2024-05-05T11:18:08Z</time>
      </trkpt>
      <trkpt lat="49.11603" lon="1.71107">
        <ele>93.3</ele>
        <time>2024-05-05T11:18:14Z</time>
      </trkpt>
      <trkpt lat="49.11603" lon="1.71107">
        <ele>93.3</ele>
        <time>2024-05-05T11:18:20Z</time>
      </trkpt>
      <trkpt lat="49.11603" lon="1.71107">
        <ele>93.3</ele>
        <time>2024-05-05T11:18:26Z</time>
      </trkpt>
      <trkpt lat="49.11603" lon="1.71107">
        <ele>93.3</ele>
        <time>2024-05-05T11:18:32Z</time>
      </trkpt>
      <trkpt lat="49.11603" lon="1.71107">
        <ele>93.3</ele>
        <time>2024-05-05T11:18:38Z</time>
      </trkpt>
      <trkpt lat="49.11603" lon="1.71107">
        <ele>93.4</ele>
        <time>2024-05-05T11:18:43Z</time>
      </trkpt>
      <trkpt lat="49.11603" lon="1.71107">
        <ele>93.4</ele>
        <time>2024-05-05T11:18:49Z</time>
      </trkpt>
      <trkpt lat="49.11603" lon="1.71107">
        <ele>93.4</ele>
        <time>2024-05-05T11:18:55Z</time>
      </trkpt>
      <trkpt lat="49.11602" lon="1.71107">
        <ele>93.4</ele>
        <time>2024-05-05T11:19:01Z</time>
      </trkpt>
      <trkpt lat="49.11602" lon="1.71107">
        <ele>93.4</ele>
        <time>2024-05-05T11:19:07Z</time>
      </trkpt>
      <trkpt lat="49.11602" lon="1.71107">
        <ele>93.4</ele>
        <time>2024-05-05T11:19:13Z</time>
      </trkpt>
      <trkpt lat="49.11602" lon="1.71107">
        <ele>93.4</ele>
        <time>2024-05-05T11:19:19Z</time>
      </trkpt>
      <trkpt lat="49.11602" lon="1.71107">
        <ele>93.4</ele>
        <time>2024-05-05T11:19:25Z</time>
      </trkpt>
      <trkpt lat="49.11602" lon="1.71107">
        <ele>93.4</ele>
        <time>2024-05-05T11:19:31Z</time>
      </trkpt>
      <trkpt lat="49.11602" lon="1.71107">
        <ele>93.4</ele>
        <time>2024-05-05T11:19:37Z</time>
      </trkpt>
      <trkpt lat="49.11602" lon="1.71107">
        <ele>93.4</ele>
        <time>2024-05-05T11:19:43Z</time>
      </trkpt>
      <trkpt lat="49.11602" lon="1.71107">
        <ele>93.4</ele>
        <time>2024-05-05T11:19:49Z</time>
      </trkpt>
      <trkpt lat="49.11602" lon="1.71107">
        <ele>93.4</ele>
        <time>2024-05-05T11:19:55Z</time>
      </trkpt>
      <trkpt lat="49.11602" lon="1.71107">
        <ele>93.4</ele>
        <time>2024-05-05T11:20:01Z</time>
      </trkpt>
      <trkpt lat="49.11602" lon="1.71107">
        <ele>93.4</ele>
        <time>2024-05-05T11:20:07Z</time>
      </trkpt>
      <trkpt lat="49.11602" lon="1.71107">
        <ele>93.4</ele>
        <time>2024-05-05T11:20:12Z</time>
      </trkpt>
      <trkpt lat="49.11602" lon="1.71107">
        <ele>93.4</ele>
        <time>2024-05-05T11:20:18Z</time>
      </trkpt>
      <trkpt lat="49.11602" lon="1.71107">
        <ele>93.4</ele>
        <time>2024-05-05T11:20:24Z</time>
      </trkpt>
      <trkpt lat="49.11602" lon="1.71107">
        <ele>93.4</ele>
        <time>2024-05-05T11:20:30Z</time>
      </trkpt>
      <trkpt lat="49.11602" lon="1.71107">
        <ele>93.4</ele>
        <time>2024-05-05T11:20:36Z</time>
      </trkpt>
      <trkpt lat="49.11602" lon="1.71107">
        <ele>93.4</ele>
        <time>2024-05-05T11:20:42Z</time>
      </trkpt>
      <trkpt lat="49.11602" lon="1.71107">
        <ele>93.4</ele>
        <time>2024-05-05T11:20:47Z</time>
      </trkpt>
      <trkpt lat="49.11602" lon="1.71107">
        <ele>93.4</ele>
        <time>2024-05-05T11:20:53Z</time>
      </trkpt>
      <trkpt lat="49.11602" lon="1.71107">
        <ele>93.4</ele>
        <time>2024-05-05T11:20:58Z</time>
      </trkpt>
      <trkpt lat="49.11602" lon="1.71107">
        <ele>93.4</ele>
        <time>2024-05-05T11:21:04Z</time>
      </trkpt>
      <trkpt lat="49.11602" lon="1.71107">
        <ele>93.4</ele>
        <time>2024-05-05T11:21:10Z</time>
      </trkpt>
      <trkpt lat="49.11602" lon="1.71106">
        <ele>93.3</ele>
        <time>2024-05-05T11:21:15Z</time>
      </trkpt>
      <trkpt lat="49.11602" lon="1.71106">
        <ele>93.3</ele>
        <time>2024-05-05T11:21:21Z</time>
      </trkpt>
      <trkpt lat="49.11602" lon="1.71106">
        <ele>93.3</ele>
        <time>2024-05-05T11:21:27Z</time>
      </trkpt>
      <trkpt lat="49.11602" lon="1.71106">
        <ele>93.4</ele>
        <time>2024-05-05T11:21:33Z</time>
      </trkpt>
      <trkpt lat="49.11602" lon="1.71106">
        <ele>93.4</ele>
        <time>2024-05-05T11:21:38Z</time>
      </trkpt>
      <trkpt lat="49.11602" lon="1.71106">
        <ele>93.4</ele>
        <time>2024-05-05T11:21:44Z</time>
      </trkpt>
      <trkpt lat="49.11602" lon="1.71106">
        <ele>93.4</ele>
        <time>2024-05-05T11:21:50Z</time>
      </trkpt>
      <trkpt lat="49.11602" lon="1.71106">
        <ele>93.3</ele>
        <time>2024-05-05T11:21:56Z</time>
      </trkpt>
      <trkpt lat="49.11602" lon="1.71106">
        <ele>93.3</ele>
        <time>2024-05-05T11:22:01Z</time>
      </trkpt>
      <trkpt lat="49.11602" lon="1.71105">
        <ele>93.3</ele>
        <time>2024-05-05T11:22:07Z</time>
      </trkpt>
      <trkpt lat="49.11602" lon="1.71106">
        <ele>93.3</ele>
        <time>2024-05-05T11:22:13Z</time>
      </trkpt>
      <trkpt lat="49.11602" lon="1.71106">
        <ele>93.4</ele>
        <time>2024-05-05T11:22:18Z</time>
      </trkpt>
      <trkpt lat="49.11603" lon="1.71104">
        <ele>93.2</ele>
        <time>2024-05-05T11:22:24Z</time>
      </trkpt>
      <trkpt lat="49.11602" lon="1.71105">
        <ele>93.2</ele>
        <time>2024-05-05T11:22:29Z</time>
      </trkpt>
      <trkpt lat="49.11602" lon="1.71105">
        <ele>93.3</ele>
        <time>2024-05-05T11:22:35Z</time>
      </trkpt>
      <trkpt lat="49.11602" lon="1.71105">
        <ele>93.3</ele>
        <time>2024-05-05T11:22:40Z</time>
      </trkpt>
      <trkpt lat="49.11602" lon="1.71104">
        <ele>93.3</ele>
        <time>2024-05-05T11:22:45Z</time>
      </trkpt>
      <trkpt lat="49.11602" lon="1.71104">
        <ele>93.3</ele>
        <time>2024-05-05T11:22:51Z</time>
      </trkpt>
      <trkpt lat="49.11601" lon="1.71104">
        <ele>93.3</ele>
        <time>2024-05-05T11:22:57Z</time>
      </trkpt>
      <trkpt lat="49.11601" lon="1.71104">
        <ele>93.3</ele>
        <time>2024-05-05T11:23:03Z</time>
      </trkpt>
      <trkpt lat="49.11601" lon="1.71104">
        <ele>93.3</ele>
        <time>2024-05-05T11:23:09Z</time>
      </trkpt>
      <trkpt lat="49.11601" lon="1.71105">
        <ele>93.3</ele>
        <time>2024-05-05T11:23:15Z</time>
      </trkpt>
      <trkpt lat="49.11601" lon="1.71104">
        <ele>93.3</ele>
        <time>2024-05-05T11:23:21Z</time>
      </trkpt>
      <trkpt lat="49.11601" lon="1.71104">
        <ele>93.3</ele>
        <time>2024-05-05T11:23:27Z</time>
      </trkpt>
      <trkpt lat="49.11601" lon="1.71107">
        <ele>93.5</ele>
        <time>2024-05-05T11:23:33Z</time>
      </trkpt>
      <trkpt lat="49.11601" lon="1.71108">
        <ele>93.5</ele>
        <time>2024-05-05T11:23:39Z</time>
      </trkpt>
      <trkpt lat="49.116" lon="1.71111">
        <ele>93.8</ele>
        <time>2024-05-05T11:23:44Z</time>
      </trkpt>
      <trkpt lat="49.11599" lon="1.71115">
        <ele>94</ele>
        <time>2024-05-05T11:23:50Z</time>
      </trkpt>
      <trkpt lat="49.11601" lon="1.7112">
        <ele>94.2</ele>
        <time>2024-05-05T11:23:55Z</time>
      </trkpt>
      <trkpt lat="49.11601" lon="1.71127">
        <ele>94.4</ele>
        <time>2024-05-05T11:24:00Z</time>
      </trkpt>
      <trkpt lat="49.11602" lon="1.71131">
        <ele>94.6</ele>
        <time>2024-05-05T11:24:05Z</time>
      </trkpt>
      <trkpt lat="49.11602" lon="1.71131">
        <ele>94.6</ele>
        <time>2024-05-05T11:24:11Z</time>
      </trkpt>
      <trkpt lat="49.11605" lon="1.71136">
        <ele>94.8</ele>
        <time>2024-05-05T11:24:17Z</time>
      </trkpt>
      <trkpt lat="49.11612" lon="1.71138">
        <ele>95</ele>
        <time>2024-05-05T11:24:23Z</time>
      </trkpt>
      <trkpt lat="49.11618" lon="1.71139">
        <ele>95.5</ele>
        <time>2024-05-05T11:24:29Z</time>
      </trkpt>
      <trkpt lat="49.11623" lon="1.7114">
        <ele>95.8</ele>
        <time>2024-05-05T11:24:34Z</time>
      </trkpt>
      <trkpt lat="49.11627" lon="1.71142">
        <ele>96</ele>
        <time>2024-05-05T11:24:39Z</time>
      </trkpt>
      <trkpt lat="49.11634" lon="1.71144">
        <ele>96.4</ele>
        <time>2024-05-05T11:24:45Z</time>
      </trkpt>
      <trkpt lat="49.11639" lon="1.71144">
        <ele>96.8</ele>
        <time>2024-05-05T11:24:50Z</time>
      </trkpt>
      <trkpt lat="49.11644" lon="1.71143">
        <ele>97.1</ele>
        <time>2024-05-05T11:24:56Z</time>
      </trkpt>
      <trkpt lat="49.11645" lon="1.71147">
        <ele>97.1</ele>
        <time>2024-05-05T11:25:01Z</time>
      </trkpt>
      <trkpt lat="49.1165" lon="1.71152">
        <ele>97.3</ele>
        <time>2024-05-05T11:25:06Z</time>
      </trkpt>
      <trkpt lat="49.11652" lon="1.71163">
        <ele>97.4</ele>
        <time>2024-05-05T11:25:12Z</time>
      </trkpt>
      <trkpt lat="49.11654" lon="1.71172">
        <ele>97.8</ele>
        <time>2024-05-05T11:25:17Z</time>
      </trkpt>
      <trkpt lat="49.11657" lon="1.71181">
        <ele>98.2</ele>
        <time>2024-05-05T11:25:23Z</time>
      </trkpt>
      <trkpt lat="49.11658" lon="1.71187">
        <ele>98.6</ele>
        <time>2024-05-05T11:25:28Z</time>
      </trkpt>
      <trkpt lat="49.11661" lon="1.71196">
        <ele>99.4</ele>
        <time>2024-05-05T11:25:34Z</time>
      </trkpt>
      <trkpt lat="49.11666" lon="1.71202">
        <ele>100.4</ele>
        <time>2024-05-05T11:25:39Z</time>
      </trkpt>
      <trkpt lat="49.1167" lon="1.71207">
        <ele>101.2</ele>
        <time>2024-05-05T11:25:44Z</time>
      </trkpt>
      <trkpt lat="49.11674" lon="1.71214">
        <ele>102</ele>
        <time>2024-05-05T11:25:50Z</time>
      </trkpt>
      <trkpt lat="49.11677" lon="1.71221">
        <ele>102.7</ele>
        <time>2024-05-05T11:25:55Z</time>
      </trkpt>
      <trkpt lat="49.11679" lon="1.7123">
        <ele>103.1</ele>
        <time>2024-05-05T11:26:01Z</time>
      </trkpt>
      <trkpt lat="49.11681" lon="1.71238">
        <ele>103.6</ele>
        <time>2024-05-05T11:26:07Z</time>
      </trkpt>
      <trkpt lat="49.11686" lon="1.71248">
        <ele>104.3</ele>
        <time>2024-05-05T11:26:13Z</time>
      </trkpt>
      <trkpt lat="49.11688" lon="1.71257">
        <ele>105</ele>
        <time>2024-05-05T11:26:19Z</time>
      </trkpt>
      <trkpt lat="49.11688" lon="1.71265">
        <ele>105.6</ele>
        <time>2024-05-05T11:26:24Z</time>
      </trkpt>
      <trkpt lat="49.11688" lon="1.71273">
        <ele>106</ele>
        <time>2024-05-05T11:26:30Z</time>
      </trkpt>
      <trkpt lat="49.11687" lon="1.71282">
        <ele>106.5</ele>
        <time>2024-05-05T11:26:36Z</time>
      </trkpt>
      <trkpt lat="49.11685" lon="1.7129">
        <ele>106.8</ele>
        <time>2024-05-05T11:26:42Z</time>
      </trkpt>
      <trkpt lat="49.11685" lon="1.71297">
        <ele>107.3</ele>
        <time>2024-05-05T11:26:48Z</time>
      </trkpt>
      <trkpt lat="49.11687" lon="1.71309">
        <ele>108.4</ele>
        <time>2024-05-05T11:26:54Z</time>
      </trkpt>
      <trkpt lat="49.1169" lon="1.71316">
        <ele>109.2</ele>
        <time>2024-05-05T11:26:59Z</time>
      </trkpt>
      <trkpt lat="49.11691" lon="1.71325">
        <ele>110</ele>
        <time>2024-05-05T11:27:04Z</time>
      </trkpt>
      <trkpt lat="49.11691" lon="1.71335">
        <ele>110.7</ele>
        <time>2024-05-05T11:27:10Z</time>
      </trkpt>
      <trkpt lat="49.11691" lon="1.71343">
        <ele>111.3</ele>
        <time>2024-05-05T11:27:15Z</time>
      </trkpt>
      <trkpt lat="49.1169" lon="1.71352">
        <ele>111.8</ele>
        <time>2024-05-05T11:27:21Z</time>
      </trkpt>
      <trkpt lat="49.11686" lon="1.71361">
        <ele>112.1</ele>
        <time>2024-05-05T11:27:27Z</time>
      </trkpt>
      <trkpt lat="49.11683" lon="1.71369">
        <ele>112.5</ele>
        <time>2024-05-05T11:27:32Z</time>
      </trkpt>
      <trkpt lat="49.11683" lon="1.71378">
        <ele>113.3</ele>
        <time>2024-05-05T11:27:37Z</time>
      </trkpt>
      <trkpt lat="49.11683" lon="1.71387">
        <ele>114.2</ele>
        <time>2024-05-05T11:27:42Z</time>
      </trkpt>
      <trkpt lat="49.11683" lon="1.714">
        <ele>115.3</ele>
        <time>2024-05-05T11:27:48Z</time>
      </trkpt>
      <trkpt lat="49.1168" lon="1.7141">
        <ele>115.9</ele>
        <time>2024-05-05T11:27:53Z</time>
      </trkpt>
      <trkpt lat="49.11677" lon="1.71418">
        <ele>116.3</ele>
        <time>2024-05-05T11:27:59Z</time>
      </trkpt>
      <trkpt lat="49.11674" lon="1.71424">
        <ele>116.4</ele>
        <time>2024-05-05T11:28:04Z</time>
      </trkpt>
      <trkpt lat="49.1167" lon="1.71431">
        <ele>116.5</ele>
        <time>2024-05-05T11:28:10Z</time>
      </trkpt>
      <trkpt lat="49.11667" lon="1.71437">
        <ele>116.5</ele>
        <time>2024-05-05T11:28:15Z</time>
      </trkpt>
      <trkpt lat="49.11664" lon="1.71445">
        <ele>116.8</ele>
        <time>2024-05-05T11:28:21Z</time>
      </trkpt>
      <trkpt lat="49.11662" lon="1.71454">
        <ele>117.5</ele>
        <time>2024-05-05T11:28:27Z</time>
      </trkpt>
      <trkpt lat="49.11661" lon="1.71466">
        <ele>118.7</ele>
        <time>2024-05-05T11:28:33Z</time>
      </trkpt>
      <trkpt lat="49.11664" lon="1.71469">
        <ele>119.4</ele>
        <time>2024-05-05T11:28:38Z</time>
      </trkpt>
      <trkpt lat="49.11668" lon="1.71466">
        <ele>119.5</ele>
        <time>2024-05-05T11:28:44Z</time>
      </trkpt>
      <trkpt lat="49.11673" lon="1.7146">
        <ele>119.6</ele>
        <time>2024-05-05T11:28:49Z</time>
      </trkpt>
      <trkpt lat="49.11679" lon="1.71455">
        <ele>119.9</ele>
        <time>2024-05-05T11:28:55Z</time>
      </trkpt>
      <trkpt lat="49.11686" lon="1.71452">
        <ele>120.5</ele>
        <time>2024-05-05T11:29:00Z</time>
      </trkpt>
      <trkpt lat="49.11694" lon="1.7145">
        <ele>121.5</ele>
        <time>2024-05-05T11:29:05Z</time>
      </trkpt>
      <trkpt lat="49.11701" lon="1.71449">
        <ele>122.2</ele>
        <time>2024-05-05T11:29:11Z</time>
      </trkpt>
      <trkpt lat="49.11707" lon="1.71447">
        <ele>122.6</ele>
        <time>2024-05-05T11:29:17Z</time>
      </trkpt>
      <trkpt lat="49.11713" lon="1.71443">
        <ele>122.9</ele>
        <time>2024-05-05T11:29:23Z</time>
      </trkpt>
      <trkpt lat="49.11718" lon="1.71439">
        <ele>123.1</ele>
        <time>2024-05-05T11:29:28Z</time>
      </trkpt>
      <trkpt lat="49.11724" lon="1.71434">
        <ele>123.4</ele>
        <time>2024-05-05T11:29:33Z</time>
      </trkpt>
      <trkpt lat="49.11731" lon="1.71425">
        <ele>123.6</ele>
        <time>2024-05-05T11:29:39Z</time>
      </trkpt>
      <trkpt lat="49.11738" lon="1.71416">
        <ele>123.6</ele>
        <time>2024-05-05T11:29:45Z</time>
      </trkpt>
      <trkpt lat="49.11742" lon="1.71409">
        <ele>123.6</ele>
        <time>2024-05-05T11:29:50Z</time>
      </trkpt>
      <trkpt lat="49.11748" lon="1.71403">
        <ele>123.7</ele>
        <time>2024-05-05T11:29:56Z</time>
      </trkpt>
      <trkpt lat="49.11755" lon="1.71399">
        <ele>124.3</ele>
        <time>2024-05-05T11:30:02Z</time>
      </trkpt>
      <trkpt lat="49.11759" lon="1.71394">
        <ele>124.7</ele>
        <time>2024-05-05T11:30:07Z</time>
      </trkpt>
      <trkpt lat="49.11765" lon="1.71391">
        <ele>125.2</ele>
        <time>2024-05-05T11:30:13Z</time>
      </trkpt>
      <trkpt lat="49.11769" lon="1.7139">
        <ele>125.8</ele>
        <time>2024-05-05T11:30:19Z</time>
      </trkpt>
      <trkpt lat="49.11771" lon="1.71389">
        <ele>126</ele>
        <time>2024-05-05T11:30:25Z</time>
      </trkpt>
      <trkpt lat="49.11773" lon="1.71388">
        <ele>126.2</ele>
        <time>2024-05-05T11:30:31Z</time>
      </trkpt>
      <trkpt lat="49.11776" lon="1.71391">
        <ele>126.9</ele>
        <time>2024-05-05T11:30:37Z</time>
      </trkpt>
      <trkpt lat="49.11781" lon="1.71396">
        <ele>127.4</ele>
        <time>2024-05-05T11:30:43Z</time>
      </trkpt>
      <trkpt lat="49.11786" lon="1.71401">
        <ele>127.8</ele>
        <time>2024-05-05T11:30:48Z</time>
      </trkpt>
      <trkpt lat="49.11792" lon="1.71409">
        <ele>128.3</ele>
        <time>2024-05-05T11:30:54Z</time>
      </trkpt>
      <trkpt lat="49.11796" lon="1.71415">
        <ele>128.6</ele>
        <time>2024-05-05T11:30:59Z</time>
      </trkpt>
      <trkpt lat="49.11797" lon="1.71424">
        <ele>129</ele>
        <time>2024-05-05T11:31:05Z</time>
      </trkpt>
      <trkpt lat="49.11798" lon="1.71432">
        <ele>129.3</ele>
        <time>2024-05-05T11:31:10Z</time>
      </trkpt>
      <trkpt lat="49.11798" lon="1.71441">
        <ele>129.6</ele>
        <time>2024-05-05T11:31:15Z</time>
      </trkpt>
      <trkpt lat="49.11798" lon="1.71452">
        <ele>129.8</ele>
        <time>2024-05-05T11:31:21Z</time>
      </trkpt>
      <trkpt lat="49.11797" lon="1.71463">
        <ele>129.9</ele>
        <time>2024-05-05T11:31:27Z</time>
      </trkpt>
      <trkpt lat="49.11797" lon="1.71474">
        <ele>130</ele>
        <time>2024-05-05T11:31:33Z</time>
      </trkpt>
      <trkpt lat="49.11797" lon="1.71482">
        <ele>130.2</ele>
        <time>2024-05-05T11:31:38Z</time>
      </trkpt>
      <trkpt lat="49.11797" lon="1.71493">
        <ele>130.5</ele>
        <time>2024-05-05T11:31:44Z</time>
      </trkpt>
      <trkpt lat="49.11798" lon="1.71506">
        <ele>130.9</ele>
        <time>2024-05-05T11:31:50Z</time>
      </trkpt>
      <trkpt lat="49.118" lon="1.71517">
        <ele>131.3</ele>
        <time>2024-05-05T11:31:56Z</time>
      </trkpt>
      <trkpt lat="49.11801" lon="1.71529">
        <ele>131.7</ele>
        <time>2024-05-05T11:32:02Z</time>
      </trkpt>
      <trkpt lat="49.118" lon="1.71538">
        <ele>131.7</ele>
        <time>2024-05-05T11:32:07Z</time>
      </trkpt>
      <trkpt lat="49.118" lon="1.7155">
        <ele>131.8</ele>
        <time>2024-05-05T11:32:13Z</time>
      </trkpt>
      <trkpt lat="49.11802" lon="1.71562">
        <ele>131.9</ele>
        <time>2024-05-05T11:32:19Z</time>
      </trkpt>
      <trkpt lat="49.11802" lon="1.71575">
        <ele>131.9</ele>
        <time>2024-05-05T11:32:25Z</time>
      </trkpt>
      <trkpt lat="49.11801" lon="1.71584">
        <ele>131.8</ele>
        <time>2024-05-05T11:32:30Z</time>
      </trkpt>
      <trkpt lat="49.11801" lon="1.71595">
        <ele>131.9</ele>
        <time>2024-05-05T11:32:36Z</time>
      </trkpt>
      <trkpt lat="49.118" lon="1.71607">
        <ele>132</ele>
        <time>2024-05-05T11:32:42Z</time>
      </trkpt>
      <trkpt lat="49.11799" lon="1.71607">
        <ele>132</ele>
        <time>2024-05-05T11:32:47Z</time>
      </trkpt>
      <trkpt lat="49.11798" lon="1.71608">
        <ele>132</ele>
        <time>2024-05-05T11:32:52Z</time>
      </trkpt>
      <trkpt lat="49.11797" lon="1.71608">
        <ele>132</ele>
        <time>2024-05-05T11:32:58Z</time>
      </trkpt>
      <trkpt lat="49.11795" lon="1.7161">
        <ele>132</ele>
        <time>2024-05-05T11:33:04Z</time>
      </trkpt>
      <trkpt lat="49.11797" lon="1.71614">
        <ele>132.1</ele>
        <time>2024-05-05T11:33:10Z</time>
      </trkpt>
      <trkpt lat="49.11798" lon="1.7162">
        <ele>132.2</ele>
        <time>2024-05-05T11:33:15Z</time>
      </trkpt>
      <trkpt lat="49.11798" lon="1.71628">
        <ele>132.5</ele>
        <time>2024-05-05T11:33:21Z</time>
      </trkpt>
      <trkpt lat="49.11801" lon="1.71634">
        <ele>132.7</ele>
        <time>2024-05-05T11:33:26Z</time>
      </trkpt>
      <trkpt lat="49.11803" lon="1.71642">
        <ele>132.9</ele>
        <time>2024-05-05T11:33:32Z</time>
      </trkpt>
      <trkpt lat="49.11801" lon="1.71649">
        <ele>132.8</ele>
        <time>2024-05-05T11:33:37Z</time>
      </trkpt>
      <trkpt lat="49.118" lon="1.71657">
        <ele>132.8</ele>
        <time>2024-05-05T11:33:42Z</time>
      </trkpt>
      <trkpt lat="49.118" lon="1.71667">
        <ele>132.8</ele>
        <time>2024-05-05T11:33:48Z</time>
      </trkpt>
      <trkpt lat="49.11797" lon="1.71678">
        <ele>132.8</ele>
        <time>2024-05-05T11:33:54Z</time>
      </trkpt>
      <trkpt lat="49.11798" lon="1.7169">
        <ele>133</ele>
        <time>2024-05-05T11:34:00Z</time>
      </trkpt>
      <trkpt lat="49.11798" lon="1.71697">
        <ele>133</ele>
        <time>2024-05-05T11:34:05Z</time>
      </trkpt>
      <trkpt lat="49.11799" lon="1.71704">
        <ele>133</ele>
        <time>2024-05-05T11:34:10Z</time>
      </trkpt>
      <trkpt lat="49.11799" lon="1.71714">
        <ele>133</ele>
        <time>2024-05-05T11:34:16Z</time>
      </trkpt>
      <trkpt lat="49.118" lon="1.7173">
        <ele>133.3</ele>
        <time>2024-05-05T11:34:24Z</time>
      </trkpt>
      <trkpt lat="49.118" lon="1.7174">
        <ele>133.7</ele>
        <time>2024-05-05T11:34:29Z</time>
      </trkpt>
      <trkpt lat="49.11798" lon="1.7175">
        <ele>134</ele>
        <time>2024-05-05T11:34:35Z</time>
      </trkpt>
      <trkpt lat="49.11796" lon="1.71764">
        <ele>134.2</ele>
        <time>2024-05-05T11:34:42Z</time>
      </trkpt>
      <trkpt lat="49.11797" lon="1.71777">
        <ele>134.4</ele>
        <time>2024-05-05T11:34:48Z</time>
      </trkpt>
      <trkpt lat="49.11796" lon="1.71783">
        <ele>134.4</ele>
        <time>2024-05-05T11:34:53Z</time>
      </trkpt>
      <trkpt lat="49.11797" lon="1.71794">
        <ele>134.6</ele>
        <time>2024-05-05T11:34:59Z</time>
      </trkpt>
      <trkpt lat="49.11799" lon="1.71806">
        <ele>134.8</ele>
        <time>2024-05-05T11:35:05Z</time>
      </trkpt>
      <trkpt lat="49.118" lon="1.71816">
        <ele>134.5</ele>
        <time>2024-05-05T11:35:10Z</time>
      </trkpt>
      <trkpt lat="49.11802" lon="1.71826">
        <ele>134.2</ele>
        <time>2024-05-05T11:35:15Z</time>
      </trkpt>
      <trkpt lat="49.11802" lon="1.7184">
        <ele>134</ele>
        <time>2024-05-05T11:35:21Z</time>
      </trkpt>
      <trkpt lat="49.118" lon="1.7185">
        <ele>134</ele>
        <time>2024-05-05T11:35:27Z</time>
      </trkpt>
      <trkpt lat="49.11798" lon="1.71861">
        <ele>134</ele>
        <time>2024-05-05T11:35:32Z</time>
      </trkpt>
      <trkpt lat="49.11799" lon="1.71871">
        <ele>134</ele>
        <time>2024-05-05T11:35:38Z</time>
      </trkpt>
      <trkpt lat="49.118" lon="1.71882">
        <ele>134</ele>
        <time>2024-05-05T11:35:43Z</time>
      </trkpt>
      <trkpt lat="49.11799" lon="1.71892">
        <ele>134.1</ele>
        <time>2024-05-05T11:35:48Z</time>
      </trkpt>
      <trkpt lat="49.11799" lon="1.71904">
        <ele>134.4</ele>
        <time>2024-05-05T11:35:54Z</time>
      </trkpt>
      <trkpt lat="49.11799" lon="1.71914">
        <ele>134.7</ele>
        <time>2024-05-05T11:35:59Z</time>
      </trkpt>
      <trkpt lat="49.11798" lon="1.71924">
        <ele>134.8</ele>
        <time>2024-05-05T11:36:05Z</time>
      </trkpt>
      <trkpt lat="49.11798" lon="1.71938">
        <ele>134.9</ele>
        <time>2024-05-05T11:36:11Z</time>
      </trkpt>
      <trkpt lat="49.118" lon="1.7195">
        <ele>135</ele>
        <time>2024-05-05T11:36:17Z</time>
      </trkpt>
      <trkpt lat="49.11801" lon="1.71961">
        <ele>135</ele>
        <time>2024-05-05T11:36:22Z</time>
      </trkpt>
      <trkpt lat="49.11802" lon="1.71972">
        <ele>135</ele>
        <time>2024-05-05T11:36:28Z</time>
      </trkpt>
      <trkpt lat="49.118" lon="1.7198">
        <ele>135.3</ele>
        <time>2024-05-05T11:36:33Z</time>
      </trkpt>
      <trkpt lat="49.11799" lon="1.71994">
        <ele>135.8</ele>
        <time>2024-05-05T11:36:39Z</time>
      </trkpt>
      <trkpt lat="49.118" lon="1.72004">
        <ele>136</ele>
        <time>2024-05-05T11:36:44Z</time>
      </trkpt>
      <trkpt lat="49.11801" lon="1.72015">
        <ele>136</ele>
        <time>2024-05-05T11:36:50Z</time>
      </trkpt>
      <trkpt lat="49.11801" lon="1.72026">
        <ele>136</ele>
        <time>2024-05-05T11:36:56Z</time>
      </trkpt>
      <trkpt lat="49.11802" lon="1.72038">
        <ele>136</ele>
        <time>2024-05-05T11:37:02Z</time>
      </trkpt>
      <trkpt lat="49.118" lon="1.72051">
        <ele>136</ele>
        <time>2024-05-05T11:37:08Z</time>
      </trkpt>
      <trkpt lat="49.118" lon="1.72062">
        <ele>136.2</ele>
        <time>2024-05-05T11:37:14Z</time>
      </trkpt>
      <trkpt lat="49.118" lon="1.72074">
        <ele>136.5</ele>
        <time>2024-05-05T11:37:19Z</time>
      </trkpt>
      <trkpt lat="49.11799" lon="1.72085">
        <ele>136.8</ele>
        <time>2024-05-05T11:37:25Z</time>
      </trkpt>
      <trkpt lat="49.118" lon="1.72096">
        <ele>136.9</ele>
        <time>2024-05-05T11:37:30Z</time>
      </trkpt>
      <trkpt lat="49.11801" lon="1.72107">
        <ele>137</ele>
        <time>2024-05-05T11:37:36Z</time>
      </trkpt>
      <trkpt lat="49.118" lon="1.7212">
        <ele>137.3</ele>
        <time>2024-05-05T11:37:42Z</time>
      </trkpt>
      <trkpt lat="49.118" lon="1.7213">
        <ele>137.5</ele>
        <time>2024-05-05T11:37:47Z</time>
      </trkpt>
      <trkpt lat="49.118" lon="1.7214">
        <ele>137.8</ele>
        <time>2024-05-05T11:37:52Z</time>
      </trkpt>
      <trkpt lat="49.118" lon="1.72151">
        <ele>137.9</ele>
        <time>2024-05-05T11:37:58Z</time>
      </trkpt>
      <trkpt lat="49.118" lon="1.72163">
        <ele>138</ele>
        <time>2024-05-05T11:38:04Z</time>
      </trkpt>
      <trkpt lat="49.11799" lon="1.72172">
        <ele>138</ele>
        <time>2024-05-05T11:38:09Z</time>
      </trkpt>
      <trkpt lat="49.11799" lon="1.72182">
        <ele>138</ele>
        <time>2024-05-05T11:38:14Z</time>
      </trkpt>
      <trkpt lat="49.11799" lon="1.72188">
        <ele>138</ele>
        <time>2024-05-05T11:38:19Z</time>
      </trkpt>
      <trkpt lat="49.11799" lon="1.72188">
        <ele>138</ele>
        <time>2024-05-05T11:38:24Z</time>
      </trkpt>
      <trkpt lat="49.11799" lon="1.72188">
        <ele>138</ele>
        <time>2024-05-05T11:38:30Z</time>
      </trkpt>
      <trkpt lat="49.11799" lon="1.72188">
        <ele>138</ele>
        <time>2024-05-05T11:38:35Z</time>
      </trkpt>
      <trkpt lat="49.11799" lon="1.72188">
        <ele>138</ele>
        <time>2024-05-05T11:38:41Z</time>
      </trkpt>
      <trkpt lat="49.118" lon="1.72193">
        <ele>138</ele>
        <time>2024-05-05T11:38:47Z</time>
      </trkpt>
      <trkpt lat="49.11801" lon="1.72205">
        <ele>138.4</ele>
        <time>2024-05-05T11:38:52Z</time>
      </trkpt>
      <trkpt lat="49.118" lon="1.72215">
        <ele>138.8</ele>
        <time>2024-05-05T11:38:57Z</time>
      </trkpt>
      <trkpt lat="49.11797" lon="1.72226">
        <ele>139</ele>
        <time>2024-05-05T11:39:03Z</time>
      </trkpt>
      <trkpt lat="49.11795" lon="1.7224">
        <ele>139</ele>
        <time>2024-05-05T11:39:09Z</time>
      </trkpt>
      <trkpt lat="49.11796" lon="1.72253">
        <ele>139.1</ele>
        <time>2024-05-05T11:39:15Z</time>
      </trkpt>
      <trkpt lat="49.11797" lon="1.72266">
        <ele>139.6</ele>
        <time>2024-05-05T11:39:21Z</time>
      </trkpt>
      <trkpt lat="49.11796" lon="1.72277">
        <ele>140</ele>
        <time>2024-05-05T11:39:26Z</time>
      </trkpt>
      <trkpt lat="49.11799" lon="1.72287">
        <ele>140</ele>
        <time>2024-05-05T11:39:31Z</time>
      </trkpt>
      <trkpt lat="49.11799" lon="1.72298">
        <ele>140</ele>
        <time>2024-05-05T11:39:37Z</time>
      </trkpt>
      <trkpt lat="49.11799" lon="1.7231">
        <ele>140</ele>
        <time>2024-05-05T11:39:43Z</time>
      </trkpt>
      <trkpt lat="49.11798" lon="1.72321">
        <ele>140</ele>
        <time>2024-05-05T11:39:49Z</time>
      </trkpt>
      <trkpt lat="49.11799" lon="1.7233">
        <ele>140</ele>
        <time>2024-05-05T11:39:54Z</time>
      </trkpt>
      <trkpt lat="49.11797" lon="1.72342">
        <ele>140.3</ele>
        <time>2024-05-05T11:40:00Z</time>
      </trkpt>
      <trkpt lat="49.11799" lon="1.72353">
        <ele>140.7</ele>
        <time>2024-05-05T11:40:05Z</time>
      </trkpt>
      <trkpt lat="49.11799" lon="1.72364">
        <ele>141</ele>
        <time>2024-05-05T11:40:11Z</time>
      </trkpt>
      <trkpt lat="49.11798" lon="1.72374">
        <ele>141</ele>
        <time>2024-05-05T11:40:16Z</time>
      </trkpt>
      <trkpt lat="49.11797" lon="1.72386">
        <ele>141</ele>
        <time>2024-05-05T11:40:22Z</time>
      </trkpt>
      <trkpt lat="49.11798" lon="1.72394">
        <ele>141</ele>
        <time>2024-05-05T11:40:27Z</time>
      </trkpt>
      <trkpt lat="49.11798" lon="1.72407">
        <ele>141</ele>
        <time>2024-05-05T11:40:33Z</time>
      </trkpt>
      <trkpt lat="49.11798" lon="1.72417">
        <ele>141</ele>
        <time>2024-05-05T11:40:38Z</time>
      </trkpt>
      <trkpt lat="49.11798" lon="1.72427">
        <ele>141.1</ele>
        <time>2024-05-05T11:40:43Z</time>
      </trkpt>
      <trkpt lat="49.11797" lon="1.72439">
        <ele>141.2</ele>
        <time>2024-05-05T11:40:49Z</time>
      </trkpt>
      <trkpt lat="49.11796" lon="1.7245">
        <ele>141.5</ele>
        <time>2024-05-05T11:40:55Z</time>
      </trkpt>
      <trkpt lat="49.11795" lon="1.72461">
        <ele>141.7</ele>
        <time>2024-05-05T11:41:01Z</time>
      </trkpt>
      <trkpt lat="49.11795" lon="1.72472">
        <ele>142</ele>
        <time>2024-05-05T11:41:06Z</time>
      </trkpt>
      <trkpt lat="49.11795" lon="1.72482">
        <ele>142</ele>
        <time>2024-05-05T11:41:12Z</time>
      </trkpt>
      <trkpt lat="49.11795" lon="1.72492">
        <ele>142</ele>
        <time>2024-05-05T11:41:17Z</time>
      </trkpt>
      <trkpt lat="49.11794" lon="1.72499">
        <ele>142</ele>
        <time>2024-05-05T11:41:22Z</time>
      </trkpt>
      <trkpt lat="49.11797" lon="1.72511">
        <ele>142</ele>
        <time>2024-05-05T11:41:28Z</time>
      </trkpt>
      <trkpt lat="49.11799" lon="1.7252">
        <ele>142</ele>
        <time>2024-05-05T11:41:34Z</time>
      </trkpt>
      <trkpt lat="49.11797" lon="1.72532">
        <ele>142</ele>
        <time>2024-05-05T11:41:39Z</time>
      </trkpt>
      <trkpt lat="49.11797" lon="1.72543">
        <ele>142</ele>
        <time>2024-05-05T11:41:44Z</time>
      </trkpt>
      <trkpt lat="49.11798" lon="1.72552">
        <ele>142</ele>
        <time>2024-05-05T11:41:50Z</time>
      </trkpt>
      <trkpt lat="49.11797" lon="1.72561">
        <ele>142</ele>
        <time>2024-05-05T11:41:56Z</time>
      </trkpt>
      <trkpt lat="49.11797" lon="1.72571">
        <ele>142</ele>
        <time>2024-05-05T11:42:02Z</time>
      </trkpt>
      <trkpt lat="49.11797" lon="1.7258">
        <ele>142</ele>
        <time>2024-05-05T11:42:07Z</time>
      </trkpt>
      <trkpt lat="49.11797" lon="1.72592">
        <ele>142</ele>
        <time>2024-05-05T11:42:13Z</time>
      </trkpt>
      <trkpt lat="49.11798" lon="1.726">
        <ele>142</ele>
        <time>2024-05-05T11:42:18Z</time>
      </trkpt>
      <trkpt lat="49.11798" lon="1.72612">
        <ele>142</ele>
        <time>2024-05-05T11:42:24Z</time>
      </trkpt>
      <trkpt lat="49.11799" lon="1.72622">
        <ele>141.7</ele>
        <time>2024-05-05T11:42:29Z</time>
      </trkpt>
      <trkpt lat="49.11799" lon="1.72632">
        <ele>141.4</ele>
        <time>2024-05-05T11:42:34Z</time>
      </trkpt>
      <trkpt lat="49.11796" lon="1.72636">
        <ele>141.4</ele>
        <time>2024-05-05T11:42:40Z</time>
      </trkpt>
      <trkpt lat="49.11792" lon="1.72634">
        <ele>141.6</ele>
        <time>2024-05-05T11:42:46Z</time>
      </trkpt>
      <trkpt lat="49.11789" lon="1.72626">
        <ele>141.8</ele>
        <time>2024-05-05T11:42:51Z</time>
      </trkpt>
      <trkpt lat="49.11784" lon="1.72618">
        <ele>141.9</ele>
        <time>2024-05-05T11:42:57Z</time>
      </trkpt>
      <trkpt lat="49.11777" lon="1.72614">
        <ele>142</ele>
        <time>2024-05-05T11:43:03Z</time>
      </trkpt>
      <trkpt lat="49.11772" lon="1.72605">
        <ele>142</ele>
        <time>2024-05-05T11:43:08Z</time>
      </trkpt>
      <trkpt lat="49.1177" lon="1.72596">
        <ele>142</ele>
        <time>2024-05-05T11:43:13Z</time>
      </trkpt>
      <trkpt lat="49.11765" lon="1.72589">
        <ele>142</ele>
        <time>2024-05-05T11:43:19Z</time>
      </trkpt>
      <trkpt lat="49.11758" lon="1.72577">
        <ele>142</ele>
        <time>2024-05-05T11:43:25Z</time>
      </trkpt>
      <trkpt lat="49.11751" lon="1.72571">
        <ele>142</ele>
        <time>2024-05-05T11:43:31Z</time>
      </trkpt>
      <trkpt lat="49.11742" lon="1.72575">
        <ele>142</ele>
        <time>2024-05-05T11:43:37Z</time>
      </trkpt>
      <trkpt lat="49.11738" lon="1.72581">
        <ele>142</ele>
        <time>2024-05-05T11:43:43Z</time>
      </trkpt>
      <trkpt lat="49.1173" lon="1.72589">
        <ele>142</ele>
        <time>2024-05-05T11:43:49Z</time>
      </trkpt>
      <trkpt lat="49.11724" lon="1.72595">
        <ele>142</ele>
        <time>2024-05-05T11:43:55Z</time>
      </trkpt>
      <trkpt lat="49.1172" lon="1.72601">
        <ele>142</ele>
        <time>2024-05-05T11:44:00Z</time>
      </trkpt>
      <trkpt lat="49.11715" lon="1.72606">
        <ele>142</ele>
        <time>2024-05-05T11:44:05Z</time>
      </trkpt>
      <trkpt lat="49.11711" lon="1.72613">
        <ele>142</ele>
        <time>2024-05-05T11:44:10Z</time>
      </trkpt>
      <trkpt lat="49.11707" lon="1.7262">
        <ele>142</ele>
        <time>2024-05-05T11:44:15Z</time>
      </trkpt>
      <trkpt lat="49.11707" lon="1.7262">
        <ele>142</ele>
        <time>2024-05-05T11:44:21Z</time>
      </trkpt>
      <trkpt lat="49.11701" lon="1.72627">
        <ele>142</ele>
        <time>2024-05-05T11:44:27Z</time>
      </trkpt>
      <trkpt lat="49.11696" lon="1.72635">
        <ele>142</ele>
        <time>2024-05-05T11:44:33Z</time>
      </trkpt>
      <trkpt lat="49.11692" lon="1.72643">
        <ele>142</ele>
        <time>2024-05-05T11:44:38Z</time>
      </trkpt>
      <trkpt lat="49.11685" lon="1.72647">
        <ele>142</ele>
        <time>2024-05-05T11:44:43Z</time>
      </trkpt>
      <trkpt lat="49.1168" lon="1.7265">
        <ele>142</ele>
        <time>2024-05-05T11:44:48Z</time>
      </trkpt>
      <trkpt lat="49.11673" lon="1.72659">
        <ele>142</ele>
        <time>2024-05-05T11:44:54Z</time>
      </trkpt>
      <trkpt lat="49.11668" lon="1.72668">
        <ele>142</ele>
        <time>2024-05-05T11:45:00Z</time>
      </trkpt>
      <trkpt lat="49.11663" lon="1.72673">
        <ele>142</ele>
        <time>2024-05-05T11:45:05Z</time>
      </trkpt>
      <trkpt lat="49.11655" lon="1.72674">
        <ele>142</ele>
        <time>2024-05-05T11:45:10Z</time>
      </trkpt>
      <trkpt lat="49.11649" lon="1.72678">
        <ele>142</ele>
        <time>2024-05-05T11:45:15Z</time>
      </trkpt>
      <trkpt lat="49.11644" lon="1.72686">
        <ele>142</ele>
        <time>2024-05-05T11:45:21Z</time>
      </trkpt>
      <trkpt lat="49.11637" lon="1.72692">
        <ele>142.1</ele>
        <time>2024-05-05T11:45:27Z</time>
      </trkpt>
      <trkpt lat="49.11629" lon="1.72698">
        <ele>142.3</ele>
        <time>2024-05-05T11:45:33Z</time>
      </trkpt>
      <trkpt lat="49.11627" lon="1.72707">
        <ele>142.4</ele>
        <time>2024-05-05T11:45:38Z</time>
      </trkpt>
      <trkpt lat="49.11621" lon="1.72716">
        <ele>142.6</ele>
        <time>2024-05-05T11:45:44Z</time>
      </trkpt>
      <trkpt lat="49.11618" lon="1.72721">
        <ele>142.8</ele>
        <time>2024-05-05T11:45:49Z</time>
      </trkpt>
      <trkpt lat="49.11612" lon="1.72726">
        <ele>142.8</ele>
        <time>2024-05-05T11:45:54Z</time>
      </trkpt>
      <trkpt lat="49.11607" lon="1.72734">
        <ele>142.6</ele>
        <time>2024-05-05T11:46:00Z</time>
      </trkpt>
      <trkpt lat="49.11602" lon="1.72739">
        <ele>142.6</ele>
        <time>2024-05-05T11:46:05Z</time>
      </trkpt>
      <trkpt lat="49.11597" lon="1.72746">
        <ele>142.6</ele>
        <time>2024-05-05T11:46:11Z</time>
      </trkpt>
      <trkpt lat="49.11593" lon="1.72752">
        <ele>142.6</ele>
        <time>2024-05-05T11:46:16Z</time>
      </trkpt>
      <trkpt lat="49.11585" lon="1.72759">
        <ele>142.7</ele>
        <time>2024-05-05T11:46:22Z</time>
      </trkpt>
      <trkpt lat="49.11579" lon="1.72764">
        <ele>142.6</ele>
        <time>2024-05-05T11:46:27Z</time>
      </trkpt>
      <trkpt lat="49.11572" lon="1.72769">
        <ele>142.6</ele>
        <time>2024-05-05T11:46:33Z</time>
      </trkpt>
      <trkpt lat="49.11568" lon="1.72773">
        <ele>142.6</ele>
        <time>2024-05-05T11:46:39Z</time>
      </trkpt>
      <trkpt lat="49.11562" lon="1.72781">
        <ele>142.8</ele>
        <time>2024-05-05T11:46:44Z</time>
      </trkpt>
      <trkpt lat="49.11556" lon="1.72789">
        <ele>143</ele>
        <time>2024-05-05T11:46:50Z</time>
      </trkpt>
      <trkpt lat="49.11549" lon="1.72794">
        <ele>143</ele>
        <time>2024-05-05T11:46:56Z</time>
      </trkpt>
      <trkpt lat="49.11542" lon="1.728">
        <ele>143</ele>
        <time>2024-05-05T11:47:02Z</time>
      </trkpt>
      <trkpt lat="49.11536" lon="1.72805">
        <ele>143</ele>
        <time>2024-05-05T11:47:07Z</time>
      </trkpt>
      <trkpt lat="49.1153" lon="1.72811">
        <ele>143</ele>
        <time>2024-05-05T11:47:13Z</time>
      </trkpt>
      <trkpt lat="49.11524" lon="1.72818">
        <ele>143</ele>
        <time>2024-05-05T11:47:19Z</time>
      </trkpt>
      <trkpt lat="49.11519" lon="1.72823">
        <ele>143</ele>
        <time>2024-05-05T11:47:24Z</time>
      </trkpt>
      <trkpt lat="49.11513" lon="1.7283">
        <ele>143</ele>
        <time>2024-05-05T11:47:30Z</time>
      </trkpt>
      <trkpt lat="49.11508" lon="1.72835">
        <ele>143</ele>
        <time>2024-05-05T11:47:35Z</time>
      </trkpt>
      <trkpt lat="49.11503" lon="1.72841">
        <ele>143</ele>
        <time>2024-05-05T11:47:40Z</time>
      </trkpt>
      <trkpt lat="49.11497" lon="1.72849">
        <ele>143</ele>
        <time>2024-05-05T11:47:46Z</time>
      </trkpt>
      <trkpt lat="49.11492" lon="1.72855">
        <ele>143</ele>
        <time>2024-05-05T11:47:51Z</time>
      </trkpt>
      <trkpt lat="49.11487" lon="1.72863">
        <ele>143</ele>
        <time>2024-05-05T11:47:56Z</time>
      </trkpt>
      <trkpt lat="49.1148" lon="1.7287">
        <ele>143</ele>
        <time>2024-05-05T11:48:02Z</time>
      </trkpt>
      <trkpt lat="49.11473" lon="1.72876">
        <ele>143</ele>
        <time>2024-05-05T11:48:08Z</time>
      </trkpt>
      <trkpt lat="49.11467" lon="1.72881">
        <ele>143</ele>
        <time>2024-05-05T11:48:13Z</time>
      </trkpt>
      <trkpt lat="49.11461" lon="1.72887">
        <ele>143</ele>
        <time>2024-05-05T11:48:18Z</time>
      </trkpt>
      <trkpt lat="49.11456" lon="1.72894">
        <ele>142.8</ele>
        <time>2024-05-05T11:48:24Z</time>
      </trkpt>
      <trkpt lat="49.11449" lon="1.72901">
        <ele>142.6</ele>
        <time>2024-05-05T11:48:30Z</time>
      </trkpt>
      <trkpt lat="49.11443" lon="1.72907">
        <ele>142.3</ele>
        <time>2024-05-05T11:48:36Z</time>
      </trkpt>
      <trkpt lat="49.11437" lon="1.72913">
        <ele>142.1</ele>
        <time>2024-05-05T11:48:42Z</time>
      </trkpt>
      <trkpt lat="49.1143" lon="1.72921">
        <ele>142</ele>
        <time>2024-05-05T11:48:48Z</time>
      </trkpt>
      <trkpt lat="49.11423" lon="1.72927">
        <ele>142</ele>
        <time>2024-05-05T11:48:54Z</time>
      </trkpt>
      <trkpt lat="49.11416" lon="1.72934">
        <ele>142</ele>
        <time>2024-05-05T11:49:00Z</time>
      </trkpt>
      <trkpt lat="49.11411" lon="1.7294">
        <ele>142</ele>
        <time>2024-05-05T11:49:06Z</time>
      </trkpt>
      <trkpt lat="49.11405" lon="1.72945">
        <ele>142</ele>
        <time>2024-05-05T11:49:11Z</time>
      </trkpt>
      <trkpt lat="49.11399" lon="1.72952">
        <ele>142</ele>
        <time>2024-05-05T11:49:16Z</time>
      </trkpt>
      <trkpt lat="49.11395" lon="1.7296">
        <ele>142</ele>
        <time>2024-05-05T11:49:22Z</time>
      </trkpt>
      <trkpt lat="49.1139" lon="1.72966">
        <ele>142</ele>
        <time>2024-05-05T11:49:27Z</time>
      </trkpt>
      <trkpt lat="49.11385" lon="1.72971">
        <ele>141.8</ele>
        <time>2024-05-05T11:49:32Z</time>
      </trkpt>
      <trkpt lat="49.11378" lon="1.72978">
        <ele>141.5</ele>
        <time>2024-05-05T11:49:38Z</time>
      </trkpt>
      <trkpt lat="49.11373" lon="1.72983">
        <ele>141.3</ele>
        <time>2024-05-05T11:49:43Z</time>
      </trkpt>
      <trkpt lat="49.11366" lon="1.72989">
        <ele>141.1</ele>
        <time>2024-05-05T11:49:49Z</time>
      </trkpt>
      <trkpt lat="49.1136" lon="1.72997">
        <ele>141</ele>
        <time>2024-05-05T11:49:55Z</time>
      </trkpt>
      <trkpt lat="49.11354" lon="1.73004">
        <ele>141</ele>
        <time>2024-05-05T11:50:01Z</time>
      </trkpt>
      <trkpt lat="49.11348" lon="1.7301">
        <ele>141</ele>
        <time>2024-05-05T11:50:07Z</time>
      </trkpt>
      <trkpt lat="49.11342" lon="1.73014">
        <ele>141</ele>
        <time>2024-05-05T11:50:13Z</time>
      </trkpt>
      <trkpt lat="49.11336" lon="1.73021">
        <ele>141</ele>
        <time>2024-05-05T11:50:19Z</time>
      </trkpt>
      <trkpt lat="49.11331" lon="1.73028">
        <ele>141</ele>
        <time>2024-05-05T11:50:24Z</time>
      </trkpt>
      <trkpt lat="49.11326" lon="1.73036">
        <ele>140.7</ele>
        <time>2024-05-05T11:50:29Z</time>
      </trkpt>
      <trkpt lat="49.11318" lon="1.73039">
        <ele>140.6</ele>
        <time>2024-05-05T11:50:35Z</time>
      </trkpt>
      <trkpt lat="49.11313" lon="1.73039">
        <ele>140.6</ele>
        <time>2024-05-05T11:50:40Z</time>
      </trkpt>
      <trkpt lat="49.11309" lon="1.7303">
        <ele>140.9</ele>
        <time>2024-05-05T11:50:45Z</time>
      </trkpt>
      <trkpt lat="49.11308" lon="1.73018">
        <ele>141</ele>
        <time>2024-05-05T11:50:51Z</time>
      </trkpt>
      <trkpt lat="49.11308" lon="1.73007">
        <ele>141</ele>
        <time>2024-05-05T11:50:56Z</time>
      </trkpt>
      <trkpt lat="49.11309" lon="1.72996">
        <ele>141</ele>
        <time>2024-05-05T11:51:02Z</time>
      </trkpt>
      <trkpt lat="49.11307" lon="1.72986">
        <ele>141</ele>
        <time>2024-05-05T11:51:07Z</time>
      </trkpt>
      <trkpt lat="49.11306" lon="1.72973">
        <ele>141</ele>
        <time>2024-05-05T11:51:13Z</time>
      </trkpt>
      <trkpt lat="49.11306" lon="1.72962">
        <ele>141</ele>
        <time>2024-05-05T11:51:19Z</time>
      </trkpt>
      <trkpt lat="49.11305" lon="1.72953">
        <ele>141</ele>
        <time>2024-05-05T11:51:24Z</time>
      </trkpt>
      <trkpt lat="49.11306" lon="1.72943">
        <ele>141</ele>
        <time>2024-05-05T11:51:30Z</time>
      </trkpt>
      <trkpt lat="49.11304" lon="1.7293">
        <ele>140.9</ele>
        <time>2024-05-05T11:51:36Z</time>
      </trkpt>
      <trkpt lat="49.11301" lon="1.72919">
        <ele>140.9</ele>
        <time>2024-05-05T11:51:41Z</time>
      </trkpt>
      <trkpt lat="49.11299" lon="1.72907">
        <ele>140.5</ele>
        <time>2024-05-05T11:51:47Z</time>
      </trkpt>
      <trkpt lat="49.11297" lon="1.72897">
        <ele>140.2</ele>
        <time>2024-05-05T11:51:52Z</time>
      </trkpt>
      <trkpt lat="49.11297" lon="1.72887">
        <ele>140</ele>
        <time>2024-05-05T11:51:57Z</time>
      </trkpt>
      <trkpt lat="49.11296" lon="1.72878">
        <ele>139.9</ele>
        <time>2024-05-05T11:52:03Z</time>
      </trkpt>
      <trkpt lat="49.11295" lon="1.72868">
        <ele>139.7</ele>
        <time>2024-05-05T11:52:08Z</time>
      </trkpt>
      <trkpt lat="49.11296" lon="1.72857">
        <ele>139.7</ele>
        <time>2024-05-05T11:52:14Z</time>
      </trkpt>
      <trkpt lat="49.11296" lon="1.72847">
        <ele>140</ele>
        <time>2024-05-05T11:52:19Z</time>
      </trkpt>
      <trkpt lat="49.11296" lon="1.72837">
        <ele>140.2</ele>
        <time>2024-05-05T11:52:25Z</time>
      </trkpt>
      <trkpt lat="49.11297" lon="1.72824">
        <ele>140.4</ele>
        <time>2024-05-05T11:52:31Z</time>
      </trkpt>
      <trkpt lat="49.11297" lon="1.72813">
        <ele>140.4</ele>
        <time>2024-05-05T11:52:37Z</time>
      </trkpt>
      <trkpt lat="49.11296" lon="1.72794">
        <ele>140.3</ele>
        <time>2024-05-05T11:52:43Z</time>
      </trkpt>
      <trkpt lat="49.11293" lon="1.72783">
        <ele>140.1</ele>
        <time>2024-05-05T11:52:49Z</time>
      </trkpt>
      <trkpt lat="49.11289" lon="1.72788">
        <ele>139.8</ele>
        <time>2024-05-05T11:52:55Z</time>
      </trkpt>
      <trkpt lat="49.11289" lon="1.72788">
        <ele>139.8</ele>
        <time>2024-05-05T11:53:00Z</time>
      </trkpt>
      <trkpt lat="49.11289" lon="1.72788">
        <ele>139.8</ele>
        <time>2024-05-05T11:53:05Z</time>
      </trkpt>
      <trkpt lat="49.11282" lon="1.72783">
        <ele>139.3</ele>
        <time>2024-05-05T11:53:11Z</time>
      </trkpt>
      <trkpt lat="49.11277" lon="1.72775">
        <ele>138.9</ele>
        <time>2024-05-05T11:53:16Z</time>
      </trkpt>
      <trkpt lat="49.11272" lon="1.72768">
        <ele>138.6</ele>
        <time>2024-05-05T11:53:21Z</time>
      </trkpt>
      <trkpt lat="49.11266" lon="1.72761">
        <ele>138.1</ele>
        <time>2024-05-05T11:53:26Z</time>
      </trkpt>
      <trkpt lat="49.11259" lon="1.72753">
        <ele>137.7</ele>
        <time>2024-05-05T11:53:31Z</time>
      </trkpt>
      <trkpt lat="49.11254" lon="1.72748">
        <ele>137.3</ele>
        <time>2024-05-05T11:53:37Z</time>
      </trkpt>
      <trkpt lat="49.1125" lon="1.72741">
        <ele>137</ele>
        <time>2024-05-05T11:53:42Z</time>
      </trkpt>
      <trkpt lat="49.11241" lon="1.72731">
        <ele>136.7</ele>
        <time>2024-05-05T11:53:48Z</time>
      </trkpt>
      <trkpt lat="49.11234" lon="1.72726">
        <ele>136.4</ele>
        <time>2024-05-05T11:53:53Z</time>
      </trkpt>
      <trkpt lat="49.11228" lon="1.72721">
        <ele>136.2</ele>
        <time>2024-05-05T11:53:59Z</time>
      </trkpt>
      <trkpt lat="49.11223" lon="1.72712">
        <ele>136</ele>
        <time>2024-05-05T11:54:05Z</time>
      </trkpt>
      <trkpt lat="49.11216" lon="1.72706">
        <ele>135.8</ele>
        <time>2024-05-05T11:54:11Z</time>
      </trkpt>
      <trkpt lat="49.11211" lon="1.727">
        <ele>135.6</ele>
        <time>2024-05-05T11:54:17Z</time>
      </trkpt>
      <trkpt lat="49.11207" lon="1.72697">
        <ele>135.5</ele>
        <time>2024-05-05T11:54:22Z</time>
      </trkpt>
      <trkpt lat="49.11201" lon="1.72689">
        <ele>135.4</ele>
        <time>2024-05-05T11:54:27Z</time>
      </trkpt>
      <trkpt lat="49.11194" lon="1.72683">
        <ele>135.4</ele>
        <time>2024-05-05T11:54:33Z</time>
      </trkpt>
      <trkpt lat="49.11188" lon="1.72676">
        <ele>135.3</ele>
        <time>2024-05-05T11:54:39Z</time>
      </trkpt>
      <trkpt lat="49.11183" lon="1.72669">
        <ele>135.1</ele>
        <time>2024-05-05T11:54:44Z</time>
      </trkpt>
      <trkpt lat="49.11176" lon="1.7266">
        <ele>134.8</ele>
        <time>2024-05-05T11:54:50Z</time>
      </trkpt>
      <trkpt lat="49.1117" lon="1.72656">
        <ele>134.6</ele>
        <time>2024-05-05T11:54:55Z</time>
      </trkpt>
      <trkpt lat="49.11161" lon="1.72649">
        <ele>134.3</ele>
        <time>2024-05-05T11:55:01Z</time>
      </trkpt>
      <trkpt lat="49.11155" lon="1.72644">
        <ele>134</ele>
        <time>2024-05-05T11:55:06Z</time>
      </trkpt>
      <trkpt lat="49.11149" lon="1.72637">
        <ele>133.7</ele>
        <time>2024-05-05T11:55:12Z</time>
      </trkpt>
      <trkpt lat="49.11141" lon="1.72639">
        <ele>133.1</ele>
        <time>2024-05-05T11:55:18Z</time>
      </trkpt>
      <trkpt lat="49.11134" lon="1.72649">
        <ele>132.8</ele>
        <time>2024-05-05T11:55:23Z</time>
      </trkpt>
      <trkpt lat="49.11128" lon="1.72657">
        <ele>132.6</ele>
        <time>2024-05-05T11:55:28Z</time>
      </trkpt>
      <trkpt lat="49.11123" lon="1.72667">
        <ele>132.4</ele>
        <time>2024-05-05T11:55:34Z</time>
      </trkpt>
      <trkpt lat="49.11118" lon="1.72676">
        <ele>132.2</ele>
        <time>2024-05-05T11:55:40Z</time>
      </trkpt>
      <trkpt lat="49.11115" lon="1.72684">
        <ele>132.1</ele>
        <time>2024-05-05T11:55:45Z</time>
      </trkpt>
      <trkpt lat="49.1111" lon="1.72693">
        <ele>131.9</ele>
        <time>2024-05-05T11:55:51Z</time>
      </trkpt>
      <trkpt lat="49.11106" lon="1.727">
        <ele>131.6</ele>
        <time>2024-05-05T11:55:57Z</time>
      </trkpt>
      <trkpt lat="49.11103" lon="1.7271">
        <ele>131.4</ele>
        <time>2024-05-05T11:56:02Z</time>
      </trkpt>
      <trkpt lat="49.111" lon="1.72718">
        <ele>131.2</ele>
        <time>2024-05-05T11:56:07Z</time>
      </trkpt>
      <trkpt lat="49.11096" lon="1.72728">
        <ele>130.9</ele>
        <time>2024-05-05T11:56:13Z</time>
      </trkpt>
      <trkpt lat="49.11092" lon="1.72739">
        <ele>130.6</ele>
        <time>2024-05-05T11:56:19Z</time>
      </trkpt>
      <trkpt lat="49.1109" lon="1.72745">
        <ele>130.5</ele>
        <time>2024-05-05T11:56:24Z</time>
      </trkpt>
      <trkpt lat="49.11086" lon="1.72754">
        <ele>130.3</ele>
        <time>2024-05-05T11:56:30Z</time>
      </trkpt>
      <trkpt lat="49.11081" lon="1.7276">
        <ele>130.3</ele>
        <time>2024-05-05T11:56:35Z</time>
      </trkpt>
      <trkpt lat="49.11078" lon="1.72771">
        <ele>130.4</ele>
        <time>2024-05-05T11:56:40Z</time>
      </trkpt>
      <trkpt lat="49.11074" lon="1.7278">
        <ele>130.4</ele>
        <time>2024-05-05T11:56:45Z</time>
      </trkpt>
      <trkpt lat="49.11071" lon="1.72787">
        <ele>130.3</ele>
        <time>2024-05-05T11:56:51Z</time>
      </trkpt>
      <trkpt lat="49.11067" lon="1.72794">
        <ele>130.2</ele>
        <time>2024-05-05T11:56:56Z</time>
      </trkpt>
      <trkpt lat="49.11064" lon="1.72802">
        <ele>130.2</ele>
        <time>2024-05-05T11:57:02Z</time>
      </trkpt>
      <trkpt lat="49.11059" lon="1.72813">
        <ele>130.3</ele>
        <time>2024-05-05T11:57:07Z</time>
      </trkpt>
      <trkpt lat="49.11056" lon="1.72823">
        <ele>130.6</ele>
        <time>2024-05-05T11:57:12Z</time>
      </trkpt>
      <trkpt lat="49.11051" lon="1.72833">
        <ele>130.8</ele>
        <time>2024-05-05T11:57:18Z</time>
      </trkpt>
      <trkpt lat="49.11048" lon="1.72843">
        <ele>130.8</ele>
        <time>2024-05-05T11:57:24Z</time>
      </trkpt>
      <trkpt lat="49.11044" lon="1.7285">
        <ele>130.8</ele>
        <time>2024-05-05T11:57:30Z</time>
      </trkpt>
      <trkpt lat="49.11037" lon="1.72862">
        <ele>131</ele>
        <time>2024-05-05T11:57:36Z</time>
      </trkpt>
      <trkpt lat="49.11031" lon="1.7287">
        <ele>131</ele>
        <time>2024-05-05T11:57:41Z</time>
      </trkpt>
      <trkpt lat="49.11027" lon="1.7288">
        <ele>131</ele>
        <time>2024-05-05T11:57:47Z</time>
      </trkpt>
      <trkpt lat="49.11024" lon="1.72888">
        <ele>131</ele>
        <time>2024-05-05T11:57:52Z</time>
      </trkpt>
      <trkpt lat="49.11021" lon="1.72895">
        <ele>131.2</ele>
        <time>2024-05-05T11:57:57Z</time>
      </trkpt>
      <trkpt lat="49.11017" lon="1.72909">
        <ele>131.4</ele>
        <time>2024-05-05T11:58:03Z</time>
      </trkpt>
      <trkpt lat="49.11014" lon="1.72917">
        <ele>131.5</ele>
        <time>2024-05-05T11:58:08Z</time>
      </trkpt>
      <trkpt lat="49.1101" lon="1.72923">
        <ele>131.5</ele>
        <time>2024-05-05T11:58:14Z</time>
      </trkpt>
      <trkpt lat="49.11003" lon="1.72931">
        <ele>131.6</ele>
        <time>2024-05-05T11:58:20Z</time>
      </trkpt>
      <trkpt lat="49.11" lon="1.72941">
        <ele>131.9</ele>
        <time>2024-05-05T11:58:26Z</time>
      </trkpt>
      <trkpt lat="49.10996" lon="1.72951">
        <ele>131.9</ele>
        <time>2024-05-05T11:58:31Z</time>
      </trkpt>
      <trkpt lat="49.10993" lon="1.72961">
        <ele>131.9</ele>
        <time>2024-05-05T11:58:37Z</time>
      </trkpt>
      <trkpt lat="49.10989" lon="1.72971">
        <ele>132</ele>
        <time>2024-05-05T11:58:43Z</time>
      </trkpt>
      <trkpt lat="49.10986" lon="1.72978">
        <ele>132.1</ele>
        <time>2024-05-05T11:58:48Z</time>
      </trkpt>
      <trkpt lat="49.1098" lon="1.72986">
        <ele>132.1</ele>
        <time>2024-05-05T11:58:54Z</time>
      </trkpt>
      <trkpt lat="49.10977" lon="1.72995">
        <ele>132.1</ele>
        <time>2024-05-05T11:59:00Z</time>
      </trkpt>
      <trkpt lat="49.10976" lon="1.73">
        <ele>132.1</ele>
        <time>2024-05-05T11:59:05Z</time>
      </trkpt>
      <trkpt lat="49.10972" lon="1.73014">
        <ele>132.5</ele>
        <time>2024-05-05T11:59:11Z</time>
      </trkpt>
      <trkpt lat="49.10969" lon="1.73023">
        <ele>132.7</ele>
        <time>2024-05-05T11:59:17Z</time>
      </trkpt>
      <trkpt lat="49.10967" lon="1.73029">
        <ele>132.8</ele>
        <time>2024-05-05T11:59:22Z</time>
      </trkpt>
      <trkpt lat="49.10961" lon="1.73038">
        <ele>132.6</ele>
        <time>2024-05-05T11:59:28Z</time>
      </trkpt>
      <trkpt lat="49.10957" lon="1.73047">
        <ele>132.4</ele>
        <time>2024-05-05T11:59:33Z</time>
      </trkpt>
      <trkpt lat="49.10949" lon="1.73054">
        <ele>132.2</ele>
        <time>2024-05-05T11:59:39Z</time>
      </trkpt>
      <trkpt lat="49.10946" lon="1.73064">
        <ele>132.3</ele>
        <time>2024-05-05T11:59:45Z</time>
      </trkpt>
      <trkpt lat="49.10943" lon="1.73075">
        <ele>132.7</ele>
        <time>2024-05-05T11:59:50Z</time>
      </trkpt>
      <trkpt lat="49.1094" lon="1.73083">
        <ele>132.8</ele>
        <time>2024-05-05T11:59:55Z</time>
      </trkpt>
      <trkpt lat="49.10938" lon="1.73092">
        <ele>133.1</ele>
        <time>2024-05-05T12:00:00Z</time>
      </trkpt>
      <trkpt lat="49.10932" lon="1.73101">
        <ele>133.2</ele>
        <time>2024-05-05T12:00:05Z</time>
      </trkpt>
      <trkpt lat="49.10929" lon="1.73107">
        <ele>133.3</ele>
        <time>2024-05-05T12:00:11Z</time>
      </trkpt>
      <trkpt lat="49.10922" lon="1.73118">
        <ele>133.4</ele>
        <time>2024-05-05T12:00:16Z</time>
      </trkpt>
      <trkpt lat="49.10917" lon="1.7313">
        <ele>133.7</ele>
        <time>2024-05-05T12:00:22Z</time>
      </trkpt>
      <trkpt lat="49.10914" lon="1.73143">
        <ele>133.9</ele>
        <time>2024-05-05T12:00:28Z</time>
      </trkpt>
      <trkpt lat="49.10907" lon="1.73152">
        <ele>133.7</ele>
        <time>2024-05-05T12:00:33Z</time>
      </trkpt>
      <trkpt lat="49.10904" lon="1.73161">
        <ele>133.6</ele>
        <time>2024-05-05T12:00:38Z</time>
      </trkpt>
      <trkpt lat="49.10902" lon="1.73169">
        <ele>133.6</ele>
        <time>2024-05-05T12:00:44Z</time>
      </trkpt>
      <trkpt lat="49.109" lon="1.73175">
        <ele>133.7</ele>
        <time>2024-05-05T12:00:50Z</time>
      </trkpt>
      <trkpt lat="49.10896" lon="1.73181">
        <ele>133.8</ele>
        <time>2024-05-05T12:00:55Z</time>
      </trkpt>
      <trkpt lat="49.10892" lon="1.7319">
        <ele>134</ele>
        <time>2024-05-05T12:01:00Z</time>
      </trkpt>
      <trkpt lat="49.10889" lon="1.73197">
        <ele>134.1</ele>
        <time>2024-05-05T12:01:05Z</time>
      </trkpt>
      <trkpt lat="49.10884" lon="1.73208">
        <ele>134.3</ele>
        <time>2024-05-05T12:01:11Z</time>
      </trkpt>
      <trkpt lat="49.10879" lon="1.73217">
        <ele>134.2</ele>
        <time>2024-05-05T12:01:16Z</time>
      </trkpt>
      <trkpt lat="49.10873" lon="1.73225">
        <ele>133.9</ele>
        <time>2024-05-05T12:01:22Z</time>
      </trkpt>
      <trkpt lat="49.10867" lon="1.73235">
        <ele>133.8</ele>
        <time>2024-05-05T12:01:28Z</time>
      </trkpt>
      <trkpt lat="49.10863" lon="1.73247">
        <ele>133.9</ele>
        <time>2024-05-05T12:01:33Z</time>
      </trkpt>
      <trkpt lat="49.10859" lon="1.73256">
        <ele>133.9</ele>
        <time>2024-05-05T12:01:39Z</time>
      </trkpt>
      <trkpt lat="49.10855" lon="1.73267">
        <ele>133.8</ele>
        <time>2024-05-05T12:01:45Z</time>
      </trkpt>
      <trkpt lat="49.1085" lon="1.73279">
        <ele>133.6</ele>
        <time>2024-05-05T12:01:51Z</time>
      </trkpt>
      <trkpt lat="49.10846" lon="1.73285">
        <ele>133.5</ele>
        <time>2024-05-05T12:01:56Z</time>
      </trkpt>
      <trkpt lat="49.10843" lon="1.73296">
        <ele>133.3</ele>
        <time>2024-05-05T12:02:02Z</time>
      </trkpt>
      <trkpt lat="49.10838" lon="1.73307">
        <ele>133.2</ele>
        <time>2024-05-05T12:02:08Z</time>
      </trkpt>
      <trkpt lat="49.10833" lon="1.73318">
        <ele>133.4</ele>
        <time>2024-05-05T12:02:14Z</time>
      </trkpt>
      <trkpt lat="49.10829" lon="1.73324">
        <ele>133.6</ele>
        <time>2024-05-05T12:02:19Z</time>
      </trkpt>
      <trkpt lat="49.10826" lon="1.73334">
        <ele>133.8</ele>
        <time>2024-05-05T12:02:24Z</time>
      </trkpt>
      <trkpt lat="49.1082" lon="1.73348">
        <ele>133.5</ele>
        <time>2024-05-05T12:02:30Z</time>
      </trkpt>
      <trkpt lat="49.10816" lon="1.73357">
        <ele>133.4</ele>
        <time>2024-05-05T12:02:36Z</time>
      </trkpt>
      <trkpt lat="49.10812" lon="1.73368">
        <ele>133.5</ele>
        <time>2024-05-05T12:02:42Z</time>
      </trkpt>
      <trkpt lat="49.10809" lon="1.73376">
        <ele>133.6</ele>
        <time>2024-05-05T12:02:47Z</time>
      </trkpt>
      <trkpt lat="49.10806" lon="1.73387">
        <ele>134</ele>
        <time>2024-05-05T12:02:53Z</time>
      </trkpt>
      <trkpt lat="49.10801" lon="1.73394">
        <ele>133.9</ele>
        <time>2024-05-05T12:02:59Z</time>
      </trkpt>
      <trkpt lat="49.10796" lon="1.73406">
        <ele>133.7</ele>
        <time>2024-05-05T12:03:05Z</time>
      </trkpt>
      <trkpt lat="49.10793" lon="1.73416">
        <ele>133.6</ele>
        <time>2024-05-05T12:03:11Z</time>
      </trkpt>
      <trkpt lat="49.10789" lon="1.73423">
        <ele>133.6</ele>
        <time>2024-05-05T12:03:16Z</time>
      </trkpt>
      <trkpt lat="49.10786" lon="1.73431">
        <ele>133.8</ele>
        <time>2024-05-05T12:03:21Z</time>
      </trkpt>
      <trkpt lat="49.10781" lon="1.73441">
        <ele>134</ele>
        <time>2024-05-05T12:03:27Z</time>
      </trkpt>
      <trkpt lat="49.10776" lon="1.73451">
        <ele>133.9</ele>
        <time>2024-05-05T12:03:33Z</time>
      </trkpt>
      <trkpt lat="49.10773" lon="1.73461">
        <ele>133.8</ele>
        <time>2024-05-05T12:03:39Z</time>
      </trkpt>
      <trkpt lat="49.10768" lon="1.73469">
        <ele>133.7</ele>
        <time>2024-05-05T12:03:44Z</time>
      </trkpt>
      <trkpt lat="49.10769" lon="1.73479">
        <ele>133.9</ele>
        <time>2024-05-05T12:03:50Z</time>
      </trkpt>
      <trkpt lat="49.10775" lon="1.73493">
        <ele>134.5</ele>
        <time>2024-05-05T12:03:56Z</time>
      </trkpt>
      <trkpt lat="49.10778" lon="1.735">
        <ele>135</ele>
        <time>2024-05-05T12:04:02Z</time>
      </trkpt>
      <trkpt lat="49.10783" lon="1.73505">
        <ele>135.2</ele>
        <time>2024-05-05T12:04:07Z</time>
      </trkpt>
      <trkpt lat="49.10789" lon="1.73509">
        <ele>135.6</ele>
        <time>2024-05-05T12:04:12Z</time>
      </trkpt>
      <trkpt lat="49.10795" lon="1.73518">
        <ele>136</ele>
        <time>2024-05-05T12:04:18Z</time>
      </trkpt>
      <trkpt lat="49.10799" lon="1.73529">
        <ele>136.6</ele>
        <time>2024-05-05T12:04:23Z</time>
      </trkpt>
      <trkpt lat="49.10806" lon="1.73533">
        <ele>137.2</ele>
        <time>2024-05-05T12:04:29Z</time>
      </trkpt>
      <trkpt lat="49.10812" lon="1.73537">
        <ele>137.7</ele>
        <time>2024-05-05T12:04:34Z</time>
      </trkpt>
      <trkpt lat="49.10818" lon="1.73541">
        <ele>138.1</ele>
        <time>2024-05-05T12:04:40Z</time>
      </trkpt>
      <trkpt lat="49.10822" lon="1.73546">
        <ele>138.4</ele>
        <time>2024-05-05T12:04:45Z</time>
      </trkpt>
      <trkpt lat="49.10829" lon="1.73554">
        <ele>138.8</ele>
        <time>2024-05-05T12:04:51Z</time>
      </trkpt>
      <trkpt lat="49.10836" lon="1.73559">
        <ele>139.2</ele>
        <time>2024-05-05T12:04:57Z</time>
      </trkpt>
      <trkpt lat="49.10839" lon="1.73565">
        <ele>139.5</ele>
        <time>2024-05-05T12:05:02Z</time>
      </trkpt>
      <trkpt lat="49.10842" lon="1.7357">
        <ele>139.8</ele>
        <time>2024-05-05T12:05:08Z</time>
      </trkpt>
      <trkpt lat="49.10837" lon="1.73575">
        <ele>139.8</ele>
        <time>2024-05-05T12:05:13Z</time>
      </trkpt>
      <trkpt lat="49.10835" lon="1.73584">
        <ele>140.1</ele>
        <time>2024-05-05T12:05:19Z</time>
      </trkpt>
      <trkpt lat="49.10833" lon="1.73589">
        <ele>140</ele>
        <time>2024-05-05T12:05:24Z</time>
      </trkpt>
      <trkpt lat="49.10827" lon="1.73601">
        <ele>139.7</ele>
        <time>2024-05-05T12:05:30Z</time>
      </trkpt>
      <trkpt lat="49.10823" lon="1.73609">
        <ele>139.6</ele>
        <time>2024-05-05T12:05:35Z</time>
      </trkpt>
      <trkpt lat="49.10819" lon="1.73621">
        <ele>139.5</ele>
        <time>2024-05-05T12:05:41Z</time>
      </trkpt>
      <trkpt lat="49.10814" lon="1.73629">
        <ele>139.3</ele>
        <time>2024-05-05T12:05:47Z</time>
      </trkpt>
      <trkpt lat="49.10808" lon="1.73637">
        <ele>139.1</ele>
        <time>2024-05-05T12:05:53Z</time>
      </trkpt>
      <trkpt lat="49.10802" lon="1.73646">
        <ele>138.7</ele>
        <time>2024-05-05T12:05:59Z</time>
      </trkpt>
      <trkpt lat="49.10797" lon="1.73652">
        <ele>138.4</ele>
        <time>2024-05-05T12:06:04Z</time>
      </trkpt>
      <trkpt lat="49.10793" lon="1.73665">
        <ele>138.1</ele>
        <time>2024-05-05T12:06:10Z</time>
      </trkpt>
      <trkpt lat="49.1079" lon="1.73673">
        <ele>137.7</ele>
        <time>2024-05-05T12:06:16Z</time>
      </trkpt>
      <trkpt lat="49.10784" lon="1.73677">
        <ele>137.1</ele>
        <time>2024-05-05T12:06:21Z</time>
      </trkpt>
      <trkpt lat="49.10778" lon="1.73684">
        <ele>136.4</ele>
        <time>2024-05-05T12:06:27Z</time>
      </trkpt>
      <trkpt lat="49.10774" lon="1.73691">
        <ele>135.9</ele>
        <time>2024-05-05T12:06:32Z</time>
      </trkpt>
      <trkpt lat="49.10768" lon="1.737">
        <ele>135.3</ele>
        <time>2024-05-05T12:06:38Z</time>
      </trkpt>
      <trkpt lat="49.10765" lon="1.73712">
        <ele>135.1</ele>
        <time>2024-05-05T12:06:44Z</time>
      </trkpt>
      <trkpt lat="49.10762" lon="1.73722">
        <ele>134.8</ele>
        <time>2024-05-05T12:06:50Z</time>
      </trkpt>
      <trkpt lat="49.10756" lon="1.7373">
        <ele>134.5</ele>
        <time>2024-05-05T12:06:55Z</time>
      </trkpt>
      <trkpt lat="49.10753" lon="1.73736">
        <ele>134.2</ele>
        <time>2024-05-05T12:07:00Z</time>
      </trkpt>
      <trkpt lat="49.10749" lon="1.73746">
        <ele>134</ele>
        <time>2024-05-05T12:07:06Z</time>
      </trkpt>
      <trkpt lat="49.10744" lon="1.73757">
        <ele>133.8</ele>
        <time>2024-05-05T12:07:12Z</time>
      </trkpt>
      <trkpt lat="49.10738" lon="1.73764">
        <ele>133.6</ele>
        <time>2024-05-05T12:07:17Z</time>
      </trkpt>
      <trkpt lat="49.1073" lon="1.7377">
        <ele>133.3</ele>
        <time>2024-05-05T12:07:23Z</time>
      </trkpt>
      <trkpt lat="49.10725" lon="1.7378">
        <ele>133.1</ele>
        <time>2024-05-05T12:07:29Z</time>
      </trkpt>
      <trkpt lat="49.10721" lon="1.73785">
        <ele>133</ele>
        <time>2024-05-05T12:07:34Z</time>
      </trkpt>
      <trkpt lat="49.10714" lon="1.73792">
        <ele>133</ele>
        <time>2024-05-05T12:07:40Z</time>
      </trkpt>
      <trkpt lat="49.10711" lon="1.73801">
        <ele>133</ele>
        <time>2024-05-05T12:07:46Z</time>
      </trkpt>
      <trkpt lat="49.10709" lon="1.73812">
        <ele>133.2</ele>
        <time>2024-05-05T12:07:52Z</time>
      </trkpt>
      <trkpt lat="49.10706" lon="1.73819">
        <ele>133.5</ele>
        <time>2024-05-05T12:07:57Z</time>
      </trkpt>
      <trkpt lat="49.10702" lon="1.7382">
        <ele>133.5</ele>
        <time>2024-05-05T12:08:02Z</time>
      </trkpt>
      <trkpt lat="49.10697" lon="1.73811">
        <ele>133.2</ele>
        <time>2024-05-05T12:08:08Z</time>
      </trkpt>
      <trkpt lat="49.10691" lon="1.73804">
        <ele>133.1</ele>
        <time>2024-05-05T12:08:14Z</time>
      </trkpt>
      <trkpt lat="49.10685" lon="1.73798">
        <ele>133.4</ele>
        <time>2024-05-05T12:08:20Z</time>
      </trkpt>
      <trkpt lat="49.10681" lon="1.73791">
        <ele>133.5</ele>
        <time>2024-05-05T12:08:26Z</time>
      </trkpt>
      <trkpt lat="49.10674" lon="1.73786">
        <ele>133.7</ele>
        <time>2024-05-05T12:08:32Z</time>
      </trkpt>
      <trkpt lat="49.10667" lon="1.73779">
        <ele>134</ele>
        <time>2024-05-05T12:08:38Z</time>
      </trkpt>
      <trkpt lat="49.1066" lon="1.73773">
        <ele>134</ele>
        <time>2024-05-05T12:08:44Z</time>
      </trkpt>
      <trkpt lat="49.10657" lon="1.73768">
        <ele>134</ele>
        <time>2024-05-05T12:08:50Z</time>
      </trkpt>
      <trkpt lat="49.10653" lon="1.73764">
        <ele>134</ele>
        <time>2024-05-05T12:08:55Z</time>
      </trkpt>
      <trkpt lat="49.10646" lon="1.73759">
        <ele>134</ele>
        <time>2024-05-05T12:09:01Z</time>
      </trkpt>
      <trkpt lat="49.10641" lon="1.73761">
        <ele>134</ele>
        <time>2024-05-05T12:09:06Z</time>
      </trkpt>
      <trkpt lat="49.10637" lon="1.73767">
        <ele>134.1</ele>
        <time>2024-05-05T12:09:11Z</time>
      </trkpt>
      <trkpt lat="49.10633" lon="1.73773">
        <ele>134.2</ele>
        <time>2024-05-05T12:09:16Z</time>
      </trkpt>
      <trkpt lat="49.10628" lon="1.73785">
        <ele>134.5</ele>
        <time>2024-05-05T12:09:22Z</time>
      </trkpt>
      <trkpt lat="49.10624" lon="1.73792">
        <ele>134.8</ele>
        <time>2024-05-05T12:09:27Z</time>
      </trkpt>
      <trkpt lat="49.1062" lon="1.73799">
        <ele>134.9</ele>
        <time>2024-05-05T12:09:32Z</time>
      </trkpt>
      <trkpt lat="49.10617" lon="1.73808">
        <ele>135.1</ele>
        <time>2024-05-05T12:09:38Z</time>
      </trkpt>
      <trkpt lat="49.10614" lon="1.73819">
        <ele>135.4</ele>
        <time>2024-05-05T12:09:43Z</time>
      </trkpt>
      <trkpt lat="49.1061" lon="1.73829">
        <ele>135.9</ele>
        <time>2024-05-05T12:09:49Z</time>
      </trkpt>
      <trkpt lat="49.10604" lon="1.73834">
        <ele>136</ele>
        <time>2024-05-05T12:09:55Z</time>
      </trkpt>
      <trkpt lat="49.10601" lon="1.73844">
        <ele>136</ele>
        <time>2024-05-05T12:10:01Z</time>
      </trkpt>
      <trkpt lat="49.10597" lon="1.73852">
        <ele>136</ele>
        <time>2024-05-05T12:10:06Z</time>
      </trkpt>
      <trkpt lat="49.10592" lon="1.73861">
        <ele>136</ele>
        <time>2024-05-05T12:10:12Z</time>
      </trkpt>
      <trkpt lat="49.10589" lon="1.73874">
        <ele>136.4</ele>
        <time>2024-05-05T12:10:17Z</time>
      </trkpt>
      <trkpt lat="49.10584" lon="1.73882">
        <ele>136.7</ele>
        <time>2024-05-05T12:10:23Z</time>
      </trkpt>
      <trkpt lat="49.10582" lon="1.73886">
        <ele>136.9</ele>
        <time>2024-05-05T12:10:28Z</time>
      </trkpt>
      <trkpt lat="49.1058" lon="1.73894">
        <ele>137</ele>
        <time>2024-05-05T12:10:33Z</time>
      </trkpt>
      <trkpt lat="49.10575" lon="1.73903">
        <ele>137</ele>
        <time>2024-05-05T12:10:39Z</time>
      </trkpt>
      <trkpt lat="49.10569" lon="1.73914">
        <ele>137</ele>
        <time>2024-05-05T12:10:45Z</time>
      </trkpt>
      <trkpt lat="49.10565" lon="1.73923">
        <ele>137</ele>
        <time>2024-05-05T12:10:50Z</time>
      </trkpt>
      <trkpt lat="49.10563" lon="1.73931">
        <ele>137</ele>
        <time>2024-05-05T12:10:56Z</time>
      </trkpt>
      <trkpt lat="49.10561" lon="1.73943">
        <ele>137</ele>
        <time>2024-05-05T12:11:02Z</time>
      </trkpt>
      <trkpt lat="49.10556" lon="1.73951">
        <ele>137</ele>
        <time>2024-05-05T12:11:08Z</time>
      </trkpt>
      <trkpt lat="49.10554" lon="1.73956">
        <ele>137.1</ele>
        <time>2024-05-05T12:11:13Z</time>
      </trkpt>
      <trkpt lat="49.1055" lon="1.73962">
        <ele>137.2</ele>
        <time>2024-05-05T12:11:19Z</time>
      </trkpt>
      <trkpt lat="49.10545" lon="1.73971">
        <ele>137.4</ele>
        <time>2024-05-05T12:11:25Z</time>
      </trkpt>
      <trkpt lat="49.10538" lon="1.7398">
        <ele>137.6</ele>
        <time>2024-05-05T12:11:30Z</time>
      </trkpt>
      <trkpt lat="49.10534" lon="1.73989">
        <ele>137.8</ele>
        <time>2024-05-05T12:11:35Z</time>
      </trkpt>
      <trkpt lat="49.10531" lon="1.73996">
        <ele>137.9</ele>
        <time>2024-05-05T12:11:41Z</time>
      </trkpt>
      <trkpt lat="49.10526" lon="1.74006">
        <ele>137.9</ele>
        <time>2024-05-05T12:11:47Z</time>
      </trkpt>
      <trkpt lat="49.10522" lon="1.74013">
        <ele>137.8</ele>
        <time>2024-05-05T12:11:53Z</time>
      </trkpt>
      <trkpt lat="49.10518" lon="1.74023">
        <ele>137.5</ele>
        <time>2024-05-05T12:11:58Z</time>
      </trkpt>
      <trkpt lat="49.10515" lon="1.74032">
        <ele>137.5</ele>
        <time>2024-05-05T12:12:04Z</time>
      </trkpt>
      <trkpt lat="49.10513" lon="1.74046">
        <ele>137.5</ele>
        <time>2024-05-05T12:12:09Z</time>
      </trkpt>
      <trkpt lat="49.10511" lon="1.74055">
        <ele>137.6</ele>
        <time>2024-05-05T12:12:15Z</time>
      </trkpt>
      <trkpt lat="49.10507" lon="1.74064">
        <ele>137.7</ele>
        <time>2024-05-05T12:12:21Z</time>
      </trkpt>
      <trkpt lat="49.10503" lon="1.74071">
        <ele>137.9</ele>
        <time>2024-05-05T12:12:27Z</time>
      </trkpt>
      <trkpt lat="49.10499" lon="1.74082">
        <ele>138</ele>
        <time>2024-05-05T12:12:32Z</time>
      </trkpt>
      <trkpt lat="49.10494" lon="1.74091">
        <ele>137.8</ele>
        <time>2024-05-05T12:12:37Z</time>
      </trkpt>
      <trkpt lat="49.10491" lon="1.74099">
        <ele>137.6</ele>
        <time>2024-05-05T12:12:42Z</time>
      </trkpt>
      <trkpt lat="49.10489" lon="1.74113">
        <ele>137.4</ele>
        <time>2024-05-05T12:12:48Z</time>
      </trkpt>
      <trkpt lat="49.10486" lon="1.74126">
        <ele>137.5</ele>
        <time>2024-05-05T12:12:54Z</time>
      </trkpt>
      <trkpt lat="49.10481" lon="1.74133">
        <ele>137.7</ele>
        <time>2024-05-05T12:13:00Z</time>
      </trkpt>
      <trkpt lat="49.10478" lon="1.74143">
        <ele>137.8</ele>
        <time>2024-05-05T12:13:05Z</time>
      </trkpt>
      <trkpt lat="49.10475" lon="1.74156">
        <ele>137.9</ele>
        <time>2024-05-05T12:13:12Z</time>
      </trkpt>
      <trkpt lat="49.10474" lon="1.74164">
        <ele>137.9</ele>
        <time>2024-05-05T12:13:17Z</time>
      </trkpt>
      <trkpt lat="49.10471" lon="1.74177">
        <ele>138</ele>
        <time>2024-05-05T12:13:22Z</time>
      </trkpt>
      <trkpt lat="49.10468" lon="1.74185">
        <ele>138</ele>
        <time>2024-05-05T12:13:27Z</time>
      </trkpt>
      <trkpt lat="49.10464" lon="1.74193">
        <ele>138</ele>
        <time>2024-05-05T12:13:33Z</time>
      </trkpt>
      <trkpt lat="49.10461" lon="1.74198">
        <ele>138</ele>
        <time>2024-05-05T12:13:38Z</time>
      </trkpt>
      <trkpt lat="49.10459" lon="1.74207">
        <ele>138</ele>
        <time>2024-05-05T12:13:44Z</time>
      </trkpt>
      <trkpt lat="49.10454" lon="1.74215">
        <ele>138</ele>
        <time>2024-05-05T12:13:49Z</time>
      </trkpt>
      <trkpt lat="49.10448" lon="1.74226">
        <ele>138.1</ele>
        <time>2024-05-05T12:13:55Z</time>
      </trkpt>
      <trkpt lat="49.10446" lon="1.74234">
        <ele>138.4</ele>
        <time>2024-05-05T12:14:00Z</time>
      </trkpt>
      <trkpt lat="49.10442" lon="1.74239">
        <ele>138.6</ele>
        <time>2024-05-05T12:14:05Z</time>
      </trkpt>
      <trkpt lat="49.10439" lon="1.74248">
        <ele>138.9</ele>
        <time>2024-05-05T12:14:10Z</time>
      </trkpt>
      <trkpt lat="49.10434" lon="1.74255">
        <ele>139</ele>
        <time>2024-05-05T12:14:16Z</time>
      </trkpt>
      <trkpt lat="49.1043" lon="1.74269">
        <ele>139</ele>
        <time>2024-05-05T12:14:22Z</time>
      </trkpt>
      <trkpt lat="49.10428" lon="1.74278">
        <ele>139</ele>
        <time>2024-05-05T12:14:27Z</time>
      </trkpt>
      <trkpt lat="49.10425" lon="1.7429">
        <ele>139.3</ele>
        <time>2024-05-05T12:14:33Z</time>
      </trkpt>
      <trkpt lat="49.10422" lon="1.74299">
        <ele>139.6</ele>
        <time>2024-05-05T12:14:38Z</time>
      </trkpt>
      <trkpt lat="49.10418" lon="1.74309">
        <ele>140</ele>
        <time>2024-05-05T12:14:44Z</time>
      </trkpt>
      <trkpt lat="49.10417" lon="1.74321">
        <ele>140</ele>
        <time>2024-05-05T12:14:50Z</time>
      </trkpt>
      <trkpt lat="49.10413" lon="1.74329">
        <ele>140</ele>
        <time>2024-05-05T12:14:55Z</time>
      </trkpt>
      <trkpt lat="49.10408" lon="1.74338">
        <ele>140.2</ele>
        <time>2024-05-05T12:15:01Z</time>
      </trkpt>
      <trkpt lat="49.10404" lon="1.74347">
        <ele>140.5</ele>
        <time>2024-05-05T12:15:06Z</time>
      </trkpt>
      <trkpt lat="49.10401" lon="1.74356">
        <ele>140.8</ele>
        <time>2024-05-05T12:15:12Z</time>
      </trkpt>
      <trkpt lat="49.10397" lon="1.74363">
        <ele>141</ele>
        <time>2024-05-05T12:15:17Z</time>
      </trkpt>
      <trkpt lat="49.10393" lon="1.74377">
        <ele>141</ele>
        <time>2024-05-05T12:15:23Z</time>
      </trkpt>
      <trkpt lat="49.1039" lon="1.74387">
        <ele>141</ele>
        <time>2024-05-05T12:15:29Z</time>
      </trkpt>
      <trkpt lat="49.10386" lon="1.74398">
        <ele>141.3</ele>
        <time>2024-05-05T12:15:35Z</time>
      </trkpt>
      <trkpt lat="49.10383" lon="1.74404">
        <ele>141.4</ele>
        <time>2024-05-05T12:15:40Z</time>
      </trkpt>
      <trkpt lat="49.10379" lon="1.74414">
        <ele>141.6</ele>
        <time>2024-05-05T12:15:46Z</time>
      </trkpt>
      <trkpt lat="49.10377" lon="1.74424">
        <ele>141.7</ele>
        <time>2024-05-05T12:15:51Z</time>
      </trkpt>
      <trkpt lat="49.10373" lon="1.74435">
        <ele>141.8</ele>
        <time>2024-05-05T12:15:57Z</time>
      </trkpt>
      <trkpt lat="49.10368" lon="1.74444">
        <ele>142</ele>
        <time>2024-05-05T12:16:03Z</time>
      </trkpt>
      <trkpt lat="49.10365" lon="1.74453">
        <ele>142.3</ele>
        <time>2024-05-05T12:16:08Z</time>
      </trkpt>
      <trkpt lat="49.10361" lon="1.74464">
        <ele>142.7</ele>
        <time>2024-05-05T12:16:14Z</time>
      </trkpt>
      <trkpt lat="49.10359" lon="1.74471">
        <ele>143</ele>
        <time>2024-05-05T12:16:19Z</time>
      </trkpt>
      <trkpt lat="49.10357" lon="1.74479">
        <ele>143.3</ele>
        <time>2024-05-05T12:16:25Z</time>
      </trkpt>
      <trkpt lat="49.10353" lon="1.74487">
        <ele>143.5</ele>
        <time>2024-05-05T12:16:30Z</time>
      </trkpt>
      <trkpt lat="49.10352" lon="1.7449">
        <ele>143.6</ele>
        <time>2024-05-05T12:16:35Z</time>
      </trkpt>
      <trkpt lat="49.10351" lon="1.74495">
        <ele>143.8</ele>
        <time>2024-05-05T12:16:40Z</time>
      </trkpt>
      <trkpt lat="49.10347" lon="1.74502">
        <ele>144</ele>
        <time>2024-05-05T12:16:46Z</time>
      </trkpt>
      <trkpt lat="49.10344" lon="1.74511">
        <ele>144</ele>
        <time>2024-05-05T12:16:51Z</time>
      </trkpt>
      <trkpt lat="49.10343" lon="1.74526">
        <ele>144</ele>
        <time>2024-05-05T12:16:57Z</time>
      </trkpt>
      <trkpt lat="49.10341" lon="1.7454">
        <ele>144</ele>
        <time>2024-05-05T12:17:02Z</time>
      </trkpt>
      <trkpt lat="49.1034" lon="1.74552">
        <ele>144</ele>
        <time>2024-05-05T12:17:07Z</time>
      </trkpt>
      <trkpt lat="49.10338" lon="1.74565">
        <ele>144.3</ele>
        <time>2024-05-05T12:17:13Z</time>
      </trkpt>
      <trkpt lat="49.10336" lon="1.74577">
        <ele>144.8</ele>
        <time>2024-05-05T12:17:19Z</time>
      </trkpt>
      <trkpt lat="49.10335" lon="1.74588">
        <ele>145</ele>
        <time>2024-05-05T12:17:25Z</time>
      </trkpt>
      <trkpt lat="49.10334" lon="1.74602">
        <ele>145</ele>
        <time>2024-05-05T12:17:31Z</time>
      </trkpt>
      <trkpt lat="49.10333" lon="1.74614">
        <ele>145.1</ele>
        <time>2024-05-05T12:17:37Z</time>
      </trkpt>
      <trkpt lat="49.10331" lon="1.74627">
        <ele>145.6</ele>
        <time>2024-05-05T12:17:43Z</time>
      </trkpt>
      <trkpt lat="49.10331" lon="1.74633">
        <ele>145.8</ele>
        <time>2024-05-05T12:17:48Z</time>
      </trkpt>
      <trkpt lat="49.10331" lon="1.74634">
        <ele>145.8</ele>
        <time>2024-05-05T12:17:54Z</time>
      </trkpt>
      <trkpt lat="49.10331" lon="1.74633">
        <ele>145.8</ele>
        <time>2024-05-05T12:18:00Z</time>
      </trkpt>
      <trkpt lat="49.10331" lon="1.74632">
        <ele>145.8</ele>
        <time>2024-05-05T12:18:06Z</time>
      </trkpt>
      <trkpt lat="49.10331" lon="1.74633">
        <ele>145.8</ele>
        <time>2024-05-05T12:18:11Z</time>
      </trkpt>
      <trkpt lat="49.10331" lon="1.74643">
        <ele>146</ele>
        <time>2024-05-05T12:18:16Z</time>
      </trkpt>
      <trkpt lat="49.10329" lon="1.74656">
        <ele>146</ele>
        <time>2024-05-05T12:18:22Z</time>
      </trkpt>
      <trkpt lat="49.10328" lon="1.74667">
        <ele>146</ele>
        <time>2024-05-05T12:18:28Z</time>
      </trkpt>
      <trkpt lat="49.10327" lon="1.74678">
        <ele>146.4</ele>
        <time>2024-05-05T12:18:34Z</time>
      </trkpt>
      <trkpt lat="49.10325" lon="1.74689">
        <ele>146.8</ele>
        <time>2024-05-05T12:18:40Z</time>
      </trkpt>
      <trkpt lat="49.10324" lon="1.747">
        <ele>147</ele>
        <time>2024-05-05T12:18:45Z</time>
      </trkpt>
      <trkpt lat="49.10323" lon="1.7471">
        <ele>147</ele>
        <time>2024-05-05T12:18:51Z</time>
      </trkpt>
      <trkpt lat="49.10322" lon="1.74719">
        <ele>147</ele>
        <time>2024-05-05T12:18:56Z</time>
      </trkpt>
      <trkpt lat="49.10321" lon="1.74732">
        <ele>147.2</ele>
        <time>2024-05-05T12:19:02Z</time>
      </trkpt>
      <trkpt lat="49.1032" lon="1.74741">
        <ele>147.3</ele>
        <time>2024-05-05T12:19:07Z</time>
      </trkpt>
      <trkpt lat="49.10319" lon="1.74753">
        <ele>147.6</ele>
        <time>2024-05-05T12:19:12Z</time>
      </trkpt>
      <trkpt lat="49.10317" lon="1.74767">
        <ele>147.8</ele>
        <time>2024-05-05T12:19:18Z</time>
      </trkpt>
      <trkpt lat="49.10316" lon="1.74776">
        <ele>148</ele>
        <time>2024-05-05T12:19:24Z</time>
      </trkpt>
      <trkpt lat="49.10315" lon="1.74791">
        <ele>148</ele>
        <time>2024-05-05T12:19:30Z</time>
      </trkpt>
      <trkpt lat="49.10313" lon="1.74801">
        <ele>148</ele>
        <time>2024-05-05T12:19:35Z</time>
      </trkpt>
      <trkpt lat="49.10314" lon="1.74814">
        <ele>148.2</ele>
        <time>2024-05-05T12:19:41Z</time>
      </trkpt>
      <trkpt lat="49.10314" lon="1.74828">
        <ele>148.6</ele>
        <time>2024-05-05T12:19:47Z</time>
      </trkpt>
      <trkpt lat="49.1031" lon="1.74841">
        <ele>148.9</ele>
        <time>2024-05-05T12:19:53Z</time>
      </trkpt>
      <trkpt lat="49.10309" lon="1.74852">
        <ele>149</ele>
        <time>2024-05-05T12:19:59Z</time>
      </trkpt>
      <trkpt lat="49.10308" lon="1.74863">
        <ele>149</ele>
        <time>2024-05-05T12:20:04Z</time>
      </trkpt>
      <trkpt lat="49.10306" lon="1.74875">
        <ele>149</ele>
        <time>2024-05-05T12:20:09Z</time>
      </trkpt>
      <trkpt lat="49.10303" lon="1.74883">
        <ele>149.1</ele>
        <time>2024-05-05T12:20:15Z</time>
      </trkpt>
      <trkpt lat="49.10302" lon="1.74893">
        <ele>149.3</ele>
        <time>2024-05-05T12:20:21Z</time>
      </trkpt>
      <trkpt lat="49.10302" lon="1.74907">
        <ele>149.7</ele>
        <time>2024-05-05T12:20:27Z</time>
      </trkpt>
      <trkpt lat="49.10297" lon="1.74915">
        <ele>150</ele>
        <time>2024-05-05T12:20:32Z</time>
      </trkpt>
      <trkpt lat="49.10291" lon="1.74917">
        <ele>150</ele>
        <time>2024-05-05T12:20:38Z</time>
      </trkpt>
      <trkpt lat="49.10283" lon="1.7492">
        <ele>150</ele>
        <time>2024-05-05T12:20:43Z</time>
      </trkpt>
      <trkpt lat="49.10274" lon="1.74925">
        <ele>150.1</ele>
        <time>2024-05-05T12:20:49Z</time>
      </trkpt>
      <trkpt lat="49.10269" lon="1.74927">
        <ele>150.3</ele>
        <time>2024-05-05T12:20:54Z</time>
      </trkpt>
      <trkpt lat="49.10263" lon="1.74929">
        <ele>150.5</ele>
        <time>2024-05-05T12:20:59Z</time>
      </trkpt>
      <trkpt lat="49.10254" lon="1.74933">
        <ele>150.8</ele>
        <time>2024-05-05T12:21:04Z</time>
      </trkpt>
      <trkpt lat="49.10245" lon="1.74939">
        <ele>151.2</ele>
        <time>2024-05-05T12:21:10Z</time>
      </trkpt>
      <trkpt lat="49.10239" lon="1.74941">
        <ele>151.4</ele>
        <time>2024-05-05T12:21:15Z</time>
      </trkpt>
      <trkpt lat="49.10231" lon="1.74945">
        <ele>151.7</ele>
        <time>2024-05-05T12:21:21Z</time>
      </trkpt>
      <trkpt lat="49.10222" lon="1.74948">
        <ele>152</ele>
        <time>2024-05-05T12:21:27Z</time>
      </trkpt>
      <trkpt lat="49.10218" lon="1.74951">
        <ele>152</ele>
        <time>2024-05-05T12:21:33Z</time>
      </trkpt>
      <trkpt lat="49.1021" lon="1.74959">
        <ele>152.2</ele>
        <time>2024-05-05T12:21:39Z</time>
      </trkpt>
      <trkpt lat="49.10202" lon="1.74964">
        <ele>152.5</ele>
        <time>2024-05-05T12:21:45Z</time>
      </trkpt>
      <trkpt lat="49.10194" lon="1.74968">
        <ele>152.9</ele>
        <time>2024-05-05T12:21:51Z</time>
      </trkpt>
      <trkpt lat="49.10186" lon="1.74971">
        <ele>153</ele>
        <time>2024-05-05T12:21:56Z</time>
      </trkpt>
      <trkpt lat="49.10182" lon="1.74974">
        <ele>153</ele>
        <time>2024-05-05T12:22:02Z</time>
      </trkpt>
      <trkpt lat="49.10178" lon="1.74981">
        <ele>153.2</ele>
        <time>2024-05-05T12:22:07Z</time>
      </trkpt>
      <trkpt lat="49.10174" lon="1.7499">
        <ele>153.5</ele>
        <time>2024-05-05T12:22:12Z</time>
      </trkpt>
      <trkpt lat="49.1017" lon="1.74999">
        <ele>153.9</ele>
        <time>2024-05-05T12:22:18Z</time>
      </trkpt>
      <trkpt lat="49.10165" lon="1.75006">
        <ele>154</ele>
        <time>2024-05-05T12:22:24Z</time>
      </trkpt>
      <trkpt lat="49.1016" lon="1.75013">
        <ele>154</ele>
        <time>2024-05-05T12:22:30Z</time>
      </trkpt>
      <trkpt lat="49.10156" lon="1.75019">
        <ele>154.1</ele>
        <time>2024-05-05T12:22:36Z</time>
      </trkpt>
      <trkpt lat="49.10152" lon="1.75021">
        <ele>154.3</ele>
        <time>2024-05-05T12:22:41Z</time>
      </trkpt>
      <trkpt lat="49.10147" lon="1.75027">
        <ele>154.7</ele>
        <time>2024-05-05T12:22:47Z</time>
      </trkpt>
      <trkpt lat="49.10145" lon="1.75032">
        <ele>154.8</ele>
        <time>2024-05-05T12:22:53Z</time>
      </trkpt>
      <trkpt lat="49.10139" lon="1.75037">
        <ele>155</ele>
        <time>2024-05-05T12:22:59Z</time>
      </trkpt>
      <trkpt lat="49.10135" lon="1.75042">
        <ele>155.1</ele>
        <time>2024-05-05T12:23:04Z</time>
      </trkpt>
      <trkpt lat="49.10131" lon="1.75045">
        <ele>155.2</ele>
        <time>2024-05-05T12:23:09Z</time>
      </trkpt>
      <trkpt lat="49.10126" lon="1.75051">
        <ele>155.4</ele>
        <time>2024-05-05T12:23:15Z</time>
      </trkpt>
      <trkpt lat="49.10123" lon="1.75054">
        <ele>155.5</ele>
        <time>2024-05-05T12:23:20Z</time>
      </trkpt>
      <trkpt lat="49.10119" lon="1.75062">
        <ele>155.9</ele>
        <time>2024-05-05T12:23:26Z</time>
      </trkpt>
      <trkpt lat="49.10116" lon="1.7507">
        <ele>156.3</ele>
        <time>2024-05-05T12:23:32Z</time>
      </trkpt>
      <trkpt lat="49.10114" lon="1.75074">
        <ele>156.5</ele>
        <time>2024-05-05T12:23:37Z</time>
      </trkpt>
      <trkpt lat="49.10112" lon="1.75079">
        <ele>156.8</ele>
        <time>2024-05-05T12:23:42Z</time>
      </trkpt>
      <trkpt lat="49.10109" lon="1.75084">
        <ele>157.1</ele>
        <time>2024-05-05T12:23:47Z</time>
      </trkpt>
      <trkpt lat="49.10103" lon="1.75092">
        <ele>157.6</ele>
        <time>2024-05-05T12:23:53Z</time>
      </trkpt>
      <trkpt lat="49.101" lon="1.75096">
        <ele>157.9</ele>
        <time>2024-05-05T12:23:58Z</time>
      </trkpt>
      <trkpt lat="49.10097" lon="1.751">
        <ele>158.1</ele>
        <time>2024-05-05T12:24:04Z</time>
      </trkpt>
      <trkpt lat="49.10089" lon="1.75105">
        <ele>158.6</ele>
        <time>2024-05-05T12:24:10Z</time>
      </trkpt>
      <trkpt lat="49.10083" lon="1.75112">
        <ele>159</ele>
        <time>2024-05-05T12:24:16Z</time>
      </trkpt>
      <trkpt lat="49.10078" lon="1.75119">
        <ele>159.3</ele>
        <time>2024-05-05T12:24:22Z</time>
      </trkpt>
      <trkpt lat="49.10075" lon="1.75121">
        <ele>159.4</ele>
        <time>2024-05-05T12:24:28Z</time>
      </trkpt>
      <trkpt lat="49.1007" lon="1.75128">
        <ele>159.6</ele>
        <time>2024-05-05T12:24:34Z</time>
      </trkpt>
      <trkpt lat="49.10065" lon="1.75132">
        <ele>159.7</ele>
        <time>2024-05-05T12:24:39Z</time>
      </trkpt>
      <trkpt lat="49.10061" lon="1.75138">
        <ele>160</ele>
        <time>2024-05-05T12:24:45Z</time>
      </trkpt>
      <trkpt lat="49.10058" lon="1.75143">
        <ele>160.1</ele>
        <time>2024-05-05T12:24:50Z</time>
      </trkpt>
      <trkpt lat="49.10055" lon="1.7515">
        <ele>160.4</ele>
        <time>2024-05-05T12:24:55Z</time>
      </trkpt>
      <trkpt lat="49.1005" lon="1.75157">
        <ele>160.9</ele>
        <time>2024-05-05T12:25:01Z</time>
      </trkpt>
      <trkpt lat="49.10046" lon="1.75163">
        <ele>161.2</ele>
        <time>2024-05-05T12:25:07Z</time>
      </trkpt>
      <trkpt lat="49.10038" lon="1.75168">
        <ele>161.7</ele>
        <time>2024-05-05T12:25:13Z</time>
      </trkpt>
      <trkpt lat="49.10034" lon="1.75167">
        <ele>161.8</ele>
        <time>2024-05-05T12:25:19Z</time>
      </trkpt>
      <trkpt lat="49.10033" lon="1.7517">
        <ele>161.9</ele>
        <time>2024-05-05T12:25:25Z</time>
      </trkpt>
      <trkpt lat="49.10033" lon="1.75172">
        <ele>162</ele>
        <time>2024-05-05T12:25:30Z</time>
      </trkpt>
      <trkpt lat="49.10032" lon="1.75173">
        <ele>162.1</ele>
        <time>2024-05-05T12:25:35Z</time>
      </trkpt>
      <trkpt lat="49.1003" lon="1.75179">
        <ele>162.3</ele>
        <time>2024-05-05T12:25:41Z</time>
      </trkpt>
      <trkpt lat="49.1003" lon="1.75183">
        <ele>162.5</ele>
        <time>2024-05-05T12:25:46Z</time>
      </trkpt>
      <trkpt lat="49.10028" lon="1.75187">
        <ele>162.7</ele>
        <time>2024-05-05T12:25:52Z</time>
      </trkpt>
      <trkpt lat="49.10026" lon="1.75192">
        <ele>163.1</ele>
        <time>2024-05-05T12:25:57Z</time>
      </trkpt>
      <trkpt lat="49.10022" lon="1.75197">
        <ele>163.5</ele>
        <time>2024-05-05T12:26:03Z</time>
      </trkpt>
      <trkpt lat="49.10021" lon="1.75201">
        <ele>163.7</ele>
        <time>2024-05-05T12:26:08Z</time>
      </trkpt>
      <trkpt lat="49.10017" lon="1.75204">
        <ele>164.2</ele>
        <time>2024-05-05T12:26:14Z</time>
      </trkpt>
      <trkpt lat="49.10012" lon="1.75213">
        <ele>164.8</ele>
        <time>2024-05-05T12:26:20Z</time>
      </trkpt>
      <trkpt lat="49.10006" lon="1.75217">
        <ele>165.4</ele>
        <time>2024-05-05T12:26:26Z</time>
      </trkpt>
      <trkpt lat="49.10006" lon="1.75218">
        <ele>165.4</ele>
        <time>2024-05-05T12:26:31Z</time>
      </trkpt>
      <trkpt lat="49.10004" lon="1.75225">
        <ele>165.9</ele>
        <time>2024-05-05T12:26:37Z</time>
      </trkpt>
      <trkpt lat="49.10001" lon="1.75226">
        <ele>166.2</ele>
        <time>2024-05-05T12:26:42Z</time>
      </trkpt>
      <trkpt lat="49.09997" lon="1.75229">
        <ele>166.8</ele>
        <time>2024-05-05T12:26:48Z</time>
      </trkpt>
      <trkpt lat="49.09993" lon="1.75233">
        <ele>167.6</ele>
        <time>2024-05-05T12:26:53Z</time>
      </trkpt>
      <trkpt lat="49.09992" lon="1.75235">
        <ele>167.8</ele>
        <time>2024-05-05T12:26:59Z</time>
      </trkpt>
      <trkpt lat="49.0999" lon="1.75239">
        <ele>168.3</ele>
        <time>2024-05-05T12:27:05Z</time>
      </trkpt>
      <trkpt lat="49.09985" lon="1.75241">
        <ele>168.9</ele>
        <time>2024-05-05T12:27:11Z</time>
      </trkpt>
      <trkpt lat="49.09982" lon="1.75243">
        <ele>169.4</ele>
        <time>2024-05-05T12:27:16Z</time>
      </trkpt>
      <trkpt lat="49.09974" lon="1.75243">
        <ele>170.3</ele>
        <time>2024-05-05T12:27:22Z</time>
      </trkpt>
      <trkpt lat="49.09968" lon="1.75241">
        <ele>170.8</ele>
        <time>2024-05-05T12:27:28Z</time>
      </trkpt>
      <trkpt lat="49.09962" lon="1.75239">
        <ele>171.3</ele>
        <time>2024-05-05T12:27:34Z</time>
      </trkpt>
      <trkpt lat="49.09956" lon="1.7524">
        <ele>172.1</ele>
        <time>2024-05-05T12:27:40Z</time>
      </trkpt>
      <trkpt lat="49.09951" lon="1.75241">
        <ele>172.6</ele>
        <time>2024-05-05T12:27:45Z</time>
      </trkpt>
      <trkpt lat="49.09948" lon="1.75243">
        <ele>173.1</ele>
        <time>2024-05-05T12:27:50Z</time>
      </trkpt>
      <trkpt lat="49.09945" lon="1.75244">
        <ele>173.5</ele>
        <time>2024-05-05T12:27:55Z</time>
      </trkpt>
      <trkpt lat="49.09938" lon="1.75245">
        <ele>174.3</ele>
        <time>2024-05-05T12:28:01Z</time>
      </trkpt>
      <trkpt lat="49.09935" lon="1.75245">
        <ele>174.8</ele>
        <time>2024-05-05T12:28:06Z</time>
      </trkpt>
      <trkpt lat="49.09929" lon="1.75243">
        <ele>175.3</ele>
        <time>2024-05-05T12:28:12Z</time>
      </trkpt>
      <trkpt lat="49.09925" lon="1.75244">
        <ele>175.9</ele>
        <time>2024-05-05T12:28:18Z</time>
      </trkpt>
      <trkpt lat="49.09923" lon="1.75246">
        <ele>176.1</ele>
        <time>2024-05-05T12:28:23Z</time>
      </trkpt>
      <trkpt lat="49.09921" lon="1.75247">
        <ele>176.4</ele>
        <time>2024-05-05T12:28:28Z</time>
      </trkpt>
      <trkpt lat="49.09915" lon="1.75247">
        <ele>177</ele>
        <time>2024-05-05T12:28:34Z</time>
      </trkpt>
      <trkpt lat="49.09909" lon="1.7525">
        <ele>177.9</ele>
        <time>2024-05-05T12:28:40Z</time>
      </trkpt>
      <trkpt lat="49.09903" lon="1.75254">
        <ele>178.5</ele>
        <time>2024-05-05T12:28:45Z</time>
      </trkpt>
      <trkpt lat="49.099" lon="1.75254">
        <ele>178.8</ele>
        <time>2024-05-05T12:28:51Z</time>
      </trkpt>
      <trkpt lat="49.09899" lon="1.7525">
        <ele>178.8</ele>
        <time>2024-05-05T12:28:57Z</time>
      </trkpt>
      <trkpt lat="49.09897" lon="1.75243">
        <ele>178.8</ele>
        <time>2024-05-05T12:29:03Z</time>
      </trkpt>
      <trkpt lat="49.09892" lon="1.75245">
        <ele>179.5</ele>
        <time>2024-05-05T12:29:09Z</time>
      </trkpt>
      <trkpt lat="49.09884" lon="1.75249">
        <ele>180.5</ele>
        <time>2024-05-05T12:29:15Z</time>
      </trkpt>
      <trkpt lat="49.09876" lon="1.7525">
        <ele>181.4</ele>
        <time>2024-05-05T12:29:21Z</time>
      </trkpt>
      <trkpt lat="49.09869" lon="1.75252">
        <ele>182.2</ele>
        <time>2024-05-05T12:29:26Z</time>
      </trkpt>
      <trkpt lat="49.09861" lon="1.75259">
        <ele>183.3</ele>
        <time>2024-05-05T12:29:32Z</time>
      </trkpt>
      <trkpt lat="49.09856" lon="1.75261">
        <ele>183.9</ele>
        <time>2024-05-05T12:29:37Z</time>
      </trkpt>
      <trkpt lat="49.09851" lon="1.7526">
        <ele>184.4</ele>
        <time>2024-05-05T12:29:42Z</time>
      </trkpt>
      <trkpt lat="49.09844" lon="1.75258">
        <ele>185</ele>
        <time>2024-05-05T12:29:48Z</time>
      </trkpt>
      <trkpt lat="49.09837" lon="1.75262">
        <ele>185.7</ele>
        <time>2024-05-05T12:29:53Z</time>
      </trkpt>
      <trkpt lat="49.09831" lon="1.75268">
        <ele>186.2</ele>
        <time>2024-05-05T12:29:59Z</time>
      </trkpt>
      <trkpt lat="49.09825" lon="1.75272">
        <ele>186.6</ele>
        <time>2024-05-05T12:30:05Z</time>
      </trkpt>
      <trkpt lat="49.09821" lon="1.75275">
        <ele>186.9</ele>
        <time>2024-05-05T12:30:11Z</time>
      </trkpt>
      <trkpt lat="49.09812" lon="1.75276">
        <ele>187.5</ele>
        <time>2024-05-05T12:30:17Z</time>
      </trkpt>
      <trkpt lat="49.09804" lon="1.75277">
        <ele>188.1</ele>
        <time>2024-05-05T12:30:23Z</time>
      </trkpt>
      <trkpt lat="49.09799" lon="1.75278">
        <ele>188.5</ele>
        <time>2024-05-05T12:30:29Z</time>
      </trkpt>
      <trkpt lat="49.09791" lon="1.75279">
        <ele>189.1</ele>
        <time>2024-05-05T12:30:35Z</time>
      </trkpt>
      <trkpt lat="49.09783" lon="1.75283">
        <ele>189.6</ele>
        <time>2024-05-05T12:30:41Z</time>
      </trkpt>
      <trkpt lat="49.09777" lon="1.75287">
        <ele>190</ele>
        <time>2024-05-05T12:30:46Z</time>
      </trkpt>
      <trkpt lat="49.09773" lon="1.75287">
        <ele>190.4</ele>
        <time>2024-05-05T12:30:52Z</time>
      </trkpt>
      <trkpt lat="49.09767" lon="1.75288">
        <ele>190.8</ele>
        <time>2024-05-05T12:30:58Z</time>
      </trkpt>
      <trkpt lat="49.0976" lon="1.75289">
        <ele>191.3</ele>
        <time>2024-05-05T12:31:03Z</time>
      </trkpt>
      <trkpt lat="49.09755" lon="1.75291">
        <ele>191.7</ele>
        <time>2024-05-05T12:31:08Z</time>
      </trkpt>
      <trkpt lat="49.0975" lon="1.75292">
        <ele>192</ele>
        <time>2024-05-05T12:31:14Z</time>
      </trkpt>
      <trkpt lat="49.09742" lon="1.75296">
        <ele>192.6</ele>
        <time>2024-05-05T12:31:20Z</time>
      </trkpt>
      <trkpt lat="49.09737" lon="1.75295">
        <ele>192.9</ele>
        <time>2024-05-05T12:31:25Z</time>
      </trkpt>
      <trkpt lat="49.0973" lon="1.75298">
        <ele>193.4</ele>
        <time>2024-05-05T12:31:31Z</time>
      </trkpt>
      <trkpt lat="49.09724" lon="1.75301">
        <ele>193.9</ele>
        <time>2024-05-05T12:31:37Z</time>
      </trkpt>
      <trkpt lat="49.09718" lon="1.75301">
        <ele>194.3</ele>
        <time>2024-05-05T12:31:42Z</time>
      </trkpt>
      <trkpt lat="49.09712" lon="1.75303">
        <ele>194.7</ele>
        <time>2024-05-05T12:31:47Z</time>
      </trkpt>
      <trkpt lat="49.09704" lon="1.75312">
        <ele>195.3</ele>
        <time>2024-05-05T12:31:53Z</time>
      </trkpt>
      <trkpt lat="49.09699" lon="1.75314">
        <ele>195.7</ele>
        <time>2024-05-05T12:31:58Z</time>
      </trkpt>
      <trkpt lat="49.09689" lon="1.75316">
        <ele>196.2</ele>
        <time>2024-05-05T12:32:04Z</time>
      </trkpt>
      <trkpt lat="49.09682" lon="1.75319">
        <ele>196.4</ele>
        <time>2024-05-05T12:32:10Z</time>
      </trkpt>
      <trkpt lat="49.09678" lon="1.75321">
        <ele>196.6</ele>
        <time>2024-05-05T12:32:16Z</time>
      </trkpt>
      <trkpt lat="49.09672" lon="1.75325">
        <ele>196.8</ele>
        <time>2024-05-05T12:32:21Z</time>
      </trkpt>
      <trkpt lat="49.09664" lon="1.75325">
        <ele>197.1</ele>
        <time>2024-05-05T12:32:26Z</time>
      </trkpt>
      <trkpt lat="49.09656" lon="1.75327">
        <ele>197.4</ele>
        <time>2024-05-05T12:32:32Z</time>
      </trkpt>
      <trkpt lat="49.09652" lon="1.75327">
        <ele>197.5</ele>
        <time>2024-05-05T12:32:37Z</time>
      </trkpt>
      <trkpt lat="49.09644" lon="1.7533">
        <ele>197.8</ele>
        <time>2024-05-05T12:32:43Z</time>
      </trkpt>
      <trkpt lat="49.09638" lon="1.75329">
        <ele>198</ele>
        <time>2024-05-05T12:32:48Z</time>
      </trkpt>
      <trkpt lat="49.09635" lon="1.75323">
        <ele>198.1</ele>
        <time>2024-05-05T12:32:54Z</time>
      </trkpt>
      <trkpt lat="49.09629" lon="1.75322">
        <ele>198.4</ele>
        <time>2024-05-05T12:32:59Z</time>
      </trkpt>
      <trkpt lat="49.09621" lon="1.75321">
        <ele>198.6</ele>
        <time>2024-05-05T12:33:05Z</time>
      </trkpt>
      <trkpt lat="49.09616" lon="1.75326">
        <ele>198.8</ele>
        <time>2024-05-05T12:33:10Z</time>
      </trkpt>
      <trkpt lat="49.09611" lon="1.75333">
        <ele>199</ele>
        <time>2024-05-05T12:33:16Z</time>
      </trkpt>
      <trkpt lat="49.09607" lon="1.75338">
        <ele>199.2</ele>
        <time>2024-05-05T12:33:22Z</time>
      </trkpt>
      <trkpt lat="49.09599" lon="1.75345">
        <ele>199.4</ele>
        <time>2024-05-05T12:33:27Z</time>
      </trkpt>
      <trkpt lat="49.09591" lon="1.75346">
        <ele>199.7</ele>
        <time>2024-05-05T12:33:32Z</time>
      </trkpt>
      <trkpt lat="49.09584" lon="1.75347">
        <ele>200</ele>
        <time>2024-05-05T12:33:38Z</time>
      </trkpt>
      <trkpt lat="49.09578" lon="1.75347">
        <ele>200.2</ele>
        <time>2024-05-05T12:33:44Z</time>
      </trkpt>
      <trkpt lat="49.09572" lon="1.7535">
        <ele>200.4</ele>
        <time>2024-05-05T12:33:50Z</time>
      </trkpt>
      <trkpt lat="49.09565" lon="1.75353">
        <ele>200.7</ele>
        <time>2024-05-05T12:33:56Z</time>
      </trkpt>
      <trkpt lat="49.09556" lon="1.75354">
        <ele>201</ele>
        <time>2024-05-05T12:34:02Z</time>
      </trkpt>
      <trkpt lat="49.09548" lon="1.75356">
        <ele>201</ele>
        <time>2024-05-05T12:34:07Z</time>
      </trkpt>
      <trkpt lat="49.09538" lon="1.75358">
        <ele>201</ele>
        <time>2024-05-05T12:34:13Z</time>
      </trkpt>
      <trkpt lat="49.09531" lon="1.75357">
        <ele>201</ele>
        <time>2024-05-05T12:34:19Z</time>
      </trkpt>
      <trkpt lat="49.09526" lon="1.75359">
        <ele>201</ele>
        <time>2024-05-05T12:34:24Z</time>
      </trkpt>
      <trkpt lat="49.09518" lon="1.7536">
        <ele>201</ele>
        <time>2024-05-05T12:34:29Z</time>
      </trkpt>
      <trkpt lat="49.09511" lon="1.75359">
        <ele>201</ele>
        <time>2024-05-05T12:34:35Z</time>
      </trkpt>
      <trkpt lat="49.09505" lon="1.7536">
        <ele>201</ele>
        <time>2024-05-05T12:34:41Z</time>
      </trkpt>
      <trkpt lat="49.09499" lon="1.75363">
        <ele>201</ele>
        <time>2024-05-05T12:34:47Z</time>
      </trkpt>
      <trkpt lat="49.09494" lon="1.75363">
        <ele>201</ele>
        <time>2024-05-05T12:34:52Z</time>
      </trkpt>
      <trkpt lat="49.09487" lon="1.75363">
        <ele>201</ele>
        <time>2024-05-05T12:34:58Z</time>
      </trkpt>
      <trkpt lat="49.0948" lon="1.75362">
        <ele>201</ele>
        <time>2024-05-05T12:35:04Z</time>
      </trkpt>
      <trkpt lat="49.09476" lon="1.7536">
        <ele>201</ele>
        <time>2024-05-05T12:35:10Z</time>
      </trkpt>
      <trkpt lat="49.09471" lon="1.75361">
        <ele>201</ele>
        <time>2024-05-05T12:35:15Z</time>
      </trkpt>
      <trkpt lat="49.09466" lon="1.75361">
        <ele>201</ele>
        <time>2024-05-05T12:35:20Z</time>
      </trkpt>
      <trkpt lat="49.0946" lon="1.75363">
        <ele>201</ele>
        <time>2024-05-05T12:35:26Z</time>
      </trkpt>
      <trkpt lat="49.09453" lon="1.75364">
        <ele>201</ele>
        <time>2024-05-05T12:35:31Z</time>
      </trkpt>
      <trkpt lat="49.0945" lon="1.75367">
        <ele>201</ele>
        <time>2024-05-05T12:35:37Z</time>
      </trkpt>
      <trkpt lat="49.0944" lon="1.75365">
        <ele>201</ele>
        <time>2024-05-05T12:35:43Z</time>
      </trkpt>
      <trkpt lat="49.09436" lon="1.75364">
        <ele>201</ele>
        <time>2024-05-05T12:35:48Z</time>
      </trkpt>
      <trkpt lat="49.09429" lon="1.75362">
        <ele>201</ele>
        <time>2024-05-05T12:35:53Z</time>
      </trkpt>
      <trkpt lat="49.09423" lon="1.75361">
        <ele>201</ele>
        <time>2024-05-05T12:35:59Z</time>
      </trkpt>
      <trkpt lat="49.09418" lon="1.7536">
        <ele>201</ele>
        <time>2024-05-05T12:36:06Z</time>
      </trkpt>
      <trkpt lat="49.09415" lon="1.75361">
        <ele>201</ele>
        <time>2024-05-05T12:36:11Z</time>
      </trkpt>
      <trkpt lat="49.0941" lon="1.75362">
        <ele>201</ele>
        <time>2024-05-05T12:36:16Z</time>
      </trkpt>
      <trkpt lat="49.09405" lon="1.75361">
        <ele>201</ele>
        <time>2024-05-05T12:36:21Z</time>
      </trkpt>
      <trkpt lat="49.09399" lon="1.7536">
        <ele>201</ele>
        <time>2024-05-05T12:36:26Z</time>
      </trkpt>
      <trkpt lat="49.09393" lon="1.7536">
        <ele>201</ele>
        <time>2024-05-05T12:36:32Z</time>
      </trkpt>
      <trkpt lat="49.09383" lon="1.75362">
        <ele>201</ele>
        <time>2024-05-05T12:36:38Z</time>
      </trkpt>
      <trkpt lat="49.09375" lon="1.75366">
        <ele>200.9</ele>
        <time>2024-05-05T12:36:43Z</time>
      </trkpt>
      <trkpt lat="49.0937" lon="1.75366">
        <ele>200.9</ele>
        <time>2024-05-05T12:36:49Z</time>
      </trkpt>
      <trkpt lat="49.09363" lon="1.75365">
        <ele>200.9</ele>
        <time>2024-05-05T12:36:54Z</time>
      </trkpt>
      <trkpt lat="49.09355" lon="1.75363">
        <ele>200.9</ele>
        <time>2024-05-05T12:36:59Z</time>
      </trkpt>
      <trkpt lat="49.09348" lon="1.75363">
        <ele>200.9</ele>
        <time>2024-05-05T12:37:05Z</time>
      </trkpt>
      <trkpt lat="49.09344" lon="1.75364">
        <ele>200.9</ele>
        <time>2024-05-05T12:37:10Z</time>
      </trkpt>
      <trkpt lat="49.09336" lon="1.75365">
        <ele>200.9</ele>
        <time>2024-05-05T12:37:16Z</time>
      </trkpt>
      <trkpt lat="49.09327" lon="1.75364">
        <ele>200.7</ele>
        <time>2024-05-05T12:37:22Z</time>
      </trkpt>
      <trkpt lat="49.0932" lon="1.75365">
        <ele>200.4</ele>
        <time>2024-05-05T12:37:28Z</time>
      </trkpt>
      <trkpt lat="49.09314" lon="1.75364">
        <ele>200.2</ele>
        <time>2024-05-05T12:37:34Z</time>
      </trkpt>
      <trkpt lat="49.0931" lon="1.75366">
        <ele>200</ele>
        <time>2024-05-05T12:37:39Z</time>
      </trkpt>
      <trkpt lat="49.09306" lon="1.75364">
        <ele>199.9</ele>
        <time>2024-05-05T12:37:45Z</time>
      </trkpt>
      <trkpt lat="49.09302" lon="1.75359">
        <ele>200.2</ele>
        <time>2024-05-05T12:37:50Z</time>
      </trkpt>
      <trkpt lat="49.09297" lon="1.75358">
        <ele>200.4</ele>
        <time>2024-05-05T12:37:56Z</time>
      </trkpt>
      <trkpt lat="49.09298" lon="1.75356">
        <ele>200.4</ele>
        <time>2024-05-05T12:38:01Z</time>
      </trkpt>
      <trkpt lat="49.09292" lon="1.75359">
        <ele>200.5</ele>
        <time>2024-05-05T12:38:07Z</time>
      </trkpt>
      <trkpt lat="49.09287" lon="1.7536">
        <ele>200.7</ele>
        <time>2024-05-05T12:38:12Z</time>
      </trkpt>
      <trkpt lat="49.09285" lon="1.7536">
        <ele>200.8</ele>
        <time>2024-05-05T12:38:17Z</time>
      </trkpt>
      <trkpt lat="49.09281" lon="1.75361">
        <ele>200.9</ele>
        <time>2024-05-05T12:38:23Z</time>
      </trkpt>
      <trkpt lat="49.09278" lon="1.7536">
        <ele>201</ele>
        <time>2024-05-05T12:38:28Z</time>
      </trkpt>
      <trkpt lat="49.09277" lon="1.75361">
        <ele>201</ele>
        <time>2024-05-05T12:38:33Z</time>
      </trkpt>
      <trkpt lat="49.09271" lon="1.75363">
        <ele>200.9</ele>
        <time>2024-05-05T12:38:39Z</time>
      </trkpt>
      <trkpt lat="49.09269" lon="1.75368">
        <ele>200.7</ele>
        <time>2024-05-05T12:38:44Z</time>
      </trkpt>
      <trkpt lat="49.09265" lon="1.75366">
        <ele>200.8</ele>
        <time>2024-05-05T12:38:50Z</time>
      </trkpt>
      <trkpt lat="49.09255" lon="1.75363">
        <ele>200.9</ele>
        <time>2024-05-05T12:38:56Z</time>
      </trkpt>
      <trkpt lat="49.09249" lon="1.75365">
        <ele>200.9</ele>
        <time>2024-05-05T12:39:02Z</time>
      </trkpt>
      <trkpt lat="49.09241" lon="1.75368">
        <ele>201.1</ele>
        <time>2024-05-05T12:39:08Z</time>
      </trkpt>
      <trkpt lat="49.09235" lon="1.75367">
        <ele>201.3</ele>
        <time>2024-05-05T12:39:14Z</time>
      </trkpt>
      <trkpt lat="49.09227" lon="1.75368">
        <ele>201.6</ele>
        <time>2024-05-05T12:39:20Z</time>
      </trkpt>
      <trkpt lat="49.0922" lon="1.75368">
        <ele>201.8</ele>
        <time>2024-05-05T12:39:25Z</time>
      </trkpt>
      <trkpt lat="49.09215" lon="1.75369">
        <ele>201.7</ele>
        <time>2024-05-05T12:39:30Z</time>
      </trkpt>
      <trkpt lat="49.09206" lon="1.75367">
        <ele>201.8</ele>
        <time>2024-05-05T12:39:36Z</time>
      </trkpt>
      <trkpt lat="49.09199" lon="1.75366">
        <ele>201.8</ele>
        <time>2024-05-05T12:39:42Z</time>
      </trkpt>
      <trkpt lat="49.09194" lon="1.75366">
        <ele>201.8</ele>
        <time>2024-05-05T12:39:47Z</time>
      </trkpt>
      <trkpt lat="49.0919" lon="1.75366">
        <ele>201.8</ele>
        <time>2024-05-05T12:39:52Z</time>
      </trkpt>
      <trkpt lat="49.09183" lon="1.75364">
        <ele>201.9</ele>
        <time>2024-05-05T12:39:58Z</time>
      </trkpt>
      <trkpt lat="49.09179" lon="1.75364">
        <ele>201.9</ele>
        <time>2024-05-05T12:40:03Z</time>
      </trkpt>
      <trkpt lat="49.0917" lon="1.75365">
        <ele>201.9</ele>
        <time>2024-05-05T12:40:09Z</time>
      </trkpt>
      <trkpt lat="49.09166" lon="1.75366">
        <ele>201.8</ele>
        <time>2024-05-05T12:40:15Z</time>
      </trkpt>
      <trkpt lat="49.09163" lon="1.75369">
        <ele>201.7</ele>
        <time>2024-05-05T12:40:21Z</time>
      </trkpt>
      <trkpt lat="49.09162" lon="1.7537">
        <ele>201.7</ele>
        <time>2024-05-05T12:40:26Z</time>
      </trkpt>
      <trkpt lat="49.09161" lon="1.75371">
        <ele>201.6</ele>
        <time>2024-05-05T12:40:31Z</time>
      </trkpt>
      <trkpt lat="49.09158" lon="1.75374">
        <ele>201.5</ele>
        <time>2024-05-05T12:40:37Z</time>
      </trkpt>
      <trkpt lat="49.09154" lon="1.75371">
        <ele>201.6</ele>
        <time>2024-05-05T12:40:43Z</time>
      </trkpt>
      <trkpt lat="49.09151" lon="1.75367">
        <ele>201.8</ele>
        <time>2024-05-05T12:40:48Z</time>
      </trkpt>
      <trkpt lat="49.0915" lon="1.75359">
        <ele>202</ele>
        <time>2024-05-05T12:40:54Z</time>
      </trkpt>
      <trkpt lat="49.0915" lon="1.75357">
        <ele>202</ele>
        <time>2024-05-05T12:41:00Z</time>
      </trkpt>
      <trkpt lat="49.0915" lon="1.75353">
        <ele>202</ele>
        <time>2024-05-05T12:41:05Z</time>
      </trkpt>
      <trkpt lat="49.09148" lon="1.75354">
        <ele>202</ele>
        <time>2024-05-05T12:41:11Z</time>
      </trkpt>
      <trkpt lat="49.09145" lon="1.75359">
        <ele>202</ele>
        <time>2024-05-05T12:41:17Z</time>
      </trkpt>
      <trkpt lat="49.09144" lon="1.75362">
        <ele>202</ele>
        <time>2024-05-05T12:41:23Z</time>
      </trkpt>
      <trkpt lat="49.09142" lon="1.75368">
        <ele>201.8</ele>
        <time>2024-05-05T12:41:28Z</time>
      </trkpt>
      <trkpt lat="49.09135" lon="1.75372">
        <ele>201.7</ele>
        <time>2024-05-05T12:41:34Z</time>
      </trkpt>
      <trkpt lat="49.09133" lon="1.75373">
        <ele>201.7</ele>
        <time>2024-05-05T12:41:39Z</time>
      </trkpt>
      <trkpt lat="49.09127" lon="1.7537">
        <ele>201.8</ele>
        <time>2024-05-05T12:41:45Z</time>
      </trkpt>
      <trkpt lat="49.09122" lon="1.75376">
        <ele>201.8</ele>
        <time>2024-05-05T12:41:51Z</time>
      </trkpt>
      <trkpt lat="49.09115" lon="1.75373">
        <ele>201.9</ele>
        <time>2024-05-05T12:41:57Z</time>
      </trkpt>
      <trkpt lat="49.0911" lon="1.75373">
        <ele>202</ele>
        <time>2024-05-05T12:42:03Z</time>
      </trkpt>
      <trkpt lat="49.09105" lon="1.75376">
        <ele>202.2</ele>
        <time>2024-05-05T12:42:08Z</time>
      </trkpt>
      <trkpt lat="49.09096" lon="1.75379">
        <ele>202.6</ele>
        <time>2024-05-05T12:42:14Z</time>
      </trkpt>
      <trkpt lat="49.0909" lon="1.75379">
        <ele>202.8</ele>
        <time>2024-05-05T12:42:20Z</time>
      </trkpt>
      <trkpt lat="49.09085" lon="1.75381">
        <ele>202.9</ele>
        <time>2024-05-05T12:42:26Z</time>
      </trkpt>
      <trkpt lat="49.09078" lon="1.75386">
        <ele>203</ele>
        <time>2024-05-05T12:42:32Z</time>
      </trkpt>
      <trkpt lat="49.09073" lon="1.75389">
        <ele>203</ele>
        <time>2024-05-05T12:42:37Z</time>
      </trkpt>
      <trkpt lat="49.09062" lon="1.75392">
        <ele>203</ele>
        <time>2024-05-05T12:42:43Z</time>
      </trkpt>
      <trkpt lat="49.09052" lon="1.75394">
        <ele>203</ele>
        <time>2024-05-05T12:42:48Z</time>
      </trkpt>
      <trkpt lat="49.09043" lon="1.75394">
        <ele>203</ele>
        <time>2024-05-05T12:42:54Z</time>
      </trkpt>
      <trkpt lat="49.09037" lon="1.75395">
        <ele>203</ele>
        <time>2024-05-05T12:43:00Z</time>
      </trkpt>
      <trkpt lat="49.09031" lon="1.75398">
        <ele>203</ele>
        <time>2024-05-05T12:43:05Z</time>
      </trkpt>
      <trkpt lat="49.09025" lon="1.75401">
        <ele>203</ele>
        <time>2024-05-05T12:43:10Z</time>
      </trkpt>
      <trkpt lat="49.09019" lon="1.75403">
        <ele>203</ele>
        <time>2024-05-05T12:43:16Z</time>
      </trkpt>
      <trkpt lat="49.09011" lon="1.75406">
        <ele>203</ele>
        <time>2024-05-05T12:43:22Z</time>
      </trkpt>
      <trkpt lat="49.09003" lon="1.75405">
        <ele>203</ele>
        <time>2024-05-05T12:43:27Z</time>
      </trkpt>
      <trkpt lat="49.08993" lon="1.75407">
        <ele>203</ele>
        <time>2024-05-05T12:43:32Z</time>
      </trkpt>
      <trkpt lat="49.08988" lon="1.75404">
        <ele>203</ele>
        <time>2024-05-05T12:43:37Z</time>
      </trkpt>
      <trkpt lat="49.0898" lon="1.75404">
        <ele>203</ele>
        <time>2024-05-05T12:43:43Z</time>
      </trkpt>
      <trkpt lat="49.08971" lon="1.75403">
        <ele>203</ele>
        <time>2024-05-05T12:43:48Z</time>
      </trkpt>
      <trkpt lat="49.08964" lon="1.75407">
        <ele>202.7</ele>
        <time>2024-05-05T12:43:54Z</time>
      </trkpt>
      <trkpt lat="49.08956" lon="1.75409">
        <ele>202.4</ele>
        <time>2024-05-05T12:44:00Z</time>
      </trkpt>
      <trkpt lat="49.08952" lon="1.75416">
        <ele>202.3</ele>
        <time>2024-05-05T12:44:06Z</time>
      </trkpt>
      <trkpt lat="49.08956" lon="1.7543">
        <ele>202.7</ele>
        <time>2024-05-05T12:44:11Z</time>
      </trkpt>
      <trkpt lat="49.08957" lon="1.75441">
        <ele>202.9</ele>
        <time>2024-05-05T12:44:16Z</time>
      </trkpt>
      <trkpt lat="49.08957" lon="1.75455">
        <ele>203</ele>
        <time>2024-05-05T12:44:22Z</time>
      </trkpt>
      <trkpt lat="49.08961" lon="1.75465">
        <ele>203</ele>
        <time>2024-05-05T12:44:28Z</time>
      </trkpt>
      <trkpt lat="49.08962" lon="1.75475">
        <ele>203</ele>
        <time>2024-05-05T12:44:33Z</time>
      </trkpt>
      <trkpt lat="49.08962" lon="1.75485">
        <ele>203</ele>
        <time>2024-05-05T12:44:39Z</time>
      </trkpt>
      <trkpt lat="49.08962" lon="1.75495">
        <ele>203</ele>
        <time>2024-05-05T12:44:44Z</time>
      </trkpt>
      <trkpt lat="49.08964" lon="1.75508">
        <ele>203</ele>
        <time>2024-05-05T12:44:50Z</time>
      </trkpt>
      <trkpt lat="49.08966" lon="1.75521">
        <ele>203</ele>
        <time>2024-05-05T12:44:56Z</time>
      </trkpt>
      <trkpt lat="49.08969" lon="1.75531">
        <ele>203.1</ele>
        <time>2024-05-05T12:45:02Z</time>
      </trkpt>
      <trkpt lat="49.08974" lon="1.75543">
        <ele>203.5</ele>
        <time>2024-05-05T12:45:08Z</time>
      </trkpt>
      <trkpt lat="49.08977" lon="1.75551">
        <ele>203.7</ele>
        <time>2024-05-05T12:45:13Z</time>
      </trkpt>
      <trkpt lat="49.08979" lon="1.75562">
        <ele>203.8</ele>
        <time>2024-05-05T12:45:19Z</time>
      </trkpt>
      <trkpt lat="49.08982" lon="1.75574">
        <ele>203.7</ele>
        <time>2024-05-05T12:45:24Z</time>
      </trkpt>
      <trkpt lat="49.08985" lon="1.75584">
        <ele>203.6</ele>
        <time>2024-05-05T12:45:30Z</time>
      </trkpt>
      <trkpt lat="49.08989" lon="1.75589">
        <ele>203.5</ele>
        <time>2024-05-05T12:45:35Z</time>
      </trkpt>
      <trkpt lat="49.08993" lon="1.75603">
        <ele>203.8</ele>
        <time>2024-05-05T12:45:41Z</time>
      </trkpt>
      <trkpt lat="49.08994" lon="1.75612">
        <ele>204</ele>
        <time>2024-05-05T12:45:46Z</time>
      </trkpt>
      <trkpt lat="49.08996" lon="1.75623">
        <ele>204</ele>
        <time>2024-05-05T12:45:52Z</time>
      </trkpt>
      <trkpt lat="49.08999" lon="1.7563">
        <ele>204</ele>
        <time>2024-05-05T12:45:57Z</time>
      </trkpt>
      <trkpt lat="49.09002" lon="1.75641">
        <ele>203.9</ele>
        <time>2024-05-05T12:46:03Z</time>
      </trkpt>
      <trkpt lat="49.09006" lon="1.75649">
        <ele>203.8</ele>
        <time>2024-05-05T12:46:08Z</time>
      </trkpt>
      <trkpt lat="49.09009" lon="1.75659">
        <ele>203.7</ele>
        <time>2024-05-05T12:46:13Z</time>
      </trkpt>
      <trkpt lat="49.09012" lon="1.75672">
        <ele>203.7</ele>
        <time>2024-05-05T12:46:19Z</time>
      </trkpt>
      <trkpt lat="49.09014" lon="1.75684">
        <ele>203.8</ele>
        <time>2024-05-05T12:46:24Z</time>
      </trkpt>
      <trkpt lat="49.09016" lon="1.75694">
        <ele>204</ele>
        <time>2024-05-05T12:46:30Z</time>
      </trkpt>
      <trkpt lat="49.09016" lon="1.75706">
        <ele>204</ele>
        <time>2024-05-05T12:46:36Z</time>
      </trkpt>
      <trkpt lat="49.09016" lon="1.75716">
        <ele>204</ele>
        <time>2024-05-05T12:46:41Z</time>
      </trkpt>
      <trkpt lat="49.09016" lon="1.75725">
        <ele>204</ele>
        <time>2024-05-05T12:46:46Z</time>
      </trkpt>
      <trkpt lat="49.09016" lon="1.75734">
        <ele>204</ele>
        <time>2024-05-05T12:46:52Z</time>
      </trkpt>
      <trkpt lat="49.09016" lon="1.75747">
        <ele>204</ele>
        <time>2024-05-05T12:46:58Z</time>
      </trkpt>
      <trkpt lat="49.09016" lon="1.75761">
        <ele>204</ele>
        <time>2024-05-05T12:47:04Z</time>
      </trkpt>
      <trkpt lat="49.09017" lon="1.75773">
        <ele>204</ele>
        <time>2024-05-05T12:47:09Z</time>
      </trkpt>
      <trkpt lat="49.0902" lon="1.75788">
        <ele>204</ele>
        <time>2024-05-05T12:47:15Z</time>
      </trkpt>
      <trkpt lat="49.09024" lon="1.75802">
        <ele>204</ele>
        <time>2024-05-05T12:47:21Z</time>
      </trkpt>
      <trkpt lat="49.09026" lon="1.75811">
        <ele>204</ele>
        <time>2024-05-05T12:47:26Z</time>
      </trkpt>
      <trkpt lat="49.09025" lon="1.75821">
        <ele>204</ele>
        <time>2024-05-05T12:47:32Z</time>
      </trkpt>
      <trkpt lat="49.09025" lon="1.7583">
        <ele>204</ele>
        <time>2024-05-05T12:47:38Z</time>
      </trkpt>
      <trkpt lat="49.09027" lon="1.7584">
        <ele>204</ele>
        <time>2024-05-05T12:47:43Z</time>
      </trkpt>
      <trkpt lat="49.09027" lon="1.75853">
        <ele>204</ele>
        <time>2024-05-05T12:47:49Z</time>
      </trkpt>
      <trkpt lat="49.09027" lon="1.75867">
        <ele>204</ele>
        <time>2024-05-05T12:47:55Z</time>
      </trkpt>
      <trkpt lat="49.09029" lon="1.75881">
        <ele>204</ele>
        <time>2024-05-05T12:48:01Z</time>
      </trkpt>
      <trkpt lat="49.09031" lon="1.7589">
        <ele>204</ele>
        <time>2024-05-05T12:48:06Z</time>
      </trkpt>
      <trkpt lat="49.09032" lon="1.75896">
        <ele>204</ele>
        <time>2024-05-05T12:48:11Z</time>
      </trkpt>
      <trkpt lat="49.09034" lon="1.75908">
        <ele>204</ele>
        <time>2024-05-05T12:48:17Z</time>
      </trkpt>
      <trkpt lat="49.09035" lon="1.75922">
        <ele>204</ele>
        <time>2024-05-05T12:48:23Z</time>
      </trkpt>
      <trkpt lat="49.09036" lon="1.75934">
        <ele>204</ele>
        <time>2024-05-05T12:48:28Z</time>
      </trkpt>
      <trkpt lat="49.09037" lon="1.75949">
        <ele>204</ele>
        <time>2024-05-05T12:48:34Z</time>
      </trkpt>
      <trkpt lat="49.09036" lon="1.7596">
        <ele>204</ele>
        <time>2024-05-05T12:48:40Z</time>
      </trkpt>
      <trkpt lat="49.09035" lon="1.75968">
        <ele>204</ele>
        <time>2024-05-05T12:48:46Z</time>
      </trkpt>
      <trkpt lat="49.09034" lon="1.7598">
        <ele>204</ele>
        <time>2024-05-05T12:48:51Z</time>
      </trkpt>
      <trkpt lat="49.09037" lon="1.75995">
        <ele>204</ele>
        <time>2024-05-05T12:48:57Z</time>
      </trkpt>
      <trkpt lat="49.09039" lon="1.76007">
        <ele>203.9</ele>
        <time>2024-05-05T12:49:03Z</time>
      </trkpt>
      <trkpt lat="49.0904" lon="1.7602">
        <ele>203.7</ele>
        <time>2024-05-05T12:49:09Z</time>
      </trkpt>
      <trkpt lat="49.09041" lon="1.76032">
        <ele>203.5</ele>
        <time>2024-05-05T12:49:14Z</time>
      </trkpt>
      <trkpt lat="49.09041" lon="1.76044">
        <ele>203.5</ele>
        <time>2024-05-05T12:49:19Z</time>
      </trkpt>
      <trkpt lat="49.09042" lon="1.76054">
        <ele>203.5</ele>
        <time>2024-05-05T12:49:24Z</time>
      </trkpt>
      <trkpt lat="49.09044" lon="1.76064">
        <ele>203.1</ele>
        <time>2024-05-05T12:49:30Z</time>
      </trkpt>
      <trkpt lat="49.09045" lon="1.76075">
        <ele>202.7</ele>
        <time>2024-05-05T12:49:35Z</time>
      </trkpt>
      <trkpt lat="49.09043" lon="1.76088">
        <ele>202.3</ele>
        <time>2024-05-05T12:49:41Z</time>
      </trkpt>
      <trkpt lat="49.09043" lon="1.76097">
        <ele>202.2</ele>
        <time>2024-05-05T12:49:46Z</time>
      </trkpt>
      <trkpt lat="49.09045" lon="1.76109">
        <ele>201.8</ele>
        <time>2024-05-05T12:49:52Z</time>
      </trkpt>
      <trkpt lat="49.09048" lon="1.76121">
        <ele>201.4</ele>
        <time>2024-05-05T12:49:57Z</time>
      </trkpt>
      <trkpt lat="49.0905" lon="1.76135">
        <ele>201.2</ele>
        <time>2024-05-05T12:50:03Z</time>
      </trkpt>
      <trkpt lat="49.09052" lon="1.76147">
        <ele>201.1</ele>
        <time>2024-05-05T12:50:09Z</time>
      </trkpt>
      <trkpt lat="49.09056" lon="1.76155">
        <ele>201</ele>
        <time>2024-05-05T12:50:15Z</time>
      </trkpt>
      <trkpt lat="49.09059" lon="1.76164">
        <ele>200.8</ele>
        <time>2024-05-05T12:50:21Z</time>
      </trkpt>
      <trkpt lat="49.09062" lon="1.76173">
        <ele>200.6</ele>
        <time>2024-05-05T12:50:26Z</time>
      </trkpt>
      <trkpt lat="49.09067" lon="1.76182">
        <ele>200.4</ele>
        <time>2024-05-05T12:50:31Z</time>
      </trkpt>
      <trkpt lat="49.09071" lon="1.7619">
        <ele>200.4</ele>
        <time>2024-05-05T12:50:36Z</time>
      </trkpt>
      <trkpt lat="49.09074" lon="1.762">
        <ele>200.4</ele>
        <time>2024-05-05T12:50:42Z</time>
      </trkpt>
      <trkpt lat="49.09076" lon="1.76211">
        <ele>200.3</ele>
        <time>2024-05-05T12:50:47Z</time>
      </trkpt>
      <trkpt lat="49.09079" lon="1.76223">
        <ele>200.1</ele>
        <time>2024-05-05T12:50:53Z</time>
      </trkpt>
      <trkpt lat="49.09084" lon="1.76234">
        <ele>200</ele>
        <time>2024-05-05T12:50:59Z</time>
      </trkpt>
      <trkpt lat="49.09087" lon="1.76243">
        <ele>199.9</ele>
        <time>2024-05-05T12:51:04Z</time>
      </trkpt>
      <trkpt lat="49.09091" lon="1.76252">
        <ele>199.7</ele>
        <time>2024-05-05T12:51:10Z</time>
      </trkpt>
      <trkpt lat="49.09096" lon="1.7626">
        <ele>199.7</ele>
        <time>2024-05-05T12:51:15Z</time>
      </trkpt>
      <trkpt lat="49.091" lon="1.76269">
        <ele>199.8</ele>
        <time>2024-05-05T12:51:21Z</time>
      </trkpt>
      <trkpt lat="49.09104" lon="1.76276">
        <ele>200</ele>
        <time>2024-05-05T12:51:26Z</time>
      </trkpt>
      <trkpt lat="49.09109" lon="1.76285">
        <ele>200</ele>
        <time>2024-05-05T12:51:32Z</time>
      </trkpt>
      <trkpt lat="49.09114" lon="1.76296">
        <ele>199.8</ele>
        <time>2024-05-05T12:51:38Z</time>
      </trkpt>
      <trkpt lat="49.09118" lon="1.76305">
        <ele>199.5</ele>
        <time>2024-05-05T12:51:44Z</time>
      </trkpt>
      <trkpt lat="49.0912" lon="1.76313">
        <ele>199.7</ele>
        <time>2024-05-05T12:51:49Z</time>
      </trkpt>
      <trkpt lat="49.09118" lon="1.76317">
        <ele>200</ele>
        <time>2024-05-05T12:51:55Z</time>
      </trkpt>
      <trkpt lat="49.09114" lon="1.76317">
        <ele>200.3</ele>
        <time>2024-05-05T12:52:01Z</time>
      </trkpt>
      <trkpt lat="49.09111" lon="1.76316">
        <ele>200.4</ele>
        <time>2024-05-05T12:52:06Z</time>
      </trkpt>
      <trkpt lat="49.09105" lon="1.76316">
        <ele>200.5</ele>
        <time>2024-05-05T12:52:12Z</time>
      </trkpt>
      <trkpt lat="49.09101" lon="1.76314">
        <ele>200.4</ele>
        <time>2024-05-05T12:52:18Z</time>
      </trkpt>
      <trkpt lat="49.09095" lon="1.76312">
        <ele>200.3</ele>
        <time>2024-05-05T12:52:23Z</time>
      </trkpt>
      <trkpt lat="49.09088" lon="1.7631">
        <ele>200.3</ele>
        <time>2024-05-05T12:52:29Z</time>
      </trkpt>
      <trkpt lat="49.09083" lon="1.76309">
        <ele>200.3</ele>
        <time>2024-05-05T12:52:34Z</time>
      </trkpt>
      <trkpt lat="49.09081" lon="1.76309">
        <ele>200.3</ele>
        <time>2024-05-05T12:52:39Z</time>
      </trkpt>
      <trkpt lat="49.0908" lon="1.76308">
        <ele>200.3</ele>
        <time>2024-05-05T12:52:45Z</time>
      </trkpt>
      <trkpt lat="49.09081" lon="1.76308">
        <ele>200.3</ele>
        <time>2024-05-05T12:52:51Z</time>
      </trkpt>
      <trkpt lat="49.09077" lon="1.76307">
        <ele>200.3</ele>
        <time>2024-05-05T12:52:56Z</time>
      </trkpt>
      <trkpt lat="49.0907" lon="1.76306">
        <ele>200.5</ele>
        <time>2024-05-05T12:53:02Z</time>
      </trkpt>
      <trkpt lat="49.09063" lon="1.76307">
        <ele>200.8</ele>
        <time>2024-05-05T12:53:07Z</time>
      </trkpt>
      <trkpt lat="49.09056" lon="1.76305">
        <ele>201</ele>
        <time>2024-05-05T12:53:13Z</time>
      </trkpt>
      <trkpt lat="49.0905" lon="1.76303">
        <ele>201.2</ele>
        <time>2024-05-05T12:53:19Z</time>
      </trkpt>
      <trkpt lat="49.09045" lon="1.76302">
        <ele>201.4</ele>
        <time>2024-05-05T12:53:24Z</time>
      </trkpt>
      <trkpt lat="49.09039" lon="1.76301">
        <ele>201.6</ele>
        <time>2024-05-05T12:53:29Z</time>
      </trkpt>
      <trkpt lat="49.09034" lon="1.763">
        <ele>201.8</ele>
        <time>2024-05-05T12:53:35Z</time>
      </trkpt>
      <trkpt lat="49.09028" lon="1.763">
        <ele>202</ele>
        <time>2024-05-05T12:53:41Z</time>
      </trkpt>
      <trkpt lat="49.09023" lon="1.763">
        <ele>202.2</ele>
        <time>2024-05-05T12:53:47Z</time>
      </trkpt>
      <trkpt lat="49.09016" lon="1.76301">
        <ele>202.4</ele>
        <time>2024-05-05T12:53:53Z</time>
      </trkpt>
      <trkpt lat="49.0901" lon="1.763">
        <ele>202.7</ele>
        <time>2024-05-05T12:53:58Z</time>
      </trkpt>
      <trkpt lat="49.09003" lon="1.763">
        <ele>202.9</ele>
        <time>2024-05-05T12:54:04Z</time>
      </trkpt>
      <trkpt lat="49.08998" lon="1.763">
        <ele>203</ele>
        <time>2024-05-05T12:54:10Z</time>
      </trkpt>
      <trkpt lat="49.08997" lon="1.76299">
        <ele>203</ele>
        <time>2024-05-05T12:54:15Z</time>
      </trkpt>
      <trkpt lat="49.08998" lon="1.76299">
        <ele>203</ele>
        <time>2024-05-05T12:54:21Z</time>
      </trkpt>
      <trkpt lat="49.08998" lon="1.76299">
        <ele>203</ele>
        <time>2024-05-05T12:54:27Z</time>
      </trkpt>
      <trkpt lat="49.08999" lon="1.76298">
        <ele>203</ele>
        <time>2024-05-05T12:54:33Z</time>
      </trkpt>
      <trkpt lat="49.08999" lon="1.76298">
        <ele>203</ele>
        <time>2024-05-05T12:54:39Z</time>
      </trkpt>
      <trkpt lat="49.08999" lon="1.76296">
        <ele>203</ele>
        <time>2024-05-05T12:54:45Z</time>
      </trkpt>
      <trkpt lat="49.09001" lon="1.76295">
        <ele>203</ele>
        <time>2024-05-05T12:54:51Z</time>
      </trkpt>
      <trkpt lat="49.09" lon="1.76296">
        <ele>203</ele>
        <time>2024-05-05T12:54:57Z</time>
      </trkpt>
      <trkpt lat="49.08992" lon="1.76293">
        <ele>203.1</ele>
        <time>2024-05-05T12:55:03Z</time>
      </trkpt>
      <trkpt lat="49.08985" lon="1.76291">
        <ele>203.3</ele>
        <time>2024-05-05T12:55:08Z</time>
      </trkpt>
      <trkpt lat="49.08981" lon="1.76286">
        <ele>203.5</ele>
        <time>2024-05-05T12:55:14Z</time>
      </trkpt>
      <trkpt lat="49.08978" lon="1.76279">
        <ele>203.7</ele>
        <time>2024-05-05T12:55:19Z</time>
      </trkpt>
      <trkpt lat="49.08977" lon="1.7627">
        <ele>203.8</ele>
        <time>2024-05-05T12:55:25Z</time>
      </trkpt>
      <trkpt lat="49.08976" lon="1.76262">
        <ele>203.8</ele>
        <time>2024-05-05T12:55:30Z</time>
      </trkpt>
      <trkpt lat="49.08976" lon="1.76253">
        <ele>203.8</ele>
        <time>2024-05-05T12:55:36Z</time>
      </trkpt>
      <trkpt lat="49.08976" lon="1.76243">
        <ele>203.5</ele>
        <time>2024-05-05T12:55:42Z</time>
      </trkpt>
      <trkpt lat="49.08975" lon="1.76234">
        <ele>203.3</ele>
        <time>2024-05-05T12:55:47Z</time>
      </trkpt>
      <trkpt lat="49.08976" lon="1.76226">
        <ele>203</ele>
        <time>2024-05-05T12:55:52Z</time>
      </trkpt>
      <trkpt lat="49.08978" lon="1.76216">
        <ele>202.8</ele>
        <time>2024-05-05T12:55:58Z</time>
      </trkpt>
      <trkpt lat="49.08981" lon="1.76206">
        <ele>202.7</ele>
        <time>2024-05-05T12:56:04Z</time>
      </trkpt>
      <trkpt lat="49.08983" lon="1.76197">
        <ele>202.6</ele>
        <time>2024-05-05T12:56:09Z</time>
      </trkpt>
      <trkpt lat="49.08986" lon="1.76186">
        <ele>202.5</ele>
        <time>2024-05-05T12:56:15Z</time>
      </trkpt>
      <trkpt lat="49.08986" lon="1.76177">
        <ele>202.5</ele>
        <time>2024-05-05T12:56:20Z</time>
      </trkpt>
      <trkpt lat="49.08985" lon="1.76165">
        <ele>202.6</ele>
        <time>2024-05-05T12:56:26Z</time>
      </trkpt>
      <trkpt lat="49.08986" lon="1.76155">
        <ele>203.1</ele>
        <time>2024-05-05T12:56:31Z</time>
      </trkpt>
      <trkpt lat="49.08986" lon="1.76148">
        <ele>203.5</ele>
        <time>2024-05-05T12:56:36Z</time>
      </trkpt>
      <trkpt lat="49.08985" lon="1.76138">
        <ele>204</ele>
        <time>2024-05-05T12:56:42Z</time>
      </trkpt>
      <trkpt lat="49.08985" lon="1.76133">
        <ele>204</ele>
        <time>2024-05-05T12:56:47Z</time>
      </trkpt>
      <trkpt lat="49.08986" lon="1.76124">
        <ele>204</ele>
        <time>2024-05-05T12:56:52Z</time>
      </trkpt>
      <trkpt lat="49.0899" lon="1.76111">
        <ele>204</ele>
        <time>2024-05-05T12:56:58Z</time>
      </trkpt>
      <trkpt lat="49.08985" lon="1.761">
        <ele>204</ele>
        <time>2024-05-05T12:57:04Z</time>
      </trkpt>
      <trkpt lat="49.0898" lon="1.76095">
        <ele>204</ele>
        <time>2024-05-05T12:57:09Z</time>
      </trkpt>
      <trkpt lat="49.08972" lon="1.76093">
        <ele>204</ele>
        <time>2024-05-05T12:57:15Z</time>
      </trkpt>
      <trkpt lat="49.08964" lon="1.76089">
        <ele>204</ele>
        <time>2024-05-05T12:57:21Z</time>
      </trkpt>
      <trkpt lat="49.08958" lon="1.76087">
        <ele>204</ele>
        <time>2024-05-05T12:57:27Z</time>
      </trkpt>
      <trkpt lat="49.08952" lon="1.76088">
        <ele>204</ele>
        <time>2024-05-05T12:57:32Z</time>
      </trkpt>
      <trkpt lat="49.08945" lon="1.76085">
        <ele>204</ele>
        <time>2024-05-05T12:57:38Z</time>
      </trkpt>
      <trkpt lat="49.08942" lon="1.76082">
        <ele>204</ele>
        <time>2024-05-05T12:57:44Z</time>
      </trkpt>
      <trkpt lat="49.08938" lon="1.76082">
        <ele>204</ele>
        <time>2024-05-05T12:57:50Z</time>
      </trkpt>
      <trkpt lat="49.08929" lon="1.76085">
        <ele>204</ele>
        <time>2024-05-05T12:57:55Z</time>
      </trkpt>
      <trkpt lat="49.08921" lon="1.76082">
        <ele>204</ele>
        <time>2024-05-05T12:58:01Z</time>
      </trkpt>
      <trkpt lat="49.08918" lon="1.76079">
        <ele>204</ele>
        <time>2024-05-05T12:58:06Z</time>
      </trkpt>
      <trkpt lat="49.08913" lon="1.76082">
        <ele>204</ele>
        <time>2024-05-05T12:58:12Z</time>
      </trkpt>
      <trkpt lat="49.08905" lon="1.76085">
        <ele>204</ele>
        <time>2024-05-05T12:58:17Z</time>
      </trkpt>
      <trkpt lat="49.089" lon="1.76086">
        <ele>204</ele>
        <time>2024-05-05T12:58:23Z</time>
      </trkpt>
      <trkpt lat="49.08894" lon="1.76084">
        <ele>204</ele>
        <time>2024-05-05T12:58:29Z</time>
      </trkpt>
      <trkpt lat="49.08891" lon="1.76088">
        <ele>204</ele>
        <time>2024-05-05T12:58:34Z</time>
      </trkpt>
      <trkpt lat="49.08887" lon="1.76088">
        <ele>204</ele>
        <time>2024-05-05T12:58:39Z</time>
      </trkpt>
      <trkpt lat="49.08883" lon="1.76088">
        <ele>204</ele>
        <time>2024-05-05T12:58:44Z</time>
      </trkpt>
      <trkpt lat="49.08877" lon="1.76083">
        <ele>204</ele>
        <time>2024-05-05T12:58:50Z</time>
      </trkpt>
      <trkpt lat="49.08871" lon="1.76081">
        <ele>204</ele>
        <time>2024-05-05T12:58:55Z</time>
      </trkpt>
      <trkpt lat="49.08864" lon="1.76082">
        <ele>204</ele>
        <time>2024-05-05T12:59:01Z</time>
      </trkpt>
      <trkpt lat="49.08857" lon="1.76081">
        <ele>203.9</ele>
        <time>2024-05-05T12:59:06Z</time>
      </trkpt>
      <trkpt lat="49.08857" lon="1.76077">
        <ele>203.9</ele>
        <time>2024-05-05T12:59:11Z</time>
      </trkpt>
      <trkpt lat="49.08847" lon="1.76077">
        <ele>203.6</ele>
        <time>2024-05-05T12:59:17Z</time>
      </trkpt>
      <trkpt lat="49.0884" lon="1.76076">
        <ele>203.4</ele>
        <time>2024-05-05T12:59:22Z</time>
      </trkpt>
      <trkpt lat="49.08835" lon="1.76077">
        <ele>203.3</ele>
        <time>2024-05-05T12:59:28Z</time>
      </trkpt>
      <trkpt lat="49.08828" lon="1.76074">
        <ele>203.3</ele>
        <time>2024-05-05T12:59:34Z</time>
      </trkpt>
      <trkpt lat="49.08823" lon="1.76072">
        <ele>203.3</ele>
        <time>2024-05-05T12:59:40Z</time>
      </trkpt>
      <trkpt lat="49.08816" lon="1.76068">
        <ele>203.2</ele>
        <time>2024-05-05T12:59:45Z</time>
      </trkpt>
      <trkpt lat="49.08809" lon="1.76064">
        <ele>203.1</ele>
        <time>2024-05-05T12:59:51Z</time>
      </trkpt>
      <trkpt lat="49.08803" lon="1.76059">
        <ele>202.9</ele>
        <time>2024-05-05T12:59:57Z</time>
      </trkpt>
      <trkpt lat="49.08795" lon="1.76053">
        <ele>202.6</ele>
        <time>2024-05-05T13:00:03Z</time>
      </trkpt>
      <trkpt lat="49.08792" lon="1.7605">
        <ele>202.5</ele>
        <time>2024-05-05T13:00:08Z</time>
      </trkpt>
      <trkpt lat="49.08786" lon="1.76051">
        <ele>202.3</ele>
        <time>2024-05-05T13:00:13Z</time>
      </trkpt>
      <trkpt lat="49.08781" lon="1.76048">
        <ele>202.1</ele>
        <time>2024-05-05T13:00:18Z</time>
      </trkpt>
      <trkpt lat="49.08775" lon="1.76049">
        <ele>201.9</ele>
        <time>2024-05-05T13:00:24Z</time>
      </trkpt>
      <trkpt lat="49.08768" lon="1.76048">
        <ele>201.7</ele>
        <time>2024-05-05T13:00:29Z</time>
      </trkpt>
      <trkpt lat="49.08763" lon="1.76047">
        <ele>201.5</ele>
        <time>2024-05-05T13:00:34Z</time>
      </trkpt>
      <trkpt lat="49.08755" lon="1.7605">
        <ele>201.2</ele>
        <time>2024-05-05T13:00:40Z</time>
      </trkpt>
      <trkpt lat="49.0875" lon="1.76051">
        <ele>201</ele>
        <time>2024-05-05T13:00:45Z</time>
      </trkpt>
      <trkpt lat="49.08744" lon="1.76056">
        <ele>200.8</ele>
        <time>2024-05-05T13:00:50Z</time>
      </trkpt>
      <trkpt lat="49.0874" lon="1.76061">
        <ele>200.8</ele>
        <time>2024-05-05T13:00:56Z</time>
      </trkpt>
      <trkpt lat="49.08736" lon="1.7607">
        <ele>200.7</ele>
        <time>2024-05-05T13:01:02Z</time>
      </trkpt>
      <trkpt lat="49.08735" lon="1.76074">
        <ele>200.8</ele>
        <time>2024-05-05T13:01:07Z</time>
      </trkpt>
      <trkpt lat="49.08735" lon="1.76074">
        <ele>200.8</ele>
        <time>2024-05-05T13:01:12Z</time>
      </trkpt>
      <trkpt lat="49.08735" lon="1.76074">
        <ele>200.8</ele>
        <time>2024-05-05T13:01:18Z</time>
      </trkpt>
      <trkpt lat="49.08735" lon="1.76074">
        <ele>200.8</ele>
        <time>2024-05-05T13:01:23Z</time>
      </trkpt>
      <trkpt lat="49.08735" lon="1.76074">
        <ele>200.7</ele>
        <time>2024-05-05T13:01:28Z</time>
      </trkpt>
      <trkpt lat="49.08731" lon="1.76081">
        <ele>200.6</ele>
        <time>2024-05-05T13:01:33Z</time>
      </trkpt>
      <trkpt lat="49.08728" lon="1.76091">
        <ele>200.6</ele>
        <time>2024-05-05T13:01:38Z</time>
      </trkpt>
      <trkpt lat="49.08726" lon="1.761">
        <ele>200.8</ele>
        <time>2024-05-05T13:01:44Z</time>
      </trkpt>
      <trkpt lat="49.08726" lon="1.76104">
        <ele>200.9</ele>
        <time>2024-05-05T13:01:49Z</time>
      </trkpt>
      <trkpt lat="49.08724" lon="1.76109">
        <ele>201</ele>
        <time>2024-05-05T13:01:55Z</time>
      </trkpt>
      <trkpt lat="49.08719" lon="1.76118">
        <ele>200.9</ele>
        <time>2024-05-05T13:02:00Z</time>
      </trkpt>
      <trkpt lat="49.08715" lon="1.76128">
        <ele>200.7</ele>
        <time>2024-05-05T13:02:06Z</time>
      </trkpt>
      <trkpt lat="49.0871" lon="1.76137">
        <ele>200.6</ele>
        <time>2024-05-05T13:02:12Z</time>
      </trkpt>
      <trkpt lat="49.08711" lon="1.76142">
        <ele>200.6</ele>
        <time>2024-05-05T13:02:17Z</time>
      </trkpt>
      <trkpt lat="49.0871" lon="1.76139">
        <ele>200.6</ele>
        <time>2024-05-05T13:02:23Z</time>
      </trkpt>
      <trkpt lat="49.08709" lon="1.76145">
        <ele>200.5</ele>
        <time>2024-05-05T13:02:29Z</time>
      </trkpt>
      <trkpt lat="49.08706" lon="1.76148">
        <ele>200.4</ele>
        <time>2024-05-05T13:02:34Z</time>
      </trkpt>
      <trkpt lat="49.08704" lon="1.7615">
        <ele>200.3</ele>
        <time>2024-05-05T13:02:39Z</time>
      </trkpt>
      <trkpt lat="49.08702" lon="1.76156">
        <ele>200.3</ele>
        <time>2024-05-05T13:02:45Z</time>
      </trkpt>
      <trkpt lat="49.08699" lon="1.76166">
        <ele>200.2</ele>
        <time>2024-05-05T13:02:50Z</time>
      </trkpt>
      <trkpt lat="49.08698" lon="1.76175">
        <ele>200.1</ele>
        <time>2024-05-05T13:02:55Z</time>
      </trkpt>
      <trkpt lat="49.08695" lon="1.76183">
        <ele>200</ele>
        <time>2024-05-05T13:03:01Z</time>
      </trkpt>
      <trkpt lat="49.08697" lon="1.76186">
        <ele>200</ele>
        <time>2024-05-05T13:03:07Z</time>
      </trkpt>
      <trkpt lat="49.08697" lon="1.76182">
        <ele>200</ele>
        <time>2024-05-05T13:03:13Z</time>
      </trkpt>
      <trkpt lat="49.08696" lon="1.76171">
        <ele>200.1</ele>
        <time>2024-05-05T13:03:18Z</time>
      </trkpt>
      <trkpt lat="49.08698" lon="1.76162">
        <ele>200.1</ele>
        <time>2024-05-05T13:03:24Z</time>
      </trkpt>
      <trkpt lat="49.08701" lon="1.76151">
        <ele>200.2</ele>
        <time>2024-05-05T13:03:30Z</time>
      </trkpt>
      <trkpt lat="49.08705" lon="1.76151">
        <ele>200.4</ele>
        <time>2024-05-05T13:03:35Z</time>
      </trkpt>
      <trkpt lat="49.08708" lon="1.76149">
        <ele>200.5</ele>
        <time>2024-05-05T13:03:40Z</time>
      </trkpt>
      <trkpt lat="49.08708" lon="1.76153">
        <ele>200.5</ele>
        <time>2024-05-05T13:03:45Z</time>
      </trkpt>
      <trkpt lat="49.08705" lon="1.76162">
        <ele>200.4</ele>
        <time>2024-05-05T13:03:50Z</time>
      </trkpt>
      <trkpt lat="49.08702" lon="1.7617">
        <ele>200.2</ele>
        <time>2024-05-05T13:03:55Z</time>
      </trkpt>
      <trkpt lat="49.08703" lon="1.76176">
        <ele>200.2</ele>
        <time>2024-05-05T13:04:00Z</time>
      </trkpt>
      <trkpt lat="49.087" lon="1.76189">
        <ele>200</ele>
        <time>2024-05-05T13:04:06Z</time>
      </trkpt>
      <trkpt lat="49.087" lon="1.76197">
        <ele>199.9</ele>
        <time>2024-05-05T13:04:12Z</time>
      </trkpt>
      <trkpt lat="49.08698" lon="1.76202">
        <ele>199.8</ele>
        <time>2024-05-05T13:04:17Z</time>
      </trkpt>
      <trkpt lat="49.08697" lon="1.76209">
        <ele>199.5</ele>
        <time>2024-05-05T13:04:22Z</time>
      </trkpt>
      <trkpt lat="49.08695" lon="1.76217">
        <ele>199.2</ele>
        <time>2024-05-05T13:04:28Z</time>
      </trkpt>
      <trkpt lat="49.08695" lon="1.76228">
        <ele>199</ele>
        <time>2024-05-05T13:04:34Z</time>
      </trkpt>
      <trkpt lat="49.08695" lon="1.76239">
        <ele>199</ele>
        <time>2024-05-05T13:04:40Z</time>
      </trkpt>
      <trkpt lat="49.08695" lon="1.76244">
        <ele>199</ele>
        <time>2024-05-05T13:04:45Z</time>
      </trkpt>
      <trkpt lat="49.08693" lon="1.76246">
        <ele>198.9</ele>
        <time>2024-05-05T13:04:51Z</time>
      </trkpt>
      <trkpt lat="49.08689" lon="1.76255">
        <ele>198.8</ele>
        <time>2024-05-05T13:04:56Z</time>
      </trkpt>
      <trkpt lat="49.08687" lon="1.76264">
        <ele>198.7</ele>
        <time>2024-05-05T13:05:02Z</time>
      </trkpt>
      <trkpt lat="49.08684" lon="1.76273">
        <ele>198.6</ele>
        <time>2024-05-05T13:05:08Z</time>
      </trkpt>
      <trkpt lat="49.08687" lon="1.76286">
        <ele>198.7</ele>
        <time>2024-05-05T13:05:13Z</time>
      </trkpt>
      <trkpt lat="49.08682" lon="1.76293">
        <ele>198.6</ele>
        <time>2024-05-05T13:05:18Z</time>
      </trkpt>
      <trkpt lat="49.08682" lon="1.76305">
        <ele>198.5</ele>
        <time>2024-05-05T13:05:24Z</time>
      </trkpt>
      <trkpt lat="49.08682" lon="1.76313">
        <ele>198.6</ele>
        <time>2024-05-05T13:05:30Z</time>
      </trkpt>
      <trkpt lat="49.08681" lon="1.76326">
        <ele>198.5</ele>
        <time>2024-05-05T13:05:35Z</time>
      </trkpt>
      <trkpt lat="49.0868" lon="1.76336">
        <ele>198.4</ele>
        <time>2024-05-05T13:05:40Z</time>
      </trkpt>
      <trkpt lat="49.08679" lon="1.76345">
        <ele>198.2</ele>
        <time>2024-05-05T13:05:46Z</time>
      </trkpt>
      <trkpt lat="49.08679" lon="1.76349">
        <ele>198.1</ele>
        <time>2024-05-05T13:05:51Z</time>
      </trkpt>
      <trkpt lat="49.0868" lon="1.76359">
        <ele>198</ele>
        <time>2024-05-05T13:05:57Z</time>
      </trkpt>
      <trkpt lat="49.08677" lon="1.76371">
        <ele>197.6</ele>
        <time>2024-05-05T13:06:03Z</time>
      </trkpt>
      <trkpt lat="49.08673" lon="1.76379">
        <ele>197.3</ele>
        <time>2024-05-05T13:06:08Z</time>
      </trkpt>
      <trkpt lat="49.0867" lon="1.76387">
        <ele>197.1</ele>
        <time>2024-05-05T13:06:14Z</time>
      </trkpt>
      <trkpt lat="49.08669" lon="1.76393">
        <ele>197.1</ele>
        <time>2024-05-05T13:06:19Z</time>
      </trkpt>
      <trkpt lat="49.08669" lon="1.76404">
        <ele>197.1</ele>
        <time>2024-05-05T13:06:25Z</time>
      </trkpt>
      <trkpt lat="49.08671" lon="1.76413">
        <ele>197.2</ele>
        <time>2024-05-05T13:06:31Z</time>
      </trkpt>
      <trkpt lat="49.08675" lon="1.76421">
        <ele>197.3</ele>
        <time>2024-05-05T13:06:36Z</time>
      </trkpt>
      <trkpt lat="49.08681" lon="1.76423">
        <ele>197.5</ele>
        <time>2024-05-05T13:06:41Z</time>
      </trkpt>
      <trkpt lat="49.08684" lon="1.7643">
        <ele>197.6</ele>
        <time>2024-05-05T13:06:47Z</time>
      </trkpt>
      <trkpt lat="49.08689" lon="1.76437">
        <ele>197.8</ele>
        <time>2024-05-05T13:06:53Z</time>
      </trkpt>
      <trkpt lat="49.08692" lon="1.76443">
        <ele>197.9</ele>
        <time>2024-05-05T13:06:58Z</time>
      </trkpt>
      <trkpt lat="49.08693" lon="1.76445">
        <ele>198</ele>
        <time>2024-05-05T13:07:04Z</time>
      </trkpt>
      <trkpt lat="49.08694" lon="1.76445">
        <ele>198</ele>
        <time>2024-05-05T13:07:09Z</time>
      </trkpt>
      <trkpt lat="49.08694" lon="1.76445">
        <ele>198</ele>
        <time>2024-05-05T13:07:15Z</time>
      </trkpt>
      <trkpt lat="49.08694" lon="1.76445">
        <ele>198</ele>
        <time>2024-05-05T13:07:21Z</time>
      </trkpt>
      <trkpt lat="49.08695" lon="1.76447">
        <ele>198</ele>
        <time>2024-05-05T13:07:27Z</time>
      </trkpt>
      <trkpt lat="49.08695" lon="1.76456">
        <ele>198</ele>
        <time>2024-05-05T13:07:32Z</time>
      </trkpt>
      <trkpt lat="49.08696" lon="1.76464">
        <ele>198.1</ele>
        <time>2024-05-05T13:07:37Z</time>
      </trkpt>
      <trkpt lat="49.08698" lon="1.76472">
        <ele>198.1</ele>
        <time>2024-05-05T13:07:42Z</time>
      </trkpt>
      <trkpt lat="49.087" lon="1.76479">
        <ele>198.2</ele>
        <time>2024-05-05T13:07:48Z</time>
      </trkpt>
      <trkpt lat="49.08702" lon="1.76489">
        <ele>198.3</ele>
        <time>2024-05-05T13:07:53Z</time>
      </trkpt>
      <trkpt lat="49.08706" lon="1.76498">
        <ele>198.4</ele>
        <time>2024-05-05T13:08:00Z</time>
      </trkpt>
      <trkpt lat="49.08708" lon="1.76502">
        <ele>198.5</ele>
        <time>2024-05-05T13:08:05Z</time>
      </trkpt>
      <trkpt lat="49.08709" lon="1.76504">
        <ele>198.5</ele>
        <time>2024-05-05T13:08:11Z</time>
      </trkpt>
      <trkpt lat="49.08711" lon="1.76508">
        <ele>198.6</ele>
        <time>2024-05-05T13:08:16Z</time>
      </trkpt>
      <trkpt lat="49.08713" lon="1.76514">
        <ele>198.7</ele>
        <time>2024-05-05T13:08:22Z</time>
      </trkpt>
      <trkpt lat="49.08714" lon="1.76517">
        <ele>198.7</ele>
        <time>2024-05-05T13:08:27Z</time>
      </trkpt>
      <trkpt lat="49.08714" lon="1.76526">
        <ele>198.7</ele>
        <time>2024-05-05T13:08:32Z</time>
      </trkpt>
      <trkpt lat="49.08715" lon="1.76532">
        <ele>198.7</ele>
        <time>2024-05-05T13:08:37Z</time>
      </trkpt>
      <trkpt lat="49.08718" lon="1.76541">
        <ele>198.9</ele>
        <time>2024-05-05T13:08:43Z</time>
      </trkpt>
      <trkpt lat="49.08717" lon="1.76547">
        <ele>198.8</ele>
        <time>2024-05-05T13:08:49Z</time>
      </trkpt>
      <trkpt lat="49.08713" lon="1.76555">
        <ele>198.7</ele>
        <time>2024-05-05T13:08:55Z</time>
      </trkpt>
      <trkpt lat="49.08709" lon="1.76565">
        <ele>198.5</ele>
        <time>2024-05-05T13:09:01Z</time>
      </trkpt>
      <trkpt lat="49.08709" lon="1.76573">
        <ele>198.5</ele>
        <time>2024-05-05T13:09:06Z</time>
      </trkpt>
      <trkpt lat="49.0871" lon="1.7658">
        <ele>198.6</ele>
        <time>2024-05-05T13:09:12Z</time>
      </trkpt>
      <trkpt lat="49.08709" lon="1.76583">
        <ele>198.5</ele>
        <time>2024-05-05T13:09:17Z</time>
      </trkpt>
      <trkpt lat="49.08709" lon="1.76594">
        <ele>198.5</ele>
        <time>2024-05-05T13:09:23Z</time>
      </trkpt>
      <trkpt lat="49.08708" lon="1.76602">
        <ele>198.5</ele>
        <time>2024-05-05T13:09:29Z</time>
      </trkpt>
      <trkpt lat="49.08706" lon="1.76609">
        <ele>198.4</ele>
        <time>2024-05-05T13:09:34Z</time>
      </trkpt>
      <trkpt lat="49.08704" lon="1.76618">
        <ele>198.4</ele>
        <time>2024-05-05T13:09:39Z</time>
      </trkpt>
      <trkpt lat="49.08704" lon="1.76625">
        <ele>198.3</ele>
        <time>2024-05-05T13:09:45Z</time>
      </trkpt>
      <trkpt lat="49.08704" lon="1.76627">
        <ele>198.3</ele>
        <time>2024-05-05T13:09:50Z</time>
      </trkpt>
      <trkpt lat="49.08705" lon="1.76636">
        <ele>198.4</ele>
        <time>2024-05-05T13:09:56Z</time>
      </trkpt>
      <trkpt lat="49.08704" lon="1.76644">
        <ele>198.3</ele>
        <time>2024-05-05T13:10:02Z</time>
      </trkpt>
      <trkpt lat="49.08703" lon="1.76653">
        <ele>198.3</ele>
        <time>2024-05-05T13:10:08Z</time>
      </trkpt>
      <trkpt lat="49.08704" lon="1.7666">
        <ele>198.4</ele>
        <time>2024-05-05T13:10:13Z</time>
      </trkpt>
      <trkpt lat="49.08704" lon="1.76667">
        <ele>198.3</ele>
        <time>2024-05-05T13:10:19Z</time>
      </trkpt>
      <trkpt lat="49.08707" lon="1.76675">
        <ele>198.3</ele>
        <time>2024-05-05T13:10:24Z</time>
      </trkpt>
      <trkpt lat="49.08708" lon="1.7668">
        <ele>198.2</ele>
        <time>2024-05-05T13:10:30Z</time>
      </trkpt>
      <trkpt lat="49.08708" lon="1.76681">
        <ele>198.2</ele>
        <time>2024-05-05T13:10:35Z</time>
      </trkpt>
      <trkpt lat="49.08707" lon="1.76688">
        <ele>198</ele>
        <time>2024-05-05T13:10:41Z</time>
      </trkpt>
      <trkpt lat="49.08703" lon="1.76694">
        <ele>197.6</ele>
        <time>2024-05-05T13:10:46Z</time>
      </trkpt>
      <trkpt lat="49.08704" lon="1.76699">
        <ele>197.7</ele>
        <time>2024-05-05T13:10:51Z</time>
      </trkpt>
      <trkpt lat="49.08705" lon="1.767">
        <ele>197.7</ele>
        <time>2024-05-05T13:10:56Z</time>
      </trkpt>
      <trkpt lat="49.08707" lon="1.76704">
        <ele>197.9</ele>
        <time>2024-05-05T13:11:02Z</time>
      </trkpt>
      <trkpt lat="49.0871" lon="1.76708">
        <ele>198.2</ele>
        <time>2024-05-05T13:11:07Z</time>
      </trkpt>
      <trkpt lat="49.08715" lon="1.76712">
        <ele>198.5</ele>
        <time>2024-05-05T13:11:13Z</time>
      </trkpt>
      <trkpt lat="49.08711" lon="1.76719">
        <ele>198.2</ele>
        <time>2024-05-05T13:11:19Z</time>
      </trkpt>
      <trkpt lat="49.0871" lon="1.76727">
        <ele>198.1</ele>
        <time>2024-05-05T13:11:25Z</time>
      </trkpt>
      <trkpt lat="49.08708" lon="1.76734">
        <ele>198</ele>
        <time>2024-05-05T13:11:30Z</time>
      </trkpt>
      <trkpt lat="49.08708" lon="1.76741">
        <ele>198</ele>
        <time>2024-05-05T13:11:36Z</time>
      </trkpt>
      <trkpt lat="49.08708" lon="1.7675">
        <ele>198</ele>
        <time>2024-05-05T13:11:42Z</time>
      </trkpt>
      <trkpt lat="49.08709" lon="1.76757">
        <ele>198.2</ele>
        <time>2024-05-05T13:11:48Z</time>
      </trkpt>
      <trkpt lat="49.08708" lon="1.76764">
        <ele>198.2</ele>
        <time>2024-05-05T13:11:54Z</time>
      </trkpt>
      <trkpt lat="49.08707" lon="1.76773">
        <ele>198.4</ele>
        <time>2024-05-05T13:12:00Z</time>
      </trkpt>
      <trkpt lat="49.08705" lon="1.7678">
        <ele>198.4</ele>
        <time>2024-05-05T13:12:06Z</time>
      </trkpt>
      <trkpt lat="49.08705" lon="1.76787">
        <ele>198.4</ele>
        <time>2024-05-05T13:12:11Z</time>
      </trkpt>
      <trkpt lat="49.08707" lon="1.76799">
        <ele>198.5</ele>
        <time>2024-05-05T13:12:17Z</time>
      </trkpt>
      <trkpt lat="49.08707" lon="1.7681">
        <ele>198.5</ele>
        <time>2024-05-05T13:12:23Z</time>
      </trkpt>
      <trkpt lat="49.08708" lon="1.76815">
        <ele>198.7</ele>
        <time>2024-05-05T13:12:28Z</time>
      </trkpt>
      <trkpt lat="49.08709" lon="1.7682">
        <ele>198.8</ele>
        <time>2024-05-05T13:12:35Z</time>
      </trkpt>
      <trkpt lat="49.0871" lon="1.7682">
        <ele>198.8</ele>
        <time>2024-05-05T13:12:41Z</time>
      </trkpt>
      <trkpt lat="49.0871" lon="1.76835">
        <ele>199</ele>
        <time>2024-05-05T13:12:47Z</time>
      </trkpt>
      <trkpt lat="49.08711" lon="1.76844">
        <ele>198.8</ele>
        <time>2024-05-05T13:12:52Z</time>
      </trkpt>
      <trkpt lat="49.08711" lon="1.76856">
        <ele>198.7</ele>
        <time>2024-05-05T13:12:58Z</time>
      </trkpt>
      <trkpt lat="49.08713" lon="1.76862">
        <ele>198.7</ele>
        <time>2024-05-05T13:13:03Z</time>
      </trkpt>
      <trkpt lat="49.08715" lon="1.7687">
        <ele>198.7</ele>
        <time>2024-05-05T13:13:08Z</time>
      </trkpt>
      <trkpt lat="49.08719" lon="1.76879">
        <ele>198.9</ele>
        <time>2024-05-05T13:13:14Z</time>
      </trkpt>
      <trkpt lat="49.08723" lon="1.76887">
        <ele>199</ele>
        <time>2024-05-05T13:13:20Z</time>
      </trkpt>
      <trkpt lat="49.08725" lon="1.76895">
        <ele>199</ele>
        <time>2024-05-05T13:13:25Z</time>
      </trkpt>
      <trkpt lat="49.08729" lon="1.76902">
        <ele>199</ele>
        <time>2024-05-05T13:13:30Z</time>
      </trkpt>
      <trkpt lat="49.08733" lon="1.76908">
        <ele>199</ele>
        <time>2024-05-05T13:13:36Z</time>
      </trkpt>
      <trkpt lat="49.08738" lon="1.76916">
        <ele>199</ele>
        <time>2024-05-05T13:13:41Z</time>
      </trkpt>
      <trkpt lat="49.08743" lon="1.76922">
        <ele>199</ele>
        <time>2024-05-05T13:13:46Z</time>
      </trkpt>
      <trkpt lat="49.08747" lon="1.76932">
        <ele>198.9</ele>
        <time>2024-05-05T13:13:51Z</time>
      </trkpt>
      <trkpt lat="49.08752" lon="1.76941">
        <ele>199</ele>
        <time>2024-05-05T13:13:57Z</time>
      </trkpt>
      <trkpt lat="49.08755" lon="1.76949">
        <ele>199</ele>
        <time>2024-05-05T13:14:03Z</time>
      </trkpt>
      <trkpt lat="49.0876" lon="1.7696">
        <ele>199</ele>
        <time>2024-05-05T13:14:09Z</time>
      </trkpt>
      <trkpt lat="49.08762" lon="1.76965">
        <ele>199</ele>
        <time>2024-05-05T13:14:14Z</time>
      </trkpt>
      <trkpt lat="49.08764" lon="1.76969">
        <ele>199</ele>
        <time>2024-05-05T13:14:20Z</time>
      </trkpt>
      <trkpt lat="49.08767" lon="1.76982">
        <ele>198.9</ele>
        <time>2024-05-05T13:14:26Z</time>
      </trkpt>
      <trkpt lat="49.08767" lon="1.76991">
        <ele>198.7</ele>
        <time>2024-05-05T13:14:32Z</time>
      </trkpt>
      <trkpt lat="49.08771" lon="1.76998">
        <ele>198.8</ele>
        <time>2024-05-05T13:14:37Z</time>
      </trkpt>
      <trkpt lat="49.08777" lon="1.7701">
        <ele>198.6</ele>
        <time>2024-05-05T13:14:43Z</time>
      </trkpt>
      <trkpt lat="49.0878" lon="1.77015">
        <ele>198.5</ele>
        <time>2024-05-05T13:14:48Z</time>
      </trkpt>
      <trkpt lat="49.08781" lon="1.77025">
        <ele>198.2</ele>
        <time>2024-05-05T13:14:54Z</time>
      </trkpt>
      <trkpt lat="49.08784" lon="1.77032">
        <ele>198.2</ele>
        <time>2024-05-05T13:14:59Z</time>
      </trkpt>
      <trkpt lat="49.08789" lon="1.7704">
        <ele>198.2</ele>
        <time>2024-05-05T13:15:05Z</time>
      </trkpt>
      <trkpt lat="49.08795" lon="1.77046">
        <ele>198.2</ele>
        <time>2024-05-05T13:15:11Z</time>
      </trkpt>
      <trkpt lat="49.08801" lon="1.77054">
        <ele>198</ele>
        <time>2024-05-05T13:15:17Z</time>
      </trkpt>
      <trkpt lat="49.08808" lon="1.77061">
        <ele>197.8</ele>
        <time>2024-05-05T13:15:22Z</time>
      </trkpt>
      <trkpt lat="49.08814" lon="1.77064">
        <ele>197.7</ele>
        <time>2024-05-05T13:15:27Z</time>
      </trkpt>
      <trkpt lat="49.08819" lon="1.77068">
        <ele>197.5</ele>
        <time>2024-05-05T13:15:32Z</time>
      </trkpt>
      <trkpt lat="49.08821" lon="1.77076">
        <ele>197.3</ele>
        <time>2024-05-05T13:15:37Z</time>
      </trkpt>
      <trkpt lat="49.08825" lon="1.77086">
        <ele>196.9</ele>
        <time>2024-05-05T13:15:43Z</time>
      </trkpt>
      <trkpt lat="49.0883" lon="1.77099">
        <ele>196.4</ele>
        <time>2024-05-05T13:15:49Z</time>
      </trkpt>
      <trkpt lat="49.08834" lon="1.77106">
        <ele>196.2</ele>
        <time>2024-05-05T13:15:54Z</time>
      </trkpt>
      <trkpt lat="49.08837" lon="1.77112">
        <ele>196.1</ele>
        <time>2024-05-05T13:16:00Z</time>
      </trkpt>
      <trkpt lat="49.08838" lon="1.77118">
        <ele>195.8</ele>
        <time>2024-05-05T13:16:06Z</time>
      </trkpt>
      <trkpt lat="49.0884" lon="1.77122">
        <ele>195.6</ele>
        <time>2024-05-05T13:16:11Z</time>
      </trkpt>
      <trkpt lat="49.0884" lon="1.77131">
        <ele>195.2</ele>
        <time>2024-05-05T13:16:17Z</time>
      </trkpt>
      <trkpt lat="49.08843" lon="1.7714">
        <ele>195</ele>
        <time>2024-05-05T13:16:22Z</time>
      </trkpt>
      <trkpt lat="49.08845" lon="1.77149">
        <ele>194.6</ele>
        <time>2024-05-05T13:16:28Z</time>
      </trkpt>
      <trkpt lat="49.08849" lon="1.7716">
        <ele>194.6</ele>
        <time>2024-05-05T13:16:34Z</time>
      </trkpt>
      <trkpt lat="49.08853" lon="1.77168">
        <ele>194.8</ele>
        <time>2024-05-05T13:16:39Z</time>
      </trkpt>
      <trkpt lat="49.08857" lon="1.77175">
        <ele>195.4</ele>
        <time>2024-05-05T13:16:45Z</time>
      </trkpt>
      <trkpt lat="49.08861" lon="1.77183">
        <ele>196</ele>
        <time>2024-05-05T13:16:50Z</time>
      </trkpt>
      <trkpt lat="49.08868" lon="1.77192">
        <ele>196.5</ele>
        <time>2024-05-05T13:16:56Z</time>
      </trkpt>
      <trkpt lat="49.08871" lon="1.77196">
        <ele>196.6</ele>
        <time>2024-05-05T13:17:02Z</time>
      </trkpt>
      <trkpt lat="49.08874" lon="1.77203">
        <ele>196.6</ele>
        <time>2024-05-05T13:17:07Z</time>
      </trkpt>
      <trkpt lat="49.08877" lon="1.77211">
        <ele>196.6</ele>
        <time>2024-05-05T13:17:13Z</time>
      </trkpt>
      <trkpt lat="49.08878" lon="1.77217">
        <ele>196.4</ele>
        <time>2024-05-05T13:17:18Z</time>
      </trkpt>
      <trkpt lat="49.08879" lon="1.77221">
        <ele>196.3</ele>
        <time>2024-05-05T13:17:24Z</time>
      </trkpt>
      <trkpt lat="49.08886" lon="1.7723">
        <ele>196.8</ele>
        <time>2024-05-05T13:17:30Z</time>
      </trkpt>
      <trkpt lat="49.0889" lon="1.77238">
        <ele>197.1</ele>
        <time>2024-05-05T13:17:35Z</time>
      </trkpt>
      <trkpt lat="49.08896" lon="1.77245">
        <ele>197.2</ele>
        <time>2024-05-05T13:17:41Z</time>
      </trkpt>
      <trkpt lat="49.08903" lon="1.77252">
        <ele>197.5</ele>
        <time>2024-05-05T13:17:47Z</time>
      </trkpt>
      <trkpt lat="49.08908" lon="1.77259">
        <ele>197.7</ele>
        <time>2024-05-05T13:17:52Z</time>
      </trkpt>
      <trkpt lat="49.08913" lon="1.77267">
        <ele>197.9</ele>
        <time>2024-05-05T13:17:58Z</time>
      </trkpt>
      <trkpt lat="49.08918" lon="1.77271">
        <ele>198</ele>
        <time>2024-05-05T13:18:03Z</time>
      </trkpt>
      <trkpt lat="49.08924" lon="1.77272">
        <ele>198.3</ele>
        <time>2024-05-05T13:18:09Z</time>
      </trkpt>
      <trkpt lat="49.08928" lon="1.77275">
        <ele>198.4</ele>
        <time>2024-05-05T13:18:15Z</time>
      </trkpt>
      <trkpt lat="49.08934" lon="1.77274">
        <ele>198.6</ele>
        <time>2024-05-05T13:18:20Z</time>
      </trkpt>
      <trkpt lat="49.08941" lon="1.77274">
        <ele>198.9</ele>
        <time>2024-05-05T13:18:26Z</time>
      </trkpt>
      <trkpt lat="49.08945" lon="1.77273">
        <ele>199</ele>
        <time>2024-05-05T13:18:31Z</time>
      </trkpt>
      <trkpt lat="49.08951" lon="1.77271">
        <ele>199.3</ele>
        <time>2024-05-05T13:18:36Z</time>
      </trkpt>
      <trkpt lat="49.08954" lon="1.7727">
        <ele>199.3</ele>
        <time>2024-05-05T13:18:41Z</time>
      </trkpt>
      <trkpt lat="49.0896" lon="1.77266">
        <ele>199.6</ele>
        <time>2024-05-05T13:18:47Z</time>
      </trkpt>
      <trkpt lat="49.08968" lon="1.7726">
        <ele>199.8</ele>
        <time>2024-05-05T13:18:53Z</time>
      </trkpt>
      <trkpt lat="49.08973" lon="1.7726">
        <ele>200</ele>
        <time>2024-05-05T13:18:58Z</time>
      </trkpt>
      <trkpt lat="49.08979" lon="1.77267">
        <ele>200</ele>
        <time>2024-05-05T13:19:04Z</time>
      </trkpt>
      <trkpt lat="49.08979" lon="1.77272">
        <ele>200</ele>
        <time>2024-05-05T13:19:09Z</time>
      </trkpt>
      <trkpt lat="49.08978" lon="1.77275">
        <ele>200</ele>
        <time>2024-05-05T13:19:15Z</time>
      </trkpt>
      <trkpt lat="49.08979" lon="1.7728">
        <ele>200</ele>
        <time>2024-05-05T13:19:21Z</time>
      </trkpt>
      <trkpt lat="49.0898" lon="1.77283">
        <ele>200</ele>
        <time>2024-05-05T13:19:27Z</time>
      </trkpt>
      <trkpt lat="49.0898" lon="1.77291">
        <ele>200</ele>
        <time>2024-05-05T13:19:32Z</time>
      </trkpt>
      <trkpt lat="49.0898" lon="1.77297">
        <ele>200</ele>
        <time>2024-05-05T13:19:38Z</time>
      </trkpt>
      <trkpt lat="49.0898" lon="1.77299">
        <ele>200</ele>
        <time>2024-05-05T13:19:43Z</time>
      </trkpt>
      <trkpt lat="49.0898" lon="1.77299">
        <ele>200</ele>
        <time>2024-05-05T13:19:49Z</time>
      </trkpt>
      <trkpt lat="49.08981" lon="1.77298">
        <ele>200</ele>
        <time>2024-05-05T13:19:55Z</time>
      </trkpt>
      <trkpt lat="49.08981" lon="1.773">
        <ele>200</ele>
        <time>2024-05-05T13:20:00Z</time>
      </trkpt>
      <trkpt lat="49.08982" lon="1.77301">
        <ele>200</ele>
        <time>2024-05-05T13:20:06Z</time>
      </trkpt>
      <trkpt lat="49.0898" lon="1.7731">
        <ele>199.9</ele>
        <time>2024-05-05T13:20:12Z</time>
      </trkpt>
      <trkpt lat="49.08981" lon="1.77319">
        <ele>199.7</ele>
        <time>2024-05-05T13:20:17Z</time>
      </trkpt>
      <trkpt lat="49.08982" lon="1.77327">
        <ele>199.5</ele>
        <time>2024-05-05T13:20:23Z</time>
      </trkpt>
      <trkpt lat="49.08982" lon="1.77335">
        <ele>199.3</ele>
        <time>2024-05-05T13:20:29Z</time>
      </trkpt>
      <trkpt lat="49.08982" lon="1.7734">
        <ele>199.3</ele>
        <time>2024-05-05T13:20:34Z</time>
      </trkpt>
      <trkpt lat="49.08984" lon="1.77348">
        <ele>199.2</ele>
        <time>2024-05-05T13:20:39Z</time>
      </trkpt>
      <trkpt lat="49.08986" lon="1.77358">
        <ele>199.1</ele>
        <time>2024-05-05T13:20:44Z</time>
      </trkpt>
      <trkpt lat="49.08988" lon="1.77366">
        <ele>199</ele>
        <time>2024-05-05T13:20:50Z</time>
      </trkpt>
      <trkpt lat="49.08991" lon="1.77373">
        <ele>199</ele>
        <time>2024-05-05T13:20:55Z</time>
      </trkpt>
      <trkpt lat="49.08994" lon="1.77378">
        <ele>199</ele>
        <time>2024-05-05T13:21:01Z</time>
      </trkpt>
      <trkpt lat="49.08998" lon="1.77383">
        <ele>199</ele>
        <time>2024-05-05T13:21:06Z</time>
      </trkpt>
      <trkpt lat="49.08998" lon="1.77388">
        <ele>199</ele>
        <time>2024-05-05T13:21:12Z</time>
      </trkpt>
      <trkpt lat="49.08995" lon="1.77395">
        <ele>199</ele>
        <time>2024-05-05T13:21:17Z</time>
      </trkpt>
      <trkpt lat="49.08995" lon="1.77397">
        <ele>199</ele>
        <time>2024-05-05T13:21:23Z</time>
      </trkpt>
      <trkpt lat="49.08997" lon="1.77402">
        <ele>199</ele>
        <time>2024-05-05T13:21:29Z</time>
      </trkpt>
      <trkpt lat="49.08999" lon="1.77406">
        <ele>199</ele>
        <time>2024-05-05T13:21:34Z</time>
      </trkpt>
      <trkpt lat="49.09001" lon="1.77411">
        <ele>199</ele>
        <time>2024-05-05T13:21:40Z</time>
      </trkpt>
      <trkpt lat="49.09001" lon="1.77415">
        <ele>199</ele>
        <time>2024-05-05T13:21:46Z</time>
      </trkpt>
      <trkpt lat="49.09002" lon="1.77422">
        <ele>199</ele>
        <time>2024-05-05T13:21:51Z</time>
      </trkpt>
      <trkpt lat="49.09002" lon="1.77429">
        <ele>199</ele>
        <time>2024-05-05T13:21:56Z</time>
      </trkpt>
      <trkpt lat="49.08998" lon="1.77434">
        <ele>199</ele>
        <time>2024-05-05T13:22:02Z</time>
      </trkpt>
      <trkpt lat="49.08997" lon="1.77438">
        <ele>199</ele>
        <time>2024-05-05T13:22:08Z</time>
      </trkpt>
      <trkpt lat="49.08997" lon="1.77443">
        <ele>199</ele>
        <time>2024-05-05T13:22:13Z</time>
      </trkpt>
      <trkpt lat="49.08994" lon="1.77449">
        <ele>199</ele>
        <time>2024-05-05T13:22:18Z</time>
      </trkpt>
      <trkpt lat="49.08993" lon="1.77455">
        <ele>199</ele>
        <time>2024-05-05T13:22:24Z</time>
      </trkpt>
      <trkpt lat="49.08994" lon="1.77462">
        <ele>199</ele>
        <time>2024-05-05T13:22:29Z</time>
      </trkpt>
      <trkpt lat="49.08998" lon="1.77466">
        <ele>199</ele>
        <time>2024-05-05T13:22:35Z</time>
      </trkpt>
      <trkpt lat="49.08996" lon="1.7747">
        <ele>199</ele>
        <time>2024-05-05T13:22:40Z</time>
      </trkpt>
      <trkpt lat="49.08996" lon="1.77474">
        <ele>199</ele>
        <time>2024-05-05T13:22:45Z</time>
      </trkpt>
      <trkpt lat="49.08997" lon="1.77479">
        <ele>199</ele>
        <time>2024-05-05T13:22:50Z</time>
      </trkpt>
      <trkpt lat="49.08998" lon="1.77488">
        <ele>199</ele>
        <time>2024-05-05T13:22:55Z</time>
      </trkpt>
      <trkpt lat="49.08998" lon="1.77495">
        <ele>198.9</ele>
        <time>2024-05-05T13:23:01Z</time>
      </trkpt>
      <trkpt lat="49.08999" lon="1.77504">
        <ele>199</ele>
        <time>2024-05-05T13:23:07Z</time>
      </trkpt>
      <trkpt lat="49.08999" lon="1.77508">
        <ele>199</ele>
        <time>2024-05-05T13:23:13Z</time>
      </trkpt>
      <trkpt lat="49.08999" lon="1.77515">
        <ele>198.9</ele>
        <time>2024-05-05T13:23:18Z</time>
      </trkpt>
      <trkpt lat="49.08996" lon="1.7752">
        <ele>198.9</ele>
        <time>2024-05-05T13:23:24Z</time>
      </trkpt>
      <trkpt lat="49.08995" lon="1.77524">
        <ele>198.8</ele>
        <time>2024-05-05T13:23:30Z</time>
      </trkpt>
      <trkpt lat="49.08994" lon="1.77525">
        <ele>198.8</ele>
        <time>2024-05-05T13:23:36Z</time>
      </trkpt>
      <trkpt lat="49.08993" lon="1.77532">
        <ele>198.7</ele>
        <time>2024-05-05T13:23:42Z</time>
      </trkpt>
      <trkpt lat="49.08992" lon="1.77542">
        <ele>198.6</ele>
        <time>2024-05-05T13:23:48Z</time>
      </trkpt>
      <trkpt lat="49.08989" lon="1.7755">
        <ele>198.3</ele>
        <time>2024-05-05T13:23:54Z</time>
      </trkpt>
      <trkpt lat="49.08991" lon="1.77559">
        <ele>198.3</ele>
        <time>2024-05-05T13:24:00Z</time>
      </trkpt>
      <trkpt lat="49.0899" lon="1.7756">
        <ele>198.3</ele>
        <time>2024-05-05T13:24:05Z</time>
      </trkpt>
      <trkpt lat="49.08989" lon="1.77566">
        <ele>198.2</ele>
        <time>2024-05-05T13:24:11Z</time>
      </trkpt>
      <trkpt lat="49.08988" lon="1.77576">
        <ele>198.1</ele>
        <time>2024-05-05T13:24:17Z</time>
      </trkpt>
      <trkpt lat="49.08989" lon="1.77586">
        <ele>198.2</ele>
        <time>2024-05-05T13:24:23Z</time>
      </trkpt>
      <trkpt lat="49.08989" lon="1.7759">
        <ele>198.1</ele>
        <time>2024-05-05T13:24:29Z</time>
      </trkpt>
      <trkpt lat="49.08988" lon="1.776">
        <ele>197.8</ele>
        <time>2024-05-05T13:24:35Z</time>
      </trkpt>
      <trkpt lat="49.08988" lon="1.77606">
        <ele>197.7</ele>
        <time>2024-05-05T13:24:40Z</time>
      </trkpt>
      <trkpt lat="49.08989" lon="1.77615">
        <ele>197.8</ele>
        <time>2024-05-05T13:24:46Z</time>
      </trkpt>
      <trkpt lat="49.08991" lon="1.77622">
        <ele>198</ele>
        <time>2024-05-05T13:24:51Z</time>
      </trkpt>
      <trkpt lat="49.08989" lon="1.77629">
        <ele>198.3</ele>
        <time>2024-05-05T13:24:57Z</time>
      </trkpt>
      <trkpt lat="49.08987" lon="1.77632">
        <ele>198.3</ele>
        <time>2024-05-05T13:25:03Z</time>
      </trkpt>
      <trkpt lat="49.08986" lon="1.77639">
        <ele>198.5</ele>
        <time>2024-05-05T13:25:08Z</time>
      </trkpt>
      <trkpt lat="49.08984" lon="1.77649">
        <ele>198.4</ele>
        <time>2024-05-05T13:25:14Z</time>
      </trkpt>
      <trkpt lat="49.08979" lon="1.77657">
        <ele>198.3</ele>
        <time>2024-05-05T13:25:20Z</time>
      </trkpt>
      <trkpt lat="49.08981" lon="1.77668">
        <ele>198.3</ele>
        <time>2024-05-05T13:25:25Z</time>
      </trkpt>
      <trkpt lat="49.08982" lon="1.77677">
        <ele>198.6</ele>
        <time>2024-05-05T13:25:30Z</time>
      </trkpt>
      <trkpt lat="49.0898" lon="1.77685">
        <ele>198.8</ele>
        <time>2024-05-05T13:25:36Z</time>
      </trkpt>
      <trkpt lat="49.08976" lon="1.77693">
        <ele>199</ele>
        <time>2024-05-05T13:25:42Z</time>
      </trkpt>
      <trkpt lat="49.08975" lon="1.777">
        <ele>199</ele>
        <time>2024-05-05T13:25:47Z</time>
      </trkpt>
      <trkpt lat="49.08975" lon="1.77705">
        <ele>199</ele>
        <time>2024-05-05T13:25:52Z</time>
      </trkpt>
      <trkpt lat="49.08978" lon="1.77713">
        <ele>199.1</ele>
        <time>2024-05-05T13:25:58Z</time>
      </trkpt>
      <trkpt lat="49.08977" lon="1.77721">
        <ele>199.2</ele>
        <time>2024-05-05T13:26:03Z</time>
      </trkpt>
      <trkpt lat="49.08979" lon="1.77733">
        <ele>199.5</ele>
        <time>2024-05-05T13:26:09Z</time>
      </trkpt>
      <trkpt lat="49.08981" lon="1.77743">
        <ele>199.8</ele>
        <time>2024-05-05T13:26:15Z</time>
      </trkpt>
      <trkpt lat="49.08981" lon="1.7775">
        <ele>200</ele>
        <time>2024-05-05T13:26:21Z</time>
      </trkpt>
      <trkpt lat="49.08984" lon="1.77756">
        <ele>200</ele>
        <time>2024-05-05T13:26:27Z</time>
      </trkpt>
      <trkpt lat="49.08986" lon="1.77764">
        <ele>200</ele>
        <time>2024-05-05T13:26:33Z</time>
      </trkpt>
      <trkpt lat="49.08987" lon="1.77772">
        <ele>200</ele>
        <time>2024-05-05T13:26:39Z</time>
      </trkpt>
      <trkpt lat="49.08989" lon="1.77778">
        <ele>200</ele>
        <time>2024-05-05T13:26:44Z</time>
      </trkpt>
      <trkpt lat="49.0899" lon="1.77782">
        <ele>200.1</ele>
        <time>2024-05-05T13:26:49Z</time>
      </trkpt>
      <trkpt lat="49.08991" lon="1.7779">
        <ele>200.1</ele>
        <time>2024-05-05T13:26:55Z</time>
      </trkpt>
      <trkpt lat="49.08992" lon="1.77801">
        <ele>200.2</ele>
        <time>2024-05-05T13:27:01Z</time>
      </trkpt>
      <trkpt lat="49.08992" lon="1.7781">
        <ele>200.4</ele>
        <time>2024-05-05T13:27:07Z</time>
      </trkpt>
      <trkpt lat="49.08996" lon="1.77822">
        <ele>200.6</ele>
        <time>2024-05-05T13:27:13Z</time>
      </trkpt>
      <trkpt lat="49.08998" lon="1.77829">
        <ele>200.8</ele>
        <time>2024-05-05T13:27:18Z</time>
      </trkpt>
      <trkpt lat="49.09" lon="1.77834">
        <ele>201</ele>
        <time>2024-05-05T13:27:24Z</time>
      </trkpt>
      <trkpt lat="49.08998" lon="1.77839">
        <ele>201</ele>
        <time>2024-05-05T13:27:30Z</time>
      </trkpt>
      <trkpt lat="49.08997" lon="1.77845">
        <ele>201</ele>
        <time>2024-05-05T13:27:35Z</time>
      </trkpt>
      <trkpt lat="49.08995" lon="1.77853">
        <ele>201</ele>
        <time>2024-05-05T13:27:41Z</time>
      </trkpt>
      <trkpt lat="49.08993" lon="1.77861">
        <ele>201</ele>
        <time>2024-05-05T13:27:47Z</time>
      </trkpt>
      <trkpt lat="49.08994" lon="1.77872">
        <ele>201</ele>
        <time>2024-05-05T13:27:52Z</time>
      </trkpt>
      <trkpt lat="49.08995" lon="1.77882">
        <ele>201</ele>
        <time>2024-05-05T13:27:58Z</time>
      </trkpt>
      <trkpt lat="49.08998" lon="1.77892">
        <ele>201</ele>
        <time>2024-05-05T13:28:04Z</time>
      </trkpt>
      <trkpt lat="49.08999" lon="1.779">
        <ele>201</ele>
        <time>2024-05-05T13:28:09Z</time>
      </trkpt>
      <trkpt lat="49.08998" lon="1.77908">
        <ele>201</ele>
        <time>2024-05-05T13:28:14Z</time>
      </trkpt>
      <trkpt lat="49.08997" lon="1.77917">
        <ele>201.1</ele>
        <time>2024-05-05T13:28:20Z</time>
      </trkpt>
      <trkpt lat="49.08995" lon="1.77926">
        <ele>201.2</ele>
        <time>2024-05-05T13:28:25Z</time>
      </trkpt>
      <trkpt lat="49.08995" lon="1.77936">
        <ele>201.2</ele>
        <time>2024-05-05T13:28:30Z</time>
      </trkpt>
      <trkpt lat="49.08995" lon="1.77945">
        <ele>201.2</ele>
        <time>2024-05-05T13:28:36Z</time>
      </trkpt>
      <trkpt lat="49.08995" lon="1.77955">
        <ele>201.2</ele>
        <time>2024-05-05T13:28:41Z</time>
      </trkpt>
      <trkpt lat="49.08995" lon="1.77966">
        <ele>201.2</ele>
        <time>2024-05-05T13:28:47Z</time>
      </trkpt>
      <trkpt lat="49.08998" lon="1.77975">
        <ele>201.1</ele>
        <time>2024-05-05T13:28:53Z</time>
      </trkpt>
      <trkpt lat="49.09001" lon="1.77979">
        <ele>201</ele>
        <time>2024-05-05T13:28:59Z</time>
      </trkpt>
      <trkpt lat="49.09003" lon="1.77991">
        <ele>201</ele>
        <time>2024-05-05T13:29:05Z</time>
      </trkpt>
      <trkpt lat="49.09003" lon="1.78001">
        <ele>201</ele>
        <time>2024-05-05T13:29:10Z</time>
      </trkpt>
      <trkpt lat="49.09002" lon="1.78012">
        <ele>201</ele>
        <time>2024-05-05T13:29:16Z</time>
      </trkpt>
      <trkpt lat="49.09" lon="1.78023">
        <ele>201</ele>
        <time>2024-05-05T13:29:22Z</time>
      </trkpt>
      <trkpt lat="49.08999" lon="1.78032">
        <ele>201</ele>
        <time>2024-05-05T13:29:28Z</time>
      </trkpt>
      <trkpt lat="49.08999" lon="1.78039">
        <ele>201</ele>
        <time>2024-05-05T13:29:33Z</time>
      </trkpt>
      <trkpt lat="49.08999" lon="1.78045">
        <ele>201</ele>
        <time>2024-05-05T13:29:39Z</time>
      </trkpt>
      <trkpt lat="49.08999" lon="1.78054">
        <ele>201</ele>
        <time>2024-05-05T13:29:45Z</time>
      </trkpt>
      <trkpt lat="49.09002" lon="1.7806">
        <ele>201</ele>
        <time>2024-05-05T13:29:50Z</time>
      </trkpt>
      <trkpt lat="49.09004" lon="1.78068">
        <ele>201</ele>
        <time>2024-05-05T13:29:56Z</time>
      </trkpt>
      <trkpt lat="49.09001" lon="1.78075">
        <ele>201</ele>
        <time>2024-05-05T13:30:02Z</time>
      </trkpt>
      <trkpt lat="49.09001" lon="1.78082">
        <ele>201</ele>
        <time>2024-05-05T13:30:07Z</time>
      </trkpt>
      <trkpt lat="49.08999" lon="1.78094">
        <ele>201</ele>
        <time>2024-05-05T13:30:13Z</time>
      </trkpt>
      <trkpt lat="49.09002" lon="1.78102">
        <ele>201</ele>
        <time>2024-05-05T13:30:18Z</time>
      </trkpt>
      <trkpt lat="49.09002" lon="1.78107">
        <ele>201</ele>
        <time>2024-05-05T13:30:23Z</time>
      </trkpt>
      <trkpt lat="49.09002" lon="1.78115">
        <ele>201</ele>
        <time>2024-05-05T13:30:29Z</time>
      </trkpt>
      <trkpt lat="49.09002" lon="1.78116">
        <ele>201</ele>
        <time>2024-05-05T13:30:34Z</time>
      </trkpt>
      <trkpt lat="49.09002" lon="1.78124">
        <ele>201</ele>
        <time>2024-05-05T13:30:40Z</time>
      </trkpt>
      <trkpt lat="49.09002" lon="1.7813">
        <ele>201</ele>
        <time>2024-05-05T13:30:46Z</time>
      </trkpt>
      <trkpt lat="49.09001" lon="1.78138">
        <ele>201</ele>
        <time>2024-05-05T13:30:51Z</time>
      </trkpt>
      <trkpt lat="49.09" lon="1.78148">
        <ele>201</ele>
        <time>2024-05-05T13:30:56Z</time>
      </trkpt>
      <trkpt lat="49.08999" lon="1.78154">
        <ele>201</ele>
        <time>2024-05-05T13:31:01Z</time>
      </trkpt>
      <trkpt lat="49.08998" lon="1.78155">
        <ele>201</ele>
        <time>2024-05-05T13:31:07Z</time>
      </trkpt>
      <trkpt lat="49.08997" lon="1.78163">
        <ele>201</ele>
        <time>2024-05-05T13:31:13Z</time>
      </trkpt>
      <trkpt lat="49.08996" lon="1.78174">
        <ele>201</ele>
        <time>2024-05-05T13:31:19Z</time>
      </trkpt>
      <trkpt lat="49.08999" lon="1.78182">
        <ele>201</ele>
        <time>2024-05-05T13:31:25Z</time>
      </trkpt>
      <trkpt lat="49.09001" lon="1.7819">
        <ele>201</ele>
        <time>2024-05-05T13:31:30Z</time>
      </trkpt>
      <trkpt lat="49.09002" lon="1.78199">
        <ele>201</ele>
        <time>2024-05-05T13:31:36Z</time>
      </trkpt>
      <trkpt lat="49.09003" lon="1.78205">
        <ele>201</ele>
        <time>2024-05-05T13:31:41Z</time>
      </trkpt>
      <trkpt lat="49.09007" lon="1.78215">
        <ele>201</ele>
        <time>2024-05-05T13:31:46Z</time>
      </trkpt>
      <trkpt lat="49.0901" lon="1.78226">
        <ele>200.9</ele>
        <time>2024-05-05T13:31:52Z</time>
      </trkpt>
      <trkpt lat="49.0901" lon="1.78235">
        <ele>200.5</ele>
        <time>2024-05-05T13:31:57Z</time>
      </trkpt>
      <trkpt lat="49.0901" lon="1.78242">
        <ele>200.3</ele>
        <time>2024-05-05T13:32:03Z</time>
      </trkpt>
      <trkpt lat="49.09011" lon="1.7825">
        <ele>200</ele>
        <time>2024-05-05T13:32:09Z</time>
      </trkpt>
      <trkpt lat="49.0901" lon="1.78262">
        <ele>200</ele>
        <time>2024-05-05T13:32:15Z</time>
      </trkpt>
      <trkpt lat="49.09011" lon="1.78272">
        <ele>200</ele>
        <time>2024-05-05T13:32:21Z</time>
      </trkpt>
      <trkpt lat="49.09012" lon="1.78283">
        <ele>200</ele>
        <time>2024-05-05T13:32:27Z</time>
      </trkpt>
      <trkpt lat="49.09013" lon="1.78295">
        <ele>200</ele>
        <time>2024-05-05T13:32:33Z</time>
      </trkpt>
      <trkpt lat="49.09014" lon="1.78305">
        <ele>200</ele>
        <time>2024-05-05T13:32:39Z</time>
      </trkpt>
      <trkpt lat="49.09016" lon="1.78317">
        <ele>200</ele>
        <time>2024-05-05T13:32:44Z</time>
      </trkpt>
      <trkpt lat="49.09013" lon="1.78326">
        <ele>200</ele>
        <time>2024-05-05T13:32:49Z</time>
      </trkpt>
      <trkpt lat="49.09012" lon="1.78332">
        <ele>200</ele>
        <time>2024-05-05T13:32:54Z</time>
      </trkpt>
      <trkpt lat="49.09014" lon="1.78339">
        <ele>200</ele>
        <time>2024-05-05T13:33:00Z</time>
      </trkpt>
      <trkpt lat="49.09015" lon="1.78346">
        <ele>200</ele>
        <time>2024-05-05T13:33:05Z</time>
      </trkpt>
      <trkpt lat="49.09017" lon="1.78358">
        <ele>200</ele>
        <time>2024-05-05T13:33:10Z</time>
      </trkpt>
      <trkpt lat="49.09022" lon="1.78371">
        <ele>199.9</ele>
        <time>2024-05-05T13:33:16Z</time>
      </trkpt>
      <trkpt lat="49.09024" lon="1.7838">
        <ele>199.9</ele>
        <time>2024-05-05T13:33:21Z</time>
      </trkpt>
      <trkpt lat="49.09023" lon="1.78392">
        <ele>199.8</ele>
        <time>2024-05-05T13:33:27Z</time>
      </trkpt>
      <trkpt lat="49.09024" lon="1.78403">
        <ele>199.9</ele>
        <time>2024-05-05T13:33:33Z</time>
      </trkpt>
      <trkpt lat="49.09024" lon="1.78413">
        <ele>199.9</ele>
        <time>2024-05-05T13:33:38Z</time>
      </trkpt>
      <trkpt lat="49.09025" lon="1.78425">
        <ele>199.6</ele>
        <time>2024-05-05T13:33:44Z</time>
      </trkpt>
      <trkpt lat="49.09024" lon="1.78434">
        <ele>199.3</ele>
        <time>2024-05-05T13:33:50Z</time>
      </trkpt>
      <trkpt lat="49.09025" lon="1.78446">
        <ele>199</ele>
        <time>2024-05-05T13:33:55Z</time>
      </trkpt>
      <trkpt lat="49.09027" lon="1.78455">
        <ele>199</ele>
        <time>2024-05-05T13:34:01Z</time>
      </trkpt>
      <trkpt lat="49.09027" lon="1.78467">
        <ele>199</ele>
        <time>2024-05-05T13:34:06Z</time>
      </trkpt>
      <trkpt lat="49.0903" lon="1.78479">
        <ele>199.2</ele>
        <time>2024-05-05T13:34:12Z</time>
      </trkpt>
      <trkpt lat="49.09029" lon="1.78487">
        <ele>199.5</ele>
        <time>2024-05-05T13:34:17Z</time>
      </trkpt>
      <trkpt lat="49.09026" lon="1.78498">
        <ele>199.8</ele>
        <time>2024-05-05T13:34:23Z</time>
      </trkpt>
      <trkpt lat="49.09022" lon="1.78508">
        <ele>199.8</ele>
        <time>2024-05-05T13:34:28Z</time>
      </trkpt>
      <trkpt lat="49.09023" lon="1.78519">
        <ele>199.8</ele>
        <time>2024-05-05T13:34:34Z</time>
      </trkpt>
      <trkpt lat="49.09024" lon="1.78528">
        <ele>199.9</ele>
        <time>2024-05-05T13:34:40Z</time>
      </trkpt>
      <trkpt lat="49.09024" lon="1.78537">
        <ele>199.9</ele>
        <time>2024-05-05T13:34:46Z</time>
      </trkpt>
      <trkpt lat="49.09026" lon="1.78548">
        <ele>199.9</ele>
        <time>2024-05-05T13:34:52Z</time>
      </trkpt>
      <trkpt lat="49.09025" lon="1.78558">
        <ele>199.9</ele>
        <time>2024-05-05T13:34:57Z</time>
      </trkpt>
      <trkpt lat="49.09023" lon="1.78566">
        <ele>199.8</ele>
        <time>2024-05-05T13:35:02Z</time>
      </trkpt>
      <trkpt lat="49.09022" lon="1.78581">
        <ele>199.8</ele>
        <time>2024-05-05T13:35:08Z</time>
      </trkpt>
      <trkpt lat="49.09023" lon="1.7859">
        <ele>199.8</ele>
        <time>2024-05-05T13:35:14Z</time>
      </trkpt>
      <trkpt lat="49.09026" lon="1.78601">
        <ele>199.9</ele>
        <time>2024-05-05T13:35:20Z</time>
      </trkpt>
      <trkpt lat="49.09028" lon="1.78609">
        <ele>200</ele>
        <time>2024-05-05T13:35:25Z</time>
      </trkpt>
      <trkpt lat="49.09032" lon="1.78622">
        <ele>200.2</ele>
        <time>2024-05-05T13:35:31Z</time>
      </trkpt>
      <trkpt lat="49.09035" lon="1.78631">
        <ele>200.3</ele>
        <time>2024-05-05T13:35:37Z</time>
      </trkpt>
      <trkpt lat="49.09036" lon="1.78639">
        <ele>200.3</ele>
        <time>2024-05-05T13:35:42Z</time>
      </trkpt>
      <trkpt lat="49.09038" lon="1.78651">
        <ele>200.4</ele>
        <time>2024-05-05T13:35:48Z</time>
      </trkpt>
      <trkpt lat="49.0904" lon="1.78662">
        <ele>200.4</ele>
        <time>2024-05-05T13:35:53Z</time>
      </trkpt>
      <trkpt lat="49.09041" lon="1.78669">
        <ele>200.5</ele>
        <time>2024-05-05T13:35:59Z</time>
      </trkpt>
      <trkpt lat="49.09041" lon="1.78682">
        <ele>200.5</ele>
        <time>2024-05-05T13:36:05Z</time>
      </trkpt>
      <trkpt lat="49.09042" lon="1.78692">
        <ele>200.5</ele>
        <time>2024-05-05T13:36:10Z</time>
      </trkpt>
      <trkpt lat="49.09044" lon="1.78703">
        <ele>200.6</ele>
        <time>2024-05-05T13:36:16Z</time>
      </trkpt>
      <trkpt lat="49.09042" lon="1.78714">
        <ele>200.5</ele>
        <time>2024-05-05T13:36:22Z</time>
      </trkpt>
      <trkpt lat="49.09043" lon="1.78725">
        <ele>200.5</ele>
        <time>2024-05-05T13:36:27Z</time>
      </trkpt>
      <trkpt lat="49.09042" lon="1.78737">
        <ele>200.5</ele>
        <time>2024-05-05T13:36:33Z</time>
      </trkpt>
      <trkpt lat="49.09043" lon="1.78747">
        <ele>200.5</ele>
        <time>2024-05-05T13:36:38Z</time>
      </trkpt>
      <trkpt lat="49.09043" lon="1.78759">
        <ele>200.4</ele>
        <time>2024-05-05T13:36:44Z</time>
      </trkpt>
      <trkpt lat="49.09041" lon="1.78768">
        <ele>200.1</ele>
        <time>2024-05-05T13:36:49Z</time>
      </trkpt>
      <trkpt lat="49.09044" lon="1.78781">
        <ele>200.1</ele>
        <time>2024-05-05T13:36:55Z</time>
      </trkpt>
      <trkpt lat="49.09047" lon="1.78792">
        <ele>199.9</ele>
        <time>2024-05-05T13:37:01Z</time>
      </trkpt>
      <trkpt lat="49.09049" lon="1.78803">
        <ele>199.6</ele>
        <time>2024-05-05T13:37:06Z</time>
      </trkpt>
      <trkpt lat="49.09052" lon="1.78813">
        <ele>199.7</ele>
        <time>2024-05-05T13:37:12Z</time>
      </trkpt>
      <trkpt lat="49.09055" lon="1.78822">
        <ele>199.9</ele>
        <time>2024-05-05T13:37:18Z</time>
      </trkpt>
      <trkpt lat="49.09055" lon="1.78837">
        <ele>199.8</ele>
        <time>2024-05-05T13:37:24Z</time>
      </trkpt>
      <trkpt lat="49.09053" lon="1.78843">
        <ele>199.4</ele>
        <time>2024-05-05T13:37:29Z</time>
      </trkpt>
      <trkpt lat="49.09055" lon="1.78855">
        <ele>199.2</ele>
        <time>2024-05-05T13:37:35Z</time>
      </trkpt>
      <trkpt lat="49.09056" lon="1.78868">
        <ele>198.8</ele>
        <time>2024-05-05T13:37:40Z</time>
      </trkpt>
      <trkpt lat="49.09057" lon="1.78879">
        <ele>198.4</ele>
        <time>2024-05-05T13:37:46Z</time>
      </trkpt>
      <trkpt lat="49.09059" lon="1.7889">
        <ele>198.3</ele>
        <time>2024-05-05T13:37:52Z</time>
      </trkpt>
      <trkpt lat="49.0906" lon="1.78904">
        <ele>198.3</ele>
        <time>2024-05-05T13:37:57Z</time>
      </trkpt>
      <trkpt lat="49.09061" lon="1.78913">
        <ele>198.4</ele>
        <time>2024-05-05T13:38:03Z</time>
      </trkpt>
      <trkpt lat="49.09062" lon="1.78921">
        <ele>198.5</ele>
        <time>2024-05-05T13:38:08Z</time>
      </trkpt>
      <trkpt lat="49.09065" lon="1.78929">
        <ele>198.5</ele>
        <time>2024-05-05T13:38:13Z</time>
      </trkpt>
      <trkpt lat="49.09067" lon="1.78938">
        <ele>198.5</ele>
        <time>2024-05-05T13:38:18Z</time>
      </trkpt>
      <trkpt lat="49.09068" lon="1.78951">
        <ele>198.4</ele>
        <time>2024-05-05T13:38:24Z</time>
      </trkpt>
      <trkpt lat="49.09068" lon="1.78963">
        <ele>198.5</ele>
        <time>2024-05-05T13:38:29Z</time>
      </trkpt>
      <trkpt lat="49.09068" lon="1.78979">
        <ele>198.3</ele>
        <time>2024-05-05T13:38:35Z</time>
      </trkpt>
      <trkpt lat="49.09071" lon="1.78987">
        <ele>198.3</ele>
        <time>2024-05-05T13:38:40Z</time>
      </trkpt>
      <trkpt lat="49.09073" lon="1.78998">
        <ele>198.3</ele>
        <time>2024-05-05T13:38:46Z</time>
      </trkpt>
      <trkpt lat="49.09075" lon="1.79007">
        <ele>198.3</ele>
        <time>2024-05-05T13:38:51Z</time>
      </trkpt>
      <trkpt lat="49.09078" lon="1.79016">
        <ele>198.2</ele>
        <time>2024-05-05T13:38:57Z</time>
      </trkpt>
      <trkpt lat="49.09081" lon="1.79027">
        <ele>197.9</ele>
        <time>2024-05-05T13:39:02Z</time>
      </trkpt>
      <trkpt lat="49.0908" lon="1.79034">
        <ele>197.6</ele>
        <time>2024-05-05T13:39:07Z</time>
      </trkpt>
      <trkpt lat="49.0908" lon="1.79047">
        <ele>197.2</ele>
        <time>2024-05-05T13:39:13Z</time>
      </trkpt>
      <trkpt lat="49.09081" lon="1.79058">
        <ele>196.9</ele>
        <time>2024-05-05T13:39:18Z</time>
      </trkpt>
      <trkpt lat="49.09082" lon="1.79068">
        <ele>196.9</ele>
        <time>2024-05-05T13:39:23Z</time>
      </trkpt>
      <trkpt lat="49.09082" lon="1.79075">
        <ele>196.9</ele>
        <time>2024-05-05T13:39:28Z</time>
      </trkpt>
      <trkpt lat="49.09085" lon="1.79086">
        <ele>197</ele>
        <time>2024-05-05T13:39:34Z</time>
      </trkpt>
      <trkpt lat="49.09085" lon="1.79097">
        <ele>196.5</ele>
        <time>2024-05-05T13:39:40Z</time>
      </trkpt>
      <trkpt lat="49.09086" lon="1.79107">
        <ele>196.2</ele>
        <time>2024-05-05T13:39:46Z</time>
      </trkpt>
      <trkpt lat="49.09086" lon="1.7912">
        <ele>195.8</ele>
        <time>2024-05-05T13:39:52Z</time>
      </trkpt>
      <trkpt lat="49.09088" lon="1.79129">
        <ele>195.6</ele>
        <time>2024-05-05T13:39:57Z</time>
      </trkpt>
      <trkpt lat="49.09089" lon="1.7914">
        <ele>195.4</ele>
        <time>2024-05-05T13:40:03Z</time>
      </trkpt>
      <trkpt lat="49.0909" lon="1.79151">
        <ele>195.1</ele>
        <time>2024-05-05T13:40:08Z</time>
      </trkpt>
      <trkpt lat="49.09092" lon="1.7916">
        <ele>194.9</ele>
        <time>2024-05-05T13:40:13Z</time>
      </trkpt>
      <trkpt lat="49.09096" lon="1.79167">
        <ele>194.9</ele>
        <time>2024-05-05T13:40:19Z</time>
      </trkpt>
      <trkpt lat="49.09102" lon="1.79177">
        <ele>195</ele>
        <time>2024-05-05T13:40:25Z</time>
      </trkpt>
      <trkpt lat="49.09107" lon="1.79187">
        <ele>195</ele>
        <time>2024-05-05T13:40:30Z</time>
      </trkpt>
      <trkpt lat="49.09111" lon="1.79197">
        <ele>194.8</ele>
        <time>2024-05-05T13:40:35Z</time>
      </trkpt>
      <trkpt lat="49.09115" lon="1.79207">
        <ele>194.1</ele>
        <time>2024-05-05T13:40:41Z</time>
      </trkpt>
      <trkpt lat="49.09118" lon="1.79214">
        <ele>193.6</ele>
        <time>2024-05-05T13:40:46Z</time>
      </trkpt>
      <trkpt lat="49.09122" lon="1.79221">
        <ele>193.1</ele>
        <time>2024-05-05T13:40:52Z</time>
      </trkpt>
      <trkpt lat="49.09127" lon="1.79229">
        <ele>192.5</ele>
        <time>2024-05-05T13:40:57Z</time>
      </trkpt>
      <trkpt lat="49.09134" lon="1.79235">
        <ele>192.1</ele>
        <time>2024-05-05T13:41:03Z</time>
      </trkpt>
      <trkpt lat="49.09137" lon="1.79241">
        <ele>191.6</ele>
        <time>2024-05-05T13:41:08Z</time>
      </trkpt>
      <trkpt lat="49.09141" lon="1.79249">
        <ele>191.1</ele>
        <time>2024-05-05T13:41:14Z</time>
      </trkpt>
      <trkpt lat="49.09149" lon="1.79255">
        <ele>190.6</ele>
        <time>2024-05-05T13:41:19Z</time>
      </trkpt>
      <trkpt lat="49.09156" lon="1.79254">
        <ele>190.7</ele>
        <time>2024-05-05T13:41:25Z</time>
      </trkpt>
      <trkpt lat="49.09162" lon="1.79259">
        <ele>190.1</ele>
        <time>2024-05-05T13:41:31Z</time>
      </trkpt>
      <trkpt lat="49.09168" lon="1.79263">
        <ele>189.6</ele>
        <time>2024-05-05T13:41:37Z</time>
      </trkpt>
      <trkpt lat="49.09175" lon="1.79267">
        <ele>189.1</ele>
        <time>2024-05-05T13:41:43Z</time>
      </trkpt>
      <trkpt lat="49.09185" lon="1.79273">
        <ele>188.4</ele>
        <time>2024-05-05T13:41:49Z</time>
      </trkpt>
      <trkpt lat="49.09194" lon="1.79277">
        <ele>188.1</ele>
        <time>2024-05-05T13:41:54Z</time>
      </trkpt>
      <trkpt lat="49.09201" lon="1.79277">
        <ele>187.6</ele>
        <time>2024-05-05T13:42:00Z</time>
      </trkpt>
      <trkpt lat="49.09208" lon="1.79276">
        <ele>187.2</ele>
        <time>2024-05-05T13:42:05Z</time>
      </trkpt>
      <trkpt lat="49.09212" lon="1.79283">
        <ele>186.3</ele>
        <time>2024-05-05T13:42:11Z</time>
      </trkpt>
      <trkpt lat="49.09218" lon="1.7928">
        <ele>186.1</ele>
        <time>2024-05-05T13:42:17Z</time>
      </trkpt>
      <trkpt lat="49.09225" lon="1.79277">
        <ele>185.7</ele>
        <time>2024-05-05T13:42:22Z</time>
      </trkpt>
      <trkpt lat="49.0923" lon="1.79272">
        <ele>185.6</ele>
        <time>2024-05-05T13:42:27Z</time>
      </trkpt>
      <trkpt lat="49.09234" lon="1.79266">
        <ele>185.7</ele>
        <time>2024-05-05T13:42:33Z</time>
      </trkpt>
      <trkpt lat="49.09239" lon="1.79263">
        <ele>185.5</ele>
        <time>2024-05-05T13:42:38Z</time>
      </trkpt>
      <trkpt lat="49.09243" lon="1.79258">
        <ele>185.7</ele>
        <time>2024-05-05T13:42:43Z</time>
      </trkpt>
      <trkpt lat="49.09249" lon="1.79253">
        <ele>185.7</ele>
        <time>2024-05-05T13:42:48Z</time>
      </trkpt>
      <trkpt lat="49.09256" lon="1.79246">
        <ele>185.5</ele>
        <time>2024-05-05T13:42:54Z</time>
      </trkpt>
      <trkpt lat="49.09263" lon="1.7924">
        <ele>185.2</ele>
        <time>2024-05-05T13:43:00Z</time>
      </trkpt>
      <trkpt lat="49.09269" lon="1.79235">
        <ele>184.9</ele>
        <time>2024-05-05T13:43:05Z</time>
      </trkpt>
      <trkpt lat="49.09271" lon="1.79225">
        <ele>185.6</ele>
        <time>2024-05-05T13:43:11Z</time>
      </trkpt>
      <trkpt lat="49.09274" lon="1.79217">
        <ele>185.9</ele>
        <time>2024-05-05T13:43:16Z</time>
      </trkpt>
      <trkpt lat="49.09277" lon="1.79205">
        <ele>186.4</ele>
        <time>2024-05-05T13:43:22Z</time>
      </trkpt>
      <trkpt lat="49.09278" lon="1.79197">
        <ele>186.7</ele>
        <time>2024-05-05T13:43:28Z</time>
      </trkpt>
      <trkpt lat="49.09279" lon="1.79188">
        <ele>187</ele>
        <time>2024-05-05T13:43:34Z</time>
      </trkpt>
      <trkpt lat="49.09279" lon="1.79181">
        <ele>187.1</ele>
        <time>2024-05-05T13:43:39Z</time>
      </trkpt>
      <trkpt lat="49.09281" lon="1.79173">
        <ele>187.1</ele>
        <time>2024-05-05T13:43:44Z</time>
      </trkpt>
      <trkpt lat="49.09282" lon="1.79163">
        <ele>186.9</ele>
        <time>2024-05-05T13:43:49Z</time>
      </trkpt>
      <trkpt lat="49.09284" lon="1.79157">
        <ele>186.6</ele>
        <time>2024-05-05T13:43:54Z</time>
      </trkpt>
      <trkpt lat="49.09285" lon="1.79149">
        <ele>186.4</ele>
        <time>2024-05-05T13:44:00Z</time>
      </trkpt>
      <trkpt lat="49.09288" lon="1.79143">
        <ele>185.7</ele>
        <time>2024-05-05T13:44:05Z</time>
      </trkpt>
      <trkpt lat="49.09289" lon="1.79141">
        <ele>185.5</ele>
        <time>2024-05-05T13:44:11Z</time>
      </trkpt>
      <trkpt lat="49.09289" lon="1.79142">
        <ele>185.4</ele>
        <time>2024-05-05T13:44:17Z</time>
      </trkpt>
      <trkpt lat="49.09289" lon="1.79143">
        <ele>185.6</ele>
        <time>2024-05-05T13:44:22Z</time>
      </trkpt>
      <trkpt lat="49.09288" lon="1.79144">
        <ele>185.7</ele>
        <time>2024-05-05T13:44:28Z</time>
      </trkpt>
      <trkpt lat="49.09287" lon="1.79144">
        <ele>185.9</ele>
        <time>2024-05-05T13:44:34Z</time>
      </trkpt>
      <trkpt lat="49.09287" lon="1.79144">
        <ele>185.8</ele>
        <time>2024-05-05T13:44:40Z</time>
      </trkpt>
      <trkpt lat="49.09288" lon="1.79144">
        <ele>185.7</ele>
        <time>2024-05-05T13:44:46Z</time>
      </trkpt>
      <trkpt lat="49.09288" lon="1.79145">
        <ele>185.6</ele>
        <time>2024-05-05T13:44:52Z</time>
      </trkpt>
      <trkpt lat="49.09289" lon="1.79143">
        <ele>185.5</ele>
        <time>2024-05-05T13:44:58Z</time>
      </trkpt>
      <trkpt lat="49.09291" lon="1.79142">
        <ele>185</ele>
        <time>2024-05-05T13:45:03Z</time>
      </trkpt>
      <trkpt lat="49.09291" lon="1.79142">
        <ele>185</ele>
        <time>2024-05-05T13:45:09Z</time>
      </trkpt>
      <trkpt lat="49.09291" lon="1.79142">
        <ele>185.1</ele>
        <time>2024-05-05T13:45:14Z</time>
      </trkpt>
      <trkpt lat="49.0929" lon="1.79136">
        <ele>185.3</ele>
        <time>2024-05-05T13:45:20Z</time>
      </trkpt>
      <trkpt lat="49.09291" lon="1.79135">
        <ele>185.1</ele>
        <time>2024-05-05T13:45:26Z</time>
      </trkpt>
      <trkpt lat="49.09294" lon="1.7913">
        <ele>184.6</ele>
        <time>2024-05-05T13:45:32Z</time>
      </trkpt>
      <trkpt lat="49.09297" lon="1.79121">
        <ele>184.2</ele>
        <time>2024-05-05T13:45:37Z</time>
      </trkpt>
      <trkpt lat="49.09301" lon="1.79118">
        <ele>183.1</ele>
        <time>2024-05-05T13:45:42Z</time>
      </trkpt>
      <trkpt lat="49.09303" lon="1.7911">
        <ele>182.7</ele>
        <time>2024-05-05T13:45:47Z</time>
      </trkpt>
      <trkpt lat="49.09303" lon="1.79097">
        <ele>183</ele>
        <time>2024-05-05T13:45:53Z</time>
      </trkpt>
      <trkpt lat="49.09308" lon="1.79087">
        <ele>182.4</ele>
        <time>2024-05-05T13:45:59Z</time>
      </trkpt>
      <trkpt lat="49.09305" lon="1.7908">
        <ele>183.1</ele>
        <time>2024-05-05T13:46:04Z</time>
      </trkpt>
      <trkpt lat="49.09306" lon="1.7907">
        <ele>183.4</ele>
        <time>2024-05-05T13:46:10Z</time>
      </trkpt>
      <trkpt lat="49.09305" lon="1.79061">
        <ele>183.9</ele>
        <time>2024-05-05T13:46:16Z</time>
      </trkpt>
      <trkpt lat="49.09305" lon="1.7905">
        <ele>184</ele>
        <time>2024-05-05T13:46:21Z</time>
      </trkpt>
      <trkpt lat="49.09304" lon="1.79042">
        <ele>184.3</ele>
        <time>2024-05-05T13:46:26Z</time>
      </trkpt>
      <trkpt lat="49.09305" lon="1.79037">
        <ele>184.1</ele>
        <time>2024-05-05T13:46:31Z</time>
      </trkpt>
      <trkpt lat="49.09306" lon="1.79026">
        <ele>183.8</ele>
        <time>2024-05-05T13:46:37Z</time>
      </trkpt>
      <trkpt lat="49.09308" lon="1.79018">
        <ele>183.5</ele>
        <time>2024-05-05T13:46:43Z</time>
      </trkpt>
      <trkpt lat="49.0931" lon="1.7901">
        <ele>183</ele>
        <time>2024-05-05T13:46:49Z</time>
      </trkpt>
      <trkpt lat="49.09313" lon="1.79006">
        <ele>182.4</ele>
        <time>2024-05-05T13:46:54Z</time>
      </trkpt>
      <trkpt lat="49.09313" lon="1.78996">
        <ele>182.3</ele>
        <time>2024-05-05T13:47:00Z</time>
      </trkpt>
      <trkpt lat="49.09314" lon="1.7899">
        <ele>182.1</ele>
        <time>2024-05-05T13:47:05Z</time>
      </trkpt>
      <trkpt lat="49.09316" lon="1.78981">
        <ele>181.8</ele>
        <time>2024-05-05T13:47:11Z</time>
      </trkpt>
      <trkpt lat="49.09319" lon="1.78978">
        <ele>181.2</ele>
        <time>2024-05-05T13:47:16Z</time>
      </trkpt>
      <trkpt lat="49.09326" lon="1.78972">
        <ele>179.6</ele>
        <time>2024-05-05T13:47:22Z</time>
      </trkpt>
      <trkpt lat="49.09333" lon="1.78968">
        <ele>178</ele>
        <time>2024-05-05T13:47:28Z</time>
      </trkpt>
      <trkpt lat="49.09344" lon="1.78966">
        <ele>176.1</ele>
        <time>2024-05-05T13:47:34Z</time>
      </trkpt>
      <trkpt lat="49.09349" lon="1.78967">
        <ele>175.3</ele>
        <time>2024-05-05T13:47:39Z</time>
      </trkpt>
      <trkpt lat="49.09354" lon="1.78966">
        <ele>174.5</ele>
        <time>2024-05-05T13:47:44Z</time>
      </trkpt>
      <trkpt lat="49.09359" lon="1.78966">
        <ele>173.5</ele>
        <time>2024-05-05T13:47:50Z</time>
      </trkpt>
      <trkpt lat="49.09361" lon="1.78968">
        <ele>173.2</ele>
        <time>2024-05-05T13:47:55Z</time>
      </trkpt>
      <trkpt lat="49.09365" lon="1.7897">
        <ele>172.8</ele>
        <time>2024-05-05T13:48:00Z</time>
      </trkpt>
      <trkpt lat="49.09371" lon="1.78972">
        <ele>172.3</ele>
        <time>2024-05-05T13:48:06Z</time>
      </trkpt>
      <trkpt lat="49.09378" lon="1.78977">
        <ele>171.9</ele>
        <time>2024-05-05T13:48:12Z</time>
      </trkpt>
      <trkpt lat="49.09387" lon="1.78978">
        <ele>171.2</ele>
        <time>2024-05-05T13:48:18Z</time>
      </trkpt>
      <trkpt lat="49.09394" lon="1.78979">
        <ele>170.8</ele>
        <time>2024-05-05T13:48:24Z</time>
      </trkpt>
      <trkpt lat="49.09401" lon="1.78978">
        <ele>170.5</ele>
        <time>2024-05-05T13:48:30Z</time>
      </trkpt>
      <trkpt lat="49.09404" lon="1.78972">
        <ele>170.4</ele>
        <time>2024-05-05T13:48:35Z</time>
      </trkpt>
      <trkpt lat="49.09407" lon="1.78964">
        <ele>170.8</ele>
        <time>2024-05-05T13:48:41Z</time>
      </trkpt>
    </trkseg>
  </trk>
</gpx>